<?xml version="1.0" encoding="UTF-8" standalone="no" ?>
<gpx xmlns="http://www.topografix.com/GPX/1/1" xmlns:xsi="http://www.w3.org/2001/XMLSchema-instance" xsi:schemaLocation="http://www.topografix.com/GPX/1/1 http://www.topografix.com/GPX/1/1/gpx.xsd" version="1.1" creator="VisuGPX - https://www.visugpx.com">
  <metadata>
    <name>XMB CLANS 2014 </name>
    <desc><![CDATA[XMB Clans 2014.
Enjoy]]></desc>
  </metadata>
  <trk>
    <name><![CDATA[XMB de Clans]]></name>
    <trkseg>
      <trkpt lat="44.00918" lon="7.1937">
        <ele>1009.200012207</ele>
        <time>2014-05-04T07:58:34.000Z</time>
      </trkpt>
      <trkpt lat="44.00917" lon="7.1937">
        <ele>1009.799987793</ele>
        <time>2014-05-04T07:58:47.000Z</time>
      </trkpt>
      <trkpt lat="44.0092" lon="7.19367">
        <ele>1007.200012207</ele>
        <time>2014-05-04T07:59:20.000Z</time>
      </trkpt>
      <trkpt lat="44.00921" lon="7.1937">
        <ele>1007.799987793</ele>
        <time>2014-05-04T07:59:58.000Z</time>
      </trkpt>
      <trkpt lat="44.00923" lon="7.19378">
        <ele>1009.5999755859</ele>
        <time>2014-05-04T08:00:00.000Z</time>
      </trkpt>
      <trkpt lat="44.00937" lon="7.19393">
        <ele>1007.799987793</ele>
        <time>2014-05-04T08:00:04.000Z</time>
      </trkpt>
      <trkpt lat="44.00954" lon="7.19415">
        <ele>1007.200012207</ele>
        <time>2014-05-04T08:00:08.000Z</time>
      </trkpt>
      <trkpt lat="44.00963" lon="7.19426">
        <ele>1007.4000244141</ele>
        <time>2014-05-04T08:00:10.000Z</time>
      </trkpt>
      <trkpt lat="44.00976" lon="7.19433">
        <ele>1003.5999755859</ele>
        <time>2014-05-04T08:00:12.000Z</time>
      </trkpt>
      <trkpt lat="44.00988" lon="7.19441">
        <ele>1000.5999755859</ele>
        <time>2014-05-04T08:00:14.000Z</time>
      </trkpt>
      <trkpt lat="44.00999" lon="7.19456">
        <ele>1001.5999755859</ele>
        <time>2014-05-04T08:00:16.000Z</time>
      </trkpt>
      <trkpt lat="44.01009" lon="7.19489">
        <ele>1011</ele>
        <time>2014-05-04T08:00:20.000Z</time>
      </trkpt>
      <trkpt lat="44.01022" lon="7.19514">
        <ele>1016.5999755859</ele>
        <time>2014-05-04T08:00:24.000Z</time>
      </trkpt>
      <trkpt lat="44.01037" lon="7.19535">
        <ele>1016</ele>
        <time>2014-05-04T08:00:28.000Z</time>
      </trkpt>
      <trkpt lat="44.01041" lon="7.19549">
        <ele>1018.799987793</ele>
        <time>2014-05-04T08:00:30.000Z</time>
      </trkpt>
      <trkpt lat="44.01045" lon="7.19571">
        <ele>1026.1999511719</ele>
        <time>2014-05-04T08:00:33.000Z</time>
      </trkpt>
      <trkpt lat="44.01054" lon="7.19579">
        <ele>1022.5999755859</ele>
        <time>2014-05-04T08:00:36.000Z</time>
      </trkpt>
      <trkpt lat="44.01069" lon="7.19597">
        <ele>1016.5999755859</ele>
        <time>2014-05-04T08:00:40.000Z</time>
      </trkpt>
      <trkpt lat="44.01076" lon="7.19624">
        <ele>1020.5999755859</ele>
        <time>2014-05-04T08:00:44.000Z</time>
      </trkpt>
      <trkpt lat="44.01076" lon="7.19632">
        <ele>1023</ele>
        <time>2014-05-04T08:00:45.000Z</time>
      </trkpt>
      <trkpt lat="44.01076" lon="7.19655">
        <ele>1032.5999755859</ele>
        <time>2014-05-04T08:00:48.000Z</time>
      </trkpt>
      <trkpt lat="44.01074" lon="7.19659">
        <ele>1035.5999755859</ele>
        <time>2014-05-04T08:00:49.000Z</time>
      </trkpt>
      <trkpt lat="44.01075" lon="7.19664">
        <ele>1035.8000488281</ele>
        <time>2014-05-04T08:00:51.000Z</time>
      </trkpt>
      <trkpt lat="44.01084" lon="7.19669">
        <ele>1029.4000244141</ele>
        <time>2014-05-04T08:00:53.000Z</time>
      </trkpt>
      <trkpt lat="44.01094" lon="7.19689">
        <ele>1024</ele>
        <time>2014-05-04T08:00:56.000Z</time>
      </trkpt>
      <trkpt lat="44.01097" lon="7.1971">
        <ele>1025.1999511719</ele>
        <time>2014-05-04T08:00:59.000Z</time>
      </trkpt>
      <trkpt lat="44.011" lon="7.19715">
        <ele>1023.5999755859</ele>
        <time>2014-05-04T08:01:00.000Z</time>
      </trkpt>
      <trkpt lat="44.01103" lon="7.19727">
        <ele>1023</ele>
        <time>2014-05-04T08:01:02.000Z</time>
      </trkpt>
      <trkpt lat="44.01104" lon="7.19734">
        <ele>1023.4000244141</ele>
        <time>2014-05-04T08:01:03.000Z</time>
      </trkpt>
      <trkpt lat="44.011" lon="7.19753">
        <ele>1028.1999511719</ele>
        <time>2014-05-04T08:01:07.000Z</time>
      </trkpt>
      <trkpt lat="44.01098" lon="7.19767">
        <ele>1029</ele>
        <time>2014-05-04T08:01:10.000Z</time>
      </trkpt>
      <trkpt lat="44.01097" lon="7.19782">
        <ele>1029.5999755859</ele>
        <time>2014-05-04T08:01:13.000Z</time>
      </trkpt>
      <trkpt lat="44.01096" lon="7.19801">
        <ele>1029.1999511719</ele>
        <time>2014-05-04T08:01:18.000Z</time>
      </trkpt>
      <trkpt lat="44.01089" lon="7.19823">
        <ele>1033</ele>
        <time>2014-05-04T08:01:24.000Z</time>
      </trkpt>
      <trkpt lat="44.0108" lon="7.19838">
        <ele>1039.5999755859</ele>
        <time>2014-05-04T08:01:29.000Z</time>
      </trkpt>
      <trkpt lat="44.0107" lon="7.19858">
        <ele>1048.8000488281</ele>
        <time>2014-05-04T08:01:35.000Z</time>
      </trkpt>
      <trkpt lat="44.01067" lon="7.19882">
        <ele>1049.1999511719</ele>
        <time>2014-05-04T08:01:40.000Z</time>
      </trkpt>
      <trkpt lat="44.01077" lon="7.1991">
        <ele>1037.5999755859</ele>
        <time>2014-05-04T08:01:44.000Z</time>
      </trkpt>
      <trkpt lat="44.0108" lon="7.19918">
        <ele>1039.1999511719</ele>
        <time>2014-05-04T08:01:46.000Z</time>
      </trkpt>
      <trkpt lat="44.01077" lon="7.19924">
        <ele>1044.1999511719</ele>
        <time>2014-05-04T08:01:48.000Z</time>
      </trkpt>
      <trkpt lat="44.01072" lon="7.19931">
        <ele>1049.8000488281</ele>
        <time>2014-05-04T08:01:50.000Z</time>
      </trkpt>
      <trkpt lat="44.0107" lon="7.19933">
        <ele>1052.4000244141</ele>
        <time>2014-05-04T08:01:51.000Z</time>
      </trkpt>
      <trkpt lat="44.01067" lon="7.1994">
        <ele>1057.4000244141</ele>
        <time>2014-05-04T08:01:53.000Z</time>
      </trkpt>
      <trkpt lat="44.01062" lon="7.19947">
        <ele>1063.8000488281</ele>
        <time>2014-05-04T08:01:55.000Z</time>
      </trkpt>
      <trkpt lat="44.01058" lon="7.19962">
        <ele>1064.4000244141</ele>
        <time>2014-05-04T08:01:59.000Z</time>
      </trkpt>
      <trkpt lat="44.01047" lon="7.19981">
        <ele>1064</ele>
        <time>2014-05-04T08:02:03.000Z</time>
      </trkpt>
      <trkpt lat="44.01037" lon="7.19981">
        <ele>1064.1999511719</ele>
        <time>2014-05-04T08:02:07.000Z</time>
      </trkpt>
      <trkpt lat="44.0104" lon="7.19967">
        <ele>1064.4000244141</ele>
        <time>2014-05-04T08:02:10.000Z</time>
      </trkpt>
      <trkpt lat="44.01047" lon="7.1995">
        <ele>1064.8000488281</ele>
        <time>2014-05-04T08:02:14.000Z</time>
      </trkpt>
      <trkpt lat="44.01062" lon="7.19941">
        <ele>1061.1999511719</ele>
        <time>2014-05-04T08:02:18.000Z</time>
      </trkpt>
      <trkpt lat="44.01073" lon="7.19933">
        <ele>1050.4000244141</ele>
        <time>2014-05-04T08:02:22.000Z</time>
      </trkpt>
      <trkpt lat="44.01083" lon="7.19922">
        <ele>1039.1999511719</ele>
        <time>2014-05-04T08:02:27.000Z</time>
      </trkpt>
      <trkpt lat="44.01096" lon="7.19916">
        <ele>1029.1999511719</ele>
        <time>2014-05-04T08:02:32.000Z</time>
      </trkpt>
      <trkpt lat="44.01108" lon="7.19908">
        <ele>1020.4000244141</ele>
        <time>2014-05-04T08:02:37.000Z</time>
      </trkpt>
      <trkpt lat="44.01123" lon="7.19899">
        <ele>1028.1999511719</ele>
        <time>2014-05-04T08:02:43.000Z</time>
      </trkpt>
      <trkpt lat="44.01133" lon="7.19894">
        <ele>1033.5999755859</ele>
        <time>2014-05-04T08:02:48.000Z</time>
      </trkpt>
      <trkpt lat="44.01144" lon="7.19885">
        <ele>1039.8000488281</ele>
        <time>2014-05-04T08:02:53.000Z</time>
      </trkpt>
      <trkpt lat="44.0116" lon="7.19859">
        <ele>1038.4000244141</ele>
        <time>2014-05-04T08:03:00.000Z</time>
      </trkpt>
      <trkpt lat="44.01173" lon="7.1983">
        <ele>1025.1999511719</ele>
        <time>2014-05-04T08:03:04.000Z</time>
      </trkpt>
      <trkpt lat="44.01177" lon="7.19825">
        <ele>1025.1999511719</ele>
        <time>2014-05-04T08:03:05.000Z</time>
      </trkpt>
      <trkpt lat="44.01186" lon="7.19818">
        <ele>1024.8000488281</ele>
        <time>2014-05-04T08:03:08.000Z</time>
      </trkpt>
      <trkpt lat="44.01193" lon="7.19819">
        <ele>1023.5999755859</ele>
        <time>2014-05-04T08:03:10.000Z</time>
      </trkpt>
      <trkpt lat="44.01197" lon="7.19821">
        <ele>1025.1999511719</ele>
        <time>2014-05-04T08:03:11.000Z</time>
      </trkpt>
      <trkpt lat="44.01217" lon="7.19827">
        <ele>1032.5999755859</ele>
        <time>2014-05-04T08:03:17.000Z</time>
      </trkpt>
      <trkpt lat="44.01238" lon="7.19835">
        <ele>1042</ele>
        <time>2014-05-04T08:03:23.000Z</time>
      </trkpt>
      <trkpt lat="44.01256" lon="7.19835">
        <ele>1046.5999755859</ele>
        <time>2014-05-04T08:03:28.000Z</time>
      </trkpt>
      <trkpt lat="44.01273" lon="7.19833">
        <ele>1049</ele>
        <time>2014-05-04T08:03:33.000Z</time>
      </trkpt>
      <trkpt lat="44.01291" lon="7.19836">
        <ele>1047.4000244141</ele>
        <time>2014-05-04T08:03:39.000Z</time>
      </trkpt>
      <trkpt lat="44.01304" lon="7.19844">
        <ele>1049</ele>
        <time>2014-05-04T08:03:44.000Z</time>
      </trkpt>
      <trkpt lat="44.01311" lon="7.19853">
        <ele>1052</ele>
        <time>2014-05-04T08:03:47.000Z</time>
      </trkpt>
      <trkpt lat="44.01316" lon="7.19861">
        <ele>1055</ele>
        <time>2014-05-04T08:03:49.000Z</time>
      </trkpt>
      <trkpt lat="44.01334" lon="7.19883">
        <ele>1062.1999511719</ele>
        <time>2014-05-04T08:03:57.000Z</time>
      </trkpt>
      <trkpt lat="44.01349" lon="7.19897">
        <ele>1066.4000244141</ele>
        <time>2014-05-04T08:04:03.000Z</time>
      </trkpt>
      <trkpt lat="44.01367" lon="7.19915">
        <ele>1069</ele>
        <time>2014-05-04T08:04:10.000Z</time>
      </trkpt>
      <trkpt lat="44.01376" lon="7.19939">
        <ele>1072.4000244141</ele>
        <time>2014-05-04T08:04:15.000Z</time>
      </trkpt>
      <trkpt lat="44.01385" lon="7.19963">
        <ele>1079.1999511719</ele>
        <time>2014-05-04T08:04:21.000Z</time>
      </trkpt>
      <trkpt lat="44.01394" lon="7.19978">
        <ele>1079.8000488281</ele>
        <time>2014-05-04T08:04:27.000Z</time>
      </trkpt>
      <trkpt lat="44.01399" lon="7.19999">
        <ele>1087.1999511719</ele>
        <time>2014-05-04T08:04:32.000Z</time>
      </trkpt>
      <trkpt lat="44.01405" lon="7.20021">
        <ele>1094.4000244141</ele>
        <time>2014-05-04T08:04:38.000Z</time>
      </trkpt>
      <trkpt lat="44.01411" lon="7.20045">
        <ele>1102.8000488281</ele>
        <time>2014-05-04T08:04:44.000Z</time>
      </trkpt>
      <trkpt lat="44.01421" lon="7.20054">
        <ele>1100.1999511719</ele>
        <time>2014-05-04T08:04:48.000Z</time>
      </trkpt>
      <trkpt lat="44.01433" lon="7.20061">
        <ele>1094.5999755859</ele>
        <time>2014-05-04T08:04:53.000Z</time>
      </trkpt>
      <trkpt lat="44.01448" lon="7.2006">
        <ele>1084.5999755859</ele>
        <time>2014-05-04T08:04:58.000Z</time>
      </trkpt>
      <trkpt lat="44.01458" lon="7.20057">
        <ele>1079.5999755859</ele>
        <time>2014-05-04T08:05:03.000Z</time>
      </trkpt>
      <trkpt lat="44.01466" lon="7.20057">
        <ele>1077.1999511719</ele>
        <time>2014-05-04T08:05:06.000Z</time>
      </trkpt>
      <trkpt lat="44.01481" lon="7.20062">
        <ele>1075.5999755859</ele>
        <time>2014-05-04T08:05:11.000Z</time>
      </trkpt>
      <trkpt lat="44.015" lon="7.20076">
        <ele>1077.4000244141</ele>
        <time>2014-05-04T08:05:19.000Z</time>
      </trkpt>
      <trkpt lat="44.01512" lon="7.20086">
        <ele>1077.8000488281</ele>
        <time>2014-05-04T08:05:24.000Z</time>
      </trkpt>
      <trkpt lat="44.01526" lon="7.20104">
        <ele>1079.8000488281</ele>
        <time>2014-05-04T08:05:30.000Z</time>
      </trkpt>
      <trkpt lat="44.01533" lon="7.20122">
        <ele>1083.5999755859</ele>
        <time>2014-05-04T08:05:37.000Z</time>
      </trkpt>
      <trkpt lat="44.01532" lon="7.20142">
        <ele>1090.8000488281</ele>
        <time>2014-05-04T08:05:43.000Z</time>
      </trkpt>
      <trkpt lat="44.01533" lon="7.2015">
        <ele>1093.5999755859</ele>
        <time>2014-05-04T08:05:46.000Z</time>
      </trkpt>
      <trkpt lat="44.01535" lon="7.20154">
        <ele>1094.4000244141</ele>
        <time>2014-05-04T08:05:48.000Z</time>
      </trkpt>
      <trkpt lat="44.01542" lon="7.20177">
        <ele>1096.5999755859</ele>
        <time>2014-05-04T08:05:56.000Z</time>
      </trkpt>
      <trkpt lat="44.01549" lon="7.20194">
        <ele>1098.1999511719</ele>
        <time>2014-05-04T08:06:02.000Z</time>
      </trkpt>
      <trkpt lat="44.01552" lon="7.20214">
        <ele>1103.4000244141</ele>
        <time>2014-05-04T08:06:08.000Z</time>
      </trkpt>
      <trkpt lat="44.01559" lon="7.2024">
        <ele>1108.1999511719</ele>
        <time>2014-05-04T08:06:14.000Z</time>
      </trkpt>
      <trkpt lat="44.0156" lon="7.2026">
        <ele>1111.5999755859</ele>
        <time>2014-05-04T08:06:20.000Z</time>
      </trkpt>
      <trkpt lat="44.01565" lon="7.20279">
        <ele>1112.1999511719</ele>
        <time>2014-05-04T08:06:26.000Z</time>
      </trkpt>
      <trkpt lat="44.01561" lon="7.20297">
        <ele>1118</ele>
        <time>2014-05-04T08:06:31.000Z</time>
      </trkpt>
      <trkpt lat="44.01556" lon="7.20291">
        <ele>1119.8000488281</ele>
        <time>2014-05-04T08:06:34.000Z</time>
      </trkpt>
      <trkpt lat="44.01554" lon="7.20284">
        <ele>1119.4000244141</ele>
        <time>2014-05-04T08:06:36.000Z</time>
      </trkpt>
      <trkpt lat="44.0155" lon="7.20274">
        <ele>1119.4000244141</ele>
        <time>2014-05-04T08:06:39.000Z</time>
      </trkpt>
      <trkpt lat="44.0155" lon="7.20257">
        <ele>1116.4000244141</ele>
        <time>2014-05-04T08:06:44.000Z</time>
      </trkpt>
      <trkpt lat="44.01544" lon="7.20242">
        <ele>1116.1999511719</ele>
        <time>2014-05-04T08:06:49.000Z</time>
      </trkpt>
      <trkpt lat="44.01534" lon="7.20225">
        <ele>1116.1999511719</ele>
        <time>2014-05-04T08:06:55.000Z</time>
      </trkpt>
      <trkpt lat="44.01533" lon="7.20222">
        <ele>1115.4000244141</ele>
        <time>2014-05-04T08:06:56.000Z</time>
      </trkpt>
      <trkpt lat="44.01533" lon="7.20214">
        <ele>1113</ele>
        <time>2014-05-04T08:06:59.000Z</time>
      </trkpt>
      <trkpt lat="44.01532" lon="7.20212">
        <ele>1112.5999755859</ele>
        <time>2014-05-04T08:07:00.000Z</time>
      </trkpt>
      <trkpt lat="44.01525" lon="7.20201">
        <ele>1112.8000488281</ele>
        <time>2014-05-04T08:07:05.000Z</time>
      </trkpt>
      <trkpt lat="44.01517" lon="7.2019">
        <ele>1112.1999511719</ele>
        <time>2014-05-04T08:07:10.000Z</time>
      </trkpt>
      <trkpt lat="44.01506" lon="7.20181">
        <ele>1113</ele>
        <time>2014-05-04T08:07:16.000Z</time>
      </trkpt>
      <trkpt lat="44.01494" lon="7.20169">
        <ele>1113.1999511719</ele>
        <time>2014-05-04T08:07:23.000Z</time>
      </trkpt>
      <trkpt lat="44.01481" lon="7.20155">
        <ele>1113</ele>
        <time>2014-05-04T08:07:30.000Z</time>
      </trkpt>
      <trkpt lat="44.01469" lon="7.20152">
        <ele>1115.8000488281</ele>
        <time>2014-05-04T08:07:36.000Z</time>
      </trkpt>
      <trkpt lat="44.01456" lon="7.20156">
        <ele>1121.5999755859</ele>
        <time>2014-05-04T08:07:42.000Z</time>
      </trkpt>
      <trkpt lat="44.01455" lon="7.20158">
        <ele>1123.1999511719</ele>
        <time>2014-05-04T08:07:43.000Z</time>
      </trkpt>
      <trkpt lat="44.01455" lon="7.20166">
        <ele>1126</ele>
        <time>2014-05-04T08:07:46.000Z</time>
      </trkpt>
      <trkpt lat="44.01463" lon="7.20165">
        <ele>1122.5999755859</ele>
        <time>2014-05-04T08:07:50.000Z</time>
      </trkpt>
      <trkpt lat="44.01472" lon="7.20168">
        <ele>1120.4000244141</ele>
        <time>2014-05-04T08:07:53.000Z</time>
      </trkpt>
      <trkpt lat="44.01476" lon="7.20169">
        <ele>1119.5999755859</ele>
        <time>2014-05-04T08:07:54.000Z</time>
      </trkpt>
      <trkpt lat="44.01487" lon="7.20178">
        <ele>1119</ele>
        <time>2014-05-04T08:07:59.000Z</time>
      </trkpt>
      <trkpt lat="44.01496" lon="7.20198">
        <ele>1122</ele>
        <time>2014-05-04T08:08:06.000Z</time>
      </trkpt>
      <trkpt lat="44.01499" lon="7.20213">
        <ele>1125.5999755859</ele>
        <time>2014-05-04T08:08:11.000Z</time>
      </trkpt>
      <trkpt lat="44.01499" lon="7.20216">
        <ele>1126.8000488281</ele>
        <time>2014-05-04T08:08:12.000Z</time>
      </trkpt>
      <trkpt lat="44.01503" lon="7.20232">
        <ele>1131.8000488281</ele>
        <time>2014-05-04T08:08:18.000Z</time>
      </trkpt>
      <trkpt lat="44.01504" lon="7.2025">
        <ele>1138.5999755859</ele>
        <time>2014-05-04T08:08:24.000Z</time>
      </trkpt>
      <trkpt lat="44.01507" lon="7.20269">
        <ele>1141.4000244141</ele>
        <time>2014-05-04T08:08:30.000Z</time>
      </trkpt>
      <trkpt lat="44.01513" lon="7.20285">
        <ele>1142</ele>
        <time>2014-05-04T08:08:36.000Z</time>
      </trkpt>
      <trkpt lat="44.01515" lon="7.20293">
        <ele>1143</ele>
        <time>2014-05-04T08:08:39.000Z</time>
      </trkpt>
      <trkpt lat="44.01516" lon="7.20296">
        <ele>1143</ele>
        <time>2014-05-04T08:08:40.000Z</time>
      </trkpt>
      <trkpt lat="44.01519" lon="7.20306">
        <ele>1144</ele>
        <time>2014-05-04T08:08:44.000Z</time>
      </trkpt>
      <trkpt lat="44.0152" lon="7.20309">
        <ele>1144.1999511719</ele>
        <time>2014-05-04T08:08:45.000Z</time>
      </trkpt>
      <trkpt lat="44.0152" lon="7.20331">
        <ele>1149.8000488281</ele>
        <time>2014-05-04T08:08:52.000Z</time>
      </trkpt>
      <trkpt lat="44.01521" lon="7.20345">
        <ele>1151.5999755859</ele>
        <time>2014-05-04T08:08:57.000Z</time>
      </trkpt>
      <trkpt lat="44.01521" lon="7.20368">
        <ele>1155.1999511719</ele>
        <time>2014-05-04T08:09:03.000Z</time>
      </trkpt>
      <trkpt lat="44.01524" lon="7.20384">
        <ele>1156.4000244141</ele>
        <time>2014-05-04T08:09:08.000Z</time>
      </trkpt>
      <trkpt lat="44.01523" lon="7.204">
        <ele>1159.4000244141</ele>
        <time>2014-05-04T08:09:13.000Z</time>
      </trkpt>
      <trkpt lat="44.01526" lon="7.20423">
        <ele>1162</ele>
        <time>2014-05-04T08:09:19.000Z</time>
      </trkpt>
      <trkpt lat="44.01526" lon="7.20436">
        <ele>1165.4000244141</ele>
        <time>2014-05-04T08:09:24.000Z</time>
      </trkpt>
      <trkpt lat="44.01519" lon="7.20456">
        <ele>1175.4000244141</ele>
        <time>2014-05-04T08:09:30.000Z</time>
      </trkpt>
      <trkpt lat="44.01516" lon="7.20467">
        <ele>1180.8000488281</ele>
        <time>2014-05-04T08:09:33.000Z</time>
      </trkpt>
      <trkpt lat="44.01516" lon="7.20473">
        <ele>1182</ele>
        <time>2014-05-04T08:09:35.000Z</time>
      </trkpt>
      <trkpt lat="44.01515" lon="7.2048">
        <ele>1184.5999755859</ele>
        <time>2014-05-04T08:09:37.000Z</time>
      </trkpt>
      <trkpt lat="44.01512" lon="7.20496">
        <ele>1194.5999755859</ele>
        <time>2014-05-04T08:09:41.000Z</time>
      </trkpt>
      <trkpt lat="44.01515" lon="7.20515">
        <ele>1196.8000488281</ele>
        <time>2014-05-04T08:09:46.000Z</time>
      </trkpt>
      <trkpt lat="44.01518" lon="7.20524">
        <ele>1195.4000244141</ele>
        <time>2014-05-04T08:09:50.000Z</time>
      </trkpt>
      <trkpt lat="44.01524" lon="7.20535">
        <ele>1191.4000244141</ele>
        <time>2014-05-04T08:09:55.000Z</time>
      </trkpt>
      <trkpt lat="44.01526" lon="7.2054">
        <ele>1191</ele>
        <time>2014-05-04T08:09:57.000Z</time>
      </trkpt>
      <trkpt lat="44.01529" lon="7.20544">
        <ele>1190.5999755859</ele>
        <time>2014-05-04T08:09:59.000Z</time>
      </trkpt>
      <trkpt lat="44.01533" lon="7.20547">
        <ele>1188</ele>
        <time>2014-05-04T08:10:01.000Z</time>
      </trkpt>
      <trkpt lat="44.01536" lon="7.20552">
        <ele>1187.1999511719</ele>
        <time>2014-05-04T08:10:04.000Z</time>
      </trkpt>
      <trkpt lat="44.0155" lon="7.20568">
        <ele>1181.5999755859</ele>
        <time>2014-05-04T08:10:11.000Z</time>
      </trkpt>
      <trkpt lat="44.0156" lon="7.20576">
        <ele>1176.8000488281</ele>
        <time>2014-05-04T08:10:16.000Z</time>
      </trkpt>
      <trkpt lat="44.01569" lon="7.20584">
        <ele>1174.1999511719</ele>
        <time>2014-05-04T08:10:21.000Z</time>
      </trkpt>
      <trkpt lat="44.01585" lon="7.20588">
        <ele>1164.8000488281</ele>
        <time>2014-05-04T08:10:27.000Z</time>
      </trkpt>
      <trkpt lat="44.016" lon="7.2059">
        <ele>1155.5999755859</ele>
        <time>2014-05-04T08:10:33.000Z</time>
      </trkpt>
      <trkpt lat="44.01614" lon="7.20595">
        <ele>1150.5999755859</ele>
        <time>2014-05-04T08:10:39.000Z</time>
      </trkpt>
      <trkpt lat="44.01623" lon="7.20603">
        <ele>1152.1999511719</ele>
        <time>2014-05-04T08:10:45.000Z</time>
      </trkpt>
      <trkpt lat="44.01633" lon="7.20608">
        <ele>1151.8000488281</ele>
        <time>2014-05-04T08:10:50.000Z</time>
      </trkpt>
      <trkpt lat="44.01649" lon="7.2061">
        <ele>1150.8000488281</ele>
        <time>2014-05-04T08:10:57.000Z</time>
      </trkpt>
      <trkpt lat="44.01665" lon="7.20616">
        <ele>1152</ele>
        <time>2014-05-04T08:11:04.000Z</time>
      </trkpt>
      <trkpt lat="44.01677" lon="7.20628">
        <ele>1154.8000488281</ele>
        <time>2014-05-04T08:11:11.000Z</time>
      </trkpt>
      <trkpt lat="44.01688" lon="7.20647">
        <ele>1160.1999511719</ele>
        <time>2014-05-04T08:11:18.000Z</time>
      </trkpt>
      <trkpt lat="44.01691" lon="7.20679">
        <ele>1169.8000488281</ele>
        <time>2014-05-04T08:11:25.000Z</time>
      </trkpt>
      <trkpt lat="44.0169" lon="7.20695">
        <ele>1175.1999511719</ele>
        <time>2014-05-04T08:11:30.000Z</time>
      </trkpt>
      <trkpt lat="44.01687" lon="7.20717">
        <ele>1183.1999511719</ele>
        <time>2014-05-04T08:11:37.000Z</time>
      </trkpt>
      <trkpt lat="44.01687" lon="7.20735">
        <ele>1189</ele>
        <time>2014-05-04T08:11:42.000Z</time>
      </trkpt>
      <trkpt lat="44.01683" lon="7.20751">
        <ele>1197</ele>
        <time>2014-05-04T08:11:48.000Z</time>
      </trkpt>
      <trkpt lat="44.01681" lon="7.20766">
        <ele>1202.5999755859</ele>
        <time>2014-05-04T08:11:53.000Z</time>
      </trkpt>
      <trkpt lat="44.0168" lon="7.2077">
        <ele>1204</ele>
        <time>2014-05-04T08:11:54.000Z</time>
      </trkpt>
      <trkpt lat="44.01686" lon="7.20779">
        <ele>1204</ele>
        <time>2014-05-04T08:11:59.000Z</time>
      </trkpt>
      <trkpt lat="44.01691" lon="7.20784">
        <ele>1203.5999755859</ele>
        <time>2014-05-04T08:12:02.000Z</time>
      </trkpt>
      <trkpt lat="44.01692" lon="7.20789">
        <ele>1204.1999511719</ele>
        <time>2014-05-04T08:12:05.000Z</time>
      </trkpt>
      <trkpt lat="44.01694" lon="7.20791">
        <ele>1204.1999511719</ele>
        <time>2014-05-04T08:12:06.000Z</time>
      </trkpt>
      <trkpt lat="44.01697" lon="7.20797">
        <ele>1205</ele>
        <time>2014-05-04T08:12:10.000Z</time>
      </trkpt>
      <trkpt lat="44.01699" lon="7.20803">
        <ele>1206</ele>
        <time>2014-05-04T08:12:14.000Z</time>
      </trkpt>
      <trkpt lat="44.01701" lon="7.20807">
        <ele>1206.5999755859</ele>
        <time>2014-05-04T08:12:16.000Z</time>
      </trkpt>
      <trkpt lat="44.01706" lon="7.20814">
        <ele>1207.1999511719</ele>
        <time>2014-05-04T08:12:22.000Z</time>
      </trkpt>
      <trkpt lat="44.01719" lon="7.20821">
        <ele>1205</ele>
        <time>2014-05-04T08:12:27.000Z</time>
      </trkpt>
      <trkpt lat="44.01725" lon="7.20831">
        <ele>1205.5999755859</ele>
        <time>2014-05-04T08:12:32.000Z</time>
      </trkpt>
      <trkpt lat="44.01727" lon="7.20833">
        <ele>1205.4000244141</ele>
        <time>2014-05-04T08:12:33.000Z</time>
      </trkpt>
      <trkpt lat="44.01734" lon="7.20842">
        <ele>1205</ele>
        <time>2014-05-04T08:12:38.000Z</time>
      </trkpt>
      <trkpt lat="44.01735" lon="7.20843">
        <ele>1205</ele>
        <time>2014-05-04T08:12:39.000Z</time>
      </trkpt>
      <trkpt lat="44.0174" lon="7.20851">
        <ele>1205</ele>
        <time>2014-05-04T08:12:44.000Z</time>
      </trkpt>
      <trkpt lat="44.01741" lon="7.2087">
        <ele>1208.4000244141</ele>
        <time>2014-05-04T08:12:52.000Z</time>
      </trkpt>
      <trkpt lat="44.01742" lon="7.20891">
        <ele>1215</ele>
        <time>2014-05-04T08:12:58.000Z</time>
      </trkpt>
      <trkpt lat="44.0174" lon="7.20902">
        <ele>1220.4000244141</ele>
        <time>2014-05-04T08:13:01.000Z</time>
      </trkpt>
      <trkpt lat="44.0174" lon="7.2091">
        <ele>1223.8000488281</ele>
        <time>2014-05-04T08:13:03.000Z</time>
      </trkpt>
      <trkpt lat="44.01747" lon="7.20921">
        <ele>1221.5999755859</ele>
        <time>2014-05-04T08:13:09.000Z</time>
      </trkpt>
      <trkpt lat="44.01756" lon="7.20914">
        <ele>1216.1999511719</ele>
        <time>2014-05-04T08:13:13.000Z</time>
      </trkpt>
      <trkpt lat="44.0176" lon="7.20906">
        <ele>1211.1999511719</ele>
        <time>2014-05-04T08:13:20.000Z</time>
      </trkpt>
      <trkpt lat="44.01768" lon="7.20902">
        <ele>1206.5999755859</ele>
        <time>2014-05-04T08:13:26.000Z</time>
      </trkpt>
      <trkpt lat="44.0177" lon="7.20887">
        <ele>1202.8000488281</ele>
        <time>2014-05-04T08:13:32.000Z</time>
      </trkpt>
      <trkpt lat="44.01771" lon="7.20873">
        <ele>1199.5999755859</ele>
        <time>2014-05-04T08:13:39.000Z</time>
      </trkpt>
      <trkpt lat="44.01772" lon="7.20851">
        <ele>1194.8000488281</ele>
        <time>2014-05-04T08:13:45.000Z</time>
      </trkpt>
      <trkpt lat="44.01772" lon="7.2083">
        <ele>1190.1999511719</ele>
        <time>2014-05-04T08:13:52.000Z</time>
      </trkpt>
      <trkpt lat="44.01771" lon="7.20811">
        <ele>1186.5999755859</ele>
        <time>2014-05-04T08:13:57.000Z</time>
      </trkpt>
      <trkpt lat="44.01767" lon="7.20795">
        <ele>1184.4000244141</ele>
        <time>2014-05-04T08:14:02.000Z</time>
      </trkpt>
      <trkpt lat="44.01768" lon="7.20783">
        <ele>1181.8000488281</ele>
        <time>2014-05-04T08:14:07.000Z</time>
      </trkpt>
      <trkpt lat="44.01774" lon="7.20772">
        <ele>1178.5999755859</ele>
        <time>2014-05-04T08:14:13.000Z</time>
      </trkpt>
      <trkpt lat="44.01788" lon="7.20761">
        <ele>1181.5999755859</ele>
        <time>2014-05-04T08:14:19.000Z</time>
      </trkpt>
      <trkpt lat="44.01799" lon="7.20753">
        <ele>1183.8000488281</ele>
        <time>2014-05-04T08:14:25.000Z</time>
      </trkpt>
      <trkpt lat="44.0181" lon="7.20747">
        <ele>1186.1999511719</ele>
        <time>2014-05-04T08:14:31.000Z</time>
      </trkpt>
      <trkpt lat="44.01819" lon="7.20738">
        <ele>1187.4000244141</ele>
        <time>2014-05-04T08:14:38.000Z</time>
      </trkpt>
      <trkpt lat="44.01829" lon="7.20723">
        <ele>1188</ele>
        <time>2014-05-04T08:14:45.000Z</time>
      </trkpt>
      <trkpt lat="44.0184" lon="7.20713">
        <ele>1188.8000488281</ele>
        <time>2014-05-04T08:14:51.000Z</time>
      </trkpt>
      <trkpt lat="44.01857" lon="7.20709">
        <ele>1192.4000244141</ele>
        <time>2014-05-04T08:14:57.000Z</time>
      </trkpt>
      <trkpt lat="44.01869" lon="7.20708">
        <ele>1194.5999755859</ele>
        <time>2014-05-04T08:15:02.000Z</time>
      </trkpt>
      <trkpt lat="44.01872" lon="7.20709">
        <ele>1195.4000244141</ele>
        <time>2014-05-04T08:15:03.000Z</time>
      </trkpt>
      <trkpt lat="44.01884" lon="7.20712">
        <ele>1199</ele>
        <time>2014-05-04T08:15:09.000Z</time>
      </trkpt>
      <trkpt lat="44.01893" lon="7.20716">
        <ele>1202.4000244141</ele>
        <time>2014-05-04T08:15:15.000Z</time>
      </trkpt>
      <trkpt lat="44.019" lon="7.20722">
        <ele>1205.8000488281</ele>
        <time>2014-05-04T08:15:20.000Z</time>
      </trkpt>
      <trkpt lat="44.01913" lon="7.2073">
        <ele>1211.1999511719</ele>
        <time>2014-05-04T08:15:27.000Z</time>
      </trkpt>
      <trkpt lat="44.01921" lon="7.2073">
        <ele>1213</ele>
        <time>2014-05-04T08:15:33.000Z</time>
      </trkpt>
      <trkpt lat="44.01923" lon="7.2073">
        <ele>1213.1999511719</ele>
        <time>2014-05-04T08:15:34.000Z</time>
      </trkpt>
      <trkpt lat="44.01938" lon="7.20723">
        <ele>1214.5999755859</ele>
        <time>2014-05-04T08:15:42.000Z</time>
      </trkpt>
      <trkpt lat="44.01952" lon="7.20729">
        <ele>1217.8000488281</ele>
        <time>2014-05-04T08:15:48.000Z</time>
      </trkpt>
      <trkpt lat="44.0196" lon="7.20736">
        <ele>1220</ele>
        <time>2014-05-04T08:15:53.000Z</time>
      </trkpt>
      <trkpt lat="44.01961" lon="7.20738">
        <ele>1220.5999755859</ele>
        <time>2014-05-04T08:15:54.000Z</time>
      </trkpt>
      <trkpt lat="44.01973" lon="7.20749">
        <ele>1224.4000244141</ele>
        <time>2014-05-04T08:16:01.000Z</time>
      </trkpt>
      <trkpt lat="44.01981" lon="7.2076">
        <ele>1228.8000488281</ele>
        <time>2014-05-04T08:16:08.000Z</time>
      </trkpt>
      <trkpt lat="44.0199" lon="7.20772">
        <ele>1233</ele>
        <time>2014-05-04T08:16:14.000Z</time>
      </trkpt>
      <trkpt lat="44.01997" lon="7.20781">
        <ele>1236.5999755859</ele>
        <time>2014-05-04T08:16:20.000Z</time>
      </trkpt>
      <trkpt lat="44.02006" lon="7.2079">
        <ele>1240</ele>
        <time>2014-05-04T08:16:25.000Z</time>
      </trkpt>
      <trkpt lat="44.02015" lon="7.20808">
        <ele>1246.5999755859</ele>
        <time>2014-05-04T08:16:32.000Z</time>
      </trkpt>
      <trkpt lat="44.02021" lon="7.20814">
        <ele>1249</ele>
        <time>2014-05-04T08:16:37.000Z</time>
      </trkpt>
      <trkpt lat="44.02028" lon="7.20823">
        <ele>1252.4000244141</ele>
        <time>2014-05-04T08:16:42.000Z</time>
      </trkpt>
      <trkpt lat="44.02041" lon="7.20831">
        <ele>1255.8000488281</ele>
        <time>2014-05-04T08:16:49.000Z</time>
      </trkpt>
      <trkpt lat="44.02055" lon="7.20828">
        <ele>1256.5999755859</ele>
        <time>2014-05-04T08:16:54.000Z</time>
      </trkpt>
      <trkpt lat="44.02064" lon="7.20818">
        <ele>1254</ele>
        <time>2014-05-04T08:17:00.000Z</time>
      </trkpt>
      <trkpt lat="44.02066" lon="7.20809">
        <ele>1251.1999511719</ele>
        <time>2014-05-04T08:17:05.000Z</time>
      </trkpt>
      <trkpt lat="44.02066" lon="7.20798">
        <ele>1247.1999511719</ele>
        <time>2014-05-04T08:17:11.000Z</time>
      </trkpt>
      <trkpt lat="44.02064" lon="7.20794">
        <ele>1245.8000488281</ele>
        <time>2014-05-04T08:17:13.000Z</time>
      </trkpt>
      <trkpt lat="44.02063" lon="7.20784">
        <ele>1242.1999511719</ele>
        <time>2014-05-04T08:17:16.000Z</time>
      </trkpt>
      <trkpt lat="44.02061" lon="7.20771">
        <ele>1240.8000488281</ele>
        <time>2014-05-04T08:17:20.000Z</time>
      </trkpt>
      <trkpt lat="44.02063" lon="7.20768">
        <ele>1241.4000244141</ele>
        <time>2014-05-04T08:17:21.000Z</time>
      </trkpt>
      <trkpt lat="44.02059" lon="7.2075">
        <ele>1239.5999755859</ele>
        <time>2014-05-04T08:17:27.000Z</time>
      </trkpt>
      <trkpt lat="44.02057" lon="7.20734">
        <ele>1238.8000488281</ele>
        <time>2014-05-04T08:17:32.000Z</time>
      </trkpt>
      <trkpt lat="44.02057" lon="7.20714">
        <ele>1238.5999755859</ele>
        <time>2014-05-04T08:17:38.000Z</time>
      </trkpt>
      <trkpt lat="44.02049" lon="7.20702">
        <ele>1235.1999511719</ele>
        <time>2014-05-04T08:17:44.000Z</time>
      </trkpt>
      <trkpt lat="44.0204" lon="7.2069">
        <ele>1231.4000244141</ele>
        <time>2014-05-04T08:17:50.000Z</time>
      </trkpt>
      <trkpt lat="44.02028" lon="7.20677">
        <ele>1226.1999511719</ele>
        <time>2014-05-04T08:17:58.000Z</time>
      </trkpt>
      <trkpt lat="44.02031" lon="7.20658">
        <ele>1227.5999755859</ele>
        <time>2014-05-04T08:18:04.000Z</time>
      </trkpt>
      <trkpt lat="44.02039" lon="7.20643">
        <ele>1231</ele>
        <time>2014-05-04T08:18:11.000Z</time>
      </trkpt>
      <trkpt lat="44.02043" lon="7.2063">
        <ele>1232.1999511719</ele>
        <time>2014-05-04T08:18:16.000Z</time>
      </trkpt>
      <trkpt lat="44.02049" lon="7.20613">
        <ele>1234.8000488281</ele>
        <time>2014-05-04T08:18:22.000Z</time>
      </trkpt>
      <trkpt lat="44.02055" lon="7.2059">
        <ele>1237.4000244141</ele>
        <time>2014-05-04T08:18:29.000Z</time>
      </trkpt>
      <trkpt lat="44.02059" lon="7.20565">
        <ele>1242.4000244141</ele>
        <time>2014-05-04T08:18:35.000Z</time>
      </trkpt>
      <trkpt lat="44.02056" lon="7.20546">
        <ele>1244.1999511719</ele>
        <time>2014-05-04T08:18:40.000Z</time>
      </trkpt>
      <trkpt lat="44.02046" lon="7.2053">
        <ele>1241</ele>
        <time>2014-05-04T08:18:46.000Z</time>
      </trkpt>
      <trkpt lat="44.02034" lon="7.20512">
        <ele>1237.5999755859</ele>
        <time>2014-05-04T08:18:53.000Z</time>
      </trkpt>
      <trkpt lat="44.02025" lon="7.20491">
        <ele>1236.8000488281</ele>
        <time>2014-05-04T08:19:00.000Z</time>
      </trkpt>
      <trkpt lat="44.02018" lon="7.20476">
        <ele>1238.5999755859</ele>
        <time>2014-05-04T08:19:05.000Z</time>
      </trkpt>
      <trkpt lat="44.0201" lon="7.20462">
        <ele>1240.1999511719</ele>
        <time>2014-05-04T08:19:10.000Z</time>
      </trkpt>
      <trkpt lat="44.02004" lon="7.20443">
        <ele>1243.5999755859</ele>
        <time>2014-05-04T08:19:16.000Z</time>
      </trkpt>
      <trkpt lat="44.02" lon="7.20439">
        <ele>1243.4000244141</ele>
        <time>2014-05-04T08:19:20.000Z</time>
      </trkpt>
      <trkpt lat="44.01998" lon="7.20438">
        <ele>1243.1999511719</ele>
        <time>2014-05-04T08:19:22.000Z</time>
      </trkpt>
      <trkpt lat="44.01998" lon="7.20435">
        <ele>1243.8000488281</ele>
        <time>2014-05-04T08:19:24.000Z</time>
      </trkpt>
      <trkpt lat="44.01993" lon="7.20431">
        <ele>1243.8000488281</ele>
        <time>2014-05-04T08:19:31.000Z</time>
      </trkpt>
      <trkpt lat="44.01993" lon="7.20429">
        <ele>1244</ele>
        <time>2014-05-04T08:19:33.000Z</time>
      </trkpt>
      <trkpt lat="44.0199" lon="7.20427">
        <ele>1244</ele>
        <time>2014-05-04T08:19:39.000Z</time>
      </trkpt>
      <trkpt lat="44.01977" lon="7.2043">
        <ele>1240</ele>
        <time>2014-05-04T08:19:54.000Z</time>
      </trkpt>
      <trkpt lat="44.01973" lon="7.20429">
        <ele>1239.1999511719</ele>
        <time>2014-05-04T08:19:56.000Z</time>
      </trkpt>
      <trkpt lat="44.0196" lon="7.20424">
        <ele>1237.4000244141</ele>
        <time>2014-05-04T08:19:59.000Z</time>
      </trkpt>
      <trkpt lat="44.01953" lon="7.20422">
        <ele>1236.1999511719</ele>
        <time>2014-05-04T08:20:00.000Z</time>
      </trkpt>
      <trkpt lat="44.0194" lon="7.20424">
        <ele>1231.1999511719</ele>
        <time>2014-05-04T08:20:02.000Z</time>
      </trkpt>
      <trkpt lat="44.0193" lon="7.20424">
        <ele>1229.4000244141</ele>
        <time>2014-05-04T08:20:05.000Z</time>
      </trkpt>
      <trkpt lat="44.01925" lon="7.2042">
        <ele>1229.8000488281</ele>
        <time>2014-05-04T08:20:09.000Z</time>
      </trkpt>
      <trkpt lat="44.01932" lon="7.20407">
        <ele>1232.8000488281</ele>
        <time>2014-05-04T08:20:12.000Z</time>
      </trkpt>
      <trkpt lat="44.01937" lon="7.20402">
        <ele>1231.8000488281</ele>
        <time>2014-05-04T08:20:13.000Z</time>
      </trkpt>
      <trkpt lat="44.01953" lon="7.20383">
        <ele>1228.5999755859</ele>
        <time>2014-05-04T08:20:16.000Z</time>
      </trkpt>
      <trkpt lat="44.01965" lon="7.20371">
        <ele>1227.4000244141</ele>
        <time>2014-05-04T08:20:18.000Z</time>
      </trkpt>
      <trkpt lat="44.01985" lon="7.20356">
        <ele>1228.1999511719</ele>
        <time>2014-05-04T08:20:21.000Z</time>
      </trkpt>
      <trkpt lat="44.02004" lon="7.20342">
        <ele>1230.5999755859</ele>
        <time>2014-05-04T08:20:24.000Z</time>
      </trkpt>
      <trkpt lat="44.0201" lon="7.20336">
        <ele>1231</ele>
        <time>2014-05-04T08:20:25.000Z</time>
      </trkpt>
      <trkpt lat="44.02022" lon="7.20326">
        <ele>1231.5999755859</ele>
        <time>2014-05-04T08:20:27.000Z</time>
      </trkpt>
      <trkpt lat="44.02034" lon="7.20319">
        <ele>1232</ele>
        <time>2014-05-04T08:20:29.000Z</time>
      </trkpt>
      <trkpt lat="44.02063" lon="7.20305">
        <ele>1234.5999755859</ele>
        <time>2014-05-04T08:20:34.000Z</time>
      </trkpt>
      <trkpt lat="44.0208" lon="7.20293">
        <ele>1234.5999755859</ele>
        <time>2014-05-04T08:20:37.000Z</time>
      </trkpt>
      <trkpt lat="44.0209" lon="7.2028">
        <ele>1233</ele>
        <time>2014-05-04T08:20:39.000Z</time>
      </trkpt>
      <trkpt lat="44.02104" lon="7.20258">
        <ele>1229</ele>
        <time>2014-05-04T08:20:43.000Z</time>
      </trkpt>
      <trkpt lat="44.02117" lon="7.20221">
        <ele>1221.1999511719</ele>
        <time>2014-05-04T08:20:47.000Z</time>
      </trkpt>
      <trkpt lat="44.02134" lon="7.20194">
        <ele>1220</ele>
        <time>2014-05-04T08:20:51.000Z</time>
      </trkpt>
      <trkpt lat="44.02152" lon="7.2017">
        <ele>1220.5999755859</ele>
        <time>2014-05-04T08:20:55.000Z</time>
      </trkpt>
      <trkpt lat="44.02154" lon="7.20165">
        <ele>1220.1999511719</ele>
        <time>2014-05-04T08:20:56.000Z</time>
      </trkpt>
      <trkpt lat="44.02156" lon="7.20159">
        <ele>1219.4000244141</ele>
        <time>2014-05-04T08:20:57.000Z</time>
      </trkpt>
      <trkpt lat="44.02165" lon="7.20148">
        <ele>1222.1999511719</ele>
        <time>2014-05-04T08:21:00.000Z</time>
      </trkpt>
      <trkpt lat="44.0219" lon="7.20143">
        <ele>1228.5999755859</ele>
        <time>2014-05-04T08:21:04.000Z</time>
      </trkpt>
      <trkpt lat="44.02195" lon="7.20141">
        <ele>1229.4000244141</ele>
        <time>2014-05-04T08:21:05.000Z</time>
      </trkpt>
      <trkpt lat="44.02209" lon="7.20124">
        <ele>1229.4000244141</ele>
        <time>2014-05-04T08:21:08.000Z</time>
      </trkpt>
      <trkpt lat="44.02231" lon="7.20111">
        <ele>1232.8000488281</ele>
        <time>2014-05-04T08:21:13.000Z</time>
      </trkpt>
      <trkpt lat="44.02232" lon="7.20107">
        <ele>1230.8000488281</ele>
        <time>2014-05-04T08:21:14.000Z</time>
      </trkpt>
      <trkpt lat="44.02228" lon="7.20102">
        <ele>1227.8000488281</ele>
        <time>2014-05-04T08:21:16.000Z</time>
      </trkpt>
      <trkpt lat="44.02228" lon="7.20089">
        <ele>1221.5999755859</ele>
        <time>2014-05-04T08:21:19.000Z</time>
      </trkpt>
      <trkpt lat="44.02229" lon="7.2008">
        <ele>1217.8000488281</ele>
        <time>2014-05-04T08:21:21.000Z</time>
      </trkpt>
      <trkpt lat="44.02233" lon="7.2007">
        <ele>1219.1999511719</ele>
        <time>2014-05-04T08:21:23.000Z</time>
      </trkpt>
      <trkpt lat="44.02239" lon="7.20063">
        <ele>1222</ele>
        <time>2014-05-04T08:21:26.000Z</time>
      </trkpt>
      <trkpt lat="44.02244" lon="7.20064">
        <ele>1223.1999511719</ele>
        <time>2014-05-04T08:21:28.000Z</time>
      </trkpt>
      <trkpt lat="44.02253" lon="7.20067">
        <ele>1224.5999755859</ele>
        <time>2014-05-04T08:21:32.000Z</time>
      </trkpt>
      <trkpt lat="44.02263" lon="7.20067">
        <ele>1227</ele>
        <time>2014-05-04T08:21:37.000Z</time>
      </trkpt>
      <trkpt lat="44.02263" lon="7.20068">
        <ele>1227</ele>
        <time>2014-05-04T08:21:38.000Z</time>
      </trkpt>
      <trkpt lat="44.02266" lon="7.20069">
        <ele>1227.4000244141</ele>
        <time>2014-05-04T08:21:42.000Z</time>
      </trkpt>
      <trkpt lat="44.02263" lon="7.20071">
        <ele>1226.4000244141</ele>
        <time>2014-05-04T08:21:45.000Z</time>
      </trkpt>
      <trkpt lat="44.02263" lon="7.20067">
        <ele>1227</ele>
        <time>2014-05-04T08:21:48.000Z</time>
      </trkpt>
      <trkpt lat="44.0226" lon="7.20061">
        <ele>1227.4000244141</ele>
        <time>2014-05-04T08:21:53.000Z</time>
      </trkpt>
      <trkpt lat="44.0226" lon="7.20057">
        <ele>1227.8000488281</ele>
        <time>2014-05-04T08:21:54.000Z</time>
      </trkpt>
      <trkpt lat="44.02263" lon="7.20053">
        <ele>1228.8000488281</ele>
        <time>2014-05-04T08:21:59.000Z</time>
      </trkpt>
      <trkpt lat="44.02264" lon="7.20049">
        <ele>1229.5999755859</ele>
        <time>2014-05-04T08:22:04.000Z</time>
      </trkpt>
      <trkpt lat="44.02267" lon="7.20047">
        <ele>1230.1999511719</ele>
        <time>2014-05-04T08:22:06.000Z</time>
      </trkpt>
      <trkpt lat="44.02265" lon="7.20044">
        <ele>1230.1999511719</ele>
        <time>2014-05-04T08:22:10.000Z</time>
      </trkpt>
      <trkpt lat="44.02266" lon="7.20051">
        <ele>1229.8000488281</ele>
        <time>2014-05-04T08:22:23.000Z</time>
      </trkpt>
      <trkpt lat="44.02267" lon="7.20053">
        <ele>1229.5999755859</ele>
        <time>2014-05-04T08:22:26.000Z</time>
      </trkpt>
      <trkpt lat="44.02266" lon="7.20047">
        <ele>1230</ele>
        <time>2014-05-04T08:22:36.000Z</time>
      </trkpt>
      <trkpt lat="44.02265" lon="7.20045">
        <ele>1230</ele>
        <time>2014-05-04T08:22:39.000Z</time>
      </trkpt>
      <trkpt lat="44.02265" lon="7.20045">
        <ele>1230.1999511719</ele>
        <time>2014-05-04T08:22:40.000Z</time>
      </trkpt>
      <trkpt lat="44.02258" lon="7.20045">
        <ele>1228.8000488281</ele>
        <time>2014-05-04T08:22:51.000Z</time>
      </trkpt>
      <trkpt lat="44.02257" lon="7.20043">
        <ele>1229</ele>
        <time>2014-05-04T08:22:56.000Z</time>
      </trkpt>
      <trkpt lat="44.02257" lon="7.20046">
        <ele>1228.5999755859</ele>
        <time>2014-05-04T08:23:04.000Z</time>
      </trkpt>
      <trkpt lat="44.02256" lon="7.20077">
        <ele>1223.5999755859</ele>
        <time>2014-05-04T08:24:07.000Z</time>
      </trkpt>
      <trkpt lat="44.02257" lon="7.20078">
        <ele>1223.8000488281</ele>
        <time>2014-05-04T08:24:12.000Z</time>
      </trkpt>
      <trkpt lat="44.02253" lon="7.20071">
        <ele>1224</ele>
        <time>2014-05-04T08:24:36.000Z</time>
      </trkpt>
      <trkpt lat="44.0226" lon="7.20073">
        <ele>1225.1999511719</ele>
        <time>2014-05-04T08:24:53.000Z</time>
      </trkpt>
      <trkpt lat="44.02264" lon="7.20073">
        <ele>1226.1999511719</ele>
        <time>2014-05-04T08:24:58.000Z</time>
      </trkpt>
      <trkpt lat="44.02267" lon="7.20066">
        <ele>1228</ele>
        <time>2014-05-04T08:25:07.000Z</time>
      </trkpt>
      <trkpt lat="44.02267" lon="7.20057">
        <ele>1229</ele>
        <time>2014-05-04T08:25:17.000Z</time>
      </trkpt>
      <trkpt lat="44.02266" lon="7.20055">
        <ele>1229.1999511719</ele>
        <time>2014-05-04T08:25:20.000Z</time>
      </trkpt>
      <trkpt lat="44.02267" lon="7.20055">
        <ele>1229.1999511719</ele>
        <time>2014-05-04T08:25:21.000Z</time>
      </trkpt>
      <trkpt lat="44.02265" lon="7.20041">
        <ele>1230.5999755859</ele>
        <time>2014-05-04T08:25:44.000Z</time>
      </trkpt>
      <trkpt lat="44.02257" lon="7.2005">
        <ele>1228</ele>
        <time>2014-05-04T08:26:45.000Z</time>
      </trkpt>
      <trkpt lat="44.02258" lon="7.20055">
        <ele>1227.8000488281</ele>
        <time>2014-05-04T08:26:51.000Z</time>
      </trkpt>
      <trkpt lat="44.02264" lon="7.20057">
        <ele>1228.5999755859</ele>
        <time>2014-05-04T08:26:59.000Z</time>
      </trkpt>
      <trkpt lat="44.0227" lon="7.20055">
        <ele>1229.8000488281</ele>
        <time>2014-05-04T08:27:04.000Z</time>
      </trkpt>
      <trkpt lat="44.0227" lon="7.20055">
        <ele>1229.8000488281</ele>
        <time>2014-05-04T08:27:11.000Z</time>
      </trkpt>
      <trkpt lat="44.02256" lon="7.20037">
        <ele>1229.4000244141</ele>
        <time>2014-05-04T08:27:47.000Z</time>
      </trkpt>
      <trkpt lat="44.02257" lon="7.2005">
        <ele>1228.1999511719</ele>
        <time>2014-05-04T08:27:58.000Z</time>
      </trkpt>
      <trkpt lat="44.02259" lon="7.20054">
        <ele>1228</ele>
        <time>2014-05-04T08:28:02.000Z</time>
      </trkpt>
      <trkpt lat="44.02268" lon="7.20051">
        <ele>1229.8000488281</ele>
        <time>2014-05-04T08:28:26.000Z</time>
      </trkpt>
      <trkpt lat="44.02269" lon="7.20047">
        <ele>1230.5999755859</ele>
        <time>2014-05-04T08:28:30.000Z</time>
      </trkpt>
      <trkpt lat="44.02268" lon="7.20057">
        <ele>1229.1999511719</ele>
        <time>2014-05-04T08:28:44.000Z</time>
      </trkpt>
      <trkpt lat="44.02269" lon="7.20058">
        <ele>1229.1999511719</ele>
        <time>2014-05-04T08:28:48.000Z</time>
      </trkpt>
      <trkpt lat="44.02275" lon="7.20053">
        <ele>1231</ele>
        <time>2014-05-04T08:28:56.000Z</time>
      </trkpt>
      <trkpt lat="44.02272" lon="7.20049">
        <ele>1231</ele>
        <time>2014-05-04T08:29:00.000Z</time>
      </trkpt>
      <trkpt lat="44.02261" lon="7.20067">
        <ele>1226.5999755859</ele>
        <time>2014-05-04T08:29:16.000Z</time>
      </trkpt>
      <trkpt lat="44.02259" lon="7.20071">
        <ele>1225.4000244141</ele>
        <time>2014-05-04T08:29:22.000Z</time>
      </trkpt>
      <trkpt lat="44.02249" lon="7.20064">
        <ele>1224.4000244141</ele>
        <time>2014-05-04T08:29:42.000Z</time>
      </trkpt>
      <trkpt lat="44.02247" lon="7.20067">
        <ele>1223.1999511719</ele>
        <time>2014-05-04T08:29:50.000Z</time>
      </trkpt>
      <trkpt lat="44.02244" lon="7.20068">
        <ele>1222.1999511719</ele>
        <time>2014-05-04T08:30:05.000Z</time>
      </trkpt>
      <trkpt lat="44.02248" lon="7.20061">
        <ele>1224.4000244141</ele>
        <time>2014-05-04T08:30:11.000Z</time>
      </trkpt>
      <trkpt lat="44.02253" lon="7.20052">
        <ele>1227.1999511719</ele>
        <time>2014-05-04T08:30:18.000Z</time>
      </trkpt>
      <trkpt lat="44.02257" lon="7.20048">
        <ele>1228.4000244141</ele>
        <time>2014-05-04T08:30:21.000Z</time>
      </trkpt>
      <trkpt lat="44.02257" lon="7.20044">
        <ele>1228.8000488281</ele>
        <time>2014-05-04T08:30:24.000Z</time>
      </trkpt>
      <trkpt lat="44.02251" lon="7.20045">
        <ele>1227.5999755859</ele>
        <time>2014-05-04T08:30:38.000Z</time>
      </trkpt>
      <trkpt lat="44.02249" lon="7.20047">
        <ele>1227</ele>
        <time>2014-05-04T08:30:44.000Z</time>
      </trkpt>
      <trkpt lat="44.02255" lon="7.2005">
        <ele>1227.8000488281</ele>
        <time>2014-05-04T08:30:55.000Z</time>
      </trkpt>
      <trkpt lat="44.02257" lon="7.20052">
        <ele>1228</ele>
        <time>2014-05-04T08:31:01.000Z</time>
      </trkpt>
      <trkpt lat="44.02255" lon="7.20041">
        <ele>1228.8000488281</ele>
        <time>2014-05-04T08:31:12.000Z</time>
      </trkpt>
      <trkpt lat="44.02258" lon="7.20043">
        <ele>1229.1999511719</ele>
        <time>2014-05-04T08:31:17.000Z</time>
      </trkpt>
      <trkpt lat="44.02259" lon="7.20051">
        <ele>1228.4000244141</ele>
        <time>2014-05-04T08:31:48.000Z</time>
      </trkpt>
      <trkpt lat="44.02256" lon="7.20047">
        <ele>1228.1999511719</ele>
        <time>2014-05-04T08:31:57.000Z</time>
      </trkpt>
      <trkpt lat="44.02258" lon="7.20045">
        <ele>1228.8000488281</ele>
        <time>2014-05-04T08:32:01.000Z</time>
      </trkpt>
      <trkpt lat="44.02263" lon="7.20053">
        <ele>1228.8000488281</ele>
        <time>2014-05-04T08:32:09.000Z</time>
      </trkpt>
      <trkpt lat="44.02265" lon="7.20054">
        <ele>1229</ele>
        <time>2014-05-04T08:32:12.000Z</time>
      </trkpt>
      <trkpt lat="44.02268" lon="7.20056">
        <ele>1229.4000244141</ele>
        <time>2014-05-04T08:32:14.000Z</time>
      </trkpt>
      <trkpt lat="44.02272" lon="7.20058">
        <ele>1229.8000488281</ele>
        <time>2014-05-04T08:32:19.000Z</time>
      </trkpt>
      <trkpt lat="44.0227" lon="7.20056">
        <ele>1229.8000488281</ele>
        <time>2014-05-04T08:32:22.000Z</time>
      </trkpt>
      <trkpt lat="44.02272" lon="7.20051">
        <ele>1230.5999755859</ele>
        <time>2014-05-04T08:32:24.000Z</time>
      </trkpt>
      <trkpt lat="44.02267" lon="7.20045">
        <ele>1230.4000244141</ele>
        <time>2014-05-04T08:32:28.000Z</time>
      </trkpt>
      <trkpt lat="44.0226" lon="7.20046">
        <ele>1229.1999511719</ele>
        <time>2014-05-04T08:32:57.000Z</time>
      </trkpt>
      <trkpt lat="44.02258" lon="7.20042">
        <ele>1229.1999511719</ele>
        <time>2014-05-04T08:33:02.000Z</time>
      </trkpt>
      <trkpt lat="44.02261" lon="7.20046">
        <ele>1229.1999511719</ele>
        <time>2014-05-04T08:33:10.000Z</time>
      </trkpt>
      <trkpt lat="44.02261" lon="7.20047">
        <ele>1229.1999511719</ele>
        <time>2014-05-04T08:33:11.000Z</time>
      </trkpt>
      <trkpt lat="44.02264" lon="7.20056">
        <ele>1228.8000488281</ele>
        <time>2014-05-04T08:33:20.000Z</time>
      </trkpt>
      <trkpt lat="44.02261" lon="7.20049">
        <ele>1228.8000488281</ele>
        <time>2014-05-04T08:33:23.000Z</time>
      </trkpt>
      <trkpt lat="44.02258" lon="7.20041">
        <ele>1229.4000244141</ele>
        <time>2014-05-04T08:33:26.000Z</time>
      </trkpt>
      <trkpt lat="44.02245" lon="7.20035">
        <ele>1227.5999755859</ele>
        <time>2014-05-04T08:33:31.000Z</time>
      </trkpt>
      <trkpt lat="44.02224" lon="7.20029">
        <ele>1224.5999755859</ele>
        <time>2014-05-04T08:33:37.000Z</time>
      </trkpt>
      <trkpt lat="44.02203" lon="7.20014">
        <ele>1222.1999511719</ele>
        <time>2014-05-04T08:33:42.000Z</time>
      </trkpt>
      <trkpt lat="44.02195" lon="7.20014">
        <ele>1220.1999511719</ele>
        <time>2014-05-04T08:33:44.000Z</time>
      </trkpt>
      <trkpt lat="44.02184" lon="7.2002">
        <ele>1219</ele>
        <time>2014-05-04T08:33:46.000Z</time>
      </trkpt>
      <trkpt lat="44.0217" lon="7.20023">
        <ele>1219.4000244141</ele>
        <time>2014-05-04T08:33:49.000Z</time>
      </trkpt>
      <trkpt lat="44.02168" lon="7.20022">
        <ele>1219.5999755859</ele>
        <time>2014-05-04T08:33:50.000Z</time>
      </trkpt>
      <trkpt lat="44.02164" lon="7.20019">
        <ele>1220.4000244141</ele>
        <time>2014-05-04T08:33:51.000Z</time>
      </trkpt>
      <trkpt lat="44.02157" lon="7.20021">
        <ele>1220.4000244141</ele>
        <time>2014-05-04T08:33:53.000Z</time>
      </trkpt>
      <trkpt lat="44.02152" lon="7.20024">
        <ele>1220</ele>
        <time>2014-05-04T08:33:54.000Z</time>
      </trkpt>
      <trkpt lat="44.02127" lon="7.20031">
        <ele>1215.5999755859</ele>
        <time>2014-05-04T08:33:58.000Z</time>
      </trkpt>
      <trkpt lat="44.02104" lon="7.20034">
        <ele>1210.1999511719</ele>
        <time>2014-05-04T08:34:02.000Z</time>
      </trkpt>
      <trkpt lat="44.02088" lon="7.20045">
        <ele>1205.5999755859</ele>
        <time>2014-05-04T08:34:06.000Z</time>
      </trkpt>
      <trkpt lat="44.02084" lon="7.20045">
        <ele>1205.5999755859</ele>
        <time>2014-05-04T08:34:07.000Z</time>
      </trkpt>
      <trkpt lat="44.02065" lon="7.20056">
        <ele>1198.5999755859</ele>
        <time>2014-05-04T08:34:10.000Z</time>
      </trkpt>
      <trkpt lat="44.02059" lon="7.20057">
        <ele>1197.4000244141</ele>
        <time>2014-05-04T08:34:11.000Z</time>
      </trkpt>
      <trkpt lat="44.02053" lon="7.20056">
        <ele>1196.8000488281</ele>
        <time>2014-05-04T08:34:12.000Z</time>
      </trkpt>
      <trkpt lat="44.02024" lon="7.20069">
        <ele>1186.4000244141</ele>
        <time>2014-05-04T08:34:16.000Z</time>
      </trkpt>
      <trkpt lat="44.0201" lon="7.20069">
        <ele>1185.1999511719</ele>
        <time>2014-05-04T08:34:18.000Z</time>
      </trkpt>
      <trkpt lat="44.01999" lon="7.20069">
        <ele>1184.4000244141</ele>
        <time>2014-05-04T08:34:20.000Z</time>
      </trkpt>
      <trkpt lat="44.01981" lon="7.20066">
        <ele>1185.4000244141</ele>
        <time>2014-05-04T08:34:23.000Z</time>
      </trkpt>
      <trkpt lat="44.01979" lon="7.20062">
        <ele>1187.5999755859</ele>
        <time>2014-05-04T08:34:24.000Z</time>
      </trkpt>
      <trkpt lat="44.01965" lon="7.20065">
        <ele>1184.4000244141</ele>
        <time>2014-05-04T08:34:27.000Z</time>
      </trkpt>
      <trkpt lat="44.01957" lon="7.2007">
        <ele>1181</ele>
        <time>2014-05-04T08:34:28.000Z</time>
      </trkpt>
      <trkpt lat="44.01949" lon="7.2007">
        <ele>1180.4000244141</ele>
        <time>2014-05-04T08:34:29.000Z</time>
      </trkpt>
      <trkpt lat="44.01932" lon="7.20073">
        <ele>1175.5999755859</ele>
        <time>2014-05-04T08:34:32.000Z</time>
      </trkpt>
      <trkpt lat="44.01917" lon="7.20075">
        <ele>1171</ele>
        <time>2014-05-04T08:34:35.000Z</time>
      </trkpt>
      <trkpt lat="44.01906" lon="7.2008">
        <ele>1166.1999511719</ele>
        <time>2014-05-04T08:34:37.000Z</time>
      </trkpt>
      <trkpt lat="44.019" lon="7.20084">
        <ele>1163.4000244141</ele>
        <time>2014-05-04T08:34:38.000Z</time>
      </trkpt>
      <trkpt lat="44.01882" lon="7.20095">
        <ele>1155.4000244141</ele>
        <time>2014-05-04T08:34:41.000Z</time>
      </trkpt>
      <trkpt lat="44.01876" lon="7.20098">
        <ele>1152.8000488281</ele>
        <time>2014-05-04T08:34:42.000Z</time>
      </trkpt>
      <trkpt lat="44.01864" lon="7.201">
        <ele>1149.8000488281</ele>
        <time>2014-05-04T08:34:44.000Z</time>
      </trkpt>
      <trkpt lat="44.01851" lon="7.20097">
        <ele>1147.1999511719</ele>
        <time>2014-05-04T08:34:46.000Z</time>
      </trkpt>
      <trkpt lat="44.01824" lon="7.20076">
        <ele>1145.4000244141</ele>
        <time>2014-05-04T08:34:50.000Z</time>
      </trkpt>
      <trkpt lat="44.01796" lon="7.20059">
        <ele>1142.5999755859</ele>
        <time>2014-05-04T08:34:55.000Z</time>
      </trkpt>
      <trkpt lat="44.01782" lon="7.20047">
        <ele>1142.5999755859</ele>
        <time>2014-05-04T08:34:58.000Z</time>
      </trkpt>
      <trkpt lat="44.01775" lon="7.20038">
        <ele>1143.4000244141</ele>
        <time>2014-05-04T08:35:00.000Z</time>
      </trkpt>
      <trkpt lat="44.01773" lon="7.20034">
        <ele>1144</ele>
        <time>2014-05-04T08:35:01.000Z</time>
      </trkpt>
      <trkpt lat="44.01763" lon="7.20032">
        <ele>1140.4000244141</ele>
        <time>2014-05-04T08:35:03.000Z</time>
      </trkpt>
      <trkpt lat="44.01756" lon="7.20034">
        <ele>1136</ele>
        <time>2014-05-04T08:35:04.000Z</time>
      </trkpt>
      <trkpt lat="44.01742" lon="7.20035">
        <ele>1129.4000244141</ele>
        <time>2014-05-04T08:35:06.000Z</time>
      </trkpt>
      <trkpt lat="44.01729" lon="7.2003">
        <ele>1125.5999755859</ele>
        <time>2014-05-04T08:35:08.000Z</time>
      </trkpt>
      <trkpt lat="44.01709" lon="7.20004">
        <ele>1126.1999511719</ele>
        <time>2014-05-04T08:35:12.000Z</time>
      </trkpt>
      <trkpt lat="44.01705" lon="7.19997">
        <ele>1127.1999511719</ele>
        <time>2014-05-04T08:35:13.000Z</time>
      </trkpt>
      <trkpt lat="44.01687" lon="7.1996">
        <ele>1133.8000488281</ele>
        <time>2014-05-04T08:35:18.000Z</time>
      </trkpt>
      <trkpt lat="44.01675" lon="7.19944">
        <ele>1135.1999511719</ele>
        <time>2014-05-04T08:35:21.000Z</time>
      </trkpt>
      <trkpt lat="44.01663" lon="7.19934">
        <ele>1134.8000488281</ele>
        <time>2014-05-04T08:35:23.000Z</time>
      </trkpt>
      <trkpt lat="44.01639" lon="7.19916">
        <ele>1132.5999755859</ele>
        <time>2014-05-04T08:35:26.000Z</time>
      </trkpt>
      <trkpt lat="44.01632" lon="7.19911">
        <ele>1132</ele>
        <time>2014-05-04T08:35:27.000Z</time>
      </trkpt>
      <trkpt lat="44.01618" lon="7.19901">
        <ele>1129.5999755859</ele>
        <time>2014-05-04T08:35:29.000Z</time>
      </trkpt>
      <trkpt lat="44.01608" lon="7.19894">
        <ele>1127.8000488281</ele>
        <time>2014-05-04T08:35:31.000Z</time>
      </trkpt>
      <trkpt lat="44.01603" lon="7.19893">
        <ele>1125.8000488281</ele>
        <time>2014-05-04T08:35:32.000Z</time>
      </trkpt>
      <trkpt lat="44.01581" lon="7.19894">
        <ele>1113.1999511719</ele>
        <time>2014-05-04T08:35:35.000Z</time>
      </trkpt>
      <trkpt lat="44.01553" lon="7.19889">
        <ele>1100.4000244141</ele>
        <time>2014-05-04T08:35:38.000Z</time>
      </trkpt>
      <trkpt lat="44.01546" lon="7.19884">
        <ele>1098.1999511719</ele>
        <time>2014-05-04T08:35:39.000Z</time>
      </trkpt>
      <trkpt lat="44.01537" lon="7.19867">
        <ele>1097.8000488281</ele>
        <time>2014-05-04T08:35:42.000Z</time>
      </trkpt>
      <trkpt lat="44.01535" lon="7.19852">
        <ele>1100.1999511719</ele>
        <time>2014-05-04T08:35:45.000Z</time>
      </trkpt>
      <trkpt lat="44.01535" lon="7.19847">
        <ele>1101.4000244141</ele>
        <time>2014-05-04T08:35:46.000Z</time>
      </trkpt>
      <trkpt lat="44.01533" lon="7.19842">
        <ele>1101.8000488281</ele>
        <time>2014-05-04T08:35:47.000Z</time>
      </trkpt>
      <trkpt lat="44.01526" lon="7.19814">
        <ele>1099.1999511719</ele>
        <time>2014-05-04T08:35:52.000Z</time>
      </trkpt>
      <trkpt lat="44.01525" lon="7.19798">
        <ele>1097</ele>
        <time>2014-05-04T08:35:56.000Z</time>
      </trkpt>
      <trkpt lat="44.01528" lon="7.19779">
        <ele>1096.1999511719</ele>
        <time>2014-05-04T08:36:00.000Z</time>
      </trkpt>
      <trkpt lat="44.01533" lon="7.19771">
        <ele>1098</ele>
        <time>2014-05-04T08:36:03.000Z</time>
      </trkpt>
      <trkpt lat="44.01536" lon="7.19768">
        <ele>1099.1999511719</ele>
        <time>2014-05-04T08:36:04.000Z</time>
      </trkpt>
      <trkpt lat="44.01546" lon="7.19749">
        <ele>1102</ele>
        <time>2014-05-04T08:36:09.000Z</time>
      </trkpt>
      <trkpt lat="44.01553" lon="7.19731">
        <ele>1105.8000488281</ele>
        <time>2014-05-04T08:36:15.000Z</time>
      </trkpt>
      <trkpt lat="44.0157" lon="7.1971">
        <ele>1115.5999755859</ele>
        <time>2014-05-04T08:36:20.000Z</time>
      </trkpt>
      <trkpt lat="44.01585" lon="7.19698">
        <ele>1119</ele>
        <time>2014-05-04T08:36:25.000Z</time>
      </trkpt>
      <trkpt lat="44.0159" lon="7.19687">
        <ele>1118.1999511719</ele>
        <time>2014-05-04T08:36:30.000Z</time>
      </trkpt>
      <trkpt lat="44.01597" lon="7.19669">
        <ele>1116.5999755859</ele>
        <time>2014-05-04T08:36:34.000Z</time>
      </trkpt>
      <trkpt lat="44.01595" lon="7.19665">
        <ele>1115.1999511719</ele>
        <time>2014-05-04T08:36:36.000Z</time>
      </trkpt>
      <trkpt lat="44.01593" lon="7.19664">
        <ele>1114.4000244141</ele>
        <time>2014-05-04T08:36:37.000Z</time>
      </trkpt>
      <trkpt lat="44.01579" lon="7.19657">
        <ele>1111</ele>
        <time>2014-05-04T08:36:41.000Z</time>
      </trkpt>
      <trkpt lat="44.01573" lon="7.19651">
        <ele>1111.4000244141</ele>
        <time>2014-05-04T08:36:43.000Z</time>
      </trkpt>
      <trkpt lat="44.01567" lon="7.19646">
        <ele>1111.8000488281</ele>
        <time>2014-05-04T08:36:46.000Z</time>
      </trkpt>
      <trkpt lat="44.01568" lon="7.1964">
        <ele>1114.1999511719</ele>
        <time>2014-05-04T08:36:48.000Z</time>
      </trkpt>
      <trkpt lat="44.01564" lon="7.19632">
        <ele>1116</ele>
        <time>2014-05-04T08:36:50.000Z</time>
      </trkpt>
      <trkpt lat="44.01559" lon="7.19627">
        <ele>1116.5999755859</ele>
        <time>2014-05-04T08:36:55.000Z</time>
      </trkpt>
      <trkpt lat="44.0155" lon="7.19627">
        <ele>1113.5999755859</ele>
        <time>2014-05-04T08:37:01.000Z</time>
      </trkpt>
      <trkpt lat="44.01537" lon="7.19626">
        <ele>1109.1999511719</ele>
        <time>2014-05-04T08:37:06.000Z</time>
      </trkpt>
      <trkpt lat="44.01521" lon="7.1962">
        <ele>1107.1999511719</ele>
        <time>2014-05-04T08:37:09.000Z</time>
      </trkpt>
      <trkpt lat="44.01499" lon="7.1961">
        <ele>1106.4000244141</ele>
        <time>2014-05-04T08:37:14.000Z</time>
      </trkpt>
      <trkpt lat="44.01479" lon="7.19606">
        <ele>1104.1999511719</ele>
        <time>2014-05-04T08:37:18.000Z</time>
      </trkpt>
      <trkpt lat="44.01475" lon="7.19606">
        <ele>1103.1999511719</ele>
        <time>2014-05-04T08:37:19.000Z</time>
      </trkpt>
      <trkpt lat="44.01456" lon="7.19602">
        <ele>1099.5999755859</ele>
        <time>2014-05-04T08:37:23.000Z</time>
      </trkpt>
      <trkpt lat="44.0145" lon="7.19599">
        <ele>1099.8000488281</ele>
        <time>2014-05-04T08:37:24.000Z</time>
      </trkpt>
      <trkpt lat="44.01437" lon="7.19594">
        <ele>1097.5999755859</ele>
        <time>2014-05-04T08:37:27.000Z</time>
      </trkpt>
      <trkpt lat="44.01433" lon="7.19593">
        <ele>1096.5999755859</ele>
        <time>2014-05-04T08:37:28.000Z</time>
      </trkpt>
      <trkpt lat="44.0143" lon="7.19589">
        <ele>1097.1999511719</ele>
        <time>2014-05-04T08:37:29.000Z</time>
      </trkpt>
      <trkpt lat="44.01416" lon="7.19585">
        <ele>1093.8000488281</ele>
        <time>2014-05-04T08:37:32.000Z</time>
      </trkpt>
      <trkpt lat="44.01406" lon="7.19584">
        <ele>1090</ele>
        <time>2014-05-04T08:37:34.000Z</time>
      </trkpt>
      <trkpt lat="44.01401" lon="7.19581">
        <ele>1089.4000244141</ele>
        <time>2014-05-04T08:37:35.000Z</time>
      </trkpt>
      <trkpt lat="44.01396" lon="7.19576">
        <ele>1089.4000244141</ele>
        <time>2014-05-04T08:37:36.000Z</time>
      </trkpt>
      <trkpt lat="44.01381" lon="7.19558">
        <ele>1088</ele>
        <time>2014-05-04T08:37:40.000Z</time>
      </trkpt>
      <trkpt lat="44.01377" lon="7.19555">
        <ele>1087.4000244141</ele>
        <time>2014-05-04T08:37:41.000Z</time>
      </trkpt>
      <trkpt lat="44.01361" lon="7.19544">
        <ele>1084</ele>
        <time>2014-05-04T08:37:44.000Z</time>
      </trkpt>
      <trkpt lat="44.01356" lon="7.19539">
        <ele>1083</ele>
        <time>2014-05-04T08:37:45.000Z</time>
      </trkpt>
      <trkpt lat="44.01341" lon="7.19521">
        <ele>1077.8000488281</ele>
        <time>2014-05-04T08:37:48.000Z</time>
      </trkpt>
      <trkpt lat="44.01337" lon="7.19516">
        <ele>1076.4000244141</ele>
        <time>2014-05-04T08:37:49.000Z</time>
      </trkpt>
      <trkpt lat="44.0133" lon="7.19503">
        <ele>1075.5999755859</ele>
        <time>2014-05-04T08:37:51.000Z</time>
      </trkpt>
      <trkpt lat="44.01323" lon="7.19491">
        <ele>1073.4000244141</ele>
        <time>2014-05-04T08:37:53.000Z</time>
      </trkpt>
      <trkpt lat="44.01316" lon="7.19476">
        <ele>1067.4000244141</ele>
        <time>2014-05-04T08:37:56.000Z</time>
      </trkpt>
      <trkpt lat="44.01314" lon="7.19468">
        <ele>1066</ele>
        <time>2014-05-04T08:37:58.000Z</time>
      </trkpt>
      <trkpt lat="44.01309" lon="7.19453">
        <ele>1061.8000488281</ele>
        <time>2014-05-04T08:38:03.000Z</time>
      </trkpt>
      <trkpt lat="44.01309" lon="7.19435">
        <ele>1061.8000488281</ele>
        <time>2014-05-04T08:38:06.000Z</time>
      </trkpt>
      <trkpt lat="44.01309" lon="7.19429">
        <ele>1062</ele>
        <time>2014-05-04T08:38:07.000Z</time>
      </trkpt>
      <trkpt lat="44.01315" lon="7.19399">
        <ele>1067.1999511719</ele>
        <time>2014-05-04T08:38:12.000Z</time>
      </trkpt>
      <trkpt lat="44.01317" lon="7.19389">
        <ele>1069.5999755859</ele>
        <time>2014-05-04T08:38:14.000Z</time>
      </trkpt>
      <trkpt lat="44.01321" lon="7.19376">
        <ele>1073.8000488281</ele>
        <time>2014-05-04T08:38:17.000Z</time>
      </trkpt>
      <trkpt lat="44.01325" lon="7.19364">
        <ele>1073.8000488281</ele>
        <time>2014-05-04T08:38:20.000Z</time>
      </trkpt>
      <trkpt lat="44.01333" lon="7.19355">
        <ele>1075.4000244141</ele>
        <time>2014-05-04T08:38:22.000Z</time>
      </trkpt>
      <trkpt lat="44.01348" lon="7.19347">
        <ele>1080</ele>
        <time>2014-05-04T08:38:25.000Z</time>
      </trkpt>
      <trkpt lat="44.01352" lon="7.19344">
        <ele>1081.1999511719</ele>
        <time>2014-05-04T08:38:26.000Z</time>
      </trkpt>
      <trkpt lat="44.01356" lon="7.1934">
        <ele>1082</ele>
        <time>2014-05-04T08:38:27.000Z</time>
      </trkpt>
      <trkpt lat="44.01369" lon="7.19333">
        <ele>1087.1999511719</ele>
        <time>2014-05-04T08:38:31.000Z</time>
      </trkpt>
      <trkpt lat="44.01375" lon="7.1933">
        <ele>1089.8000488281</ele>
        <time>2014-05-04T08:38:34.000Z</time>
      </trkpt>
      <trkpt lat="44.01379" lon="7.1933">
        <ele>1091.5999755859</ele>
        <time>2014-05-04T08:38:36.000Z</time>
      </trkpt>
      <trkpt lat="44.0138" lon="7.19326">
        <ele>1091.8000488281</ele>
        <time>2014-05-04T08:38:39.000Z</time>
      </trkpt>
      <trkpt lat="44.01384" lon="7.19326">
        <ele>1093.4000244141</ele>
        <time>2014-05-04T08:38:44.000Z</time>
      </trkpt>
      <trkpt lat="44.01384" lon="7.19324">
        <ele>1093.8000488281</ele>
        <time>2014-05-04T08:38:45.000Z</time>
      </trkpt>
      <trkpt lat="44.01386" lon="7.19322">
        <ele>1094.5999755859</ele>
        <time>2014-05-04T08:38:49.000Z</time>
      </trkpt>
      <trkpt lat="44.01384" lon="7.1932">
        <ele>1094</ele>
        <time>2014-05-04T08:38:52.000Z</time>
      </trkpt>
      <trkpt lat="44.01384" lon="7.19314">
        <ele>1094.1999511719</ele>
        <time>2014-05-04T08:38:54.000Z</time>
      </trkpt>
      <trkpt lat="44.01386" lon="7.19295">
        <ele>1095.5999755859</ele>
        <time>2014-05-04T08:38:58.000Z</time>
      </trkpt>
      <trkpt lat="44.01373" lon="7.19277">
        <ele>1089.8000488281</ele>
        <time>2014-05-04T08:39:02.000Z</time>
      </trkpt>
      <trkpt lat="44.0136" lon="7.19264">
        <ele>1084</ele>
        <time>2014-05-04T08:39:06.000Z</time>
      </trkpt>
      <trkpt lat="44.0136" lon="7.19261">
        <ele>1084.1999511719</ele>
        <time>2014-05-04T08:39:07.000Z</time>
      </trkpt>
      <trkpt lat="44.01364" lon="7.19251">
        <ele>1086.4000244141</ele>
        <time>2014-05-04T08:39:09.000Z</time>
      </trkpt>
      <trkpt lat="44.01366" lon="7.19244">
        <ele>1087</ele>
        <time>2014-05-04T08:39:11.000Z</time>
      </trkpt>
      <trkpt lat="44.0137" lon="7.19235">
        <ele>1092.8000488281</ele>
        <time>2014-05-04T08:39:14.000Z</time>
      </trkpt>
      <trkpt lat="44.0137" lon="7.19228">
        <ele>1095.8000488281</ele>
        <time>2014-05-04T08:39:16.000Z</time>
      </trkpt>
      <trkpt lat="44.01368" lon="7.19227">
        <ele>1095.4000244141</ele>
        <time>2014-05-04T08:39:18.000Z</time>
      </trkpt>
      <trkpt lat="44.01356" lon="7.19223">
        <ele>1093.5999755859</ele>
        <time>2014-05-04T08:39:22.000Z</time>
      </trkpt>
      <trkpt lat="44.01337" lon="7.1921">
        <ele>1096.1999511719</ele>
        <time>2014-05-04T08:39:26.000Z</time>
      </trkpt>
      <trkpt lat="44.01315" lon="7.19202">
        <ele>1096.1999511719</ele>
        <time>2014-05-04T08:39:30.000Z</time>
      </trkpt>
      <trkpt lat="44.0131" lon="7.192">
        <ele>1096.1999511719</ele>
        <time>2014-05-04T08:39:31.000Z</time>
      </trkpt>
      <trkpt lat="44.01303" lon="7.19204">
        <ele>1093.4000244141</ele>
        <time>2014-05-04T08:39:33.000Z</time>
      </trkpt>
      <trkpt lat="44.01291" lon="7.19209">
        <ele>1089.1999511719</ele>
        <time>2014-05-04T08:39:35.000Z</time>
      </trkpt>
      <trkpt lat="44.01275" lon="7.19218">
        <ele>1082</ele>
        <time>2014-05-04T08:39:37.000Z</time>
      </trkpt>
      <trkpt lat="44.0126" lon="7.19225">
        <ele>1072.5999755859</ele>
        <time>2014-05-04T08:39:39.000Z</time>
      </trkpt>
      <trkpt lat="44.01243" lon="7.19222">
        <ele>1068.8000488281</ele>
        <time>2014-05-04T08:39:42.000Z</time>
      </trkpt>
      <trkpt lat="44.01239" lon="7.19222">
        <ele>1067.5999755859</ele>
        <time>2014-05-04T08:39:43.000Z</time>
      </trkpt>
      <trkpt lat="44.01221" lon="7.19224">
        <ele>1062</ele>
        <time>2014-05-04T08:39:46.000Z</time>
      </trkpt>
      <trkpt lat="44.01196" lon="7.19211">
        <ele>1060</ele>
        <time>2014-05-04T08:39:50.000Z</time>
      </trkpt>
      <trkpt lat="44.01191" lon="7.1921">
        <ele>1058.5999755859</ele>
        <time>2014-05-04T08:39:51.000Z</time>
      </trkpt>
      <trkpt lat="44.0118" lon="7.19207">
        <ele>1052.5999755859</ele>
        <time>2014-05-04T08:39:54.000Z</time>
      </trkpt>
      <trkpt lat="44.01155" lon="7.19201">
        <ele>1039.4000244141</ele>
        <time>2014-05-04T08:39:58.000Z</time>
      </trkpt>
      <trkpt lat="44.01136" lon="7.19184">
        <ele>1033.1999511719</ele>
        <time>2014-05-04T08:40:02.000Z</time>
      </trkpt>
      <trkpt lat="44.01126" lon="7.19159">
        <ele>1034.8000488281</ele>
        <time>2014-05-04T08:40:07.000Z</time>
      </trkpt>
      <trkpt lat="44.01124" lon="7.19152">
        <ele>1035.5999755859</ele>
        <time>2014-05-04T08:40:08.000Z</time>
      </trkpt>
      <trkpt lat="44.01117" lon="7.19128">
        <ele>1039.1999511719</ele>
        <time>2014-05-04T08:40:11.000Z</time>
      </trkpt>
      <trkpt lat="44.01113" lon="7.19108">
        <ele>1043.5999755859</ele>
        <time>2014-05-04T08:40:14.000Z</time>
      </trkpt>
      <trkpt lat="44.01103" lon="7.19102">
        <ele>1039.5999755859</ele>
        <time>2014-05-04T08:40:16.000Z</time>
      </trkpt>
      <trkpt lat="44.01083" lon="7.19098">
        <ele>1029.1999511719</ele>
        <time>2014-05-04T08:40:19.000Z</time>
      </trkpt>
      <trkpt lat="44.01078" lon="7.19094">
        <ele>1028</ele>
        <time>2014-05-04T08:40:20.000Z</time>
      </trkpt>
      <trkpt lat="44.01069" lon="7.19074">
        <ele>1029</ele>
        <time>2014-05-04T08:40:23.000Z</time>
      </trkpt>
      <trkpt lat="44.0106" lon="7.19049">
        <ele>1033.4000244141</ele>
        <time>2014-05-04T08:40:26.000Z</time>
      </trkpt>
      <trkpt lat="44.01056" lon="7.19041">
        <ele>1034.1999511719</ele>
        <time>2014-05-04T08:40:27.000Z</time>
      </trkpt>
      <trkpt lat="44.01048" lon="7.1903">
        <ele>1033.8000488281</ele>
        <time>2014-05-04T08:40:29.000Z</time>
      </trkpt>
      <trkpt lat="44.01043" lon="7.19027">
        <ele>1032</ele>
        <time>2014-05-04T08:40:30.000Z</time>
      </trkpt>
      <trkpt lat="44.01015" lon="7.1901">
        <ele>1021.799987793</ele>
        <time>2014-05-04T08:40:35.000Z</time>
      </trkpt>
      <trkpt lat="44.01009" lon="7.19006">
        <ele>1020.200012207</ele>
        <time>2014-05-04T08:40:36.000Z</time>
      </trkpt>
      <trkpt lat="44.00996" lon="7.18993">
        <ele>1016.799987793</ele>
        <time>2014-05-04T08:40:39.000Z</time>
      </trkpt>
      <trkpt lat="44.00975" lon="7.18981">
        <ele>1005.5999755859</ele>
        <time>2014-05-04T08:40:43.000Z</time>
      </trkpt>
      <trkpt lat="44.00954" lon="7.18966">
        <ele>995</ele>
        <time>2014-05-04T08:40:47.000Z</time>
      </trkpt>
      <trkpt lat="44.00951" lon="7.18961">
        <ele>993.59997558594</ele>
        <time>2014-05-04T08:40:48.000Z</time>
      </trkpt>
      <trkpt lat="44.00948" lon="7.18947">
        <ele>994</ele>
        <time>2014-05-04T08:40:51.000Z</time>
      </trkpt>
      <trkpt lat="44.00943" lon="7.18933">
        <ele>993</ele>
        <time>2014-05-04T08:40:54.000Z</time>
      </trkpt>
      <trkpt lat="44.00941" lon="7.18927">
        <ele>992.59997558594</ele>
        <time>2014-05-04T08:40:55.000Z</time>
      </trkpt>
      <trkpt lat="44.00941" lon="7.18921">
        <ele>993.20001220703</ele>
        <time>2014-05-04T08:40:56.000Z</time>
      </trkpt>
      <trkpt lat="44.00944" lon="7.1891">
        <ele>996.59997558594</ele>
        <time>2014-05-04T08:40:58.000Z</time>
      </trkpt>
      <trkpt lat="44.0095" lon="7.18895">
        <ele>1000.799987793</ele>
        <time>2014-05-04T08:41:00.000Z</time>
      </trkpt>
      <trkpt lat="44.00957" lon="7.18883">
        <ele>1005.200012207</ele>
        <time>2014-05-04T08:41:02.000Z</time>
      </trkpt>
      <trkpt lat="44.00961" lon="7.18877">
        <ele>1008</ele>
        <time>2014-05-04T08:41:03.000Z</time>
      </trkpt>
      <trkpt lat="44.00975" lon="7.18862">
        <ele>1017</ele>
        <time>2014-05-04T08:41:06.000Z</time>
      </trkpt>
      <trkpt lat="44.00978" lon="7.18857">
        <ele>1017</ele>
        <time>2014-05-04T08:41:07.000Z</time>
      </trkpt>
      <trkpt lat="44.0099" lon="7.18844">
        <ele>1017.4000244141</ele>
        <time>2014-05-04T08:41:11.000Z</time>
      </trkpt>
      <trkpt lat="44.00993" lon="7.18843">
        <ele>1018.200012207</ele>
        <time>2014-05-04T08:41:12.000Z</time>
      </trkpt>
      <trkpt lat="44.01007" lon="7.18835">
        <ele>1020.4000244141</ele>
        <time>2014-05-04T08:41:15.000Z</time>
      </trkpt>
      <trkpt lat="44.01017" lon="7.18824">
        <ele>1022.799987793</ele>
        <time>2014-05-04T08:41:18.000Z</time>
      </trkpt>
      <trkpt lat="44.01019" lon="7.18817">
        <ele>1024.8000488281</ele>
        <time>2014-05-04T08:41:20.000Z</time>
      </trkpt>
      <trkpt lat="44.01015" lon="7.18804">
        <ele>1026.4000244141</ele>
        <time>2014-05-04T08:41:23.000Z</time>
      </trkpt>
      <trkpt lat="44.0101" lon="7.18804">
        <ele>1025.4000244141</ele>
        <time>2014-05-04T08:41:24.000Z</time>
      </trkpt>
      <trkpt lat="44.01" lon="7.18808">
        <ele>1022.4000244141</ele>
        <time>2014-05-04T08:41:28.000Z</time>
      </trkpt>
      <trkpt lat="44.00997" lon="7.18807">
        <ele>1022</ele>
        <time>2014-05-04T08:41:31.000Z</time>
      </trkpt>
      <trkpt lat="44.00996" lon="7.18804">
        <ele>1022.5999755859</ele>
        <time>2014-05-04T08:41:32.000Z</time>
      </trkpt>
      <trkpt lat="44.00989" lon="7.18801">
        <ele>1021.200012207</ele>
        <time>2014-05-04T08:41:39.000Z</time>
      </trkpt>
      <trkpt lat="44.00985" lon="7.18799">
        <ele>1020.799987793</ele>
        <time>2014-05-04T08:41:42.000Z</time>
      </trkpt>
      <trkpt lat="44.00985" lon="7.18801">
        <ele>1020.4000244141</ele>
        <time>2014-05-04T08:41:43.000Z</time>
      </trkpt>
      <trkpt lat="44.00982" lon="7.18803">
        <ele>1018.799987793</ele>
        <time>2014-05-04T08:41:49.000Z</time>
      </trkpt>
      <trkpt lat="44.00985" lon="7.18798">
        <ele>1021.200012207</ele>
        <time>2014-05-04T08:41:53.000Z</time>
      </trkpt>
      <trkpt lat="44.00992" lon="7.18799">
        <ele>1022.5999755859</ele>
        <time>2014-05-04T08:41:58.000Z</time>
      </trkpt>
      <trkpt lat="44.00995" lon="7.18798">
        <ele>1023.799987793</ele>
        <time>2014-05-04T08:41:59.000Z</time>
      </trkpt>
      <trkpt lat="44.01002" lon="7.18801">
        <ele>1024.8000488281</ele>
        <time>2014-05-04T08:42:02.000Z</time>
      </trkpt>
      <trkpt lat="44.01006" lon="7.18801">
        <ele>1025.4000244141</ele>
        <time>2014-05-04T08:42:04.000Z</time>
      </trkpt>
      <trkpt lat="44.01006" lon="7.18804">
        <ele>1025</ele>
        <time>2014-05-04T08:42:09.000Z</time>
      </trkpt>
      <trkpt lat="44.01004" lon="7.18821">
        <ele>1019.799987793</ele>
        <time>2014-05-04T08:42:14.000Z</time>
      </trkpt>
      <trkpt lat="44.01001" lon="7.18828">
        <ele>1017</ele>
        <time>2014-05-04T08:42:17.000Z</time>
      </trkpt>
      <trkpt lat="44.01" lon="7.18834">
        <ele>1018</ele>
        <time>2014-05-04T08:42:19.000Z</time>
      </trkpt>
      <trkpt lat="44.00996" lon="7.18839">
        <ele>1018</ele>
        <time>2014-05-04T08:42:23.000Z</time>
      </trkpt>
      <trkpt lat="44.00986" lon="7.1885">
        <ele>1017.799987793</ele>
        <time>2014-05-04T08:42:28.000Z</time>
      </trkpt>
      <trkpt lat="44.00973" lon="7.18863">
        <ele>1015.799987793</ele>
        <time>2014-05-04T08:42:33.000Z</time>
      </trkpt>
      <trkpt lat="44.0096" lon="7.18881">
        <ele>1007.200012207</ele>
        <time>2014-05-04T08:42:37.000Z</time>
      </trkpt>
      <trkpt lat="44.00945" lon="7.18901">
        <ele>997.40002441406</ele>
        <time>2014-05-04T08:42:42.000Z</time>
      </trkpt>
      <trkpt lat="44.00936" lon="7.18919">
        <ele>991.79998779297</ele>
        <time>2014-05-04T08:42:46.000Z</time>
      </trkpt>
      <trkpt lat="44.00933" lon="7.18924">
        <ele>989.79998779297</ele>
        <time>2014-05-04T08:42:47.000Z</time>
      </trkpt>
      <trkpt lat="44.00924" lon="7.18944">
        <ele>983.79998779297</ele>
        <time>2014-05-04T08:42:51.000Z</time>
      </trkpt>
      <trkpt lat="44.00923" lon="7.18949">
        <ele>982.59997558594</ele>
        <time>2014-05-04T08:42:52.000Z</time>
      </trkpt>
      <trkpt lat="44.00923" lon="7.18962">
        <ele>980.59997558594</ele>
        <time>2014-05-04T08:42:55.000Z</time>
      </trkpt>
      <trkpt lat="44.00922" lon="7.18967">
        <ele>979.79998779297</ele>
        <time>2014-05-04T08:42:56.000Z</time>
      </trkpt>
      <trkpt lat="44.00925" lon="7.18986">
        <ele>977.20001220703</ele>
        <time>2014-05-04T08:43:00.000Z</time>
      </trkpt>
      <trkpt lat="44.00933" lon="7.19006">
        <ele>975</ele>
        <time>2014-05-04T08:43:05.000Z</time>
      </trkpt>
      <trkpt lat="44.00937" lon="7.19016">
        <ele>972.79998779297</ele>
        <time>2014-05-04T08:43:09.000Z</time>
      </trkpt>
      <trkpt lat="44.00938" lon="7.19019">
        <ele>972.59997558594</ele>
        <time>2014-05-04T08:43:10.000Z</time>
      </trkpt>
      <trkpt lat="44.00944" lon="7.19033">
        <ele>970.59997558594</ele>
        <time>2014-05-04T08:43:13.000Z</time>
      </trkpt>
      <trkpt lat="44.0095" lon="7.19046">
        <ele>969.59997558594</ele>
        <time>2014-05-04T08:43:17.000Z</time>
      </trkpt>
      <trkpt lat="44.00964" lon="7.19057">
        <ele>973.40002441406</ele>
        <time>2014-05-04T08:43:22.000Z</time>
      </trkpt>
      <trkpt lat="44.00966" lon="7.19066">
        <ele>971.20001220703</ele>
        <time>2014-05-04T08:43:26.000Z</time>
      </trkpt>
      <trkpt lat="44.00973" lon="7.19083">
        <ele>969</ele>
        <time>2014-05-04T08:43:31.000Z</time>
      </trkpt>
      <trkpt lat="44.00985" lon="7.19092">
        <ele>973.79998779297</ele>
        <time>2014-05-04T08:43:35.000Z</time>
      </trkpt>
      <trkpt lat="44.01" lon="7.19099">
        <ele>980.59997558594</ele>
        <time>2014-05-04T08:43:40.000Z</time>
      </trkpt>
      <trkpt lat="44.01003" lon="7.19105">
        <ele>980.59997558594</ele>
        <time>2014-05-04T08:43:44.000Z</time>
      </trkpt>
      <trkpt lat="44.01004" lon="7.19111">
        <ele>979.59997558594</ele>
        <time>2014-05-04T08:43:46.000Z</time>
      </trkpt>
      <trkpt lat="44.01004" lon="7.19122">
        <ele>976.20001220703</ele>
        <time>2014-05-04T08:43:49.000Z</time>
      </trkpt>
      <trkpt lat="44.00999" lon="7.19143">
        <ele>968</ele>
        <time>2014-05-04T08:43:53.000Z</time>
      </trkpt>
      <trkpt lat="44.01" lon="7.1916">
        <ele>965.40002441406</ele>
        <time>2014-05-04T08:43:58.000Z</time>
      </trkpt>
      <trkpt lat="44.01004" lon="7.19175">
        <ele>964.20001220703</ele>
        <time>2014-05-04T08:44:03.000Z</time>
      </trkpt>
      <trkpt lat="44.01008" lon="7.19186">
        <ele>963.59997558594</ele>
        <time>2014-05-04T08:44:07.000Z</time>
      </trkpt>
      <trkpt lat="44.0102" lon="7.19203">
        <ele>965.20001220703</ele>
        <time>2014-05-04T08:44:13.000Z</time>
      </trkpt>
      <trkpt lat="44.01028" lon="7.19219">
        <ele>965.20001220703</ele>
        <time>2014-05-04T08:44:16.000Z</time>
      </trkpt>
      <trkpt lat="44.01028" lon="7.19236">
        <ele>961.40002441406</ele>
        <time>2014-05-04T08:44:20.000Z</time>
      </trkpt>
      <trkpt lat="44.0103" lon="7.1924">
        <ele>962</ele>
        <time>2014-05-04T08:44:23.000Z</time>
      </trkpt>
      <trkpt lat="44.01032" lon="7.19243">
        <ele>962</ele>
        <time>2014-05-04T08:44:25.000Z</time>
      </trkpt>
      <trkpt lat="44.01039" lon="7.19251">
        <ele>963.79998779297</ele>
        <time>2014-05-04T08:44:29.000Z</time>
      </trkpt>
      <trkpt lat="44.01041" lon="7.19268">
        <ele>962.40002441406</ele>
        <time>2014-05-04T08:44:33.000Z</time>
      </trkpt>
      <trkpt lat="44.01046" lon="7.19279">
        <ele>963.20001220703</ele>
        <time>2014-05-04T08:44:37.000Z</time>
      </trkpt>
      <trkpt lat="44.0105" lon="7.19286">
        <ele>964.20001220703</ele>
        <time>2014-05-04T08:44:41.000Z</time>
      </trkpt>
      <trkpt lat="44.01051" lon="7.19302">
        <ele>963.20001220703</ele>
        <time>2014-05-04T08:44:45.000Z</time>
      </trkpt>
      <trkpt lat="44.01056" lon="7.1931">
        <ele>964.40002441406</ele>
        <time>2014-05-04T08:44:47.000Z</time>
      </trkpt>
      <trkpt lat="44.01059" lon="7.19312">
        <ele>965.40002441406</ele>
        <time>2014-05-04T08:44:48.000Z</time>
      </trkpt>
      <trkpt lat="44.01066" lon="7.19316">
        <ele>967.79998779297</ele>
        <time>2014-05-04T08:44:50.000Z</time>
      </trkpt>
      <trkpt lat="44.01079" lon="7.19326">
        <ele>972.20001220703</ele>
        <time>2014-05-04T08:44:55.000Z</time>
      </trkpt>
      <trkpt lat="44.01084" lon="7.19335">
        <ele>972.20001220703</ele>
        <time>2014-05-04T08:44:59.000Z</time>
      </trkpt>
      <trkpt lat="44.01088" lon="7.19349">
        <ele>970.59997558594</ele>
        <time>2014-05-04T08:45:05.000Z</time>
      </trkpt>
      <trkpt lat="44.01091" lon="7.1936">
        <ele>969.40002441406</ele>
        <time>2014-05-04T08:45:09.000Z</time>
      </trkpt>
      <trkpt lat="44.01092" lon="7.19362">
        <ele>969</ele>
        <time>2014-05-04T08:45:10.000Z</time>
      </trkpt>
      <trkpt lat="44.01091" lon="7.19371">
        <ele>966.40002441406</ele>
        <time>2014-05-04T08:45:13.000Z</time>
      </trkpt>
      <trkpt lat="44.0109" lon="7.19375">
        <ele>965</ele>
        <time>2014-05-04T08:45:14.000Z</time>
      </trkpt>
      <trkpt lat="44.01094" lon="7.1939">
        <ele>963.20001220703</ele>
        <time>2014-05-04T08:45:18.000Z</time>
      </trkpt>
      <trkpt lat="44.01095" lon="7.19413">
        <ele>964.40002441406</ele>
        <time>2014-05-04T08:45:22.000Z</time>
      </trkpt>
      <trkpt lat="44.01093" lon="7.19428">
        <ele>964.40002441406</ele>
        <time>2014-05-04T08:45:24.000Z</time>
      </trkpt>
      <trkpt lat="44.01087" lon="7.19438">
        <ele>964.40002441406</ele>
        <time>2014-05-04T08:45:26.000Z</time>
      </trkpt>
      <trkpt lat="44.01085" lon="7.19439">
        <ele>964.59997558594</ele>
        <time>2014-05-04T08:45:27.000Z</time>
      </trkpt>
      <trkpt lat="44.01075" lon="7.19442">
        <ele>964.79998779297</ele>
        <time>2014-05-04T08:45:32.000Z</time>
      </trkpt>
      <trkpt lat="44.01073" lon="7.19444">
        <ele>965</ele>
        <time>2014-05-04T08:45:34.000Z</time>
      </trkpt>
      <trkpt lat="44.01068" lon="7.19442">
        <ele>965</ele>
        <time>2014-05-04T08:45:36.000Z</time>
      </trkpt>
      <trkpt lat="44.01063" lon="7.19441">
        <ele>965.20001220703</ele>
        <time>2014-05-04T08:45:38.000Z</time>
      </trkpt>
      <trkpt lat="44.0106" lon="7.19439">
        <ele>965.40002441406</ele>
        <time>2014-05-04T08:45:40.000Z</time>
      </trkpt>
      <trkpt lat="44.01058" lon="7.19437">
        <ele>965.59997558594</ele>
        <time>2014-05-04T08:45:41.000Z</time>
      </trkpt>
      <trkpt lat="44.01048" lon="7.19422">
        <ele>966</ele>
        <time>2014-05-04T08:45:46.000Z</time>
      </trkpt>
      <trkpt lat="44.01041" lon="7.19397">
        <ele>963.40002441406</ele>
        <time>2014-05-04T08:45:50.000Z</time>
      </trkpt>
      <trkpt lat="44.01032" lon="7.19377">
        <ele>959.79998779297</ele>
        <time>2014-05-04T08:45:54.000Z</time>
      </trkpt>
      <trkpt lat="44.0103" lon="7.19374">
        <ele>959</ele>
        <time>2014-05-04T08:45:56.000Z</time>
      </trkpt>
      <trkpt lat="44.01027" lon="7.19373">
        <ele>959</ele>
        <time>2014-05-04T08:45:57.000Z</time>
      </trkpt>
      <trkpt lat="44.01024" lon="7.19372">
        <ele>959.40002441406</ele>
        <time>2014-05-04T08:46:00.000Z</time>
      </trkpt>
      <trkpt lat="44.01022" lon="7.19375">
        <ele>960.79998779297</ele>
        <time>2014-05-04T08:46:03.000Z</time>
      </trkpt>
      <trkpt lat="44.01019" lon="7.19378">
        <ele>962.59997558594</ele>
        <time>2014-05-04T08:46:10.000Z</time>
      </trkpt>
      <trkpt lat="44.0102" lon="7.19386">
        <ele>964</ele>
        <time>2014-05-04T08:46:16.000Z</time>
      </trkpt>
      <trkpt lat="44.01021" lon="7.19388">
        <ele>964</ele>
        <time>2014-05-04T08:46:19.000Z</time>
      </trkpt>
      <trkpt lat="44.0102" lon="7.19389">
        <ele>964.40002441406</ele>
        <time>2014-05-04T08:46:24.000Z</time>
      </trkpt>
      <trkpt lat="44.01023" lon="7.19392">
        <ele>963.79998779297</ele>
        <time>2014-05-04T08:46:31.000Z</time>
      </trkpt>
      <trkpt lat="44.01026" lon="7.19394">
        <ele>963.40002441406</ele>
        <time>2014-05-04T08:46:34.000Z</time>
      </trkpt>
      <trkpt lat="44.01026" lon="7.19395">
        <ele>963.59997558594</ele>
        <time>2014-05-04T08:46:35.000Z</time>
      </trkpt>
      <trkpt lat="44.01026" lon="7.19397">
        <ele>964</ele>
        <time>2014-05-04T08:46:36.000Z</time>
      </trkpt>
      <trkpt lat="44.01026" lon="7.19401">
        <ele>964.79998779297</ele>
        <time>2014-05-04T08:46:38.000Z</time>
      </trkpt>
      <trkpt lat="44.01027" lon="7.19405">
        <ele>965.59997558594</ele>
        <time>2014-05-04T08:46:41.000Z</time>
      </trkpt>
      <trkpt lat="44.01028" lon="7.19408">
        <ele>966.20001220703</ele>
        <time>2014-05-04T08:46:44.000Z</time>
      </trkpt>
      <trkpt lat="44.01027" lon="7.19414">
        <ele>967.40002441406</ele>
        <time>2014-05-04T08:46:51.000Z</time>
      </trkpt>
      <trkpt lat="44.01028" lon="7.19423">
        <ele>971</ele>
        <time>2014-05-04T08:46:56.000Z</time>
      </trkpt>
      <trkpt lat="44.01027" lon="7.19425">
        <ele>972.20001220703</ele>
        <time>2014-05-04T08:46:57.000Z</time>
      </trkpt>
      <trkpt lat="44.01025" lon="7.19423">
        <ele>972.79998779297</ele>
        <time>2014-05-04T08:47:01.000Z</time>
      </trkpt>
      <trkpt lat="44.01022" lon="7.1942">
        <ele>972.59997558594</ele>
        <time>2014-05-04T08:47:04.000Z</time>
      </trkpt>
      <trkpt lat="44.01018" lon="7.19413">
        <ele>971.59997558594</ele>
        <time>2014-05-04T08:47:09.000Z</time>
      </trkpt>
      <trkpt lat="44.01012" lon="7.19406">
        <ele>972.20001220703</ele>
        <time>2014-05-04T08:47:16.000Z</time>
      </trkpt>
      <trkpt lat="44.01007" lon="7.19401">
        <ele>973.20001220703</ele>
        <time>2014-05-04T08:47:23.000Z</time>
      </trkpt>
      <trkpt lat="44.00999" lon="7.19397">
        <ele>976</ele>
        <time>2014-05-04T08:47:31.000Z</time>
      </trkpt>
      <trkpt lat="44.00994" lon="7.19395">
        <ele>978</ele>
        <time>2014-05-04T08:47:37.000Z</time>
      </trkpt>
      <trkpt lat="44.00991" lon="7.19393">
        <ele>979</ele>
        <time>2014-05-04T08:47:40.000Z</time>
      </trkpt>
      <trkpt lat="44.0099" lon="7.19392">
        <ele>979.40002441406</ele>
        <time>2014-05-04T08:47:41.000Z</time>
      </trkpt>
      <trkpt lat="44.00978" lon="7.19387">
        <ele>984.20001220703</ele>
        <time>2014-05-04T08:47:49.000Z</time>
      </trkpt>
      <trkpt lat="44.00976" lon="7.19383">
        <ele>983.79998779297</ele>
        <time>2014-05-04T08:47:52.000Z</time>
      </trkpt>
      <trkpt lat="44.00976" lon="7.19378">
        <ele>982.59997558594</ele>
        <time>2014-05-04T08:47:55.000Z</time>
      </trkpt>
      <trkpt lat="44.00974" lon="7.19377">
        <ele>983.20001220703</ele>
        <time>2014-05-04T08:47:56.000Z</time>
      </trkpt>
      <trkpt lat="44.00971" lon="7.19376">
        <ele>984.20001220703</ele>
        <time>2014-05-04T08:48:00.000Z</time>
      </trkpt>
      <trkpt lat="44.00968" lon="7.19373">
        <ele>984.79998779297</ele>
        <time>2014-05-04T08:48:05.000Z</time>
      </trkpt>
      <trkpt lat="44.00967" lon="7.19372">
        <ele>985</ele>
        <time>2014-05-04T08:48:06.000Z</time>
      </trkpt>
      <trkpt lat="44.00963" lon="7.19368">
        <ele>986</ele>
        <time>2014-05-04T08:48:13.000Z</time>
      </trkpt>
      <trkpt lat="44.00962" lon="7.19367">
        <ele>986.20001220703</ele>
        <time>2014-05-04T08:48:15.000Z</time>
      </trkpt>
      <trkpt lat="44.00963" lon="7.19369">
        <ele>986.20001220703</ele>
        <time>2014-05-04T08:48:18.000Z</time>
      </trkpt>
      <trkpt lat="44.00961" lon="7.19372">
        <ele>988.59997558594</ele>
        <time>2014-05-04T08:48:21.000Z</time>
      </trkpt>
      <trkpt lat="44.00958" lon="7.19369">
        <ele>989</ele>
        <time>2014-05-04T08:48:23.000Z</time>
      </trkpt>
      <trkpt lat="44.00958" lon="7.19371">
        <ele>989.59997558594</ele>
        <time>2014-05-04T08:48:28.000Z</time>
      </trkpt>
      <trkpt lat="44.00959" lon="7.19372">
        <ele>989.59997558594</ele>
        <time>2014-05-04T08:48:29.000Z</time>
      </trkpt>
      <trkpt lat="44.00962" lon="7.19378">
        <ele>989.79998779297</ele>
        <time>2014-05-04T08:48:34.000Z</time>
      </trkpt>
      <trkpt lat="44.00963" lon="7.19379">
        <ele>989.79998779297</ele>
        <time>2014-05-04T08:48:35.000Z</time>
      </trkpt>
      <trkpt lat="44.00965" lon="7.19384">
        <ele>990.40002441406</ele>
        <time>2014-05-04T08:48:40.000Z</time>
      </trkpt>
      <trkpt lat="44.00965" lon="7.19392">
        <ele>993</ele>
        <time>2014-05-04T08:48:46.000Z</time>
      </trkpt>
      <trkpt lat="44.00964" lon="7.19392">
        <ele>993.79998779297</ele>
        <time>2014-05-04T08:48:47.000Z</time>
      </trkpt>
      <trkpt lat="44.00958" lon="7.19391">
        <ele>996.40002441406</ele>
        <time>2014-05-04T08:48:52.000Z</time>
      </trkpt>
      <trkpt lat="44.00957" lon="7.19391">
        <ele>996.79998779297</ele>
        <time>2014-05-04T08:48:53.000Z</time>
      </trkpt>
      <trkpt lat="44.00954" lon="7.19389">
        <ele>997.79998779297</ele>
        <time>2014-05-04T08:48:57.000Z</time>
      </trkpt>
      <trkpt lat="44.00951" lon="7.19388">
        <ele>998.79998779297</ele>
        <time>2014-05-04T08:49:00.000Z</time>
      </trkpt>
      <trkpt lat="44.00943" lon="7.19386">
        <ele>1002.5999755859</ele>
        <time>2014-05-04T08:49:08.000Z</time>
      </trkpt>
      <trkpt lat="44.00943" lon="7.19387">
        <ele>1003</ele>
        <time>2014-05-04T08:49:09.000Z</time>
      </trkpt>
      <trkpt lat="44.00945" lon="7.19391">
        <ele>1003.200012207</ele>
        <time>2014-05-04T08:49:13.000Z</time>
      </trkpt>
      <trkpt lat="44.00947" lon="7.19394">
        <ele>1003.200012207</ele>
        <time>2014-05-04T08:49:16.000Z</time>
      </trkpt>
      <trkpt lat="44.00947" lon="7.19395">
        <ele>1003.799987793</ele>
        <time>2014-05-04T08:49:17.000Z</time>
      </trkpt>
      <trkpt lat="44.00944" lon="7.19395">
        <ele>1005.200012207</ele>
        <time>2014-05-04T08:49:21.000Z</time>
      </trkpt>
      <trkpt lat="44.0094" lon="7.19394">
        <ele>1006.5999755859</ele>
        <time>2014-05-04T08:49:28.000Z</time>
      </trkpt>
      <trkpt lat="44.00936" lon="7.19396">
        <ele>1009.5999755859</ele>
        <time>2014-05-04T08:49:34.000Z</time>
      </trkpt>
      <trkpt lat="44.00935" lon="7.194">
        <ele>1011.4000244141</ele>
        <time>2014-05-04T08:49:37.000Z</time>
      </trkpt>
      <trkpt lat="44.00936" lon="7.19401">
        <ele>1011</ele>
        <time>2014-05-04T08:49:39.000Z</time>
      </trkpt>
      <trkpt lat="44.00937" lon="7.19402">
        <ele>1011</ele>
        <time>2014-05-04T08:49:40.000Z</time>
      </trkpt>
      <trkpt lat="44.00939" lon="7.19405">
        <ele>1011.200012207</ele>
        <time>2014-05-04T08:49:44.000Z</time>
      </trkpt>
      <trkpt lat="44.00948" lon="7.19414">
        <ele>1009.4000244141</ele>
        <time>2014-05-04T08:49:50.000Z</time>
      </trkpt>
      <trkpt lat="44.00958" lon="7.19425">
        <ele>1009.5999755859</ele>
        <time>2014-05-04T08:49:54.000Z</time>
      </trkpt>
      <trkpt lat="44.00969" lon="7.19432">
        <ele>1007</ele>
        <time>2014-05-04T08:49:58.000Z</time>
      </trkpt>
      <trkpt lat="44.00986" lon="7.19448">
        <ele>1005.4000244141</ele>
        <time>2014-05-04T08:50:03.000Z</time>
      </trkpt>
      <trkpt lat="44.00997" lon="7.19472">
        <ele>1010.200012207</ele>
        <time>2014-05-04T08:50:09.000Z</time>
      </trkpt>
      <trkpt lat="44.01006" lon="7.19497">
        <ele>1015.799987793</ele>
        <time>2014-05-04T08:50:15.000Z</time>
      </trkpt>
      <trkpt lat="44.01015" lon="7.19511">
        <ele>1018.4000244141</ele>
        <time>2014-05-04T08:50:20.000Z</time>
      </trkpt>
      <trkpt lat="44.01032" lon="7.19533">
        <ele>1018.799987793</ele>
        <time>2014-05-04T08:50:26.000Z</time>
      </trkpt>
      <trkpt lat="44.01035" lon="7.19556">
        <ele>1027.1999511719</ele>
        <time>2014-05-04T08:50:30.000Z</time>
      </trkpt>
      <trkpt lat="44.01039" lon="7.19574">
        <ele>1033</ele>
        <time>2014-05-04T08:50:35.000Z</time>
      </trkpt>
      <trkpt lat="44.01052" lon="7.19583">
        <ele>1026</ele>
        <time>2014-05-04T08:50:39.000Z</time>
      </trkpt>
      <trkpt lat="44.01064" lon="7.19596">
        <ele>1021</ele>
        <time>2014-05-04T08:50:43.000Z</time>
      </trkpt>
      <trkpt lat="44.01068" lon="7.19615">
        <ele>1024</ele>
        <time>2014-05-04T08:50:47.000Z</time>
      </trkpt>
      <trkpt lat="44.01076" lon="7.1964">
        <ele>1026.8000488281</ele>
        <time>2014-05-04T08:50:52.000Z</time>
      </trkpt>
      <trkpt lat="44.01077" lon="7.19671">
        <ele>1035.1999511719</ele>
        <time>2014-05-04T08:50:58.000Z</time>
      </trkpt>
      <trkpt lat="44.0109" lon="7.1968">
        <ele>1026</ele>
        <time>2014-05-04T08:51:02.000Z</time>
      </trkpt>
      <trkpt lat="44.01097" lon="7.19696">
        <ele>1022.799987793</ele>
        <time>2014-05-04T08:51:06.000Z</time>
      </trkpt>
      <trkpt lat="44.01104" lon="7.19718">
        <ele>1020</ele>
        <time>2014-05-04T08:51:12.000Z</time>
      </trkpt>
      <trkpt lat="44.01107" lon="7.19737">
        <ele>1020.799987793</ele>
        <time>2014-05-04T08:51:17.000Z</time>
      </trkpt>
      <trkpt lat="44.01104" lon="7.19757">
        <ele>1024</ele>
        <time>2014-05-04T08:51:22.000Z</time>
      </trkpt>
      <trkpt lat="44.011" lon="7.1978">
        <ele>1026.8000488281</ele>
        <time>2014-05-04T08:51:28.000Z</time>
      </trkpt>
      <trkpt lat="44.011" lon="7.198">
        <ele>1025.8000488281</ele>
        <time>2014-05-04T08:51:34.000Z</time>
      </trkpt>
      <trkpt lat="44.0109" lon="7.19817">
        <ele>1032.8000488281</ele>
        <time>2014-05-04T08:51:40.000Z</time>
      </trkpt>
      <trkpt lat="44.01085" lon="7.19828">
        <ele>1035.1999511719</ele>
        <time>2014-05-04T08:51:44.000Z</time>
      </trkpt>
      <trkpt lat="44.01077" lon="7.19859">
        <ele>1043.4000244141</ele>
        <time>2014-05-04T08:51:51.000Z</time>
      </trkpt>
      <trkpt lat="44.01065" lon="7.1989">
        <ele>1048.5999755859</ele>
        <time>2014-05-04T08:51:59.000Z</time>
      </trkpt>
      <trkpt lat="44.01058" lon="7.19908">
        <ele>1048.5999755859</ele>
        <time>2014-05-04T08:52:05.000Z</time>
      </trkpt>
      <trkpt lat="44.01049" lon="7.19927">
        <ele>1060.8000488281</ele>
        <time>2014-05-04T08:52:12.000Z</time>
      </trkpt>
      <trkpt lat="44.01047" lon="7.1993">
        <ele>1063.8000488281</ele>
        <time>2014-05-04T08:52:13.000Z</time>
      </trkpt>
      <trkpt lat="44.01041" lon="7.1994">
        <ele>1065.1999511719</ele>
        <time>2014-05-04T08:52:16.000Z</time>
      </trkpt>
      <trkpt lat="44.01039" lon="7.19942">
        <ele>1065</ele>
        <time>2014-05-04T08:52:17.000Z</time>
      </trkpt>
      <trkpt lat="44.01038" lon="7.19957">
        <ele>1064.8000488281</ele>
        <time>2014-05-04T08:52:22.000Z</time>
      </trkpt>
      <trkpt lat="44.01025" lon="7.19981">
        <ele>1064.4000244141</ele>
        <time>2014-05-04T08:52:28.000Z</time>
      </trkpt>
      <trkpt lat="44.01023" lon="7.19987">
        <ele>1066.1999511719</ele>
        <time>2014-05-04T08:52:30.000Z</time>
      </trkpt>
      <trkpt lat="44.01023" lon="7.1999">
        <ele>1066</ele>
        <time>2014-05-04T08:52:32.000Z</time>
      </trkpt>
      <trkpt lat="44.01027" lon="7.19986">
        <ele>1064.1999511719</ele>
        <time>2014-05-04T08:52:35.000Z</time>
      </trkpt>
      <trkpt lat="44.01029" lon="7.19985">
        <ele>1064.1999511719</ele>
        <time>2014-05-04T08:52:36.000Z</time>
      </trkpt>
      <trkpt lat="44.01041" lon="7.19967">
        <ele>1064.4000244141</ele>
        <time>2014-05-04T08:52:41.000Z</time>
      </trkpt>
      <trkpt lat="44.01049" lon="7.19948">
        <ele>1064.8000488281</ele>
        <time>2014-05-04T08:52:45.000Z</time>
      </trkpt>
      <trkpt lat="44.01054" lon="7.19923">
        <ele>1056</ele>
        <time>2014-05-04T08:52:51.000Z</time>
      </trkpt>
      <trkpt lat="44.01061" lon="7.19921">
        <ele>1051</ele>
        <time>2014-05-04T08:52:53.000Z</time>
      </trkpt>
      <trkpt lat="44.01068" lon="7.19917">
        <ele>1045.4000244141</ele>
        <time>2014-05-04T08:52:55.000Z</time>
      </trkpt>
      <trkpt lat="44.01087" lon="7.19907">
        <ele>1033</ele>
        <time>2014-05-04T08:53:01.000Z</time>
      </trkpt>
      <trkpt lat="44.01108" lon="7.19901">
        <ele>1020</ele>
        <time>2014-05-04T08:53:07.000Z</time>
      </trkpt>
      <trkpt lat="44.01123" lon="7.19888">
        <ele>1027.5999755859</ele>
        <time>2014-05-04T08:53:12.000Z</time>
      </trkpt>
      <trkpt lat="44.01144" lon="7.19871">
        <ele>1039.4000244141</ele>
        <time>2014-05-04T08:53:19.000Z</time>
      </trkpt>
      <trkpt lat="44.01164" lon="7.1986">
        <ele>1039.8000488281</ele>
        <time>2014-05-04T08:53:25.000Z</time>
      </trkpt>
      <trkpt lat="44.01186" lon="7.19845">
        <ele>1034.5999755859</ele>
        <time>2014-05-04T08:53:32.000Z</time>
      </trkpt>
      <trkpt lat="44.01202" lon="7.19844">
        <ele>1038.4000244141</ele>
        <time>2014-05-04T08:53:37.000Z</time>
      </trkpt>
      <trkpt lat="44.01216" lon="7.19844">
        <ele>1042.4000244141</ele>
        <time>2014-05-04T08:53:42.000Z</time>
      </trkpt>
      <trkpt lat="44.01232" lon="7.19839">
        <ele>1043.1999511719</ele>
        <time>2014-05-04T08:53:50.000Z</time>
      </trkpt>
      <trkpt lat="44.01234" lon="7.19843">
        <ele>1045.8000488281</ele>
        <time>2014-05-04T08:53:52.000Z</time>
      </trkpt>
      <trkpt lat="44.01227" lon="7.19842">
        <ele>1043.5999755859</ele>
        <time>2014-05-04T08:53:55.000Z</time>
      </trkpt>
      <trkpt lat="44.01221" lon="7.19838">
        <ele>1040</ele>
        <time>2014-05-04T08:53:57.000Z</time>
      </trkpt>
      <trkpt lat="44.01212" lon="7.19831">
        <ele>1033.1999511719</ele>
        <time>2014-05-04T08:54:00.000Z</time>
      </trkpt>
      <trkpt lat="44.01197" lon="7.19826">
        <ele>1027.1999511719</ele>
        <time>2014-05-04T08:54:06.000Z</time>
      </trkpt>
      <trkpt lat="44.01184" lon="7.19828">
        <ele>1026</ele>
        <time>2014-05-04T08:54:11.000Z</time>
      </trkpt>
      <trkpt lat="44.01172" lon="7.1984">
        <ele>1030.5999755859</ele>
        <time>2014-05-04T08:54:17.000Z</time>
      </trkpt>
      <trkpt lat="44.01164" lon="7.19849">
        <ele>1034.1999511719</ele>
        <time>2014-05-04T08:54:22.000Z</time>
      </trkpt>
      <trkpt lat="44.01155" lon="7.19858">
        <ele>1037.5999755859</ele>
        <time>2014-05-04T08:54:27.000Z</time>
      </trkpt>
      <trkpt lat="44.01143" lon="7.19868">
        <ele>1038.5999755859</ele>
        <time>2014-05-04T08:54:34.000Z</time>
      </trkpt>
      <trkpt lat="44.01142" lon="7.1987">
        <ele>1038</ele>
        <time>2014-05-04T08:54:35.000Z</time>
      </trkpt>
      <trkpt lat="44.01137" lon="7.19875">
        <ele>1035.4000244141</ele>
        <time>2014-05-04T08:54:38.000Z</time>
      </trkpt>
      <trkpt lat="44.01132" lon="7.1988">
        <ele>1032.4000244141</ele>
        <time>2014-05-04T08:54:41.000Z</time>
      </trkpt>
      <trkpt lat="44.01125" lon="7.1989">
        <ele>1028.8000488281</ele>
        <time>2014-05-04T08:54:46.000Z</time>
      </trkpt>
      <trkpt lat="44.01115" lon="7.19909">
        <ele>1024</ele>
        <time>2014-05-04T08:54:56.000Z</time>
      </trkpt>
      <trkpt lat="44.01114" lon="7.19914">
        <ele>1025</ele>
        <time>2014-05-04T08:54:59.000Z</time>
      </trkpt>
      <trkpt lat="44.01113" lon="7.19921">
        <ele>1027</ele>
        <time>2014-05-04T08:55:02.000Z</time>
      </trkpt>
      <trkpt lat="44.01107" lon="7.19928">
        <ele>1028.8000488281</ele>
        <time>2014-05-04T08:55:07.000Z</time>
      </trkpt>
      <trkpt lat="44.01103" lon="7.19932">
        <ele>1033.1999511719</ele>
        <time>2014-05-04T08:55:10.000Z</time>
      </trkpt>
      <trkpt lat="44.01089" lon="7.19948">
        <ele>1049.5999755859</ele>
        <time>2014-05-04T08:55:18.000Z</time>
      </trkpt>
      <trkpt lat="44.01089" lon="7.19961">
        <ele>1055.8000488281</ele>
        <time>2014-05-04T08:55:21.000Z</time>
      </trkpt>
      <trkpt lat="44.01089" lon="7.1997">
        <ele>1060.8000488281</ele>
        <time>2014-05-04T08:55:24.000Z</time>
      </trkpt>
      <trkpt lat="44.01079" lon="7.19984">
        <ele>1063.5999755859</ele>
        <time>2014-05-04T08:55:32.000Z</time>
      </trkpt>
      <trkpt lat="44.01069" lon="7.19992">
        <ele>1063.5999755859</ele>
        <time>2014-05-04T08:55:38.000Z</time>
      </trkpt>
      <trkpt lat="44.0106" lon="7.20002">
        <ele>1066.5999755859</ele>
        <time>2014-05-04T08:55:44.000Z</time>
      </trkpt>
      <trkpt lat="44.01053" lon="7.20012">
        <ele>1071.5999755859</ele>
        <time>2014-05-04T08:55:49.000Z</time>
      </trkpt>
      <trkpt lat="44.01045" lon="7.2003">
        <ele>1074</ele>
        <time>2014-05-04T08:55:58.000Z</time>
      </trkpt>
      <trkpt lat="44.01044" lon="7.2004">
        <ele>1074.5999755859</ele>
        <time>2014-05-04T08:56:02.000Z</time>
      </trkpt>
      <trkpt lat="44.01044" lon="7.20045">
        <ele>1074.8000488281</ele>
        <time>2014-05-04T08:56:04.000Z</time>
      </trkpt>
      <trkpt lat="44.01046" lon="7.20059">
        <ele>1076.4000244141</ele>
        <time>2014-05-04T08:56:08.000Z</time>
      </trkpt>
      <trkpt lat="44.01048" lon="7.20069">
        <ele>1078.1999511719</ele>
        <time>2014-05-04T08:56:11.000Z</time>
      </trkpt>
      <trkpt lat="44.01052" lon="7.2008">
        <ele>1080.5999755859</ele>
        <time>2014-05-04T08:56:15.000Z</time>
      </trkpt>
      <trkpt lat="44.01051" lon="7.20082">
        <ele>1081.1999511719</ele>
        <time>2014-05-04T08:56:16.000Z</time>
      </trkpt>
      <trkpt lat="44.01045" lon="7.2009">
        <ele>1082</ele>
        <time>2014-05-04T08:56:21.000Z</time>
      </trkpt>
      <trkpt lat="44.01036" lon="7.20098">
        <ele>1080.8000488281</ele>
        <time>2014-05-04T08:56:25.000Z</time>
      </trkpt>
      <trkpt lat="44.01031" lon="7.20098">
        <ele>1078.5999755859</ele>
        <time>2014-05-04T08:56:27.000Z</time>
      </trkpt>
      <trkpt lat="44.01031" lon="7.20101">
        <ele>1079.4000244141</ele>
        <time>2014-05-04T08:56:28.000Z</time>
      </trkpt>
      <trkpt lat="44.0103" lon="7.20107">
        <ele>1080.4000244141</ele>
        <time>2014-05-04T08:56:30.000Z</time>
      </trkpt>
      <trkpt lat="44.01029" lon="7.20109">
        <ele>1080.8000488281</ele>
        <time>2014-05-04T08:56:31.000Z</time>
      </trkpt>
      <trkpt lat="44.01028" lon="7.20125">
        <ele>1085</ele>
        <time>2014-05-04T08:56:37.000Z</time>
      </trkpt>
      <trkpt lat="44.0102" lon="7.2014">
        <ele>1089.1999511719</ele>
        <time>2014-05-04T08:56:43.000Z</time>
      </trkpt>
      <trkpt lat="44.01012" lon="7.20151">
        <ele>1093.8000488281</ele>
        <time>2014-05-04T08:56:50.000Z</time>
      </trkpt>
      <trkpt lat="44.01" lon="7.20164">
        <ele>1094.1999511719</ele>
        <time>2014-05-04T08:56:58.000Z</time>
      </trkpt>
      <trkpt lat="44.00995" lon="7.20167">
        <ele>1095.1999511719</ele>
        <time>2014-05-04T08:57:00.000Z</time>
      </trkpt>
      <trkpt lat="44.00991" lon="7.20172">
        <ele>1097.8000488281</ele>
        <time>2014-05-04T08:57:03.000Z</time>
      </trkpt>
      <trkpt lat="44.00989" lon="7.20171">
        <ele>1097</ele>
        <time>2014-05-04T08:57:08.000Z</time>
      </trkpt>
      <trkpt lat="44.00986" lon="7.2017">
        <ele>1096.4000244141</ele>
        <time>2014-05-04T08:57:11.000Z</time>
      </trkpt>
      <trkpt lat="44.00983" lon="7.20172">
        <ele>1097.4000244141</ele>
        <time>2014-05-04T08:57:14.000Z</time>
      </trkpt>
      <trkpt lat="44.00982" lon="7.20174">
        <ele>1098</ele>
        <time>2014-05-04T08:57:15.000Z</time>
      </trkpt>
      <trkpt lat="44.0098" lon="7.20175">
        <ele>1098.8000488281</ele>
        <time>2014-05-04T08:57:18.000Z</time>
      </trkpt>
      <trkpt lat="44.00979" lon="7.20177">
        <ele>1099.5999755859</ele>
        <time>2014-05-04T08:57:19.000Z</time>
      </trkpt>
      <trkpt lat="44.00977" lon="7.2018">
        <ele>1101.1999511719</ele>
        <time>2014-05-04T08:57:22.000Z</time>
      </trkpt>
      <trkpt lat="44.00975" lon="7.20182">
        <ele>1102.1999511719</ele>
        <time>2014-05-04T08:57:25.000Z</time>
      </trkpt>
      <trkpt lat="44.00968" lon="7.20186">
        <ele>1103.5999755859</ele>
        <time>2014-05-04T08:57:32.000Z</time>
      </trkpt>
      <trkpt lat="44.00963" lon="7.20188">
        <ele>1103.8000488281</ele>
        <time>2014-05-04T08:57:37.000Z</time>
      </trkpt>
      <trkpt lat="44.0096" lon="7.20189">
        <ele>1103.5999755859</ele>
        <time>2014-05-04T08:57:40.000Z</time>
      </trkpt>
      <trkpt lat="44.00957" lon="7.20187">
        <ele>1102.1999511719</ele>
        <time>2014-05-04T08:57:42.000Z</time>
      </trkpt>
      <trkpt lat="44.00954" lon="7.20188">
        <ele>1102</ele>
        <time>2014-05-04T08:57:47.000Z</time>
      </trkpt>
      <trkpt lat="44.00945" lon="7.20186">
        <ele>1099</ele>
        <time>2014-05-04T08:57:56.000Z</time>
      </trkpt>
      <trkpt lat="44.0094" lon="7.2019">
        <ele>1101.1999511719</ele>
        <time>2014-05-04T08:58:05.000Z</time>
      </trkpt>
      <trkpt lat="44.00938" lon="7.20192">
        <ele>1102.5999755859</ele>
        <time>2014-05-04T08:58:07.000Z</time>
      </trkpt>
      <trkpt lat="44.00934" lon="7.20199">
        <ele>1107.5999755859</ele>
        <time>2014-05-04T08:58:15.000Z</time>
      </trkpt>
      <trkpt lat="44.00931" lon="7.20209">
        <ele>1113.1999511719</ele>
        <time>2014-05-04T08:58:23.000Z</time>
      </trkpt>
      <trkpt lat="44.00926" lon="7.20214">
        <ele>1118.1999511719</ele>
        <time>2014-05-04T08:58:30.000Z</time>
      </trkpt>
      <trkpt lat="44.00921" lon="7.20221">
        <ele>1124</ele>
        <time>2014-05-04T08:58:39.000Z</time>
      </trkpt>
      <trkpt lat="44.0092" lon="7.20225">
        <ele>1125.1999511719</ele>
        <time>2014-05-04T08:58:44.000Z</time>
      </trkpt>
      <trkpt lat="44.00917" lon="7.20234">
        <ele>1125.8000488281</ele>
        <time>2014-05-04T08:58:50.000Z</time>
      </trkpt>
      <trkpt lat="44.00909" lon="7.2024">
        <ele>1127.8000488281</ele>
        <time>2014-05-04T08:58:59.000Z</time>
      </trkpt>
      <trkpt lat="44.00901" lon="7.20242">
        <ele>1129.8000488281</ele>
        <time>2014-05-04T08:59:07.000Z</time>
      </trkpt>
      <trkpt lat="44.00893" lon="7.20248">
        <ele>1132.1999511719</ele>
        <time>2014-05-04T08:59:17.000Z</time>
      </trkpt>
      <trkpt lat="44.0089" lon="7.20244">
        <ele>1132.5999755859</ele>
        <time>2014-05-04T08:59:20.000Z</time>
      </trkpt>
      <trkpt lat="44.00889" lon="7.20244">
        <ele>1133</ele>
        <time>2014-05-04T08:59:21.000Z</time>
      </trkpt>
      <trkpt lat="44.00886" lon="7.20244">
        <ele>1133.8000488281</ele>
        <time>2014-05-04T08:59:26.000Z</time>
      </trkpt>
      <trkpt lat="44.00883" lon="7.20246">
        <ele>1134.5999755859</ele>
        <time>2014-05-04T08:59:29.000Z</time>
      </trkpt>
      <trkpt lat="44.0088" lon="7.20246">
        <ele>1135.4000244141</ele>
        <time>2014-05-04T08:59:31.000Z</time>
      </trkpt>
      <trkpt lat="44.0088" lon="7.20255">
        <ele>1136.5999755859</ele>
        <time>2014-05-04T08:59:34.000Z</time>
      </trkpt>
      <trkpt lat="44.00886" lon="7.20283">
        <ele>1138</ele>
        <time>2014-05-04T08:59:41.000Z</time>
      </trkpt>
      <trkpt lat="44.00894" lon="7.20308">
        <ele>1137.4000244141</ele>
        <time>2014-05-04T08:59:47.000Z</time>
      </trkpt>
      <trkpt lat="44.00906" lon="7.20333">
        <ele>1136.4000244141</ele>
        <time>2014-05-04T08:59:55.000Z</time>
      </trkpt>
      <trkpt lat="44.00913" lon="7.20354">
        <ele>1136.4000244141</ele>
        <time>2014-05-04T09:00:01.000Z</time>
      </trkpt>
      <trkpt lat="44.00921" lon="7.20375">
        <ele>1136.4000244141</ele>
        <time>2014-05-04T09:00:08.000Z</time>
      </trkpt>
      <trkpt lat="44.00929" lon="7.20395">
        <ele>1136</ele>
        <time>2014-05-04T09:00:14.000Z</time>
      </trkpt>
      <trkpt lat="44.00931" lon="7.20399">
        <ele>1135.8000488281</ele>
        <time>2014-05-04T09:00:16.000Z</time>
      </trkpt>
      <trkpt lat="44.00936" lon="7.20404">
        <ele>1135.4000244141</ele>
        <time>2014-05-04T09:00:19.000Z</time>
      </trkpt>
      <trkpt lat="44.00937" lon="7.20412">
        <ele>1136</ele>
        <time>2014-05-04T09:00:24.000Z</time>
      </trkpt>
      <trkpt lat="44.00939" lon="7.2042">
        <ele>1136.4000244141</ele>
        <time>2014-05-04T09:00:26.000Z</time>
      </trkpt>
      <trkpt lat="44.00943" lon="7.20434">
        <ele>1137.5999755859</ele>
        <time>2014-05-04T09:00:29.000Z</time>
      </trkpt>
      <trkpt lat="44.00948" lon="7.20454">
        <ele>1141.4000244141</ele>
        <time>2014-05-04T09:00:33.000Z</time>
      </trkpt>
      <trkpt lat="44.00947" lon="7.20467">
        <ele>1142.4000244141</ele>
        <time>2014-05-04T09:00:37.000Z</time>
      </trkpt>
      <trkpt lat="44.00946" lon="7.20473">
        <ele>1142.4000244141</ele>
        <time>2014-05-04T09:00:38.000Z</time>
      </trkpt>
      <trkpt lat="44.00939" lon="7.20489">
        <ele>1143</ele>
        <time>2014-05-04T09:00:44.000Z</time>
      </trkpt>
      <trkpt lat="44.00935" lon="7.20501">
        <ele>1146.8000488281</ele>
        <time>2014-05-04T09:00:50.000Z</time>
      </trkpt>
      <trkpt lat="44.00935" lon="7.20505">
        <ele>1147.1999511719</ele>
        <time>2014-05-04T09:00:52.000Z</time>
      </trkpt>
      <trkpt lat="44.00935" lon="7.20509">
        <ele>1148</ele>
        <time>2014-05-04T09:00:54.000Z</time>
      </trkpt>
      <trkpt lat="44.00934" lon="7.20516">
        <ele>1149.5999755859</ele>
        <time>2014-05-04T09:00:57.000Z</time>
      </trkpt>
      <trkpt lat="44.00934" lon="7.20517">
        <ele>1150</ele>
        <time>2014-05-04T09:00:58.000Z</time>
      </trkpt>
      <trkpt lat="44.00928" lon="7.20523">
        <ele>1153.4000244141</ele>
        <time>2014-05-04T09:01:03.000Z</time>
      </trkpt>
      <trkpt lat="44.00926" lon="7.20524">
        <ele>1154.1999511719</ele>
        <time>2014-05-04T09:01:04.000Z</time>
      </trkpt>
      <trkpt lat="44.00926" lon="7.20534">
        <ele>1155.8000488281</ele>
        <time>2014-05-04T09:01:08.000Z</time>
      </trkpt>
      <trkpt lat="44.00925" lon="7.20539">
        <ele>1157.1999511719</ele>
        <time>2014-05-04T09:01:10.000Z</time>
      </trkpt>
      <trkpt lat="44.00923" lon="7.20543">
        <ele>1159</ele>
        <time>2014-05-04T09:01:11.000Z</time>
      </trkpt>
      <trkpt lat="44.00922" lon="7.20549">
        <ele>1160.4000244141</ele>
        <time>2014-05-04T09:01:14.000Z</time>
      </trkpt>
      <trkpt lat="44.00921" lon="7.20551">
        <ele>1161</ele>
        <time>2014-05-04T09:01:15.000Z</time>
      </trkpt>
      <trkpt lat="44.0092" lon="7.20552">
        <ele>1161.8000488281</ele>
        <time>2014-05-04T09:01:16.000Z</time>
      </trkpt>
      <trkpt lat="44.00919" lon="7.20558">
        <ele>1163</ele>
        <time>2014-05-04T09:01:19.000Z</time>
      </trkpt>
      <trkpt lat="44.00921" lon="7.20564">
        <ele>1163.1999511719</ele>
        <time>2014-05-04T09:01:21.000Z</time>
      </trkpt>
      <trkpt lat="44.00922" lon="7.20568">
        <ele>1163.5999755859</ele>
        <time>2014-05-04T09:01:23.000Z</time>
      </trkpt>
      <trkpt lat="44.00922" lon="7.20582">
        <ele>1165.4000244141</ele>
        <time>2014-05-04T09:01:29.000Z</time>
      </trkpt>
      <trkpt lat="44.00922" lon="7.20593">
        <ele>1166.5999755859</ele>
        <time>2014-05-04T09:01:34.000Z</time>
      </trkpt>
      <trkpt lat="44.0092" lon="7.20611">
        <ele>1169</ele>
        <time>2014-05-04T09:01:42.000Z</time>
      </trkpt>
      <trkpt lat="44.00918" lon="7.20615">
        <ele>1170.4000244141</ele>
        <time>2014-05-04T09:01:44.000Z</time>
      </trkpt>
      <trkpt lat="44.00917" lon="7.2062">
        <ele>1171.1999511719</ele>
        <time>2014-05-04T09:01:48.000Z</time>
      </trkpt>
      <trkpt lat="44.00918" lon="7.20624">
        <ele>1171.1999511719</ele>
        <time>2014-05-04T09:01:50.000Z</time>
      </trkpt>
      <trkpt lat="44.00918" lon="7.20627">
        <ele>1171.5999755859</ele>
        <time>2014-05-04T09:01:56.000Z</time>
      </trkpt>
      <trkpt lat="44.00917" lon="7.20628">
        <ele>1171.8000488281</ele>
        <time>2014-05-04T09:01:57.000Z</time>
      </trkpt>
      <trkpt lat="44.00916" lon="7.20635">
        <ele>1173</ele>
        <time>2014-05-04T09:02:01.000Z</time>
      </trkpt>
      <trkpt lat="44.00915" lon="7.20649">
        <ele>1172.8000488281</ele>
        <time>2014-05-04T09:02:10.000Z</time>
      </trkpt>
      <trkpt lat="44.00915" lon="7.20659">
        <ele>1172.5999755859</ele>
        <time>2014-05-04T09:02:18.000Z</time>
      </trkpt>
      <trkpt lat="44.00914" lon="7.20668">
        <ele>1173.8000488281</ele>
        <time>2014-05-04T09:02:27.000Z</time>
      </trkpt>
      <trkpt lat="44.00912" lon="7.20674">
        <ele>1175.1999511719</ele>
        <time>2014-05-04T09:02:33.000Z</time>
      </trkpt>
      <trkpt lat="44.00914" lon="7.20681">
        <ele>1176</ele>
        <time>2014-05-04T09:02:40.000Z</time>
      </trkpt>
      <trkpt lat="44.00913" lon="7.20687">
        <ele>1177.4000244141</ele>
        <time>2014-05-04T09:02:48.000Z</time>
      </trkpt>
      <trkpt lat="44.00914" lon="7.20691">
        <ele>1178</ele>
        <time>2014-05-04T09:02:55.000Z</time>
      </trkpt>
      <trkpt lat="44.00913" lon="7.20698">
        <ele>1179.4000244141</ele>
        <time>2014-05-04T09:03:05.000Z</time>
      </trkpt>
      <trkpt lat="44.00909" lon="7.20705">
        <ele>1181.4000244141</ele>
        <time>2014-05-04T09:03:12.000Z</time>
      </trkpt>
      <trkpt lat="44.00901" lon="7.20711">
        <ele>1182.1999511719</ele>
        <time>2014-05-04T09:03:20.000Z</time>
      </trkpt>
      <trkpt lat="44.00892" lon="7.20715">
        <ele>1181</ele>
        <time>2014-05-04T09:03:27.000Z</time>
      </trkpt>
      <trkpt lat="44.00883" lon="7.2072">
        <ele>1179.8000488281</ele>
        <time>2014-05-04T09:03:35.000Z</time>
      </trkpt>
      <trkpt lat="44.00879" lon="7.20727">
        <ele>1178.5999755859</ele>
        <time>2014-05-04T09:03:40.000Z</time>
      </trkpt>
      <trkpt lat="44.00877" lon="7.20727">
        <ele>1178.5999755859</ele>
        <time>2014-05-04T09:03:42.000Z</time>
      </trkpt>
      <trkpt lat="44.00875" lon="7.20732">
        <ele>1177.8000488281</ele>
        <time>2014-05-04T09:03:47.000Z</time>
      </trkpt>
      <trkpt lat="44.00869" lon="7.20742">
        <ele>1176.1999511719</ele>
        <time>2014-05-04T09:03:54.000Z</time>
      </trkpt>
      <trkpt lat="44.00863" lon="7.20756">
        <ele>1178.8000488281</ele>
        <time>2014-05-04T09:04:01.000Z</time>
      </trkpt>
      <trkpt lat="44.00851" lon="7.20766">
        <ele>1182.4000244141</ele>
        <time>2014-05-04T09:04:05.000Z</time>
      </trkpt>
      <trkpt lat="44.00827" lon="7.20781">
        <ele>1195.8000488281</ele>
        <time>2014-05-04T09:04:09.000Z</time>
      </trkpt>
      <trkpt lat="44.00809" lon="7.20788">
        <ele>1203.5999755859</ele>
        <time>2014-05-04T09:04:13.000Z</time>
      </trkpt>
      <trkpt lat="44.00806" lon="7.20785">
        <ele>1204.4000244141</ele>
        <time>2014-05-04T09:04:14.000Z</time>
      </trkpt>
      <trkpt lat="44.00805" lon="7.20787">
        <ele>1204.5999755859</ele>
        <time>2014-05-04T09:04:16.000Z</time>
      </trkpt>
      <trkpt lat="44.00808" lon="7.20787">
        <ele>1203.8000488281</ele>
        <time>2014-05-04T09:04:19.000Z</time>
      </trkpt>
      <trkpt lat="44.00809" lon="7.20788">
        <ele>1203.5999755859</ele>
        <time>2014-05-04T09:04:20.000Z</time>
      </trkpt>
      <trkpt lat="44.00809" lon="7.20789">
        <ele>1203.8000488281</ele>
        <time>2014-05-04T09:04:21.000Z</time>
      </trkpt>
      <trkpt lat="44.00809" lon="7.2079">
        <ele>1203.8000488281</ele>
        <time>2014-05-04T09:04:22.000Z</time>
      </trkpt>
      <trkpt lat="44.00811" lon="7.20794">
        <ele>1203.1999511719</ele>
        <time>2014-05-04T09:04:26.000Z</time>
      </trkpt>
      <trkpt lat="44.00803" lon="7.20796">
        <ele>1205.4000244141</ele>
        <time>2014-05-04T09:04:32.000Z</time>
      </trkpt>
      <trkpt lat="44.00792" lon="7.20798">
        <ele>1208.5999755859</ele>
        <time>2014-05-04T09:04:41.000Z</time>
      </trkpt>
      <trkpt lat="44.00786" lon="7.2079">
        <ele>1210</ele>
        <time>2014-05-04T09:04:48.000Z</time>
      </trkpt>
      <trkpt lat="44.00786" lon="7.2078">
        <ele>1210</ele>
        <time>2014-05-04T09:04:55.000Z</time>
      </trkpt>
      <trkpt lat="44.00786" lon="7.20772">
        <ele>1209.5999755859</ele>
        <time>2014-05-04T09:05:00.000Z</time>
      </trkpt>
      <trkpt lat="44.00787" lon="7.20768">
        <ele>1209.4000244141</ele>
        <time>2014-05-04T09:05:03.000Z</time>
      </trkpt>
      <trkpt lat="44.00787" lon="7.20755">
        <ele>1208.4000244141</ele>
        <time>2014-05-04T09:05:12.000Z</time>
      </trkpt>
      <trkpt lat="44.00788" lon="7.20742">
        <ele>1206.8000488281</ele>
        <time>2014-05-04T09:05:21.000Z</time>
      </trkpt>
      <trkpt lat="44.00788" lon="7.20738">
        <ele>1207.5999755859</ele>
        <time>2014-05-04T09:05:24.000Z</time>
      </trkpt>
      <trkpt lat="44.00786" lon="7.20734">
        <ele>1208.8000488281</ele>
        <time>2014-05-04T09:05:27.000Z</time>
      </trkpt>
      <trkpt lat="44.00785" lon="7.20727">
        <ele>1210.1999511719</ele>
        <time>2014-05-04T09:05:35.000Z</time>
      </trkpt>
      <trkpt lat="44.00782" lon="7.20727">
        <ele>1211.8000488281</ele>
        <time>2014-05-04T09:05:42.000Z</time>
      </trkpt>
      <trkpt lat="44.00778" lon="7.20724">
        <ele>1214</ele>
        <time>2014-05-04T09:05:47.000Z</time>
      </trkpt>
      <trkpt lat="44.00775" lon="7.20725">
        <ele>1215.1999511719</ele>
        <time>2014-05-04T09:05:53.000Z</time>
      </trkpt>
      <trkpt lat="44.00771" lon="7.20721">
        <ele>1217.1999511719</ele>
        <time>2014-05-04T09:05:57.000Z</time>
      </trkpt>
      <trkpt lat="44.00767" lon="7.20722">
        <ele>1218.5999755859</ele>
        <time>2014-05-04T09:06:00.000Z</time>
      </trkpt>
      <trkpt lat="44.00764" lon="7.2072">
        <ele>1220</ele>
        <time>2014-05-04T09:06:02.000Z</time>
      </trkpt>
      <trkpt lat="44.00762" lon="7.20719">
        <ele>1221.1999511719</ele>
        <time>2014-05-04T09:06:03.000Z</time>
      </trkpt>
      <trkpt lat="44.00763" lon="7.20718">
        <ele>1220.5999755859</ele>
        <time>2014-05-04T09:06:07.000Z</time>
      </trkpt>
      <trkpt lat="44.00763" lon="7.20717">
        <ele>1221</ele>
        <time>2014-05-04T09:06:08.000Z</time>
      </trkpt>
      <trkpt lat="44.00752" lon="7.20718">
        <ele>1224.8000488281</ele>
        <time>2014-05-04T09:06:18.000Z</time>
      </trkpt>
      <trkpt lat="44.00752" lon="7.20722">
        <ele>1224.1999511719</ele>
        <time>2014-05-04T09:06:22.000Z</time>
      </trkpt>
      <trkpt lat="44.00751" lon="7.20723">
        <ele>1224.8000488281</ele>
        <time>2014-05-04T09:06:29.000Z</time>
      </trkpt>
      <trkpt lat="44.00753" lon="7.20723">
        <ele>1223.4000244141</ele>
        <time>2014-05-04T09:06:32.000Z</time>
      </trkpt>
      <trkpt lat="44.00756" lon="7.20719">
        <ele>1223.1999511719</ele>
        <time>2014-05-04T09:06:36.000Z</time>
      </trkpt>
      <trkpt lat="44.00756" lon="7.20718">
        <ele>1223.1999511719</ele>
        <time>2014-05-04T09:06:37.000Z</time>
      </trkpt>
      <trkpt lat="44.0076" lon="7.20707">
        <ele>1223.4000244141</ele>
        <time>2014-05-04T09:06:43.000Z</time>
      </trkpt>
      <trkpt lat="44.00765" lon="7.20704">
        <ele>1222.4000244141</ele>
        <time>2014-05-04T09:06:49.000Z</time>
      </trkpt>
      <trkpt lat="44.00763" lon="7.20692">
        <ele>1225</ele>
        <time>2014-05-04T09:06:57.000Z</time>
      </trkpt>
      <trkpt lat="44.00765" lon="7.20694">
        <ele>1223.8000488281</ele>
        <time>2014-05-04T09:07:00.000Z</time>
      </trkpt>
      <trkpt lat="44.00768" lon="7.20696">
        <ele>1222.1999511719</ele>
        <time>2014-05-04T09:07:03.000Z</time>
      </trkpt>
      <trkpt lat="44.00766" lon="7.20698">
        <ele>1222.8000488281</ele>
        <time>2014-05-04T09:07:05.000Z</time>
      </trkpt>
      <trkpt lat="44.00764" lon="7.20699">
        <ele>1223.4000244141</ele>
        <time>2014-05-04T09:07:07.000Z</time>
      </trkpt>
      <trkpt lat="44.00763" lon="7.20701">
        <ele>1223.4000244141</ele>
        <time>2014-05-04T09:07:08.000Z</time>
      </trkpt>
      <trkpt lat="44.00758" lon="7.20705">
        <ele>1224.5999755859</ele>
        <time>2014-05-04T09:07:11.000Z</time>
      </trkpt>
      <trkpt lat="44.0075" lon="7.20708">
        <ele>1227.4000244141</ele>
        <time>2014-05-04T09:07:16.000Z</time>
      </trkpt>
      <trkpt lat="44.00746" lon="7.20714">
        <ele>1227.8000488281</ele>
        <time>2014-05-04T09:07:19.000Z</time>
      </trkpt>
      <trkpt lat="44.00744" lon="7.20718">
        <ele>1228.1999511719</ele>
        <time>2014-05-04T09:07:21.000Z</time>
      </trkpt>
      <trkpt lat="44.00737" lon="7.20718">
        <ele>1231.4000244141</ele>
        <time>2014-05-04T09:07:25.000Z</time>
      </trkpt>
      <trkpt lat="44.00736" lon="7.20717">
        <ele>1231.8000488281</ele>
        <time>2014-05-04T09:07:26.000Z</time>
      </trkpt>
      <trkpt lat="44.00736" lon="7.20715">
        <ele>1232.1999511719</ele>
        <time>2014-05-04T09:07:28.000Z</time>
      </trkpt>
      <trkpt lat="44.00732" lon="7.20713">
        <ele>1234</ele>
        <time>2014-05-04T09:07:31.000Z</time>
      </trkpt>
      <trkpt lat="44.00731" lon="7.20712">
        <ele>1234.5999755859</ele>
        <time>2014-05-04T09:07:32.000Z</time>
      </trkpt>
      <trkpt lat="44.00725" lon="7.20708">
        <ele>1237.4000244141</ele>
        <time>2014-05-04T09:07:35.000Z</time>
      </trkpt>
      <trkpt lat="44.00725" lon="7.20708">
        <ele>1237.4000244141</ele>
        <time>2014-05-04T09:07:36.000Z</time>
      </trkpt>
      <trkpt lat="44.00725" lon="7.20709">
        <ele>1237.1999511719</ele>
        <time>2014-05-04T09:07:37.000Z</time>
      </trkpt>
      <trkpt lat="44.00723" lon="7.20712">
        <ele>1237.8000488281</ele>
        <time>2014-05-04T09:07:39.000Z</time>
      </trkpt>
      <trkpt lat="44.00725" lon="7.20713">
        <ele>1236.8000488281</ele>
        <time>2014-05-04T09:07:46.000Z</time>
      </trkpt>
      <trkpt lat="44.00729" lon="7.20715">
        <ele>1234.8000488281</ele>
        <time>2014-05-04T09:07:57.000Z</time>
      </trkpt>
      <trkpt lat="44.00731" lon="7.20715">
        <ele>1234.1999511719</ele>
        <time>2014-05-04T09:07:58.000Z</time>
      </trkpt>
      <trkpt lat="44.00735" lon="7.20717">
        <ele>1232.1999511719</ele>
        <time>2014-05-04T09:08:00.000Z</time>
      </trkpt>
      <trkpt lat="44.00738" lon="7.2072">
        <ele>1230.4000244141</ele>
        <time>2014-05-04T09:08:01.000Z</time>
      </trkpt>
      <trkpt lat="44.00745" lon="7.20728">
        <ele>1226.5999755859</ele>
        <time>2014-05-04T09:08:06.000Z</time>
      </trkpt>
      <trkpt lat="44.0075" lon="7.20736">
        <ele>1223.8000488281</ele>
        <time>2014-05-04T09:08:12.000Z</time>
      </trkpt>
      <trkpt lat="44.00754" lon="7.20744">
        <ele>1221.4000244141</ele>
        <time>2014-05-04T09:08:18.000Z</time>
      </trkpt>
      <trkpt lat="44.00753" lon="7.20747">
        <ele>1222</ele>
        <time>2014-05-04T09:08:23.000Z</time>
      </trkpt>
      <trkpt lat="44.00753" lon="7.2075">
        <ele>1221.8000488281</ele>
        <time>2014-05-04T09:08:28.000Z</time>
      </trkpt>
      <trkpt lat="44.00753" lon="7.20753">
        <ele>1222.1999511719</ele>
        <time>2014-05-04T09:08:29.000Z</time>
      </trkpt>
      <trkpt lat="44.00753" lon="7.20763">
        <ele>1222.1999511719</ele>
        <time>2014-05-04T09:08:35.000Z</time>
      </trkpt>
      <trkpt lat="44.00752" lon="7.20769">
        <ele>1222.8000488281</ele>
        <time>2014-05-04T09:08:38.000Z</time>
      </trkpt>
      <trkpt lat="44.00747" lon="7.20774">
        <ele>1225.4000244141</ele>
        <time>2014-05-04T09:08:43.000Z</time>
      </trkpt>
      <trkpt lat="44.00747" lon="7.20776">
        <ele>1225.4000244141</ele>
        <time>2014-05-04T09:08:44.000Z</time>
      </trkpt>
      <trkpt lat="44.00749" lon="7.20782">
        <ele>1224.4000244141</ele>
        <time>2014-05-04T09:08:48.000Z</time>
      </trkpt>
      <trkpt lat="44.00747" lon="7.2079">
        <ele>1225.4000244141</ele>
        <time>2014-05-04T09:08:54.000Z</time>
      </trkpt>
      <trkpt lat="44.00739" lon="7.20795">
        <ele>1229.1999511719</ele>
        <time>2014-05-04T09:09:01.000Z</time>
      </trkpt>
      <trkpt lat="44.00739" lon="7.20801">
        <ele>1229.4000244141</ele>
        <time>2014-05-04T09:09:07.000Z</time>
      </trkpt>
      <trkpt lat="44.00737" lon="7.20807">
        <ele>1230.8000488281</ele>
        <time>2014-05-04T09:09:12.000Z</time>
      </trkpt>
      <trkpt lat="44.00733" lon="7.2081">
        <ele>1233</ele>
        <time>2014-05-04T09:09:14.000Z</time>
      </trkpt>
      <trkpt lat="44.00729" lon="7.20817">
        <ele>1234.8000488281</ele>
        <time>2014-05-04T09:09:18.000Z</time>
      </trkpt>
      <trkpt lat="44.00729" lon="7.20818">
        <ele>1235.1999511719</ele>
        <time>2014-05-04T09:09:19.000Z</time>
      </trkpt>
      <trkpt lat="44.00725" lon="7.20823">
        <ele>1237.4000244141</ele>
        <time>2014-05-04T09:09:24.000Z</time>
      </trkpt>
      <trkpt lat="44.00723" lon="7.20826">
        <ele>1238</ele>
        <time>2014-05-04T09:09:27.000Z</time>
      </trkpt>
      <trkpt lat="44.00722" lon="7.20826">
        <ele>1238.5999755859</ele>
        <time>2014-05-04T09:09:28.000Z</time>
      </trkpt>
      <trkpt lat="44.0072" lon="7.20828">
        <ele>1239.5999755859</ele>
        <time>2014-05-04T09:09:32.000Z</time>
      </trkpt>
      <trkpt lat="44.0072" lon="7.2083">
        <ele>1240</ele>
        <time>2014-05-04T09:09:34.000Z</time>
      </trkpt>
      <trkpt lat="44.00719" lon="7.20835">
        <ele>1240.5999755859</ele>
        <time>2014-05-04T09:09:38.000Z</time>
      </trkpt>
      <trkpt lat="44.00713" lon="7.20838">
        <ele>1243.8000488281</ele>
        <time>2014-05-04T09:09:46.000Z</time>
      </trkpt>
      <trkpt lat="44.0071" lon="7.20842">
        <ele>1245.5999755859</ele>
        <time>2014-05-04T09:09:51.000Z</time>
      </trkpt>
      <trkpt lat="44.00705" lon="7.20847">
        <ele>1248.1999511719</ele>
        <time>2014-05-04T09:09:57.000Z</time>
      </trkpt>
      <trkpt lat="44.00704" lon="7.20846">
        <ele>1248.5999755859</ele>
        <time>2014-05-04T09:09:58.000Z</time>
      </trkpt>
      <trkpt lat="44.00701" lon="7.20851">
        <ele>1250.1999511719</ele>
        <time>2014-05-04T09:10:02.000Z</time>
      </trkpt>
      <trkpt lat="44.007" lon="7.20853">
        <ele>1251</ele>
        <time>2014-05-04T09:10:10.000Z</time>
      </trkpt>
      <trkpt lat="44.00698" lon="7.20855">
        <ele>1251.8000488281</ele>
        <time>2014-05-04T09:10:15.000Z</time>
      </trkpt>
      <trkpt lat="44.00697" lon="7.20854">
        <ele>1252.4000244141</ele>
        <time>2014-05-04T09:10:17.000Z</time>
      </trkpt>
      <trkpt lat="44.00692" lon="7.20855">
        <ele>1254.8000488281</ele>
        <time>2014-05-04T09:10:21.000Z</time>
      </trkpt>
      <trkpt lat="44.00691" lon="7.20857">
        <ele>1255.4000244141</ele>
        <time>2014-05-04T09:10:25.000Z</time>
      </trkpt>
      <trkpt lat="44.00694" lon="7.20862">
        <ele>1254.4000244141</ele>
        <time>2014-05-04T09:10:34.000Z</time>
      </trkpt>
      <trkpt lat="44.00694" lon="7.20864">
        <ele>1254.5999755859</ele>
        <time>2014-05-04T09:10:35.000Z</time>
      </trkpt>
      <trkpt lat="44.00693" lon="7.20866">
        <ele>1255.1999511719</ele>
        <time>2014-05-04T09:10:36.000Z</time>
      </trkpt>
      <trkpt lat="44.00691" lon="7.20871">
        <ele>1256.4000244141</ele>
        <time>2014-05-04T09:10:39.000Z</time>
      </trkpt>
      <trkpt lat="44.00689" lon="7.20865">
        <ele>1256.8000488281</ele>
        <time>2014-05-04T09:10:46.000Z</time>
      </trkpt>
      <trkpt lat="44.00693" lon="7.20868">
        <ele>1255.1999511719</ele>
        <time>2014-05-04T09:10:51.000Z</time>
      </trkpt>
      <trkpt lat="44.00697" lon="7.2087">
        <ele>1253.4000244141</ele>
        <time>2014-05-04T09:10:55.000Z</time>
      </trkpt>
      <trkpt lat="44.00701" lon="7.20874">
        <ele>1252</ele>
        <time>2014-05-04T09:10:58.000Z</time>
      </trkpt>
      <trkpt lat="44.00707" lon="7.20878">
        <ele>1249.5999755859</ele>
        <time>2014-05-04T09:11:05.000Z</time>
      </trkpt>
      <trkpt lat="44.00713" lon="7.20883">
        <ele>1246.8000488281</ele>
        <time>2014-05-04T09:11:12.000Z</time>
      </trkpt>
      <trkpt lat="44.00718" lon="7.20893">
        <ele>1245.4000244141</ele>
        <time>2014-05-04T09:11:18.000Z</time>
      </trkpt>
      <trkpt lat="44.00721" lon="7.20901">
        <ele>1244.8000488281</ele>
        <time>2014-05-04T09:11:24.000Z</time>
      </trkpt>
      <trkpt lat="44.00722" lon="7.20905">
        <ele>1244.4000244141</ele>
        <time>2014-05-04T09:11:26.000Z</time>
      </trkpt>
      <trkpt lat="44.00722" lon="7.20911">
        <ele>1244.5999755859</ele>
        <time>2014-05-04T09:11:30.000Z</time>
      </trkpt>
      <trkpt lat="44.00723" lon="7.20923">
        <ele>1244.8000488281</ele>
        <time>2014-05-04T09:11:36.000Z</time>
      </trkpt>
      <trkpt lat="44.00723" lon="7.20938">
        <ele>1244.8000488281</ele>
        <time>2014-05-04T09:11:41.000Z</time>
      </trkpt>
      <trkpt lat="44.00724" lon="7.20946">
        <ele>1245.4000244141</ele>
        <time>2014-05-04T09:11:45.000Z</time>
      </trkpt>
      <trkpt lat="44.00725" lon="7.20961">
        <ele>1247.1999511719</ele>
        <time>2014-05-04T09:11:52.000Z</time>
      </trkpt>
      <trkpt lat="44.00726" lon="7.20976">
        <ele>1249</ele>
        <time>2014-05-04T09:11:58.000Z</time>
      </trkpt>
      <trkpt lat="44.00725" lon="7.20988">
        <ele>1252.1999511719</ele>
        <time>2014-05-04T09:12:04.000Z</time>
      </trkpt>
      <trkpt lat="44.00725" lon="7.20999">
        <ele>1254</ele>
        <time>2014-05-04T09:12:10.000Z</time>
      </trkpt>
      <trkpt lat="44.00726" lon="7.21004">
        <ele>1254</ele>
        <time>2014-05-04T09:12:13.000Z</time>
      </trkpt>
      <trkpt lat="44.00724" lon="7.21008">
        <ele>1255.4000244141</ele>
        <time>2014-05-04T09:12:15.000Z</time>
      </trkpt>
      <trkpt lat="44.00726" lon="7.21016">
        <ele>1255.4000244141</ele>
        <time>2014-05-04T09:12:20.000Z</time>
      </trkpt>
      <trkpt lat="44.00722" lon="7.21025">
        <ele>1259.5999755859</ele>
        <time>2014-05-04T09:12:25.000Z</time>
      </trkpt>
      <trkpt lat="44.00725" lon="7.21029">
        <ele>1257.8000488281</ele>
        <time>2014-05-04T09:12:29.000Z</time>
      </trkpt>
      <trkpt lat="44.00726" lon="7.21029">
        <ele>1257.4000244141</ele>
        <time>2014-05-04T09:12:30.000Z</time>
      </trkpt>
      <trkpt lat="44.00729" lon="7.2103">
        <ele>1255.8000488281</ele>
        <time>2014-05-04T09:12:33.000Z</time>
      </trkpt>
      <trkpt lat="44.00728" lon="7.21029">
        <ele>1256</ele>
        <time>2014-05-04T09:12:41.000Z</time>
      </trkpt>
      <trkpt lat="44.00723" lon="7.2103">
        <ele>1259</ele>
        <time>2014-05-04T09:12:44.000Z</time>
      </trkpt>
      <trkpt lat="44.00721" lon="7.21027">
        <ele>1260</ele>
        <time>2014-05-04T09:12:46.000Z</time>
      </trkpt>
      <trkpt lat="44.00722" lon="7.21022">
        <ele>1259.4000244141</ele>
        <time>2014-05-04T09:12:48.000Z</time>
      </trkpt>
      <trkpt lat="44.00724" lon="7.21012">
        <ele>1256.4000244141</ele>
        <time>2014-05-04T09:12:52.000Z</time>
      </trkpt>
      <trkpt lat="44.00728" lon="7.20999">
        <ele>1251.8000488281</ele>
        <time>2014-05-04T09:12:59.000Z</time>
      </trkpt>
      <trkpt lat="44.00727" lon="7.20999">
        <ele>1252.5999755859</ele>
        <time>2014-05-04T09:13:00.000Z</time>
      </trkpt>
      <trkpt lat="44.00728" lon="7.20991">
        <ele>1250.4000244141</ele>
        <time>2014-05-04T09:13:04.000Z</time>
      </trkpt>
      <trkpt lat="44.00728" lon="7.2099">
        <ele>1250.1999511719</ele>
        <time>2014-05-04T09:13:05.000Z</time>
      </trkpt>
      <trkpt lat="44.00729" lon="7.20985">
        <ele>1248.8000488281</ele>
        <time>2014-05-04T09:13:11.000Z</time>
      </trkpt>
      <trkpt lat="44.00727" lon="7.20986">
        <ele>1250.1999511719</ele>
        <time>2014-05-04T09:13:12.000Z</time>
      </trkpt>
      <trkpt lat="44.00725" lon="7.20984">
        <ele>1251.1999511719</ele>
        <time>2014-05-04T09:13:15.000Z</time>
      </trkpt>
      <trkpt lat="44.00722" lon="7.2098">
        <ele>1252.4000244141</ele>
        <time>2014-05-04T09:13:19.000Z</time>
      </trkpt>
      <trkpt lat="44.00714" lon="7.20978">
        <ele>1256.8000488281</ele>
        <time>2014-05-04T09:13:24.000Z</time>
      </trkpt>
      <trkpt lat="44.00701" lon="7.20969">
        <ele>1263.4000244141</ele>
        <time>2014-05-04T09:13:33.000Z</time>
      </trkpt>
      <trkpt lat="44.00699" lon="7.20965">
        <ele>1264</ele>
        <time>2014-05-04T09:13:36.000Z</time>
      </trkpt>
      <trkpt lat="44.00697" lon="7.2096">
        <ele>1264.5999755859</ele>
        <time>2014-05-04T09:13:40.000Z</time>
      </trkpt>
      <trkpt lat="44.00696" lon="7.2096">
        <ele>1265</ele>
        <time>2014-05-04T09:13:41.000Z</time>
      </trkpt>
      <trkpt lat="44.00694" lon="7.20958">
        <ele>1265.5999755859</ele>
        <time>2014-05-04T09:13:44.000Z</time>
      </trkpt>
      <trkpt lat="44.00694" lon="7.20954">
        <ele>1265.1999511719</ele>
        <time>2014-05-04T09:13:47.000Z</time>
      </trkpt>
      <trkpt lat="44.00694" lon="7.20953">
        <ele>1265.1999511719</ele>
        <time>2014-05-04T09:13:48.000Z</time>
      </trkpt>
      <trkpt lat="44.00692" lon="7.20947">
        <ele>1264.8000488281</ele>
        <time>2014-05-04T09:13:52.000Z</time>
      </trkpt>
      <trkpt lat="44.00691" lon="7.20941">
        <ele>1264.8000488281</ele>
        <time>2014-05-04T09:13:57.000Z</time>
      </trkpt>
      <trkpt lat="44.0069" lon="7.20941">
        <ele>1265</ele>
        <time>2014-05-04T09:13:58.000Z</time>
      </trkpt>
      <trkpt lat="44.00689" lon="7.20939">
        <ele>1265</ele>
        <time>2014-05-04T09:13:59.000Z</time>
      </trkpt>
      <trkpt lat="44.00686" lon="7.20933">
        <ele>1265.5999755859</ele>
        <time>2014-05-04T09:14:03.000Z</time>
      </trkpt>
      <trkpt lat="44.00684" lon="7.20932">
        <ele>1266.1999511719</ele>
        <time>2014-05-04T09:14:04.000Z</time>
      </trkpt>
      <trkpt lat="44.00676" lon="7.20928">
        <ele>1268.8000488281</ele>
        <time>2014-05-04T09:14:10.000Z</time>
      </trkpt>
      <trkpt lat="44.0067" lon="7.20925">
        <ele>1271.1999511719</ele>
        <time>2014-05-04T09:14:16.000Z</time>
      </trkpt>
      <trkpt lat="44.00669" lon="7.20923">
        <ele>1271</ele>
        <time>2014-05-04T09:14:18.000Z</time>
      </trkpt>
      <trkpt lat="44.00667" lon="7.20919">
        <ele>1271.4000244141</ele>
        <time>2014-05-04T09:14:21.000Z</time>
      </trkpt>
      <trkpt lat="44.00665" lon="7.20919">
        <ele>1272</ele>
        <time>2014-05-04T09:14:22.000Z</time>
      </trkpt>
      <trkpt lat="44.00666" lon="7.20919">
        <ele>1271.5999755859</ele>
        <time>2014-05-04T09:14:26.000Z</time>
      </trkpt>
      <trkpt lat="44.00664" lon="7.20918">
        <ele>1272.4000244141</ele>
        <time>2014-05-04T09:14:31.000Z</time>
      </trkpt>
      <trkpt lat="44.00662" lon="7.20917">
        <ele>1273.1999511719</ele>
        <time>2014-05-04T09:14:33.000Z</time>
      </trkpt>
      <trkpt lat="44.0066" lon="7.20916">
        <ele>1273.8000488281</ele>
        <time>2014-05-04T09:14:36.000Z</time>
      </trkpt>
      <trkpt lat="44.0065" lon="7.2091">
        <ele>1277.4000244141</ele>
        <time>2014-05-04T09:14:42.000Z</time>
      </trkpt>
      <trkpt lat="44.00637" lon="7.20907">
        <ele>1283</ele>
        <time>2014-05-04T09:14:49.000Z</time>
      </trkpt>
      <trkpt lat="44.00623" lon="7.20905">
        <ele>1289</ele>
        <time>2014-05-04T09:14:56.000Z</time>
      </trkpt>
      <trkpt lat="44.00612" lon="7.20904">
        <ele>1294</ele>
        <time>2014-05-04T09:15:02.000Z</time>
      </trkpt>
      <trkpt lat="44.00609" lon="7.20903">
        <ele>1295.1999511719</ele>
        <time>2014-05-04T09:15:09.000Z</time>
      </trkpt>
      <trkpt lat="44.00608" lon="7.20906">
        <ele>1296.1999511719</ele>
        <time>2014-05-04T09:15:12.000Z</time>
      </trkpt>
      <trkpt lat="44.00604" lon="7.20906">
        <ele>1298.1999511719</ele>
        <time>2014-05-04T09:15:16.000Z</time>
      </trkpt>
      <trkpt lat="44.00599" lon="7.20906">
        <ele>1300.8000488281</ele>
        <time>2014-05-04T09:15:21.000Z</time>
      </trkpt>
      <trkpt lat="44.00598" lon="7.20905">
        <ele>1301.4000244141</ele>
        <time>2014-05-04T09:15:23.000Z</time>
      </trkpt>
      <trkpt lat="44.006" lon="7.20907">
        <ele>1300.1999511719</ele>
        <time>2014-05-04T09:15:30.000Z</time>
      </trkpt>
      <trkpt lat="44.00607" lon="7.20902">
        <ele>1296.4000244141</ele>
        <time>2014-05-04T09:15:35.000Z</time>
      </trkpt>
      <trkpt lat="44.00608" lon="7.20902">
        <ele>1295.5999755859</ele>
        <time>2014-05-04T09:15:36.000Z</time>
      </trkpt>
      <trkpt lat="44.00615" lon="7.20899">
        <ele>1292.1999511719</ele>
        <time>2014-05-04T09:15:40.000Z</time>
      </trkpt>
      <trkpt lat="44.00617" lon="7.20897">
        <ele>1291.4000244141</ele>
        <time>2014-05-04T09:15:41.000Z</time>
      </trkpt>
      <trkpt lat="44.00617" lon="7.20891">
        <ele>1291</ele>
        <time>2014-05-04T09:15:45.000Z</time>
      </trkpt>
      <trkpt lat="44.00616" lon="7.20888">
        <ele>1291</ele>
        <time>2014-05-04T09:15:47.000Z</time>
      </trkpt>
      <trkpt lat="44.00616" lon="7.20886">
        <ele>1291</ele>
        <time>2014-05-04T09:15:49.000Z</time>
      </trkpt>
      <trkpt lat="44.00618" lon="7.20886">
        <ele>1290.4000244141</ele>
        <time>2014-05-04T09:15:50.000Z</time>
      </trkpt>
      <trkpt lat="44.00616" lon="7.20884">
        <ele>1291</ele>
        <time>2014-05-04T09:15:52.000Z</time>
      </trkpt>
      <trkpt lat="44.00615" lon="7.2088">
        <ele>1291</ele>
        <time>2014-05-04T09:15:56.000Z</time>
      </trkpt>
      <trkpt lat="44.00612" lon="7.20881">
        <ele>1292.4000244141</ele>
        <time>2014-05-04T09:16:01.000Z</time>
      </trkpt>
      <trkpt lat="44.00611" lon="7.2088">
        <ele>1292.8000488281</ele>
        <time>2014-05-04T09:16:06.000Z</time>
      </trkpt>
      <trkpt lat="44.00612" lon="7.20869">
        <ele>1291.8000488281</ele>
        <time>2014-05-04T09:16:12.000Z</time>
      </trkpt>
      <trkpt lat="44.00614" lon="7.20859">
        <ele>1290.4000244141</ele>
        <time>2014-05-04T09:16:17.000Z</time>
      </trkpt>
      <trkpt lat="44.00614" lon="7.20856">
        <ele>1290.1999511719</ele>
        <time>2014-05-04T09:16:18.000Z</time>
      </trkpt>
      <trkpt lat="44.00616" lon="7.20845">
        <ele>1288.5999755859</ele>
        <time>2014-05-04T09:16:23.000Z</time>
      </trkpt>
      <trkpt lat="44.00616" lon="7.20837">
        <ele>1288.1999511719</ele>
        <time>2014-05-04T09:16:29.000Z</time>
      </trkpt>
      <trkpt lat="44.00609" lon="7.20828">
        <ele>1290.8000488281</ele>
        <time>2014-05-04T09:16:38.000Z</time>
      </trkpt>
      <trkpt lat="44.00611" lon="7.20823">
        <ele>1289.8000488281</ele>
        <time>2014-05-04T09:16:44.000Z</time>
      </trkpt>
      <trkpt lat="44.00611" lon="7.20823">
        <ele>1290</ele>
        <time>2014-05-04T09:16:45.000Z</time>
      </trkpt>
      <trkpt lat="44.00609" lon="7.20821">
        <ele>1290.5999755859</ele>
        <time>2014-05-04T09:16:47.000Z</time>
      </trkpt>
      <trkpt lat="44.00608" lon="7.2082">
        <ele>1291.1999511719</ele>
        <time>2014-05-04T09:16:49.000Z</time>
      </trkpt>
      <trkpt lat="44.006" lon="7.20814">
        <ele>1295.4000244141</ele>
        <time>2014-05-04T09:16:59.000Z</time>
      </trkpt>
      <trkpt lat="44.00594" lon="7.2081">
        <ele>1298.4000244141</ele>
        <time>2014-05-04T09:17:04.000Z</time>
      </trkpt>
      <trkpt lat="44.00593" lon="7.20809">
        <ele>1298.8000488281</ele>
        <time>2014-05-04T09:17:06.000Z</time>
      </trkpt>
      <trkpt lat="44.00592" lon="7.20808">
        <ele>1299.1999511719</ele>
        <time>2014-05-04T09:17:09.000Z</time>
      </trkpt>
      <trkpt lat="44.00591" lon="7.20805">
        <ele>1299.5999755859</ele>
        <time>2014-05-04T09:17:11.000Z</time>
      </trkpt>
      <trkpt lat="44.00587" lon="7.20798">
        <ele>1302</ele>
        <time>2014-05-04T09:17:18.000Z</time>
      </trkpt>
      <trkpt lat="44.00586" lon="7.2079">
        <ele>1302.4000244141</ele>
        <time>2014-05-04T09:17:25.000Z</time>
      </trkpt>
      <trkpt lat="44.00587" lon="7.20789">
        <ele>1302</ele>
        <time>2014-05-04T09:17:26.000Z</time>
      </trkpt>
      <trkpt lat="44.00579" lon="7.20787">
        <ele>1305.8000488281</ele>
        <time>2014-05-04T09:17:29.000Z</time>
      </trkpt>
      <trkpt lat="44.00577" lon="7.20787">
        <ele>1307</ele>
        <time>2014-05-04T09:17:30.000Z</time>
      </trkpt>
      <trkpt lat="44.00571" lon="7.20785">
        <ele>1310</ele>
        <time>2014-05-04T09:17:34.000Z</time>
      </trkpt>
      <trkpt lat="44.00571" lon="7.20784">
        <ele>1310.1999511719</ele>
        <time>2014-05-04T09:17:35.000Z</time>
      </trkpt>
      <trkpt lat="44.0057" lon="7.20782">
        <ele>1310.5999755859</ele>
        <time>2014-05-04T09:17:36.000Z</time>
      </trkpt>
      <trkpt lat="44.00569" lon="7.20774">
        <ele>1310.8000488281</ele>
        <time>2014-05-04T09:17:41.000Z</time>
      </trkpt>
      <trkpt lat="44.00567" lon="7.20772">
        <ele>1312.1999511719</ele>
        <time>2014-05-04T09:17:47.000Z</time>
      </trkpt>
      <trkpt lat="44.00566" lon="7.2077">
        <ele>1312.5999755859</ele>
        <time>2014-05-04T09:17:49.000Z</time>
      </trkpt>
      <trkpt lat="44.00568" lon="7.20767">
        <ele>1311.8000488281</ele>
        <time>2014-05-04T09:17:52.000Z</time>
      </trkpt>
      <trkpt lat="44.00568" lon="7.20763">
        <ele>1311.5999755859</ele>
        <time>2014-05-04T09:17:54.000Z</time>
      </trkpt>
      <trkpt lat="44.0057" lon="7.2076">
        <ele>1310.5999755859</ele>
        <time>2014-05-04T09:17:57.000Z</time>
      </trkpt>
      <trkpt lat="44.00571" lon="7.20747">
        <ele>1310.1999511719</ele>
        <time>2014-05-04T09:18:04.000Z</time>
      </trkpt>
      <trkpt lat="44.00572" lon="7.20746">
        <ele>1310</ele>
        <time>2014-05-04T09:18:05.000Z</time>
      </trkpt>
      <trkpt lat="44.00572" lon="7.20744">
        <ele>1310</ele>
        <time>2014-05-04T09:18:07.000Z</time>
      </trkpt>
      <trkpt lat="44.00573" lon="7.20742">
        <ele>1309.5999755859</ele>
        <time>2014-05-04T09:18:10.000Z</time>
      </trkpt>
      <trkpt lat="44.00575" lon="7.20741">
        <ele>1309.1999511719</ele>
        <time>2014-05-04T09:18:11.000Z</time>
      </trkpt>
      <trkpt lat="44.00576" lon="7.20735">
        <ele>1309.4000244141</ele>
        <time>2014-05-04T09:18:15.000Z</time>
      </trkpt>
      <trkpt lat="44.00575" lon="7.20724">
        <ele>1311</ele>
        <time>2014-05-04T09:18:20.000Z</time>
      </trkpt>
      <trkpt lat="44.00575" lon="7.2072">
        <ele>1312</ele>
        <time>2014-05-04T09:18:22.000Z</time>
      </trkpt>
      <trkpt lat="44.00576" lon="7.20709">
        <ele>1312.5999755859</ele>
        <time>2014-05-04T09:18:29.000Z</time>
      </trkpt>
      <trkpt lat="44.00577" lon="7.20707">
        <ele>1312.5999755859</ele>
        <time>2014-05-04T09:18:30.000Z</time>
      </trkpt>
      <trkpt lat="44.00574" lon="7.20698">
        <ele>1315.4000244141</ele>
        <time>2014-05-04T09:18:36.000Z</time>
      </trkpt>
      <trkpt lat="44.00571" lon="7.20695">
        <ele>1316.8000488281</ele>
        <time>2014-05-04T09:18:38.000Z</time>
      </trkpt>
      <trkpt lat="44.0057" lon="7.20695">
        <ele>1317.8000488281</ele>
        <time>2014-05-04T09:18:39.000Z</time>
      </trkpt>
      <trkpt lat="44.00566" lon="7.20692">
        <ele>1319.8000488281</ele>
        <time>2014-05-04T09:18:42.000Z</time>
      </trkpt>
      <trkpt lat="44.00563" lon="7.20688">
        <ele>1322</ele>
        <time>2014-05-04T09:18:45.000Z</time>
      </trkpt>
      <trkpt lat="44.00561" lon="7.20684">
        <ele>1323.5999755859</ele>
        <time>2014-05-04T09:18:48.000Z</time>
      </trkpt>
      <trkpt lat="44.00559" lon="7.20682">
        <ele>1324.8000488281</ele>
        <time>2014-05-04T09:18:52.000Z</time>
      </trkpt>
      <trkpt lat="44.0056" lon="7.20681">
        <ele>1324.4000244141</ele>
        <time>2014-05-04T09:18:54.000Z</time>
      </trkpt>
      <trkpt lat="44.00561" lon="7.20683">
        <ele>1323.4000244141</ele>
        <time>2014-05-04T09:19:00.000Z</time>
      </trkpt>
      <trkpt lat="44.00564" lon="7.20678">
        <ele>1323</ele>
        <time>2014-05-04T09:19:05.000Z</time>
      </trkpt>
      <trkpt lat="44.00564" lon="7.20676">
        <ele>1323</ele>
        <time>2014-05-04T09:19:06.000Z</time>
      </trkpt>
      <trkpt lat="44.00565" lon="7.20677">
        <ele>1322.4000244141</ele>
        <time>2014-05-04T09:19:08.000Z</time>
      </trkpt>
      <trkpt lat="44.00567" lon="7.20676">
        <ele>1321.1999511719</ele>
        <time>2014-05-04T09:19:11.000Z</time>
      </trkpt>
      <trkpt lat="44.00568" lon="7.20675">
        <ele>1321.1999511719</ele>
        <time>2014-05-04T09:19:12.000Z</time>
      </trkpt>
      <trkpt lat="44.00568" lon="7.20673">
        <ele>1321.4000244141</ele>
        <time>2014-05-04T09:19:13.000Z</time>
      </trkpt>
      <trkpt lat="44.00569" lon="7.2067">
        <ele>1321.1999511719</ele>
        <time>2014-05-04T09:19:15.000Z</time>
      </trkpt>
      <trkpt lat="44.00573" lon="7.2066">
        <ele>1320.5999755859</ele>
        <time>2014-05-04T09:19:20.000Z</time>
      </trkpt>
      <trkpt lat="44.00581" lon="7.20647">
        <ele>1320.1999511719</ele>
        <time>2014-05-04T09:19:27.000Z</time>
      </trkpt>
      <trkpt lat="44.00584" lon="7.20638">
        <ele>1321.5999755859</ele>
        <time>2014-05-04T09:19:34.000Z</time>
      </trkpt>
      <trkpt lat="44.00585" lon="7.2063">
        <ele>1322.5999755859</ele>
        <time>2014-05-04T09:19:40.000Z</time>
      </trkpt>
      <trkpt lat="44.00587" lon="7.20628">
        <ele>1322</ele>
        <time>2014-05-04T09:19:44.000Z</time>
      </trkpt>
      <trkpt lat="44.00593" lon="7.20623">
        <ele>1319.4000244141</ele>
        <time>2014-05-04T09:19:49.000Z</time>
      </trkpt>
      <trkpt lat="44.00594" lon="7.20621">
        <ele>1319</ele>
        <time>2014-05-04T09:19:50.000Z</time>
      </trkpt>
      <trkpt lat="44.00597" lon="7.20617">
        <ele>1318.8000488281</ele>
        <time>2014-05-04T09:19:55.000Z</time>
      </trkpt>
      <trkpt lat="44.00599" lon="7.20612">
        <ele>1318.5999755859</ele>
        <time>2014-05-04T09:19:57.000Z</time>
      </trkpt>
      <trkpt lat="44.00601" lon="7.20605">
        <ele>1318.8000488281</ele>
        <time>2014-05-04T09:20:00.000Z</time>
      </trkpt>
      <trkpt lat="44.00601" lon="7.20604">
        <ele>1318.5999755859</ele>
        <time>2014-05-04T09:20:01.000Z</time>
      </trkpt>
      <trkpt lat="44.00603" lon="7.20601">
        <ele>1318.1999511719</ele>
        <time>2014-05-04T09:20:04.000Z</time>
      </trkpt>
      <trkpt lat="44.00604" lon="7.20598">
        <ele>1318.4000244141</ele>
        <time>2014-05-04T09:20:05.000Z</time>
      </trkpt>
      <trkpt lat="44.00607" lon="7.20594">
        <ele>1317.5999755859</ele>
        <time>2014-05-04T09:20:08.000Z</time>
      </trkpt>
      <trkpt lat="44.0061" lon="7.20588">
        <ele>1317.1999511719</ele>
        <time>2014-05-04T09:20:12.000Z</time>
      </trkpt>
      <trkpt lat="44.00614" lon="7.20575">
        <ele>1317</ele>
        <time>2014-05-04T09:20:19.000Z</time>
      </trkpt>
      <trkpt lat="44.00613" lon="7.2057">
        <ele>1318.4000244141</ele>
        <time>2014-05-04T09:20:21.000Z</time>
      </trkpt>
      <trkpt lat="44.00611" lon="7.20563">
        <ele>1320.4000244141</ele>
        <time>2014-05-04T09:20:25.000Z</time>
      </trkpt>
      <trkpt lat="44.00609" lon="7.20554">
        <ele>1323</ele>
        <time>2014-05-04T09:20:33.000Z</time>
      </trkpt>
      <trkpt lat="44.00606" lon="7.20545">
        <ele>1326.1999511719</ele>
        <time>2014-05-04T09:20:40.000Z</time>
      </trkpt>
      <trkpt lat="44.00605" lon="7.20542">
        <ele>1327.1999511719</ele>
        <time>2014-05-04T09:20:42.000Z</time>
      </trkpt>
      <trkpt lat="44.00603" lon="7.20535">
        <ele>1329.5999755859</ele>
        <time>2014-05-04T09:20:46.000Z</time>
      </trkpt>
      <trkpt lat="44.00602" lon="7.20532">
        <ele>1330.5999755859</ele>
        <time>2014-05-04T09:20:48.000Z</time>
      </trkpt>
      <trkpt lat="44.006" lon="7.20527">
        <ele>1333</ele>
        <time>2014-05-04T09:20:53.000Z</time>
      </trkpt>
      <trkpt lat="44.00597" lon="7.20525">
        <ele>1335</ele>
        <time>2014-05-04T09:20:59.000Z</time>
      </trkpt>
      <trkpt lat="44.00593" lon="7.20515">
        <ele>1338.5999755859</ele>
        <time>2014-05-04T09:21:05.000Z</time>
      </trkpt>
      <trkpt lat="44.00591" lon="7.20507">
        <ele>1340.8000488281</ele>
        <time>2014-05-04T09:21:09.000Z</time>
      </trkpt>
      <trkpt lat="44.00591" lon="7.20504">
        <ele>1341.8000488281</ele>
        <time>2014-05-04T09:21:11.000Z</time>
      </trkpt>
      <trkpt lat="44.00591" lon="7.20496">
        <ele>1342.8000488281</ele>
        <time>2014-05-04T09:21:15.000Z</time>
      </trkpt>
      <trkpt lat="44.00591" lon="7.20494">
        <ele>1343</ele>
        <time>2014-05-04T09:21:16.000Z</time>
      </trkpt>
      <trkpt lat="44.00591" lon="7.20483">
        <ele>1344.8000488281</ele>
        <time>2014-05-04T09:21:21.000Z</time>
      </trkpt>
      <trkpt lat="44.00591" lon="7.20479">
        <ele>1345.4000244141</ele>
        <time>2014-05-04T09:21:23.000Z</time>
      </trkpt>
      <trkpt lat="44.00589" lon="7.20469">
        <ele>1346.8000488281</ele>
        <time>2014-05-04T09:21:28.000Z</time>
      </trkpt>
      <trkpt lat="44.00589" lon="7.20468">
        <ele>1346.8000488281</ele>
        <time>2014-05-04T09:21:29.000Z</time>
      </trkpt>
      <trkpt lat="44.00588" lon="7.20461">
        <ele>1348</ele>
        <time>2014-05-04T09:21:33.000Z</time>
      </trkpt>
      <trkpt lat="44.00587" lon="7.20459">
        <ele>1348.8000488281</ele>
        <time>2014-05-04T09:21:34.000Z</time>
      </trkpt>
      <trkpt lat="44.00584" lon="7.20448">
        <ele>1351.4000244141</ele>
        <time>2014-05-04T09:21:41.000Z</time>
      </trkpt>
      <trkpt lat="44.00584" lon="7.20439">
        <ele>1351</ele>
        <time>2014-05-04T09:21:47.000Z</time>
      </trkpt>
      <trkpt lat="44.00584" lon="7.20429">
        <ele>1351.1999511719</ele>
        <time>2014-05-04T09:21:53.000Z</time>
      </trkpt>
      <trkpt lat="44.00584" lon="7.20425">
        <ele>1351.5999755859</ele>
        <time>2014-05-04T09:21:54.000Z</time>
      </trkpt>
      <trkpt lat="44.00585" lon="7.20418">
        <ele>1350.4000244141</ele>
        <time>2014-05-04T09:21:59.000Z</time>
      </trkpt>
      <trkpt lat="44.00586" lon="7.20416">
        <ele>1350.1999511719</ele>
        <time>2014-05-04T09:22:00.000Z</time>
      </trkpt>
      <trkpt lat="44.0059" lon="7.20412">
        <ele>1347</ele>
        <time>2014-05-04T09:22:04.000Z</time>
      </trkpt>
      <trkpt lat="44.00592" lon="7.20402">
        <ele>1344.8000488281</ele>
        <time>2014-05-04T09:22:08.000Z</time>
      </trkpt>
      <trkpt lat="44.00591" lon="7.20399">
        <ele>1345.1999511719</ele>
        <time>2014-05-04T09:22:09.000Z</time>
      </trkpt>
      <trkpt lat="44.00586" lon="7.20384">
        <ele>1348.5999755859</ele>
        <time>2014-05-04T09:22:14.000Z</time>
      </trkpt>
      <trkpt lat="44.00584" lon="7.20376">
        <ele>1350</ele>
        <time>2014-05-04T09:22:16.000Z</time>
      </trkpt>
      <trkpt lat="44.0058" lon="7.20362">
        <ele>1352.4000244141</ele>
        <time>2014-05-04T09:22:20.000Z</time>
      </trkpt>
      <trkpt lat="44.00573" lon="7.20343">
        <ele>1356.4000244141</ele>
        <time>2014-05-04T09:22:26.000Z</time>
      </trkpt>
      <trkpt lat="44.00565" lon="7.20327">
        <ele>1362.1999511719</ele>
        <time>2014-05-04T09:22:32.000Z</time>
      </trkpt>
      <trkpt lat="44.00562" lon="7.20324">
        <ele>1364</ele>
        <time>2014-05-04T09:22:33.000Z</time>
      </trkpt>
      <trkpt lat="44.00558" lon="7.20317">
        <ele>1367.4000244141</ele>
        <time>2014-05-04T09:22:37.000Z</time>
      </trkpt>
      <trkpt lat="44.00556" lon="7.20313">
        <ele>1368.5999755859</ele>
        <time>2014-05-04T09:22:39.000Z</time>
      </trkpt>
      <trkpt lat="44.00555" lon="7.20308">
        <ele>1369.8000488281</ele>
        <time>2014-05-04T09:22:42.000Z</time>
      </trkpt>
      <trkpt lat="44.00551" lon="7.20299">
        <ele>1372.5999755859</ele>
        <time>2014-05-04T09:22:48.000Z</time>
      </trkpt>
      <trkpt lat="44.00552" lon="7.20298">
        <ele>1372.4000244141</ele>
        <time>2014-05-04T09:22:49.000Z</time>
      </trkpt>
      <trkpt lat="44.00552" lon="7.20292">
        <ele>1372</ele>
        <time>2014-05-04T09:23:02.000Z</time>
      </trkpt>
      <trkpt lat="44.00556" lon="7.20285">
        <ele>1369.4000244141</ele>
        <time>2014-05-04T09:23:05.000Z</time>
      </trkpt>
      <trkpt lat="44.00554" lon="7.20277">
        <ele>1370.5999755859</ele>
        <time>2014-05-04T09:23:09.000Z</time>
      </trkpt>
      <trkpt lat="44.00554" lon="7.20272">
        <ele>1370.8000488281</ele>
        <time>2014-05-04T09:23:11.000Z</time>
      </trkpt>
      <trkpt lat="44.00555" lon="7.20259">
        <ele>1371</ele>
        <time>2014-05-04T09:23:18.000Z</time>
      </trkpt>
      <trkpt lat="44.00555" lon="7.20257">
        <ele>1370.8000488281</ele>
        <time>2014-05-04T09:23:20.000Z</time>
      </trkpt>
      <trkpt lat="44.00555" lon="7.20248">
        <ele>1371</ele>
        <time>2014-05-04T09:23:24.000Z</time>
      </trkpt>
      <trkpt lat="44.00555" lon="7.20243">
        <ele>1371.4000244141</ele>
        <time>2014-05-04T09:23:26.000Z</time>
      </trkpt>
      <trkpt lat="44.00555" lon="7.20234">
        <ele>1371.4000244141</ele>
        <time>2014-05-04T09:23:30.000Z</time>
      </trkpt>
      <trkpt lat="44.00562" lon="7.20219">
        <ele>1367.4000244141</ele>
        <time>2014-05-04T09:23:37.000Z</time>
      </trkpt>
      <trkpt lat="44.00561" lon="7.20217">
        <ele>1367.5999755859</ele>
        <time>2014-05-04T09:23:38.000Z</time>
      </trkpt>
      <trkpt lat="44.00562" lon="7.20208">
        <ele>1367.4000244141</ele>
        <time>2014-05-04T09:23:44.000Z</time>
      </trkpt>
      <trkpt lat="44.00561" lon="7.20205">
        <ele>1368</ele>
        <time>2014-05-04T09:23:45.000Z</time>
      </trkpt>
      <trkpt lat="44.0056" lon="7.20194">
        <ele>1369</ele>
        <time>2014-05-04T09:23:51.000Z</time>
      </trkpt>
      <trkpt lat="44.00562" lon="7.20191">
        <ele>1368.1999511719</ele>
        <time>2014-05-04T09:23:54.000Z</time>
      </trkpt>
      <trkpt lat="44.00562" lon="7.20187">
        <ele>1368.1999511719</ele>
        <time>2014-05-04T09:23:56.000Z</time>
      </trkpt>
      <trkpt lat="44.00559" lon="7.2018">
        <ele>1371</ele>
        <time>2014-05-04T09:24:02.000Z</time>
      </trkpt>
      <trkpt lat="44.0056" lon="7.2017">
        <ele>1370.8000488281</ele>
        <time>2014-05-04T09:24:08.000Z</time>
      </trkpt>
      <trkpt lat="44.00563" lon="7.20159">
        <ele>1369</ele>
        <time>2014-05-04T09:24:14.000Z</time>
      </trkpt>
      <trkpt lat="44.00561" lon="7.20147">
        <ele>1368.5999755859</ele>
        <time>2014-05-04T09:24:21.000Z</time>
      </trkpt>
      <trkpt lat="44.0056" lon="7.20144">
        <ele>1368.5999755859</ele>
        <time>2014-05-04T09:24:22.000Z</time>
      </trkpt>
      <trkpt lat="44.00557" lon="7.20137">
        <ele>1369.8000488281</ele>
        <time>2014-05-04T09:24:26.000Z</time>
      </trkpt>
      <trkpt lat="44.00557" lon="7.20135">
        <ele>1369.4000244141</ele>
        <time>2014-05-04T09:24:27.000Z</time>
      </trkpt>
      <trkpt lat="44.00553" lon="7.20127">
        <ele>1370.4000244141</ele>
        <time>2014-05-04T09:24:32.000Z</time>
      </trkpt>
      <trkpt lat="44.00552" lon="7.20115">
        <ele>1369.5999755859</ele>
        <time>2014-05-04T09:24:39.000Z</time>
      </trkpt>
      <trkpt lat="44.00551" lon="7.2011">
        <ele>1369.5999755859</ele>
        <time>2014-05-04T09:24:42.000Z</time>
      </trkpt>
      <trkpt lat="44.0055" lon="7.20103">
        <ele>1369.4000244141</ele>
        <time>2014-05-04T09:24:46.000Z</time>
      </trkpt>
      <trkpt lat="44.00543" lon="7.20094">
        <ele>1372.5999755859</ele>
        <time>2014-05-04T09:24:52.000Z</time>
      </trkpt>
      <trkpt lat="44.00539" lon="7.20084">
        <ele>1375</ele>
        <time>2014-05-04T09:24:57.000Z</time>
      </trkpt>
      <trkpt lat="44.00537" lon="7.20081">
        <ele>1376.1999511719</ele>
        <time>2014-05-04T09:24:59.000Z</time>
      </trkpt>
      <trkpt lat="44.00533" lon="7.20075">
        <ele>1377</ele>
        <time>2014-05-04T09:25:03.000Z</time>
      </trkpt>
      <trkpt lat="44.00526" lon="7.20065">
        <ele>1376.8000488281</ele>
        <time>2014-05-04T09:25:07.000Z</time>
      </trkpt>
      <trkpt lat="44.0052" lon="7.20058">
        <ele>1377.1999511719</ele>
        <time>2014-05-04T09:25:10.000Z</time>
      </trkpt>
      <trkpt lat="44.00515" lon="7.20054">
        <ele>1377.8000488281</ele>
        <time>2014-05-04T09:25:12.000Z</time>
      </trkpt>
      <trkpt lat="44.00509" lon="7.20047">
        <ele>1378.1999511719</ele>
        <time>2014-05-04T09:25:16.000Z</time>
      </trkpt>
      <trkpt lat="44.00499" lon="7.20036">
        <ele>1378.4000244141</ele>
        <time>2014-05-04T09:25:22.000Z</time>
      </trkpt>
      <trkpt lat="44.00492" lon="7.20025">
        <ele>1377.5999755859</ele>
        <time>2014-05-04T09:25:29.000Z</time>
      </trkpt>
      <trkpt lat="44.00484" lon="7.20015">
        <ele>1377.4000244141</ele>
        <time>2014-05-04T09:25:35.000Z</time>
      </trkpt>
      <trkpt lat="44.00471" lon="7.20003">
        <ele>1378.8000488281</ele>
        <time>2014-05-04T09:25:42.000Z</time>
      </trkpt>
      <trkpt lat="44.00463" lon="7.1999">
        <ele>1378.4000244141</ele>
        <time>2014-05-04T09:25:48.000Z</time>
      </trkpt>
      <trkpt lat="44.00457" lon="7.19978">
        <ele>1378</ele>
        <time>2014-05-04T09:25:53.000Z</time>
      </trkpt>
      <trkpt lat="44.00453" lon="7.19949">
        <ele>1373.8000488281</ele>
        <time>2014-05-04T09:26:00.000Z</time>
      </trkpt>
      <trkpt lat="44.00443" lon="7.19925">
        <ele>1372.5999755859</ele>
        <time>2014-05-04T09:26:05.000Z</time>
      </trkpt>
      <trkpt lat="44.0043" lon="7.19912">
        <ele>1373.5999755859</ele>
        <time>2014-05-04T09:26:09.000Z</time>
      </trkpt>
      <trkpt lat="44.00419" lon="7.19898">
        <ele>1373.1999511719</ele>
        <time>2014-05-04T09:26:12.000Z</time>
      </trkpt>
      <trkpt lat="44.00411" lon="7.19889">
        <ele>1372.8000488281</ele>
        <time>2014-05-04T09:26:14.000Z</time>
      </trkpt>
      <trkpt lat="44.00408" lon="7.19885">
        <ele>1373</ele>
        <time>2014-05-04T09:26:15.000Z</time>
      </trkpt>
      <trkpt lat="44.00392" lon="7.19869">
        <ele>1373.4000244141</ele>
        <time>2014-05-04T09:26:19.000Z</time>
      </trkpt>
      <trkpt lat="44.00382" lon="7.19855">
        <ele>1372.4000244141</ele>
        <time>2014-05-04T09:26:22.000Z</time>
      </trkpt>
      <trkpt lat="44.00371" lon="7.19843">
        <ele>1372.1999511719</ele>
        <time>2014-05-04T09:26:25.000Z</time>
      </trkpt>
      <trkpt lat="44.00365" lon="7.19834">
        <ele>1371.8000488281</ele>
        <time>2014-05-04T09:26:27.000Z</time>
      </trkpt>
      <trkpt lat="44.00358" lon="7.1982">
        <ele>1369.8000488281</ele>
        <time>2014-05-04T09:26:30.000Z</time>
      </trkpt>
      <trkpt lat="44.0035" lon="7.19809">
        <ele>1367.1999511719</ele>
        <time>2014-05-04T09:26:33.000Z</time>
      </trkpt>
      <trkpt lat="44.00346" lon="7.19806">
        <ele>1366.8000488281</ele>
        <time>2014-05-04T09:26:34.000Z</time>
      </trkpt>
      <trkpt lat="44.00328" lon="7.198">
        <ele>1366.4000244141</ele>
        <time>2014-05-04T09:26:38.000Z</time>
      </trkpt>
      <trkpt lat="44.0032" lon="7.19796">
        <ele>1365.8000488281</ele>
        <time>2014-05-04T09:26:40.000Z</time>
      </trkpt>
      <trkpt lat="44.00312" lon="7.19794">
        <ele>1366</ele>
        <time>2014-05-04T09:26:42.000Z</time>
      </trkpt>
      <trkpt lat="44.00307" lon="7.19793">
        <ele>1366.1999511719</ele>
        <time>2014-05-04T09:26:43.000Z</time>
      </trkpt>
      <trkpt lat="44.00302" lon="7.19791">
        <ele>1366</ele>
        <time>2014-05-04T09:26:44.000Z</time>
      </trkpt>
      <trkpt lat="44.00288" lon="7.19788">
        <ele>1366.4000244141</ele>
        <time>2014-05-04T09:26:47.000Z</time>
      </trkpt>
      <trkpt lat="44.00268" lon="7.19788">
        <ele>1367.8000488281</ele>
        <time>2014-05-04T09:26:50.000Z</time>
      </trkpt>
      <trkpt lat="44.00256" lon="7.19787">
        <ele>1367.8000488281</ele>
        <time>2014-05-04T09:26:52.000Z</time>
      </trkpt>
      <trkpt lat="44.00256" lon="7.19781">
        <ele>1366.1999511719</ele>
        <time>2014-05-04T09:26:53.000Z</time>
      </trkpt>
      <trkpt lat="44.00256" lon="7.19774">
        <ele>1364.1999511719</ele>
        <time>2014-05-04T09:26:54.000Z</time>
      </trkpt>
      <trkpt lat="44.00245" lon="7.19756">
        <ele>1359.5999755859</ele>
        <time>2014-05-04T09:26:57.000Z</time>
      </trkpt>
      <trkpt lat="44.00229" lon="7.19748">
        <ele>1358</ele>
        <time>2014-05-04T09:27:00.000Z</time>
      </trkpt>
      <trkpt lat="44.00222" lon="7.19744">
        <ele>1357.1999511719</ele>
        <time>2014-05-04T09:27:01.000Z</time>
      </trkpt>
      <trkpt lat="44.00212" lon="7.19735">
        <ele>1355.4000244141</ele>
        <time>2014-05-04T09:27:03.000Z</time>
      </trkpt>
      <trkpt lat="44.00201" lon="7.19724">
        <ele>1353</ele>
        <time>2014-05-04T09:27:05.000Z</time>
      </trkpt>
      <trkpt lat="44.00186" lon="7.19709">
        <ele>1350.5999755859</ele>
        <time>2014-05-04T09:27:08.000Z</time>
      </trkpt>
      <trkpt lat="44.00182" lon="7.19705">
        <ele>1350.4000244141</ele>
        <time>2014-05-04T09:27:09.000Z</time>
      </trkpt>
      <trkpt lat="44.00174" lon="7.19689">
        <ele>1348</ele>
        <time>2014-05-04T09:27:13.000Z</time>
      </trkpt>
      <trkpt lat="44.00171" lon="7.19677">
        <ele>1345.4000244141</ele>
        <time>2014-05-04T09:27:16.000Z</time>
      </trkpt>
      <trkpt lat="44.00171" lon="7.19674">
        <ele>1344.5999755859</ele>
        <time>2014-05-04T09:27:17.000Z</time>
      </trkpt>
      <trkpt lat="44.0016" lon="7.1965">
        <ele>1340.4000244141</ele>
        <time>2014-05-04T09:27:22.000Z</time>
      </trkpt>
      <trkpt lat="44.00155" lon="7.19632">
        <ele>1336</ele>
        <time>2014-05-04T09:27:26.000Z</time>
      </trkpt>
      <trkpt lat="44.00153" lon="7.19621">
        <ele>1333</ele>
        <time>2014-05-04T09:27:30.000Z</time>
      </trkpt>
      <trkpt lat="44.00157" lon="7.1962">
        <ele>1331.5999755859</ele>
        <time>2014-05-04T09:27:31.000Z</time>
      </trkpt>
      <trkpt lat="44.00166" lon="7.19616">
        <ele>1328.1999511719</ele>
        <time>2014-05-04T09:27:34.000Z</time>
      </trkpt>
      <trkpt lat="44.00163" lon="7.19601">
        <ele>1324</ele>
        <time>2014-05-04T09:27:38.000Z</time>
      </trkpt>
      <trkpt lat="44.00169" lon="7.19601">
        <ele>1323</ele>
        <time>2014-05-04T09:27:41.000Z</time>
      </trkpt>
      <trkpt lat="44.00183" lon="7.19609">
        <ele>1322</ele>
        <time>2014-05-04T09:27:46.000Z</time>
      </trkpt>
      <trkpt lat="44.00185" lon="7.19608">
        <ele>1321.1999511719</ele>
        <time>2014-05-04T09:27:50.000Z</time>
      </trkpt>
      <trkpt lat="44.00185" lon="7.19605">
        <ele>1320.1999511719</ele>
        <time>2014-05-04T09:27:51.000Z</time>
      </trkpt>
      <trkpt lat="44.00183" lon="7.1959">
        <ele>1315.8000488281</ele>
        <time>2014-05-04T09:27:56.000Z</time>
      </trkpt>
      <trkpt lat="44.00185" lon="7.19581">
        <ele>1312.4000244141</ele>
        <time>2014-05-04T09:27:59.000Z</time>
      </trkpt>
      <trkpt lat="44.0019" lon="7.19579">
        <ele>1310.5999755859</ele>
        <time>2014-05-04T09:28:00.000Z</time>
      </trkpt>
      <trkpt lat="44.00192" lon="7.19567">
        <ele>1305.8000488281</ele>
        <time>2014-05-04T09:28:04.000Z</time>
      </trkpt>
      <trkpt lat="44.00191" lon="7.19551">
        <ele>1300.4000244141</ele>
        <time>2014-05-04T09:28:08.000Z</time>
      </trkpt>
      <trkpt lat="44.00194" lon="7.19544">
        <ele>1297.1999511719</ele>
        <time>2014-05-04T09:28:10.000Z</time>
      </trkpt>
      <trkpt lat="44.00198" lon="7.19538">
        <ele>1294.5999755859</ele>
        <time>2014-05-04T09:28:12.000Z</time>
      </trkpt>
      <trkpt lat="44.00199" lon="7.19537">
        <ele>1294.1999511719</ele>
        <time>2014-05-04T09:28:13.000Z</time>
      </trkpt>
      <trkpt lat="44.00203" lon="7.19529">
        <ele>1290.8000488281</ele>
        <time>2014-05-04T09:28:16.000Z</time>
      </trkpt>
      <trkpt lat="44.00201" lon="7.19516">
        <ele>1286.4000244141</ele>
        <time>2014-05-04T09:28:19.000Z</time>
      </trkpt>
      <trkpt lat="44.002" lon="7.19512">
        <ele>1285</ele>
        <time>2014-05-04T09:28:20.000Z</time>
      </trkpt>
      <trkpt lat="44.00195" lon="7.19497">
        <ele>1280.5999755859</ele>
        <time>2014-05-04T09:28:24.000Z</time>
      </trkpt>
      <trkpt lat="44.00185" lon="7.19471">
        <ele>1274.8000488281</ele>
        <time>2014-05-04T09:28:28.000Z</time>
      </trkpt>
      <trkpt lat="44.00185" lon="7.19465">
        <ele>1273.5999755859</ele>
        <time>2014-05-04T09:28:29.000Z</time>
      </trkpt>
      <trkpt lat="44.00182" lon="7.19441">
        <ele>1268.4000244141</ele>
        <time>2014-05-04T09:28:33.000Z</time>
      </trkpt>
      <trkpt lat="44.00178" lon="7.19434">
        <ele>1267</ele>
        <time>2014-05-04T09:28:34.000Z</time>
      </trkpt>
      <trkpt lat="44.00162" lon="7.1941">
        <ele>1262</ele>
        <time>2014-05-04T09:28:39.000Z</time>
      </trkpt>
      <trkpt lat="44.00161" lon="7.19407">
        <ele>1260.8000488281</ele>
        <time>2014-05-04T09:28:40.000Z</time>
      </trkpt>
      <trkpt lat="44.00161" lon="7.194">
        <ele>1258.5999755859</ele>
        <time>2014-05-04T09:28:43.000Z</time>
      </trkpt>
      <trkpt lat="44.00163" lon="7.19386">
        <ele>1254.4000244141</ele>
        <time>2014-05-04T09:28:47.000Z</time>
      </trkpt>
      <trkpt lat="44.00165" lon="7.19382">
        <ele>1253.1999511719</ele>
        <time>2014-05-04T09:28:48.000Z</time>
      </trkpt>
      <trkpt lat="44.00166" lon="7.1938">
        <ele>1252.5999755859</ele>
        <time>2014-05-04T09:28:49.000Z</time>
      </trkpt>
      <trkpt lat="44.00162" lon="7.19372">
        <ele>1250.1999511719</ele>
        <time>2014-05-04T09:28:51.000Z</time>
      </trkpt>
      <trkpt lat="44.00157" lon="7.19362">
        <ele>1247.4000244141</ele>
        <time>2014-05-04T09:28:54.000Z</time>
      </trkpt>
      <trkpt lat="44.00153" lon="7.19357">
        <ele>1246.1999511719</ele>
        <time>2014-05-04T09:28:56.000Z</time>
      </trkpt>
      <trkpt lat="44.00158" lon="7.19346">
        <ele>1243</ele>
        <time>2014-05-04T09:28:59.000Z</time>
      </trkpt>
      <trkpt lat="44.0016" lon="7.19344">
        <ele>1242.5999755859</ele>
        <time>2014-05-04T09:29:01.000Z</time>
      </trkpt>
      <trkpt lat="44.00164" lon="7.1934">
        <ele>1241.5999755859</ele>
        <time>2014-05-04T09:29:04.000Z</time>
      </trkpt>
      <trkpt lat="44.00167" lon="7.19335">
        <ele>1240.4000244141</ele>
        <time>2014-05-04T09:29:07.000Z</time>
      </trkpt>
      <trkpt lat="44.00169" lon="7.1933">
        <ele>1238.8000488281</ele>
        <time>2014-05-04T09:29:10.000Z</time>
      </trkpt>
      <trkpt lat="44.00167" lon="7.19326">
        <ele>1237.4000244141</ele>
        <time>2014-05-04T09:29:11.000Z</time>
      </trkpt>
      <trkpt lat="44.00161" lon="7.19317">
        <ele>1233.5999755859</ele>
        <time>2014-05-04T09:29:13.000Z</time>
      </trkpt>
      <trkpt lat="44.00148" lon="7.19306">
        <ele>1228.8000488281</ele>
        <time>2014-05-04T09:29:16.000Z</time>
      </trkpt>
      <trkpt lat="44.00144" lon="7.19302">
        <ele>1227</ele>
        <time>2014-05-04T09:29:17.000Z</time>
      </trkpt>
      <trkpt lat="44.00137" lon="7.19292">
        <ele>1222.8000488281</ele>
        <time>2014-05-04T09:29:20.000Z</time>
      </trkpt>
      <trkpt lat="44.00137" lon="7.19286">
        <ele>1220.5999755859</ele>
        <time>2014-05-04T09:29:22.000Z</time>
      </trkpt>
      <trkpt lat="44.00144" lon="7.1928">
        <ele>1218.1999511719</ele>
        <time>2014-05-04T09:29:27.000Z</time>
      </trkpt>
      <trkpt lat="44.00159" lon="7.19277">
        <ele>1218.5999755859</ele>
        <time>2014-05-04T09:29:31.000Z</time>
      </trkpt>
      <trkpt lat="44.00178" lon="7.19274">
        <ele>1219.5999755859</ele>
        <time>2014-05-04T09:29:35.000Z</time>
      </trkpt>
      <trkpt lat="44.00183" lon="7.19271">
        <ele>1219</ele>
        <time>2014-05-04T09:29:37.000Z</time>
      </trkpt>
      <trkpt lat="44.00182" lon="7.19267">
        <ele>1217.5999755859</ele>
        <time>2014-05-04T09:29:38.000Z</time>
      </trkpt>
      <trkpt lat="44.00183" lon="7.19265">
        <ele>1216.8000488281</ele>
        <time>2014-05-04T09:29:39.000Z</time>
      </trkpt>
      <trkpt lat="44.00191" lon="7.19254">
        <ele>1214</ele>
        <time>2014-05-04T09:29:43.000Z</time>
      </trkpt>
      <trkpt lat="44.00196" lon="7.19237">
        <ele>1207.1999511719</ele>
        <time>2014-05-04T09:29:47.000Z</time>
      </trkpt>
      <trkpt lat="44.00197" lon="7.19232">
        <ele>1205.1999511719</ele>
        <time>2014-05-04T09:29:48.000Z</time>
      </trkpt>
      <trkpt lat="44.00198" lon="7.19212">
        <ele>1198.1999511719</ele>
        <time>2014-05-04T09:29:51.000Z</time>
      </trkpt>
      <trkpt lat="44.002" lon="7.192">
        <ele>1193.8000488281</ele>
        <time>2014-05-04T09:29:55.000Z</time>
      </trkpt>
      <trkpt lat="44.00201" lon="7.19199">
        <ele>1193.4000244141</ele>
        <time>2014-05-04T09:29:56.000Z</time>
      </trkpt>
      <trkpt lat="44.00198" lon="7.19186">
        <ele>1190</ele>
        <time>2014-05-04T09:30:00.000Z</time>
      </trkpt>
      <trkpt lat="44.00199" lon="7.19165">
        <ele>1183.5999755859</ele>
        <time>2014-05-04T09:30:04.000Z</time>
      </trkpt>
      <trkpt lat="44.00201" lon="7.19151">
        <ele>1178.5999755859</ele>
        <time>2014-05-04T09:30:08.000Z</time>
      </trkpt>
      <trkpt lat="44.00206" lon="7.19153">
        <ele>1178.4000244141</ele>
        <time>2014-05-04T09:30:12.000Z</time>
      </trkpt>
      <trkpt lat="44.00209" lon="7.19142">
        <ele>1174.1999511719</ele>
        <time>2014-05-04T09:30:16.000Z</time>
      </trkpt>
      <trkpt lat="44.00208" lon="7.19131">
        <ele>1170.4000244141</ele>
        <time>2014-05-04T09:30:18.000Z</time>
      </trkpt>
      <trkpt lat="44.00214" lon="7.19113">
        <ele>1163</ele>
        <time>2014-05-04T09:30:21.000Z</time>
      </trkpt>
      <trkpt lat="44.00217" lon="7.19098">
        <ele>1158.1999511719</ele>
        <time>2014-05-04T09:30:25.000Z</time>
      </trkpt>
      <trkpt lat="44.00213" lon="7.19087">
        <ele>1156.4000244141</ele>
        <time>2014-05-04T09:30:28.000Z</time>
      </trkpt>
      <trkpt lat="44.00208" lon="7.19082">
        <ele>1155.4000244141</ele>
        <time>2014-05-04T09:30:30.000Z</time>
      </trkpt>
      <trkpt lat="44.00205" lon="7.1908">
        <ele>1155.1999511719</ele>
        <time>2014-05-04T09:30:34.000Z</time>
      </trkpt>
      <trkpt lat="44.00211" lon="7.19071">
        <ele>1151.8000488281</ele>
        <time>2014-05-04T09:30:37.000Z</time>
      </trkpt>
      <trkpt lat="44.00213" lon="7.19067">
        <ele>1150.4000244141</ele>
        <time>2014-05-04T09:30:38.000Z</time>
      </trkpt>
      <trkpt lat="44.00217" lon="7.1906">
        <ele>1147</ele>
        <time>2014-05-04T09:30:41.000Z</time>
      </trkpt>
      <trkpt lat="44.00213" lon="7.19058">
        <ele>1146.5999755859</ele>
        <time>2014-05-04T09:30:45.000Z</time>
      </trkpt>
      <trkpt lat="44.00206" lon="7.19057">
        <ele>1146.4000244141</ele>
        <time>2014-05-04T09:30:49.000Z</time>
      </trkpt>
      <trkpt lat="44.00202" lon="7.19056">
        <ele>1145.8000488281</ele>
        <time>2014-05-04T09:30:52.000Z</time>
      </trkpt>
      <trkpt lat="44.002" lon="7.19057">
        <ele>1146.1999511719</ele>
        <time>2014-05-04T09:30:53.000Z</time>
      </trkpt>
      <trkpt lat="44.00199" lon="7.19056">
        <ele>1145.8000488281</ele>
        <time>2014-05-04T09:30:54.000Z</time>
      </trkpt>
      <trkpt lat="44.00201" lon="7.19051">
        <ele>1143.8000488281</ele>
        <time>2014-05-04T09:30:57.000Z</time>
      </trkpt>
      <trkpt lat="44.00213" lon="7.1904">
        <ele>1139.1999511719</ele>
        <time>2014-05-04T09:31:01.000Z</time>
      </trkpt>
      <trkpt lat="44.00217" lon="7.19038">
        <ele>1138.1999511719</ele>
        <time>2014-05-04T09:31:02.000Z</time>
      </trkpt>
      <trkpt lat="44.00221" lon="7.19034">
        <ele>1136.4000244141</ele>
        <time>2014-05-04T09:31:06.000Z</time>
      </trkpt>
      <trkpt lat="44.00209" lon="7.19029">
        <ele>1134.8000488281</ele>
        <time>2014-05-04T09:31:12.000Z</time>
      </trkpt>
      <trkpt lat="44.00207" lon="7.19021">
        <ele>1131.4000244141</ele>
        <time>2014-05-04T09:31:16.000Z</time>
      </trkpt>
      <trkpt lat="44.0021" lon="7.19017">
        <ele>1129.8000488281</ele>
        <time>2014-05-04T09:31:20.000Z</time>
      </trkpt>
      <trkpt lat="44.0021" lon="7.19016">
        <ele>1129.5999755859</ele>
        <time>2014-05-04T09:31:21.000Z</time>
      </trkpt>
      <trkpt lat="44.00208" lon="7.1901">
        <ele>1127.1999511719</ele>
        <time>2014-05-04T09:31:30.000Z</time>
      </trkpt>
      <trkpt lat="44.00208" lon="7.19006">
        <ele>1125.8000488281</ele>
        <time>2014-05-04T09:31:41.000Z</time>
      </trkpt>
      <trkpt lat="44.00209" lon="7.19003">
        <ele>1125</ele>
        <time>2014-05-04T09:31:44.000Z</time>
      </trkpt>
      <trkpt lat="44.00208" lon="7.19002">
        <ele>1124.4000244141</ele>
        <time>2014-05-04T09:31:46.000Z</time>
      </trkpt>
      <trkpt lat="44.00208" lon="7.19">
        <ele>1123.5999755859</ele>
        <time>2014-05-04T09:31:49.000Z</time>
      </trkpt>
      <trkpt lat="44.00209" lon="7.18998">
        <ele>1123.1999511719</ele>
        <time>2014-05-04T09:31:50.000Z</time>
      </trkpt>
      <trkpt lat="44.00222" lon="7.18982">
        <ele>1117</ele>
        <time>2014-05-04T09:31:56.000Z</time>
      </trkpt>
      <trkpt lat="44.00226" lon="7.18978">
        <ele>1115.5999755859</ele>
        <time>2014-05-04T09:31:58.000Z</time>
      </trkpt>
      <trkpt lat="44.00231" lon="7.1898">
        <ele>1116.5999755859</ele>
        <time>2014-05-04T09:32:00.000Z</time>
      </trkpt>
      <trkpt lat="44.00236" lon="7.18983">
        <ele>1118.5999755859</ele>
        <time>2014-05-04T09:32:03.000Z</time>
      </trkpt>
      <trkpt lat="44.00237" lon="7.18981">
        <ele>1117.8000488281</ele>
        <time>2014-05-04T09:32:05.000Z</time>
      </trkpt>
      <trkpt lat="44.0023" lon="7.1897">
        <ele>1111.5999755859</ele>
        <time>2014-05-04T09:32:10.000Z</time>
      </trkpt>
      <trkpt lat="44.00235" lon="7.18969">
        <ele>1111.5999755859</ele>
        <time>2014-05-04T09:32:14.000Z</time>
      </trkpt>
      <trkpt lat="44.00238" lon="7.18972">
        <ele>1113.5999755859</ele>
        <time>2014-05-04T09:32:16.000Z</time>
      </trkpt>
      <trkpt lat="44.00242" lon="7.18975">
        <ele>1115</ele>
        <time>2014-05-04T09:32:18.000Z</time>
      </trkpt>
      <trkpt lat="44.00245" lon="7.18967">
        <ele>1111.5999755859</ele>
        <time>2014-05-04T09:32:22.000Z</time>
      </trkpt>
      <trkpt lat="44.00245" lon="7.18955">
        <ele>1106.4000244141</ele>
        <time>2014-05-04T09:32:25.000Z</time>
      </trkpt>
      <trkpt lat="44.00242" lon="7.18947">
        <ele>1102.8000488281</ele>
        <time>2014-05-04T09:32:27.000Z</time>
      </trkpt>
      <trkpt lat="44.00232" lon="7.18937">
        <ele>1097.4000244141</ele>
        <time>2014-05-04T09:32:32.000Z</time>
      </trkpt>
      <trkpt lat="44.00219" lon="7.1894">
        <ele>1096.5999755859</ele>
        <time>2014-05-04T09:32:36.000Z</time>
      </trkpt>
      <trkpt lat="44.00212" lon="7.18945">
        <ele>1098.5999755859</ele>
        <time>2014-05-04T09:32:39.000Z</time>
      </trkpt>
      <trkpt lat="44.00211" lon="7.18943">
        <ele>1097.8000488281</ele>
        <time>2014-05-04T09:32:40.000Z</time>
      </trkpt>
      <trkpt lat="44.00214" lon="7.18937">
        <ele>1094.5999755859</ele>
        <time>2014-05-04T09:32:44.000Z</time>
      </trkpt>
      <trkpt lat="44.00224" lon="7.18923">
        <ele>1090.1999511719</ele>
        <time>2014-05-04T09:32:48.000Z</time>
      </trkpt>
      <trkpt lat="44.00233" lon="7.18917">
        <ele>1089.1999511719</ele>
        <time>2014-05-04T09:32:52.000Z</time>
      </trkpt>
      <trkpt lat="44.00244" lon="7.18913">
        <ele>1089</ele>
        <time>2014-05-04T09:32:55.000Z</time>
      </trkpt>
      <trkpt lat="44.00255" lon="7.18911">
        <ele>1089.8000488281</ele>
        <time>2014-05-04T09:32:59.000Z</time>
      </trkpt>
      <trkpt lat="44.00258" lon="7.18911">
        <ele>1090.1999511719</ele>
        <time>2014-05-04T09:33:01.000Z</time>
      </trkpt>
      <trkpt lat="44.00257" lon="7.18909">
        <ele>1089</ele>
        <time>2014-05-04T09:33:02.000Z</time>
      </trkpt>
      <trkpt lat="44.00249" lon="7.18905">
        <ele>1085.5999755859</ele>
        <time>2014-05-04T09:33:06.000Z</time>
      </trkpt>
      <trkpt lat="44.00248" lon="7.18903">
        <ele>1084.5999755859</ele>
        <time>2014-05-04T09:33:07.000Z</time>
      </trkpt>
      <trkpt lat="44.00247" lon="7.18901">
        <ele>1083</ele>
        <time>2014-05-04T09:33:09.000Z</time>
      </trkpt>
      <trkpt lat="44.00246" lon="7.189">
        <ele>1082.4000244141</ele>
        <time>2014-05-04T09:33:10.000Z</time>
      </trkpt>
      <trkpt lat="44.0025" lon="7.18901">
        <ele>1083.4000244141</ele>
        <time>2014-05-04T09:33:15.000Z</time>
      </trkpt>
      <trkpt lat="44.00252" lon="7.189">
        <ele>1083.4000244141</ele>
        <time>2014-05-04T09:33:16.000Z</time>
      </trkpt>
      <trkpt lat="44.00261" lon="7.18895">
        <ele>1081.8000488281</ele>
        <time>2014-05-04T09:33:19.000Z</time>
      </trkpt>
      <trkpt lat="44.00277" lon="7.1889">
        <ele>1079.8000488281</ele>
        <time>2014-05-04T09:33:23.000Z</time>
      </trkpt>
      <trkpt lat="44.00277" lon="7.18885">
        <ele>1077</ele>
        <time>2014-05-04T09:33:26.000Z</time>
      </trkpt>
      <trkpt lat="44.00263" lon="7.18882">
        <ele>1075</ele>
        <time>2014-05-04T09:33:30.000Z</time>
      </trkpt>
      <trkpt lat="44.00257" lon="7.18878">
        <ele>1072.1999511719</ele>
        <time>2014-05-04T09:33:34.000Z</time>
      </trkpt>
      <trkpt lat="44.00258" lon="7.18876">
        <ele>1071.1999511719</ele>
        <time>2014-05-04T09:33:39.000Z</time>
      </trkpt>
      <trkpt lat="44.00263" lon="7.18869">
        <ele>1068.1999511719</ele>
        <time>2014-05-04T09:33:45.000Z</time>
      </trkpt>
      <trkpt lat="44.00256" lon="7.18864">
        <ele>1064.1999511719</ele>
        <time>2014-05-04T09:33:50.000Z</time>
      </trkpt>
      <trkpt lat="44.00244" lon="7.18864">
        <ele>1062.4000244141</ele>
        <time>2014-05-04T09:33:53.000Z</time>
      </trkpt>
      <trkpt lat="44.00239" lon="7.18865">
        <ele>1061.5999755859</ele>
        <time>2014-05-04T09:33:54.000Z</time>
      </trkpt>
      <trkpt lat="44.00228" lon="7.18861">
        <ele>1057.5999755859</ele>
        <time>2014-05-04T09:33:58.000Z</time>
      </trkpt>
      <trkpt lat="44.00225" lon="7.18855">
        <ele>1054.1999511719</ele>
        <time>2014-05-04T09:34:02.000Z</time>
      </trkpt>
      <trkpt lat="44.00226" lon="7.18854">
        <ele>1053.8000488281</ele>
        <time>2014-05-04T09:34:03.000Z</time>
      </trkpt>
      <trkpt lat="44.00232" lon="7.18849">
        <ele>1051.8000488281</ele>
        <time>2014-05-04T09:34:05.000Z</time>
      </trkpt>
      <trkpt lat="44.00243" lon="7.18843">
        <ele>1050.4000244141</ele>
        <time>2014-05-04T09:34:08.000Z</time>
      </trkpt>
      <trkpt lat="44.00248" lon="7.1884">
        <ele>1049.5999755859</ele>
        <time>2014-05-04T09:34:09.000Z</time>
      </trkpt>
      <trkpt lat="44.00263" lon="7.18831">
        <ele>1047.8000488281</ele>
        <time>2014-05-04T09:34:14.000Z</time>
      </trkpt>
      <trkpt lat="44.00265" lon="7.18832">
        <ele>1048.4000244141</ele>
        <time>2014-05-04T09:34:16.000Z</time>
      </trkpt>
      <trkpt lat="44.00263" lon="7.18832">
        <ele>1048</ele>
        <time>2014-05-04T09:34:18.000Z</time>
      </trkpt>
      <trkpt lat="44.00252" lon="7.1883">
        <ele>1045.4000244141</ele>
        <time>2014-05-04T09:34:24.000Z</time>
      </trkpt>
      <trkpt lat="44.0025" lon="7.18829">
        <ele>1044.5999755859</ele>
        <time>2014-05-04T09:34:26.000Z</time>
      </trkpt>
      <trkpt lat="44.00251" lon="7.18829">
        <ele>1044.1999511719</ele>
        <time>2014-05-04T09:34:29.000Z</time>
      </trkpt>
      <trkpt lat="44.00255" lon="7.18825">
        <ele>1043.1999511719</ele>
        <time>2014-05-04T09:34:37.000Z</time>
      </trkpt>
      <trkpt lat="44.00257" lon="7.18824">
        <ele>1042.5999755859</ele>
        <time>2014-05-04T09:34:38.000Z</time>
      </trkpt>
      <trkpt lat="44.00271" lon="7.18811">
        <ele>1038.8000488281</ele>
        <time>2014-05-04T09:34:42.000Z</time>
      </trkpt>
      <trkpt lat="44.0029" lon="7.18809">
        <ele>1033.4000244141</ele>
        <time>2014-05-04T09:34:46.000Z</time>
      </trkpt>
      <trkpt lat="44.00305" lon="7.18815">
        <ele>1032</ele>
        <time>2014-05-04T09:34:49.000Z</time>
      </trkpt>
      <trkpt lat="44.00309" lon="7.18819">
        <ele>1032.4000244141</ele>
        <time>2014-05-04T09:34:50.000Z</time>
      </trkpt>
      <trkpt lat="44.00312" lon="7.18821">
        <ele>1032.4000244141</ele>
        <time>2014-05-04T09:34:51.000Z</time>
      </trkpt>
      <trkpt lat="44.00315" lon="7.1882">
        <ele>1031</ele>
        <time>2014-05-04T09:34:54.000Z</time>
      </trkpt>
      <trkpt lat="44.00313" lon="7.18816">
        <ele>1029.5999755859</ele>
        <time>2014-05-04T09:34:55.000Z</time>
      </trkpt>
      <trkpt lat="44.00312" lon="7.18813">
        <ele>1028.4000244141</ele>
        <time>2014-05-04T09:34:56.000Z</time>
      </trkpt>
      <trkpt lat="44.00308" lon="7.18807">
        <ele>1026.4000244141</ele>
        <time>2014-05-04T09:34:58.000Z</time>
      </trkpt>
      <trkpt lat="44.00306" lon="7.18801">
        <ele>1024</ele>
        <time>2014-05-04T09:35:01.000Z</time>
      </trkpt>
      <trkpt lat="44.00305" lon="7.18798">
        <ele>1023.200012207</ele>
        <time>2014-05-04T09:35:02.000Z</time>
      </trkpt>
      <trkpt lat="44.00295" lon="7.18792">
        <ele>1023.200012207</ele>
        <time>2014-05-04T09:35:06.000Z</time>
      </trkpt>
      <trkpt lat="44.00294" lon="7.18787">
        <ele>1021</ele>
        <time>2014-05-04T09:35:10.000Z</time>
      </trkpt>
      <trkpt lat="44.00301" lon="7.18782">
        <ele>1016.4000244141</ele>
        <time>2014-05-04T09:35:14.000Z</time>
      </trkpt>
      <trkpt lat="44.00304" lon="7.18776">
        <ele>1012.200012207</ele>
        <time>2014-05-04T09:35:18.000Z</time>
      </trkpt>
      <trkpt lat="44.00298" lon="7.1877">
        <ele>1011.200012207</ele>
        <time>2014-05-04T09:35:20.000Z</time>
      </trkpt>
      <trkpt lat="44.0029" lon="7.18765">
        <ele>1011.4000244141</ele>
        <time>2014-05-04T09:35:22.000Z</time>
      </trkpt>
      <trkpt lat="44.00265" lon="7.18756">
        <ele>1010.200012207</ele>
        <time>2014-05-04T09:35:26.000Z</time>
      </trkpt>
      <trkpt lat="44.00249" lon="7.18754">
        <ele>1006.200012207</ele>
        <time>2014-05-04T09:35:30.000Z</time>
      </trkpt>
      <trkpt lat="44.00248" lon="7.18751">
        <ele>1004.4000244141</ele>
        <time>2014-05-04T09:35:31.000Z</time>
      </trkpt>
      <trkpt lat="44.00252" lon="7.18746">
        <ele>1002.799987793</ele>
        <time>2014-05-04T09:35:33.000Z</time>
      </trkpt>
      <trkpt lat="44.00257" lon="7.1874">
        <ele>1000.5999755859</ele>
        <time>2014-05-04T09:35:35.000Z</time>
      </trkpt>
      <trkpt lat="44.00263" lon="7.18734">
        <ele>999.20001220703</ele>
        <time>2014-05-04T09:35:38.000Z</time>
      </trkpt>
      <trkpt lat="44.00265" lon="7.18731">
        <ele>998.40002441406</ele>
        <time>2014-05-04T09:35:39.000Z</time>
      </trkpt>
      <trkpt lat="44.00268" lon="7.18731">
        <ele>998.40002441406</ele>
        <time>2014-05-04T09:35:41.000Z</time>
      </trkpt>
      <trkpt lat="44.00272" lon="7.18726">
        <ele>996.79998779297</ele>
        <time>2014-05-04T09:35:43.000Z</time>
      </trkpt>
      <trkpt lat="44.00275" lon="7.1872">
        <ele>994</ele>
        <time>2014-05-04T09:35:46.000Z</time>
      </trkpt>
      <trkpt lat="44.00273" lon="7.18719">
        <ele>993.40002441406</ele>
        <time>2014-05-04T09:35:48.000Z</time>
      </trkpt>
      <trkpt lat="44.00271" lon="7.18714">
        <ele>990.59997558594</ele>
        <time>2014-05-04T09:35:52.000Z</time>
      </trkpt>
      <trkpt lat="44.00274" lon="7.18707">
        <ele>987.59997558594</ele>
        <time>2014-05-04T09:35:56.000Z</time>
      </trkpt>
      <trkpt lat="44.00275" lon="7.18705">
        <ele>987</ele>
        <time>2014-05-04T09:35:57.000Z</time>
      </trkpt>
      <trkpt lat="44.00275" lon="7.18704">
        <ele>986.59997558594</ele>
        <time>2014-05-04T09:35:58.000Z</time>
      </trkpt>
      <trkpt lat="44.00274" lon="7.18704">
        <ele>986.40002441406</ele>
        <time>2014-05-04T09:36:00.000Z</time>
      </trkpt>
      <trkpt lat="44.00267" lon="7.18703">
        <ele>985</ele>
        <time>2014-05-04T09:36:03.000Z</time>
      </trkpt>
      <trkpt lat="44.00264" lon="7.18701">
        <ele>983.79998779297</ele>
        <time>2014-05-04T09:36:04.000Z</time>
      </trkpt>
      <trkpt lat="44.0026" lon="7.18701">
        <ele>983.20001220703</ele>
        <time>2014-05-04T09:36:06.000Z</time>
      </trkpt>
      <trkpt lat="44.00262" lon="7.18697">
        <ele>981.20001220703</ele>
        <time>2014-05-04T09:36:08.000Z</time>
      </trkpt>
      <trkpt lat="44.00272" lon="7.18685">
        <ele>976.79998779297</ele>
        <time>2014-05-04T09:36:12.000Z</time>
      </trkpt>
      <trkpt lat="44.00284" lon="7.18678">
        <ele>973.20001220703</ele>
        <time>2014-05-04T09:36:16.000Z</time>
      </trkpt>
      <trkpt lat="44.00285" lon="7.18679">
        <ele>973.40002441406</ele>
        <time>2014-05-04T09:36:18.000Z</time>
      </trkpt>
      <trkpt lat="44.00284" lon="7.18679">
        <ele>973.20001220703</ele>
        <time>2014-05-04T09:36:19.000Z</time>
      </trkpt>
      <trkpt lat="44.00273" lon="7.18675">
        <ele>972.40002441406</ele>
        <time>2014-05-04T09:36:23.000Z</time>
      </trkpt>
      <trkpt lat="44.00271" lon="7.1867">
        <ele>969.59997558594</ele>
        <time>2014-05-04T09:36:26.000Z</time>
      </trkpt>
      <trkpt lat="44.00278" lon="7.18666">
        <ele>967.59997558594</ele>
        <time>2014-05-04T09:36:30.000Z</time>
      </trkpt>
      <trkpt lat="44.00282" lon="7.18661">
        <ele>965.20001220703</ele>
        <time>2014-05-04T09:36:33.000Z</time>
      </trkpt>
      <trkpt lat="44.00285" lon="7.18657">
        <ele>963.59997558594</ele>
        <time>2014-05-04T09:36:35.000Z</time>
      </trkpt>
      <trkpt lat="44.00296" lon="7.18657">
        <ele>962.59997558594</ele>
        <time>2014-05-04T09:36:39.000Z</time>
      </trkpt>
      <trkpt lat="44.00314" lon="7.18659">
        <ele>962</ele>
        <time>2014-05-04T09:36:44.000Z</time>
      </trkpt>
      <trkpt lat="44.00318" lon="7.18659">
        <ele>962.20001220703</ele>
        <time>2014-05-04T09:36:48.000Z</time>
      </trkpt>
      <trkpt lat="44.0032" lon="7.18658">
        <ele>961.40002441406</ele>
        <time>2014-05-04T09:36:50.000Z</time>
      </trkpt>
      <trkpt lat="44.00321" lon="7.18658">
        <ele>961.40002441406</ele>
        <time>2014-05-04T09:36:52.000Z</time>
      </trkpt>
      <trkpt lat="44.00325" lon="7.18659">
        <ele>961.59997558594</ele>
        <time>2014-05-04T09:36:54.000Z</time>
      </trkpt>
      <trkpt lat="44.00323" lon="7.18658">
        <ele>961.20001220703</ele>
        <time>2014-05-04T09:36:56.000Z</time>
      </trkpt>
      <trkpt lat="44.00316" lon="7.18652">
        <ele>959.20001220703</ele>
        <time>2014-05-04T09:37:01.000Z</time>
      </trkpt>
      <trkpt lat="44.00314" lon="7.1865">
        <ele>958.59997558594</ele>
        <time>2014-05-04T09:37:02.000Z</time>
      </trkpt>
      <trkpt lat="44.00315" lon="7.18648">
        <ele>957.59997558594</ele>
        <time>2014-05-04T09:37:05.000Z</time>
      </trkpt>
      <trkpt lat="44.00324" lon="7.18644">
        <ele>955.79998779297</ele>
        <time>2014-05-04T09:37:09.000Z</time>
      </trkpt>
      <trkpt lat="44.00337" lon="7.18642">
        <ele>953.79998779297</ele>
        <time>2014-05-04T09:37:13.000Z</time>
      </trkpt>
      <trkpt lat="44.00349" lon="7.18645">
        <ele>953.20001220703</ele>
        <time>2014-05-04T09:37:16.000Z</time>
      </trkpt>
      <trkpt lat="44.00354" lon="7.18646">
        <ele>953</ele>
        <time>2014-05-04T09:37:17.000Z</time>
      </trkpt>
      <trkpt lat="44.00366" lon="7.18653">
        <ele>951.40002441406</ele>
        <time>2014-05-04T09:37:19.000Z</time>
      </trkpt>
      <trkpt lat="44.00377" lon="7.18659">
        <ele>948.59997558594</ele>
        <time>2014-05-04T09:37:21.000Z</time>
      </trkpt>
      <trkpt lat="44.00391" lon="7.18666">
        <ele>942.59997558594</ele>
        <time>2014-05-04T09:37:25.000Z</time>
      </trkpt>
      <trkpt lat="44.00399" lon="7.18677">
        <ele>941.40002441406</ele>
        <time>2014-05-04T09:37:29.000Z</time>
      </trkpt>
      <trkpt lat="44.00401" lon="7.1868">
        <ele>941</ele>
        <time>2014-05-04T09:37:30.000Z</time>
      </trkpt>
      <trkpt lat="44.00397" lon="7.18685">
        <ele>944.59997558594</ele>
        <time>2014-05-04T09:37:33.000Z</time>
      </trkpt>
      <trkpt lat="44.00399" lon="7.18687">
        <ele>944.40002441406</ele>
        <time>2014-05-04T09:37:39.000Z</time>
      </trkpt>
      <trkpt lat="44.00399" lon="7.18689">
        <ele>944.79998779297</ele>
        <time>2014-05-04T09:37:40.000Z</time>
      </trkpt>
      <trkpt lat="44.004" lon="7.18697">
        <ele>946.59997558594</ele>
        <time>2014-05-04T09:37:43.000Z</time>
      </trkpt>
      <trkpt lat="44.00403" lon="7.18714">
        <ele>951</ele>
        <time>2014-05-04T09:37:48.000Z</time>
      </trkpt>
      <trkpt lat="44.00406" lon="7.18735">
        <ele>958.20001220703</ele>
        <time>2014-05-04T09:37:53.000Z</time>
      </trkpt>
      <trkpt lat="44.00411" lon="7.18754">
        <ele>960.40002441406</ele>
        <time>2014-05-04T09:37:59.000Z</time>
      </trkpt>
      <trkpt lat="44.0042" lon="7.18764">
        <ele>954.20001220703</ele>
        <time>2014-05-04T09:38:04.000Z</time>
      </trkpt>
      <trkpt lat="44.00427" lon="7.18781">
        <ele>950.79998779297</ele>
        <time>2014-05-04T09:38:10.000Z</time>
      </trkpt>
      <trkpt lat="44.00429" lon="7.18798">
        <ele>951</ele>
        <time>2014-05-04T09:38:15.000Z</time>
      </trkpt>
      <trkpt lat="44.00428" lon="7.18816">
        <ele>954.40002441406</ele>
        <time>2014-05-04T09:38:20.000Z</time>
      </trkpt>
      <trkpt lat="44.00438" lon="7.18828">
        <ele>948.20001220703</ele>
        <time>2014-05-04T09:38:25.000Z</time>
      </trkpt>
      <trkpt lat="44.00435" lon="7.18849">
        <ele>956.40002441406</ele>
        <time>2014-05-04T09:38:30.000Z</time>
      </trkpt>
      <trkpt lat="44.00419" lon="7.1887">
        <ele>975.20001220703</ele>
        <time>2014-05-04T09:38:35.000Z</time>
      </trkpt>
      <trkpt lat="44.0042" lon="7.1888">
        <ele>977.20001220703</ele>
        <time>2014-05-04T09:38:37.000Z</time>
      </trkpt>
      <trkpt lat="44.0042" lon="7.18891">
        <ele>979.40002441406</ele>
        <time>2014-05-04T09:38:39.000Z</time>
      </trkpt>
      <trkpt lat="44.00421" lon="7.18918">
        <ele>982.79998779297</ele>
        <time>2014-05-04T09:38:45.000Z</time>
      </trkpt>
      <trkpt lat="44.00422" lon="7.18941">
        <ele>990.40002441406</ele>
        <time>2014-05-04T09:38:50.000Z</time>
      </trkpt>
      <trkpt lat="44.00424" lon="7.1895">
        <ele>991.40002441406</ele>
        <time>2014-05-04T09:38:53.000Z</time>
      </trkpt>
      <trkpt lat="44.00425" lon="7.18952">
        <ele>991</ele>
        <time>2014-05-04T09:38:54.000Z</time>
      </trkpt>
      <trkpt lat="44.00428" lon="7.18955">
        <ele>990</ele>
        <time>2014-05-04T09:38:56.000Z</time>
      </trkpt>
      <trkpt lat="44.00432" lon="7.18958">
        <ele>987.20001220703</ele>
        <time>2014-05-04T09:38:58.000Z</time>
      </trkpt>
      <trkpt lat="44.00446" lon="7.18955">
        <ele>977</ele>
        <time>2014-05-04T09:39:03.000Z</time>
      </trkpt>
      <trkpt lat="44.0045" lon="7.18955">
        <ele>976</ele>
        <time>2014-05-04T09:39:04.000Z</time>
      </trkpt>
      <trkpt lat="44.00463" lon="7.18947">
        <ele>969</ele>
        <time>2014-05-04T09:39:08.000Z</time>
      </trkpt>
      <trkpt lat="44.00485" lon="7.18943">
        <ele>958.40002441406</ele>
        <time>2014-05-04T09:39:13.000Z</time>
      </trkpt>
      <trkpt lat="44.00494" lon="7.18948">
        <ele>956.40002441406</ele>
        <time>2014-05-04T09:39:14.000Z</time>
      </trkpt>
      <trkpt lat="44.00516" lon="7.18967">
        <ele>954.59997558594</ele>
        <time>2014-05-04T09:39:18.000Z</time>
      </trkpt>
      <trkpt lat="44.00519" lon="7.18972">
        <ele>955.79998779297</ele>
        <time>2014-05-04T09:39:19.000Z</time>
      </trkpt>
      <trkpt lat="44.00525" lon="7.18987">
        <ele>960</ele>
        <time>2014-05-04T09:39:22.000Z</time>
      </trkpt>
      <trkpt lat="44.00526" lon="7.18991">
        <ele>961.59997558594</ele>
        <time>2014-05-04T09:39:23.000Z</time>
      </trkpt>
      <trkpt lat="44.00529" lon="7.19001">
        <ele>966</ele>
        <time>2014-05-04T09:39:26.000Z</time>
      </trkpt>
      <trkpt lat="44.00535" lon="7.19015">
        <ele>971.59997558594</ele>
        <time>2014-05-04T09:39:30.000Z</time>
      </trkpt>
      <trkpt lat="44.00538" lon="7.19026">
        <ele>976.40002441406</ele>
        <time>2014-05-04T09:39:35.000Z</time>
      </trkpt>
      <trkpt lat="44.00534" lon="7.19031">
        <ele>980.40002441406</ele>
        <time>2014-05-04T09:39:38.000Z</time>
      </trkpt>
      <trkpt lat="44.00534" lon="7.19036">
        <ele>983.59997558594</ele>
        <time>2014-05-04T09:39:40.000Z</time>
      </trkpt>
      <trkpt lat="44.00535" lon="7.19038">
        <ele>984.59997558594</ele>
        <time>2014-05-04T09:39:42.000Z</time>
      </trkpt>
      <trkpt lat="44.00537" lon="7.19038">
        <ele>983.59997558594</ele>
        <time>2014-05-04T09:39:44.000Z</time>
      </trkpt>
      <trkpt lat="44.00541" lon="7.19036">
        <ele>980.79998779297</ele>
        <time>2014-05-04T09:39:46.000Z</time>
      </trkpt>
      <trkpt lat="44.00553" lon="7.19037">
        <ele>976</ele>
        <time>2014-05-04T09:39:50.000Z</time>
      </trkpt>
      <trkpt lat="44.00554" lon="7.19035">
        <ele>974.40002441406</ele>
        <time>2014-05-04T09:39:51.000Z</time>
      </trkpt>
      <trkpt lat="44.00558" lon="7.19034">
        <ele>972.20001220703</ele>
        <time>2014-05-04T09:39:54.000Z</time>
      </trkpt>
      <trkpt lat="44.00566" lon="7.19035">
        <ele>969.20001220703</ele>
        <time>2014-05-04T09:39:57.000Z</time>
      </trkpt>
      <trkpt lat="44.00571" lon="7.19035">
        <ele>967</ele>
        <time>2014-05-04T09:39:59.000Z</time>
      </trkpt>
      <trkpt lat="44.00594" lon="7.19049">
        <ele>965.20001220703</ele>
        <time>2014-05-04T09:40:06.000Z</time>
      </trkpt>
      <trkpt lat="44.00604" lon="7.19066">
        <ele>970.40002441406</ele>
        <time>2014-05-04T09:40:12.000Z</time>
      </trkpt>
      <trkpt lat="44.00616" lon="7.19078">
        <ele>971.79998779297</ele>
        <time>2014-05-04T09:40:18.000Z</time>
      </trkpt>
      <trkpt lat="44.00624" lon="7.19078">
        <ele>968.20001220703</ele>
        <time>2014-05-04T09:40:23.000Z</time>
      </trkpt>
      <trkpt lat="44.00635" lon="7.19092">
        <ele>970</ele>
        <time>2014-05-04T09:40:28.000Z</time>
      </trkpt>
      <trkpt lat="44.00643" lon="7.19115">
        <ele>978.40002441406</ele>
        <time>2014-05-04T09:40:35.000Z</time>
      </trkpt>
      <trkpt lat="44.00642" lon="7.19133">
        <ele>988.20001220703</ele>
        <time>2014-05-04T09:40:40.000Z</time>
      </trkpt>
      <trkpt lat="44.00648" lon="7.19147">
        <ele>992.59997558594</ele>
        <time>2014-05-04T09:40:44.000Z</time>
      </trkpt>
      <trkpt lat="44.00651" lon="7.19161">
        <ele>998.79998779297</ele>
        <time>2014-05-04T09:40:50.000Z</time>
      </trkpt>
      <trkpt lat="44.0066" lon="7.19166">
        <ele>996.40002441406</ele>
        <time>2014-05-04T09:40:54.000Z</time>
      </trkpt>
      <trkpt lat="44.00678" lon="7.19174">
        <ele>991</ele>
        <time>2014-05-04T09:40:59.000Z</time>
      </trkpt>
      <trkpt lat="44.00686" lon="7.19183">
        <ele>990.79998779297</ele>
        <time>2014-05-04T09:41:04.000Z</time>
      </trkpt>
      <trkpt lat="44.007" lon="7.19187">
        <ele>987.20001220703</ele>
        <time>2014-05-04T09:41:09.000Z</time>
      </trkpt>
      <trkpt lat="44.00715" lon="7.19192">
        <ele>985.59997558594</ele>
        <time>2014-05-04T09:41:15.000Z</time>
      </trkpt>
      <trkpt lat="44.00721" lon="7.19209">
        <ele>991</ele>
        <time>2014-05-04T09:41:20.000Z</time>
      </trkpt>
      <trkpt lat="44.0072" lon="7.19233">
        <ele>1001</ele>
        <time>2014-05-04T09:41:26.000Z</time>
      </trkpt>
      <trkpt lat="44.00715" lon="7.19246">
        <ele>1007.5999755859</ele>
        <time>2014-05-04T09:41:30.000Z</time>
      </trkpt>
      <trkpt lat="44.00719" lon="7.19253">
        <ele>1010</ele>
        <time>2014-05-04T09:41:33.000Z</time>
      </trkpt>
      <trkpt lat="44.00723" lon="7.19256">
        <ele>1010.4000244141</ele>
        <time>2014-05-04T09:41:34.000Z</time>
      </trkpt>
      <trkpt lat="44.00734" lon="7.19258">
        <ele>1008.5999755859</ele>
        <time>2014-05-04T09:41:38.000Z</time>
      </trkpt>
      <trkpt lat="44.00744" lon="7.19253">
        <ele>1003.5999755859</ele>
        <time>2014-05-04T09:41:42.000Z</time>
      </trkpt>
      <trkpt lat="44.00746" lon="7.19251">
        <ele>1002.4000244141</ele>
        <time>2014-05-04T09:41:43.000Z</time>
      </trkpt>
      <trkpt lat="44.00759" lon="7.1924">
        <ele>994.20001220703</ele>
        <time>2014-05-04T09:41:49.000Z</time>
      </trkpt>
      <trkpt lat="44.00773" lon="7.19231">
        <ele>986.40002441406</ele>
        <time>2014-05-04T09:41:55.000Z</time>
      </trkpt>
      <trkpt lat="44.00789" lon="7.19231">
        <ele>984.40002441406</ele>
        <time>2014-05-04T09:41:59.000Z</time>
      </trkpt>
      <trkpt lat="44.00804" lon="7.19235">
        <ele>984.79998779297</ele>
        <time>2014-05-04T09:42:04.000Z</time>
      </trkpt>
      <trkpt lat="44.00824" lon="7.19238">
        <ele>984.20001220703</ele>
        <time>2014-05-04T09:42:10.000Z</time>
      </trkpt>
      <trkpt lat="44.00842" lon="7.19245">
        <ele>985.59997558594</ele>
        <time>2014-05-04T09:42:16.000Z</time>
      </trkpt>
      <trkpt lat="44.00856" lon="7.19258">
        <ele>990.40002441406</ele>
        <time>2014-05-04T09:42:22.000Z</time>
      </trkpt>
      <trkpt lat="44.0087" lon="7.19276">
        <ele>993.20001220703</ele>
        <time>2014-05-04T09:42:28.000Z</time>
      </trkpt>
      <trkpt lat="44.00887" lon="7.19294">
        <ele>993.79998779297</ele>
        <time>2014-05-04T09:42:35.000Z</time>
      </trkpt>
      <trkpt lat="44.00897" lon="7.19308">
        <ele>995.20001220703</ele>
        <time>2014-05-04T09:42:40.000Z</time>
      </trkpt>
      <trkpt lat="44.00909" lon="7.19328">
        <ele>999.20001220703</ele>
        <time>2014-05-04T09:42:45.000Z</time>
      </trkpt>
      <trkpt lat="44.00923" lon="7.19361">
        <ele>1003.799987793</ele>
        <time>2014-05-04T09:42:52.000Z</time>
      </trkpt>
      <trkpt lat="44.00928" lon="7.19383">
        <ele>1008.799987793</ele>
        <time>2014-05-04T09:42:57.000Z</time>
      </trkpt>
      <trkpt lat="44.00932" lon="7.19388">
        <ele>1008.5999755859</ele>
        <time>2014-05-04T09:43:01.000Z</time>
      </trkpt>
      <trkpt lat="44.0093" lon="7.19388">
        <ele>1009.5999755859</ele>
        <time>2014-05-04T09:43:06.000Z</time>
      </trkpt>
      <trkpt lat="44.00929" lon="7.19392">
        <ele>1011.4000244141</ele>
        <time>2014-05-04T09:43:09.000Z</time>
      </trkpt>
      <trkpt lat="44.00931" lon="7.194">
        <ele>1013.200012207</ele>
        <time>2014-05-04T09:43:17.000Z</time>
      </trkpt>
      <trkpt lat="44.00934" lon="7.19402">
        <ele>1012.5999755859</ele>
        <time>2014-05-04T09:43:23.000Z</time>
      </trkpt>
      <trkpt lat="44.00935" lon="7.19406">
        <ele>1013.200012207</ele>
        <time>2014-05-04T09:43:29.000Z</time>
      </trkpt>
      <trkpt lat="44.00933" lon="7.19407">
        <ele>1014.799987793</ele>
        <time>2014-05-04T09:43:35.000Z</time>
      </trkpt>
      <trkpt lat="44.00935" lon="7.19411">
        <ele>1015.200012207</ele>
        <time>2014-05-04T09:43:39.000Z</time>
      </trkpt>
      <trkpt lat="44.0093" lon="7.19415">
        <ele>1019.200012207</ele>
        <time>2014-05-04T09:43:45.000Z</time>
      </trkpt>
      <trkpt lat="44.00927" lon="7.19417">
        <ele>1021.4000244141</ele>
        <time>2014-05-04T09:43:49.000Z</time>
      </trkpt>
      <trkpt lat="44.00925" lon="7.19417">
        <ele>1022.4000244141</ele>
        <time>2014-05-04T09:43:52.000Z</time>
      </trkpt>
      <trkpt lat="44.00927" lon="7.1942">
        <ele>1022.4000244141</ele>
        <time>2014-05-04T09:43:57.000Z</time>
      </trkpt>
      <trkpt lat="44.00934" lon="7.19423">
        <ele>1020.4000244141</ele>
        <time>2014-05-04T09:44:04.000Z</time>
      </trkpt>
      <trkpt lat="44.00934" lon="7.19425">
        <ele>1020.799987793</ele>
        <time>2014-05-04T09:44:06.000Z</time>
      </trkpt>
      <trkpt lat="44.00933" lon="7.19429">
        <ele>1023</ele>
        <time>2014-05-04T09:44:11.000Z</time>
      </trkpt>
      <trkpt lat="44.00929" lon="7.19428">
        <ele>1024.5999755859</ele>
        <time>2014-05-04T09:44:16.000Z</time>
      </trkpt>
      <trkpt lat="44.00929" lon="7.19428">
        <ele>1024.5999755859</ele>
        <time>2014-05-04T09:44:17.000Z</time>
      </trkpt>
      <trkpt lat="44.00928" lon="7.19431">
        <ele>1026.1999511719</ele>
        <time>2014-05-04T09:44:25.000Z</time>
      </trkpt>
      <trkpt lat="44.00923" lon="7.19432">
        <ele>1029</ele>
        <time>2014-05-04T09:44:31.000Z</time>
      </trkpt>
      <trkpt lat="44.00922" lon="7.19434">
        <ele>1030.1999511719</ele>
        <time>2014-05-04T09:44:34.000Z</time>
      </trkpt>
      <trkpt lat="44.00922" lon="7.19435">
        <ele>1030.8000488281</ele>
        <time>2014-05-04T09:44:36.000Z</time>
      </trkpt>
      <trkpt lat="44.00919" lon="7.19439">
        <ele>1033.8000488281</ele>
        <time>2014-05-04T09:44:41.000Z</time>
      </trkpt>
      <trkpt lat="44.00918" lon="7.1944">
        <ele>1034.4000244141</ele>
        <time>2014-05-04T09:44:42.000Z</time>
      </trkpt>
      <trkpt lat="44.00913" lon="7.1944">
        <ele>1037.4000244141</ele>
        <time>2014-05-04T09:44:47.000Z</time>
      </trkpt>
      <trkpt lat="44.00911" lon="7.19443">
        <ele>1039.4000244141</ele>
        <time>2014-05-04T09:44:50.000Z</time>
      </trkpt>
      <trkpt lat="44.00908" lon="7.19446">
        <ele>1041.8000488281</ele>
        <time>2014-05-04T09:44:54.000Z</time>
      </trkpt>
      <trkpt lat="44.00905" lon="7.19449">
        <ele>1044.4000244141</ele>
        <time>2014-05-04T09:45:01.000Z</time>
      </trkpt>
      <trkpt lat="44.0091" lon="7.19451">
        <ele>1042.5999755859</ele>
        <time>2014-05-04T09:45:08.000Z</time>
      </trkpt>
      <trkpt lat="44.00908" lon="7.19454">
        <ele>1044.8000488281</ele>
        <time>2014-05-04T09:45:16.000Z</time>
      </trkpt>
      <trkpt lat="44.00907" lon="7.19456">
        <ele>1046</ele>
        <time>2014-05-04T09:45:18.000Z</time>
      </trkpt>
      <trkpt lat="44.00907" lon="7.19457">
        <ele>1046.8000488281</ele>
        <time>2014-05-04T09:45:22.000Z</time>
      </trkpt>
      <trkpt lat="44.0091" lon="7.19459">
        <ele>1045.8000488281</ele>
        <time>2014-05-04T09:45:28.000Z</time>
      </trkpt>
      <trkpt lat="44.00913" lon="7.19462">
        <ele>1045.4000244141</ele>
        <time>2014-05-04T09:45:33.000Z</time>
      </trkpt>
      <trkpt lat="44.00922" lon="7.19464">
        <ele>1042</ele>
        <time>2014-05-04T09:45:41.000Z</time>
      </trkpt>
      <trkpt lat="44.00927" lon="7.19465">
        <ele>1039.8000488281</ele>
        <time>2014-05-04T09:45:46.000Z</time>
      </trkpt>
      <trkpt lat="44.00927" lon="7.19467">
        <ele>1040.4000244141</ele>
        <time>2014-05-04T09:45:48.000Z</time>
      </trkpt>
      <trkpt lat="44.00926" lon="7.19468">
        <ele>1041.1999511719</ele>
        <time>2014-05-04T09:45:50.000Z</time>
      </trkpt>
      <trkpt lat="44.00924" lon="7.19467">
        <ele>1042.1999511719</ele>
        <time>2014-05-04T09:45:54.000Z</time>
      </trkpt>
      <trkpt lat="44.00925" lon="7.19471">
        <ele>1043</ele>
        <time>2014-05-04T09:46:00.000Z</time>
      </trkpt>
      <trkpt lat="44.0093" lon="7.19475">
        <ele>1042.1999511719</ele>
        <time>2014-05-04T09:46:07.000Z</time>
      </trkpt>
      <trkpt lat="44.00932" lon="7.19479">
        <ele>1043</ele>
        <time>2014-05-04T09:46:11.000Z</time>
      </trkpt>
      <trkpt lat="44.00931" lon="7.19481">
        <ele>1043.8000488281</ele>
        <time>2014-05-04T09:46:13.000Z</time>
      </trkpt>
      <trkpt lat="44.00932" lon="7.19482">
        <ele>1044</ele>
        <time>2014-05-04T09:46:15.000Z</time>
      </trkpt>
      <trkpt lat="44.00933" lon="7.19487">
        <ele>1045.1999511719</ele>
        <time>2014-05-04T09:46:19.000Z</time>
      </trkpt>
      <trkpt lat="44.00933" lon="7.19489">
        <ele>1045.5999755859</ele>
        <time>2014-05-04T09:46:20.000Z</time>
      </trkpt>
      <trkpt lat="44.00935" lon="7.19489">
        <ele>1045.1999511719</ele>
        <time>2014-05-04T09:46:21.000Z</time>
      </trkpt>
      <trkpt lat="44.00935" lon="7.19494">
        <ele>1046.5999755859</ele>
        <time>2014-05-04T09:46:25.000Z</time>
      </trkpt>
      <trkpt lat="44.00934" lon="7.19492">
        <ele>1046.5999755859</ele>
        <time>2014-05-04T09:46:28.000Z</time>
      </trkpt>
      <trkpt lat="44.00934" lon="7.19491">
        <ele>1046.4000244141</ele>
        <time>2014-05-04T09:46:29.000Z</time>
      </trkpt>
      <trkpt lat="44.00933" lon="7.19491">
        <ele>1046.5999755859</ele>
        <time>2014-05-04T09:46:30.000Z</time>
      </trkpt>
      <trkpt lat="44.00926" lon="7.19488">
        <ele>1048.5999755859</ele>
        <time>2014-05-04T09:46:36.000Z</time>
      </trkpt>
      <trkpt lat="44.00922" lon="7.19487">
        <ele>1050.1999511719</ele>
        <time>2014-05-04T09:46:41.000Z</time>
      </trkpt>
      <trkpt lat="44.00921" lon="7.19487">
        <ele>1050.4000244141</ele>
        <time>2014-05-04T09:46:42.000Z</time>
      </trkpt>
      <trkpt lat="44.00921" lon="7.19489">
        <ele>1050.8000488281</ele>
        <time>2014-05-04T09:46:46.000Z</time>
      </trkpt>
      <trkpt lat="44.00926" lon="7.19493">
        <ele>1050.4000244141</ele>
        <time>2014-05-04T09:46:52.000Z</time>
      </trkpt>
      <trkpt lat="44.00929" lon="7.195">
        <ele>1052.1999511719</ele>
        <time>2014-05-04T09:46:58.000Z</time>
      </trkpt>
      <trkpt lat="44.00928" lon="7.195">
        <ele>1052.8000488281</ele>
        <time>2014-05-04T09:46:59.000Z</time>
      </trkpt>
      <trkpt lat="44.00925" lon="7.195">
        <ele>1054</ele>
        <time>2014-05-04T09:47:03.000Z</time>
      </trkpt>
      <trkpt lat="44.0092" lon="7.19495">
        <ele>1053.5999755859</ele>
        <time>2014-05-04T09:47:10.000Z</time>
      </trkpt>
      <trkpt lat="44.00919" lon="7.19495">
        <ele>1054</ele>
        <time>2014-05-04T09:47:12.000Z</time>
      </trkpt>
      <trkpt lat="44.0092" lon="7.19499">
        <ele>1055.5999755859</ele>
        <time>2014-05-04T09:47:17.000Z</time>
      </trkpt>
      <trkpt lat="44.00921" lon="7.195">
        <ele>1055.8000488281</ele>
        <time>2014-05-04T09:47:18.000Z</time>
      </trkpt>
      <trkpt lat="44.00923" lon="7.19503">
        <ele>1056.5999755859</ele>
        <time>2014-05-04T09:47:22.000Z</time>
      </trkpt>
      <trkpt lat="44.00926" lon="7.19511">
        <ele>1059.1999511719</ele>
        <time>2014-05-04T09:47:30.000Z</time>
      </trkpt>
      <trkpt lat="44.00927" lon="7.19511">
        <ele>1059.1999511719</ele>
        <time>2014-05-04T09:47:31.000Z</time>
      </trkpt>
      <trkpt lat="44.00931" lon="7.19517">
        <ele>1061</ele>
        <time>2014-05-04T09:47:35.000Z</time>
      </trkpt>
      <trkpt lat="44.00932" lon="7.19518">
        <ele>1061.1999511719</ele>
        <time>2014-05-04T09:47:36.000Z</time>
      </trkpt>
      <trkpt lat="44.00934" lon="7.19523">
        <ele>1062.8000488281</ele>
        <time>2014-05-04T09:47:41.000Z</time>
      </trkpt>
      <trkpt lat="44.00934" lon="7.19525">
        <ele>1064</ele>
        <time>2014-05-04T09:47:43.000Z</time>
      </trkpt>
      <trkpt lat="44.00933" lon="7.19525">
        <ele>1064.8000488281</ele>
        <time>2014-05-04T09:47:46.000Z</time>
      </trkpt>
      <trkpt lat="44.00926" lon="7.19522">
        <ele>1065.8000488281</ele>
        <time>2014-05-04T09:47:53.000Z</time>
      </trkpt>
      <trkpt lat="44.00918" lon="7.19519">
        <ele>1067.5999755859</ele>
        <time>2014-05-04T09:48:00.000Z</time>
      </trkpt>
      <trkpt lat="44.00913" lon="7.19516">
        <ele>1068.4000244141</ele>
        <time>2014-05-04T09:48:06.000Z</time>
      </trkpt>
      <trkpt lat="44.00906" lon="7.19513">
        <ele>1069.5999755859</ele>
        <time>2014-05-04T09:48:13.000Z</time>
      </trkpt>
      <trkpt lat="44.00905" lon="7.19511">
        <ele>1069</ele>
        <time>2014-05-04T09:48:16.000Z</time>
      </trkpt>
      <trkpt lat="44.00904" lon="7.19512">
        <ele>1069.5999755859</ele>
        <time>2014-05-04T09:48:18.000Z</time>
      </trkpt>
      <trkpt lat="44.00902" lon="7.19511">
        <ele>1070</ele>
        <time>2014-05-04T09:48:19.000Z</time>
      </trkpt>
      <trkpt lat="44.00899" lon="7.19512">
        <ele>1072</ele>
        <time>2014-05-04T09:48:22.000Z</time>
      </trkpt>
      <trkpt lat="44.00889" lon="7.19514">
        <ele>1077.5999755859</ele>
        <time>2014-05-04T09:48:31.000Z</time>
      </trkpt>
      <trkpt lat="44.00887" lon="7.19518">
        <ele>1080.1999511719</ele>
        <time>2014-05-04T09:48:35.000Z</time>
      </trkpt>
      <trkpt lat="44.00889" lon="7.1952">
        <ele>1080.8000488281</ele>
        <time>2014-05-04T09:48:38.000Z</time>
      </trkpt>
      <trkpt lat="44.00889" lon="7.19521">
        <ele>1081</ele>
        <time>2014-05-04T09:48:40.000Z</time>
      </trkpt>
      <trkpt lat="44.00892" lon="7.19521">
        <ele>1080</ele>
        <time>2014-05-04T09:48:43.000Z</time>
      </trkpt>
      <trkpt lat="44.00892" lon="7.19522">
        <ele>1080.1999511719</ele>
        <time>2014-05-04T09:48:45.000Z</time>
      </trkpt>
      <trkpt lat="44.00895" lon="7.19523">
        <ele>1079.5999755859</ele>
        <time>2014-05-04T09:48:51.000Z</time>
      </trkpt>
      <trkpt lat="44.00902" lon="7.19528">
        <ele>1079.5999755859</ele>
        <time>2014-05-04T09:48:58.000Z</time>
      </trkpt>
      <trkpt lat="44.00906" lon="7.19532">
        <ele>1079.8000488281</ele>
        <time>2014-05-04T09:49:01.000Z</time>
      </trkpt>
      <trkpt lat="44.00908" lon="7.19536">
        <ele>1081</ele>
        <time>2014-05-04T09:49:04.000Z</time>
      </trkpt>
      <trkpt lat="44.00913" lon="7.19543">
        <ele>1083</ele>
        <time>2014-05-04T09:49:11.000Z</time>
      </trkpt>
      <trkpt lat="44.00916" lon="7.19546">
        <ele>1083.4000244141</ele>
        <time>2014-05-04T09:49:15.000Z</time>
      </trkpt>
      <trkpt lat="44.00918" lon="7.19549">
        <ele>1084.4000244141</ele>
        <time>2014-05-04T09:49:19.000Z</time>
      </trkpt>
      <trkpt lat="44.00919" lon="7.19553">
        <ele>1085.5999755859</ele>
        <time>2014-05-04T09:49:24.000Z</time>
      </trkpt>
      <trkpt lat="44.00922" lon="7.19555">
        <ele>1085.8000488281</ele>
        <time>2014-05-04T09:49:29.000Z</time>
      </trkpt>
      <trkpt lat="44.00925" lon="7.19556">
        <ele>1085.1999511719</ele>
        <time>2014-05-04T09:49:32.000Z</time>
      </trkpt>
      <trkpt lat="44.00924" lon="7.19559">
        <ele>1087.4000244141</ele>
        <time>2014-05-04T09:49:35.000Z</time>
      </trkpt>
      <trkpt lat="44.00923" lon="7.1956">
        <ele>1088</ele>
        <time>2014-05-04T09:49:36.000Z</time>
      </trkpt>
      <trkpt lat="44.00919" lon="7.19561">
        <ele>1089.1999511719</ele>
        <time>2014-05-04T09:49:39.000Z</time>
      </trkpt>
      <trkpt lat="44.00914" lon="7.19561">
        <ele>1090.4000244141</ele>
        <time>2014-05-04T09:49:43.000Z</time>
      </trkpt>
      <trkpt lat="44.00912" lon="7.19563">
        <ele>1091.5999755859</ele>
        <time>2014-05-04T09:49:46.000Z</time>
      </trkpt>
      <trkpt lat="44.00909" lon="7.19563">
        <ele>1092.4000244141</ele>
        <time>2014-05-04T09:49:49.000Z</time>
      </trkpt>
      <trkpt lat="44.00907" lon="7.19563">
        <ele>1092.5999755859</ele>
        <time>2014-05-04T09:49:51.000Z</time>
      </trkpt>
      <trkpt lat="44.00904" lon="7.19559">
        <ele>1092.1999511719</ele>
        <time>2014-05-04T09:49:56.000Z</time>
      </trkpt>
      <trkpt lat="44.009" lon="7.19559">
        <ele>1093.1999511719</ele>
        <time>2014-05-04T09:50:03.000Z</time>
      </trkpt>
      <trkpt lat="44.00896" lon="7.19558">
        <ele>1093.8000488281</ele>
        <time>2014-05-04T09:50:07.000Z</time>
      </trkpt>
      <trkpt lat="44.00894" lon="7.19559">
        <ele>1094.5999755859</ele>
        <time>2014-05-04T09:50:09.000Z</time>
      </trkpt>
      <trkpt lat="44.00893" lon="7.1956">
        <ele>1095.1999511719</ele>
        <time>2014-05-04T09:50:11.000Z</time>
      </trkpt>
      <trkpt lat="44.00895" lon="7.19562">
        <ele>1095.4000244141</ele>
        <time>2014-05-04T09:50:14.000Z</time>
      </trkpt>
      <trkpt lat="44.009" lon="7.19569">
        <ele>1096.5999755859</ele>
        <time>2014-05-04T09:50:21.000Z</time>
      </trkpt>
      <trkpt lat="44.00905" lon="7.19579">
        <ele>1099.1999511719</ele>
        <time>2014-05-04T09:50:29.000Z</time>
      </trkpt>
      <trkpt lat="44.0091" lon="7.19585">
        <ele>1100.1999511719</ele>
        <time>2014-05-04T09:50:36.000Z</time>
      </trkpt>
      <trkpt lat="44.00913" lon="7.1959">
        <ele>1101.8000488281</ele>
        <time>2014-05-04T09:50:41.000Z</time>
      </trkpt>
      <trkpt lat="44.00914" lon="7.19591">
        <ele>1102</ele>
        <time>2014-05-04T09:50:42.000Z</time>
      </trkpt>
      <trkpt lat="44.00917" lon="7.19595">
        <ele>1102.5999755859</ele>
        <time>2014-05-04T09:50:47.000Z</time>
      </trkpt>
      <trkpt lat="44.00919" lon="7.19596">
        <ele>1103</ele>
        <time>2014-05-04T09:50:50.000Z</time>
      </trkpt>
      <trkpt lat="44.00921" lon="7.19598">
        <ele>1103.1999511719</ele>
        <time>2014-05-04T09:50:52.000Z</time>
      </trkpt>
      <trkpt lat="44.00924" lon="7.19601">
        <ele>1103.5999755859</ele>
        <time>2014-05-04T09:50:56.000Z</time>
      </trkpt>
      <trkpt lat="44.00928" lon="7.19605">
        <ele>1104</ele>
        <time>2014-05-04T09:51:02.000Z</time>
      </trkpt>
      <trkpt lat="44.00933" lon="7.19608">
        <ele>1104.1999511719</ele>
        <time>2014-05-04T09:51:08.000Z</time>
      </trkpt>
      <trkpt lat="44.00934" lon="7.19608">
        <ele>1104.1999511719</ele>
        <time>2014-05-04T09:51:09.000Z</time>
      </trkpt>
      <trkpt lat="44.0094" lon="7.19612">
        <ele>1104.1999511719</ele>
        <time>2014-05-04T09:51:16.000Z</time>
      </trkpt>
      <trkpt lat="44.00945" lon="7.19617">
        <ele>1104.1999511719</ele>
        <time>2014-05-04T09:51:22.000Z</time>
      </trkpt>
      <trkpt lat="44.00944" lon="7.19621">
        <ele>1106.4000244141</ele>
        <time>2014-05-04T09:51:27.000Z</time>
      </trkpt>
      <trkpt lat="44.00941" lon="7.19621">
        <ele>1107.8000488281</ele>
        <time>2014-05-04T09:51:29.000Z</time>
      </trkpt>
      <trkpt lat="44.00936" lon="7.19622">
        <ele>1109.1999511719</ele>
        <time>2014-05-04T09:51:33.000Z</time>
      </trkpt>
      <trkpt lat="44.0093" lon="7.19622">
        <ele>1110.8000488281</ele>
        <time>2014-05-04T09:51:39.000Z</time>
      </trkpt>
      <trkpt lat="44.00929" lon="7.19622">
        <ele>1110.8000488281</ele>
        <time>2014-05-04T09:51:40.000Z</time>
      </trkpt>
      <trkpt lat="44.00926" lon="7.19621">
        <ele>1111.1999511719</ele>
        <time>2014-05-04T09:51:43.000Z</time>
      </trkpt>
      <trkpt lat="44.00922" lon="7.19621">
        <ele>1112</ele>
        <time>2014-05-04T09:51:47.000Z</time>
      </trkpt>
      <trkpt lat="44.00917" lon="7.1962">
        <ele>1113</ele>
        <time>2014-05-04T09:51:53.000Z</time>
      </trkpt>
      <trkpt lat="44.00915" lon="7.19621">
        <ele>1113.8000488281</ele>
        <time>2014-05-04T09:51:54.000Z</time>
      </trkpt>
      <trkpt lat="44.0091" lon="7.19622">
        <ele>1115.5999755859</ele>
        <time>2014-05-04T09:51:59.000Z</time>
      </trkpt>
      <trkpt lat="44.00908" lon="7.19624">
        <ele>1116.8000488281</ele>
        <time>2014-05-04T09:52:05.000Z</time>
      </trkpt>
      <trkpt lat="44.00911" lon="7.19627">
        <ele>1117.4000244141</ele>
        <time>2014-05-04T09:52:10.000Z</time>
      </trkpt>
      <trkpt lat="44.00915" lon="7.19634">
        <ele>1119.1999511719</ele>
        <time>2014-05-04T09:52:17.000Z</time>
      </trkpt>
      <trkpt lat="44.0092" lon="7.19639">
        <ele>1120</ele>
        <time>2014-05-04T09:52:24.000Z</time>
      </trkpt>
      <trkpt lat="44.00922" lon="7.19642">
        <ele>1120.8000488281</ele>
        <time>2014-05-04T09:52:29.000Z</time>
      </trkpt>
      <trkpt lat="44.00923" lon="7.19647">
        <ele>1122.4000244141</ele>
        <time>2014-05-04T09:52:33.000Z</time>
      </trkpt>
      <trkpt lat="44.00925" lon="7.19652">
        <ele>1124</ele>
        <time>2014-05-04T09:52:39.000Z</time>
      </trkpt>
      <trkpt lat="44.00925" lon="7.19655">
        <ele>1124.8000488281</ele>
        <time>2014-05-04T09:52:41.000Z</time>
      </trkpt>
      <trkpt lat="44.00923" lon="7.19657">
        <ele>1126</ele>
        <time>2014-05-04T09:52:46.000Z</time>
      </trkpt>
      <trkpt lat="44.00922" lon="7.19661">
        <ele>1127.8000488281</ele>
        <time>2014-05-04T09:52:54.000Z</time>
      </trkpt>
      <trkpt lat="44.00923" lon="7.1967">
        <ele>1130.1999511719</ele>
        <time>2014-05-04T09:53:02.000Z</time>
      </trkpt>
      <trkpt lat="44.00924" lon="7.19672">
        <ele>1130.5999755859</ele>
        <time>2014-05-04T09:53:04.000Z</time>
      </trkpt>
      <trkpt lat="44.00926" lon="7.19677">
        <ele>1131.4000244141</ele>
        <time>2014-05-04T09:53:08.000Z</time>
      </trkpt>
      <trkpt lat="44.00926" lon="7.19678">
        <ele>1131.5999755859</ele>
        <time>2014-05-04T09:53:09.000Z</time>
      </trkpt>
      <trkpt lat="44.00926" lon="7.19682">
        <ele>1132.8000488281</ele>
        <time>2014-05-04T09:53:15.000Z</time>
      </trkpt>
      <trkpt lat="44.00931" lon="7.19688">
        <ele>1133.4000244141</ele>
        <time>2014-05-04T09:53:22.000Z</time>
      </trkpt>
      <trkpt lat="44.00933" lon="7.19694">
        <ele>1134.5999755859</ele>
        <time>2014-05-04T09:53:27.000Z</time>
      </trkpt>
      <trkpt lat="44.00933" lon="7.19695">
        <ele>1135</ele>
        <time>2014-05-04T09:53:29.000Z</time>
      </trkpt>
      <trkpt lat="44.00936" lon="7.197">
        <ele>1135.8000488281</ele>
        <time>2014-05-04T09:53:35.000Z</time>
      </trkpt>
      <trkpt lat="44.00937" lon="7.19707">
        <ele>1137.4000244141</ele>
        <time>2014-05-04T09:53:42.000Z</time>
      </trkpt>
      <trkpt lat="44.00939" lon="7.1971">
        <ele>1138</ele>
        <time>2014-05-04T09:53:48.000Z</time>
      </trkpt>
      <trkpt lat="44.00941" lon="7.19714">
        <ele>1138.5999755859</ele>
        <time>2014-05-04T09:53:51.000Z</time>
      </trkpt>
      <trkpt lat="44.00941" lon="7.19716">
        <ele>1139.4000244141</ele>
        <time>2014-05-04T09:53:53.000Z</time>
      </trkpt>
      <trkpt lat="44.0094" lon="7.19724">
        <ele>1141.4000244141</ele>
        <time>2014-05-04T09:54:00.000Z</time>
      </trkpt>
      <trkpt lat="44.00942" lon="7.19731">
        <ele>1142.8000488281</ele>
        <time>2014-05-04T09:54:06.000Z</time>
      </trkpt>
      <trkpt lat="44.00944" lon="7.19737">
        <ele>1143.5999755859</ele>
        <time>2014-05-04T09:54:11.000Z</time>
      </trkpt>
      <trkpt lat="44.00944" lon="7.19738">
        <ele>1143.8000488281</ele>
        <time>2014-05-04T09:54:12.000Z</time>
      </trkpt>
      <trkpt lat="44.00943" lon="7.19747">
        <ele>1146.4000244141</ele>
        <time>2014-05-04T09:54:19.000Z</time>
      </trkpt>
      <trkpt lat="44.00943" lon="7.19753">
        <ele>1146.4000244141</ele>
        <time>2014-05-04T09:54:25.000Z</time>
      </trkpt>
      <trkpt lat="44.00943" lon="7.19754">
        <ele>1146.4000244141</ele>
        <time>2014-05-04T09:54:26.000Z</time>
      </trkpt>
      <trkpt lat="44.00939" lon="7.19758">
        <ele>1147.8000488281</ele>
        <time>2014-05-04T09:54:32.000Z</time>
      </trkpt>
      <trkpt lat="44.00938" lon="7.19757">
        <ele>1148</ele>
        <time>2014-05-04T09:54:33.000Z</time>
      </trkpt>
      <trkpt lat="44.00935" lon="7.19755">
        <ele>1148.8000488281</ele>
        <time>2014-05-04T09:54:38.000Z</time>
      </trkpt>
      <trkpt lat="44.00934" lon="7.19757">
        <ele>1149.1999511719</ele>
        <time>2014-05-04T09:54:43.000Z</time>
      </trkpt>
      <trkpt lat="44.00934" lon="7.19763">
        <ele>1149</ele>
        <time>2014-05-04T09:54:48.000Z</time>
      </trkpt>
      <trkpt lat="44.00936" lon="7.19769">
        <ele>1148.5999755859</ele>
        <time>2014-05-04T09:54:54.000Z</time>
      </trkpt>
      <trkpt lat="44.00936" lon="7.19772">
        <ele>1148.5999755859</ele>
        <time>2014-05-04T09:54:56.000Z</time>
      </trkpt>
      <trkpt lat="44.00933" lon="7.19779">
        <ele>1149.1999511719</ele>
        <time>2014-05-04T09:55:01.000Z</time>
      </trkpt>
      <trkpt lat="44.00931" lon="7.1978">
        <ele>1149.8000488281</ele>
        <time>2014-05-04T09:55:03.000Z</time>
      </trkpt>
      <trkpt lat="44.00929" lon="7.19777">
        <ele>1150.4000244141</ele>
        <time>2014-05-04T09:55:07.000Z</time>
      </trkpt>
      <trkpt lat="44.00927" lon="7.19775">
        <ele>1151</ele>
        <time>2014-05-04T09:55:12.000Z</time>
      </trkpt>
      <trkpt lat="44.00926" lon="7.19776">
        <ele>1151.1999511719</ele>
        <time>2014-05-04T09:55:13.000Z</time>
      </trkpt>
      <trkpt lat="44.00924" lon="7.19782">
        <ele>1151.8000488281</ele>
        <time>2014-05-04T09:55:18.000Z</time>
      </trkpt>
      <trkpt lat="44.00923" lon="7.19782">
        <ele>1152</ele>
        <time>2014-05-04T09:55:19.000Z</time>
      </trkpt>
      <trkpt lat="44.00918" lon="7.19785">
        <ele>1153.4000244141</ele>
        <time>2014-05-04T09:55:24.000Z</time>
      </trkpt>
      <trkpt lat="44.00915" lon="7.19785">
        <ele>1154.1999511719</ele>
        <time>2014-05-04T09:55:28.000Z</time>
      </trkpt>
      <trkpt lat="44.00914" lon="7.19783">
        <ele>1154.4000244141</ele>
        <time>2014-05-04T09:55:30.000Z</time>
      </trkpt>
      <trkpt lat="44.00911" lon="7.19775">
        <ele>1155.1999511719</ele>
        <time>2014-05-04T09:55:36.000Z</time>
      </trkpt>
      <trkpt lat="44.00908" lon="7.19772">
        <ele>1156</ele>
        <time>2014-05-04T09:55:41.000Z</time>
      </trkpt>
      <trkpt lat="44.00907" lon="7.1977">
        <ele>1156.1999511719</ele>
        <time>2014-05-04T09:55:43.000Z</time>
      </trkpt>
      <trkpt lat="44.00906" lon="7.19767">
        <ele>1156.4000244141</ele>
        <time>2014-05-04T09:55:46.000Z</time>
      </trkpt>
      <trkpt lat="44.00905" lon="7.19765">
        <ele>1156.5999755859</ele>
        <time>2014-05-04T09:55:49.000Z</time>
      </trkpt>
      <trkpt lat="44.00901" lon="7.19761">
        <ele>1157.8000488281</ele>
        <time>2014-05-04T09:55:56.000Z</time>
      </trkpt>
      <trkpt lat="44.00897" lon="7.19761">
        <ele>1159</ele>
        <time>2014-05-04T09:56:02.000Z</time>
      </trkpt>
      <trkpt lat="44.00898" lon="7.19766">
        <ele>1158.5999755859</ele>
        <time>2014-05-04T09:56:07.000Z</time>
      </trkpt>
      <trkpt lat="44.00899" lon="7.19771">
        <ele>1158.4000244141</ele>
        <time>2014-05-04T09:56:10.000Z</time>
      </trkpt>
      <trkpt lat="44.00899" lon="7.19773">
        <ele>1158.4000244141</ele>
        <time>2014-05-04T09:56:13.000Z</time>
      </trkpt>
      <trkpt lat="44.00898" lon="7.1978">
        <ele>1158.5999755859</ele>
        <time>2014-05-04T09:56:20.000Z</time>
      </trkpt>
      <trkpt lat="44.00896" lon="7.19783">
        <ele>1159</ele>
        <time>2014-05-04T09:56:24.000Z</time>
      </trkpt>
      <trkpt lat="44.00894" lon="7.1979">
        <ele>1162.1999511719</ele>
        <time>2014-05-04T09:56:30.000Z</time>
      </trkpt>
      <trkpt lat="44.00892" lon="7.19796">
        <ele>1165.8000488281</ele>
        <time>2014-05-04T09:56:37.000Z</time>
      </trkpt>
      <trkpt lat="44.00889" lon="7.19799">
        <ele>1168.1999511719</ele>
        <time>2014-05-04T09:56:41.000Z</time>
      </trkpt>
      <trkpt lat="44.00886" lon="7.19804">
        <ele>1171</ele>
        <time>2014-05-04T09:56:45.000Z</time>
      </trkpt>
      <trkpt lat="44.00882" lon="7.1981">
        <ele>1175.1999511719</ele>
        <time>2014-05-04T09:56:53.000Z</time>
      </trkpt>
      <trkpt lat="44.00881" lon="7.19813">
        <ele>1176.5999755859</ele>
        <time>2014-05-04T09:56:55.000Z</time>
      </trkpt>
      <trkpt lat="44.0088" lon="7.19816">
        <ele>1178.5999755859</ele>
        <time>2014-05-04T09:56:58.000Z</time>
      </trkpt>
      <trkpt lat="44.00879" lon="7.19817">
        <ele>1179.1999511719</ele>
        <time>2014-05-04T09:56:59.000Z</time>
      </trkpt>
      <trkpt lat="44.00874" lon="7.19824">
        <ele>1183.8000488281</ele>
        <time>2014-05-04T09:57:07.000Z</time>
      </trkpt>
      <trkpt lat="44.00871" lon="7.19827">
        <ele>1186.8000488281</ele>
        <time>2014-05-04T09:57:14.000Z</time>
      </trkpt>
      <trkpt lat="44.00867" lon="7.19835">
        <ele>1187.8000488281</ele>
        <time>2014-05-04T09:57:21.000Z</time>
      </trkpt>
      <trkpt lat="44.00864" lon="7.1984">
        <ele>1190.4000244141</ele>
        <time>2014-05-04T09:57:26.000Z</time>
      </trkpt>
      <trkpt lat="44.0086" lon="7.19848">
        <ele>1193</ele>
        <time>2014-05-04T09:57:34.000Z</time>
      </trkpt>
      <trkpt lat="44.0086" lon="7.19849">
        <ele>1193.5999755859</ele>
        <time>2014-05-04T09:57:35.000Z</time>
      </trkpt>
      <trkpt lat="44.00858" lon="7.19854">
        <ele>1194.8000488281</ele>
        <time>2014-05-04T09:57:40.000Z</time>
      </trkpt>
      <trkpt lat="44.00858" lon="7.19855">
        <ele>1194.8000488281</ele>
        <time>2014-05-04T09:57:41.000Z</time>
      </trkpt>
      <trkpt lat="44.00857" lon="7.19858">
        <ele>1195.1999511719</ele>
        <time>2014-05-04T09:57:44.000Z</time>
      </trkpt>
      <trkpt lat="44.00857" lon="7.19858">
        <ele>1195.1999511719</ele>
        <time>2014-05-04T09:57:45.000Z</time>
      </trkpt>
      <trkpt lat="44.00854" lon="7.19867">
        <ele>1196.1999511719</ele>
        <time>2014-05-04T09:57:53.000Z</time>
      </trkpt>
      <trkpt lat="44.00852" lon="7.19873">
        <ele>1196.8000488281</ele>
        <time>2014-05-04T09:57:59.000Z</time>
      </trkpt>
      <trkpt lat="44.0085" lon="7.19884">
        <ele>1197.8000488281</ele>
        <time>2014-05-04T09:58:07.000Z</time>
      </trkpt>
      <trkpt lat="44.00847" lon="7.19885">
        <ele>1198.8000488281</ele>
        <time>2014-05-04T09:58:10.000Z</time>
      </trkpt>
      <trkpt lat="44.00847" lon="7.19884">
        <ele>1198.8000488281</ele>
        <time>2014-05-04T09:58:12.000Z</time>
      </trkpt>
      <trkpt lat="44.00846" lon="7.1988">
        <ele>1198.8000488281</ele>
        <time>2014-05-04T09:58:17.000Z</time>
      </trkpt>
      <trkpt lat="44.00844" lon="7.19875">
        <ele>1199.4000244141</ele>
        <time>2014-05-04T09:58:23.000Z</time>
      </trkpt>
      <trkpt lat="44.00842" lon="7.19869">
        <ele>1199.8000488281</ele>
        <time>2014-05-04T09:58:29.000Z</time>
      </trkpt>
      <trkpt lat="44.0084" lon="7.19859">
        <ele>1200.1999511719</ele>
        <time>2014-05-04T09:58:38.000Z</time>
      </trkpt>
      <trkpt lat="44.00839" lon="7.19858">
        <ele>1200.4000244141</ele>
        <time>2014-05-04T09:58:40.000Z</time>
      </trkpt>
      <trkpt lat="44.00838" lon="7.19856">
        <ele>1200.5999755859</ele>
        <time>2014-05-04T09:58:42.000Z</time>
      </trkpt>
      <trkpt lat="44.00837" lon="7.19852">
        <ele>1200.8000488281</ele>
        <time>2014-05-04T09:58:46.000Z</time>
      </trkpt>
      <trkpt lat="44.00836" lon="7.19846">
        <ele>1200.8000488281</ele>
        <time>2014-05-04T09:58:52.000Z</time>
      </trkpt>
      <trkpt lat="44.00834" lon="7.19844">
        <ele>1201.5999755859</ele>
        <time>2014-05-04T09:58:59.000Z</time>
      </trkpt>
      <trkpt lat="44.00829" lon="7.19841">
        <ele>1203</ele>
        <time>2014-05-04T09:59:06.000Z</time>
      </trkpt>
      <trkpt lat="44.00825" lon="7.19844">
        <ele>1204</ele>
        <time>2014-05-04T09:59:12.000Z</time>
      </trkpt>
      <trkpt lat="44.00822" lon="7.1985">
        <ele>1205</ele>
        <time>2014-05-04T09:59:19.000Z</time>
      </trkpt>
      <trkpt lat="44.0082" lon="7.19846">
        <ele>1205.4000244141</ele>
        <time>2014-05-04T09:59:24.000Z</time>
      </trkpt>
      <trkpt lat="44.00816" lon="7.19845">
        <ele>1206.5999755859</ele>
        <time>2014-05-04T09:59:31.000Z</time>
      </trkpt>
      <trkpt lat="44.0081" lon="7.19844">
        <ele>1208.4000244141</ele>
        <time>2014-05-04T09:59:39.000Z</time>
      </trkpt>
      <trkpt lat="44.00805" lon="7.19839">
        <ele>1209.5999755859</ele>
        <time>2014-05-04T09:59:46.000Z</time>
      </trkpt>
      <trkpt lat="44.00799" lon="7.19836">
        <ele>1211.4000244141</ele>
        <time>2014-05-04T09:59:55.000Z</time>
      </trkpt>
      <trkpt lat="44.00794" lon="7.19837">
        <ele>1213</ele>
        <time>2014-05-04T10:00:00.000Z</time>
      </trkpt>
      <trkpt lat="44.00792" lon="7.19837">
        <ele>1213.4000244141</ele>
        <time>2014-05-04T10:00:02.000Z</time>
      </trkpt>
      <trkpt lat="44.00788" lon="7.19836">
        <ele>1214.4000244141</ele>
        <time>2014-05-04T10:00:07.000Z</time>
      </trkpt>
      <trkpt lat="44.00781" lon="7.19833">
        <ele>1216.4000244141</ele>
        <time>2014-05-04T10:00:15.000Z</time>
      </trkpt>
      <trkpt lat="44.00773" lon="7.19832">
        <ele>1219.8000488281</ele>
        <time>2014-05-04T10:00:23.000Z</time>
      </trkpt>
      <trkpt lat="44.0077" lon="7.19831">
        <ele>1220.8000488281</ele>
        <time>2014-05-04T10:00:26.000Z</time>
      </trkpt>
      <trkpt lat="44.00765" lon="7.1983">
        <ele>1222</ele>
        <time>2014-05-04T10:00:30.000Z</time>
      </trkpt>
      <trkpt lat="44.00761" lon="7.1983">
        <ele>1223.1999511719</ele>
        <time>2014-05-04T10:00:37.000Z</time>
      </trkpt>
      <trkpt lat="44.00765" lon="7.1983">
        <ele>1222.1999511719</ele>
        <time>2014-05-04T10:00:43.000Z</time>
      </trkpt>
      <trkpt lat="44.00764" lon="7.19834">
        <ele>1223.5999755859</ele>
        <time>2014-05-04T10:00:51.000Z</time>
      </trkpt>
      <trkpt lat="44.00758" lon="7.19837">
        <ele>1226.8000488281</ele>
        <time>2014-05-04T10:00:55.000Z</time>
      </trkpt>
      <trkpt lat="44.00753" lon="7.19835">
        <ele>1228</ele>
        <time>2014-05-04T10:00:58.000Z</time>
      </trkpt>
      <trkpt lat="44.00749" lon="7.19835">
        <ele>1229.4000244141</ele>
        <time>2014-05-04T10:01:00.000Z</time>
      </trkpt>
      <trkpt lat="44.00742" lon="7.19833">
        <ele>1231.4000244141</ele>
        <time>2014-05-04T10:01:05.000Z</time>
      </trkpt>
      <trkpt lat="44.00738" lon="7.19833">
        <ele>1232.4000244141</ele>
        <time>2014-05-04T10:01:08.000Z</time>
      </trkpt>
      <trkpt lat="44.00737" lon="7.19834">
        <ele>1233.1999511719</ele>
        <time>2014-05-04T10:01:09.000Z</time>
      </trkpt>
      <trkpt lat="44.00736" lon="7.19834">
        <ele>1233.5999755859</ele>
        <time>2014-05-04T10:01:10.000Z</time>
      </trkpt>
      <trkpt lat="44.00732" lon="7.19836">
        <ele>1235.4000244141</ele>
        <time>2014-05-04T10:01:13.000Z</time>
      </trkpt>
      <trkpt lat="44.00731" lon="7.19835">
        <ele>1235.8000488281</ele>
        <time>2014-05-04T10:01:15.000Z</time>
      </trkpt>
      <trkpt lat="44.00726" lon="7.19834">
        <ele>1237</ele>
        <time>2014-05-04T10:01:18.000Z</time>
      </trkpt>
      <trkpt lat="44.00719" lon="7.19832">
        <ele>1238.5999755859</ele>
        <time>2014-05-04T10:01:20.000Z</time>
      </trkpt>
      <trkpt lat="44.00712" lon="7.19831">
        <ele>1240.5999755859</ele>
        <time>2014-05-04T10:01:24.000Z</time>
      </trkpt>
      <trkpt lat="44.00698" lon="7.19829">
        <ele>1245</ele>
        <time>2014-05-04T10:01:28.000Z</time>
      </trkpt>
      <trkpt lat="44.00693" lon="7.19829">
        <ele>1247</ele>
        <time>2014-05-04T10:01:31.000Z</time>
      </trkpt>
      <trkpt lat="44.00692" lon="7.1983">
        <ele>1247.4000244141</ele>
        <time>2014-05-04T10:01:32.000Z</time>
      </trkpt>
      <trkpt lat="44.0069" lon="7.19827">
        <ele>1247.1999511719</ele>
        <time>2014-05-04T10:01:36.000Z</time>
      </trkpt>
      <trkpt lat="44.0069" lon="7.19825">
        <ele>1246.5999755859</ele>
        <time>2014-05-04T10:01:39.000Z</time>
      </trkpt>
      <trkpt lat="44.00688" lon="7.19823">
        <ele>1246.5999755859</ele>
        <time>2014-05-04T10:01:40.000Z</time>
      </trkpt>
      <trkpt lat="44.00683" lon="7.19822">
        <ele>1247.5999755859</ele>
        <time>2014-05-04T10:01:43.000Z</time>
      </trkpt>
      <trkpt lat="44.00679" lon="7.19823">
        <ele>1249</ele>
        <time>2014-05-04T10:01:48.000Z</time>
      </trkpt>
      <trkpt lat="44.00675" lon="7.19824">
        <ele>1250.4000244141</ele>
        <time>2014-05-04T10:01:53.000Z</time>
      </trkpt>
      <trkpt lat="44.00669" lon="7.19821">
        <ele>1251.4000244141</ele>
        <time>2014-05-04T10:02:00.000Z</time>
      </trkpt>
      <trkpt lat="44.00664" lon="7.19816">
        <ele>1251.1999511719</ele>
        <time>2014-05-04T10:02:04.000Z</time>
      </trkpt>
      <trkpt lat="44.00663" lon="7.1981">
        <ele>1249.5999755859</ele>
        <time>2014-05-04T10:02:10.000Z</time>
      </trkpt>
      <trkpt lat="44.00665" lon="7.19806">
        <ele>1247.8000488281</ele>
        <time>2014-05-04T10:02:17.000Z</time>
      </trkpt>
      <trkpt lat="44.00663" lon="7.19802">
        <ele>1247.4000244141</ele>
        <time>2014-05-04T10:02:24.000Z</time>
      </trkpt>
      <trkpt lat="44.00662" lon="7.19801">
        <ele>1247</ele>
        <time>2014-05-04T10:02:25.000Z</time>
      </trkpt>
      <trkpt lat="44.00659" lon="7.19795">
        <ele>1246</ele>
        <time>2014-05-04T10:02:31.000Z</time>
      </trkpt>
      <trkpt lat="44.00658" lon="7.19794">
        <ele>1246</ele>
        <time>2014-05-04T10:02:33.000Z</time>
      </trkpt>
      <trkpt lat="44.00658" lon="7.19792">
        <ele>1245.5999755859</ele>
        <time>2014-05-04T10:02:35.000Z</time>
      </trkpt>
      <trkpt lat="44.00657" lon="7.19789">
        <ele>1245</ele>
        <time>2014-05-04T10:02:38.000Z</time>
      </trkpt>
      <trkpt lat="44.00657" lon="7.19788">
        <ele>1244.8000488281</ele>
        <time>2014-05-04T10:02:39.000Z</time>
      </trkpt>
      <trkpt lat="44.00657" lon="7.19783">
        <ele>1243.5999755859</ele>
        <time>2014-05-04T10:02:44.000Z</time>
      </trkpt>
      <trkpt lat="44.00657" lon="7.19779">
        <ele>1242.5999755859</ele>
        <time>2014-05-04T10:02:47.000Z</time>
      </trkpt>
      <trkpt lat="44.00655" lon="7.19774">
        <ele>1241.8000488281</ele>
        <time>2014-05-04T10:02:50.000Z</time>
      </trkpt>
      <trkpt lat="44.00653" lon="7.19774">
        <ele>1242.1999511719</ele>
        <time>2014-05-04T10:02:51.000Z</time>
      </trkpt>
      <trkpt lat="44.00651" lon="7.19777">
        <ele>1243.1999511719</ele>
        <time>2014-05-04T10:02:55.000Z</time>
      </trkpt>
      <trkpt lat="44.00649" lon="7.19779">
        <ele>1244.4000244141</ele>
        <time>2014-05-04T10:02:58.000Z</time>
      </trkpt>
      <trkpt lat="44.00648" lon="7.1978">
        <ele>1244.5999755859</ele>
        <time>2014-05-04T10:02:59.000Z</time>
      </trkpt>
      <trkpt lat="44.00644" lon="7.19783">
        <ele>1246.8000488281</ele>
        <time>2014-05-04T10:03:05.000Z</time>
      </trkpt>
      <trkpt lat="44.00643" lon="7.19786">
        <ele>1247.8000488281</ele>
        <time>2014-05-04T10:03:07.000Z</time>
      </trkpt>
      <trkpt lat="44.00642" lon="7.19784">
        <ele>1247.5999755859</ele>
        <time>2014-05-04T10:03:10.000Z</time>
      </trkpt>
      <trkpt lat="44.00643" lon="7.19781">
        <ele>1246.1999511719</ele>
        <time>2014-05-04T10:03:12.000Z</time>
      </trkpt>
      <trkpt lat="44.00641" lon="7.19775">
        <ele>1245.1999511719</ele>
        <time>2014-05-04T10:03:16.000Z</time>
      </trkpt>
      <trkpt lat="44.00637" lon="7.19766">
        <ele>1244</ele>
        <time>2014-05-04T10:03:22.000Z</time>
      </trkpt>
      <trkpt lat="44.00636" lon="7.19765">
        <ele>1243.8000488281</ele>
        <time>2014-05-04T10:03:24.000Z</time>
      </trkpt>
      <trkpt lat="44.00635" lon="7.19766">
        <ele>1244.1999511719</ele>
        <time>2014-05-04T10:03:25.000Z</time>
      </trkpt>
      <trkpt lat="44.00635" lon="7.19766">
        <ele>1244.1999511719</ele>
        <time>2014-05-04T10:03:26.000Z</time>
      </trkpt>
      <trkpt lat="44.00641" lon="7.19771">
        <ele>1244.1999511719</ele>
        <time>2014-05-04T10:03:34.000Z</time>
      </trkpt>
      <trkpt lat="44.0064" lon="7.19774">
        <ele>1245.1999511719</ele>
        <time>2014-05-04T10:03:38.000Z</time>
      </trkpt>
      <trkpt lat="44.00634" lon="7.1978">
        <ele>1248.8000488281</ele>
        <time>2014-05-04T10:03:46.000Z</time>
      </trkpt>
      <trkpt lat="44.00624" lon="7.19783">
        <ele>1252.1999511719</ele>
        <time>2014-05-04T10:03:55.000Z</time>
      </trkpt>
      <trkpt lat="44.00618" lon="7.19786">
        <ele>1255</ele>
        <time>2014-05-04T10:04:04.000Z</time>
      </trkpt>
      <trkpt lat="44.00618" lon="7.19792">
        <ele>1256.8000488281</ele>
        <time>2014-05-04T10:04:10.000Z</time>
      </trkpt>
      <trkpt lat="44.00622" lon="7.198">
        <ele>1258.4000244141</ele>
        <time>2014-05-04T10:04:18.000Z</time>
      </trkpt>
      <trkpt lat="44.00619" lon="7.19805">
        <ele>1260.5999755859</ele>
        <time>2014-05-04T10:04:24.000Z</time>
      </trkpt>
      <trkpt lat="44.00618" lon="7.19808">
        <ele>1261.8000488281</ele>
        <time>2014-05-04T10:04:28.000Z</time>
      </trkpt>
      <trkpt lat="44.00614" lon="7.19808">
        <ele>1263.1999511719</ele>
        <time>2014-05-04T10:04:33.000Z</time>
      </trkpt>
      <trkpt lat="44.00608" lon="7.19808">
        <ele>1264.8000488281</ele>
        <time>2014-05-04T10:04:39.000Z</time>
      </trkpt>
      <trkpt lat="44.00601" lon="7.19807">
        <ele>1268</ele>
        <time>2014-05-04T10:04:48.000Z</time>
      </trkpt>
      <trkpt lat="44.00601" lon="7.19808">
        <ele>1268.4000244141</ele>
        <time>2014-05-04T10:04:49.000Z</time>
      </trkpt>
      <trkpt lat="44.006" lon="7.19812">
        <ele>1270.1999511719</ele>
        <time>2014-05-04T10:04:54.000Z</time>
      </trkpt>
      <trkpt lat="44.00594" lon="7.19813">
        <ele>1273.4000244141</ele>
        <time>2014-05-04T10:05:02.000Z</time>
      </trkpt>
      <trkpt lat="44.00595" lon="7.19818">
        <ele>1274.4000244141</ele>
        <time>2014-05-04T10:05:08.000Z</time>
      </trkpt>
      <trkpt lat="44.00598" lon="7.19824">
        <ele>1274.5999755859</ele>
        <time>2014-05-04T10:05:15.000Z</time>
      </trkpt>
      <trkpt lat="44.00601" lon="7.19832">
        <ele>1275.4000244141</ele>
        <time>2014-05-04T10:05:23.000Z</time>
      </trkpt>
      <trkpt lat="44.00603" lon="7.19837">
        <ele>1276.4000244141</ele>
        <time>2014-05-04T10:05:28.000Z</time>
      </trkpt>
      <trkpt lat="44.00604" lon="7.19838">
        <ele>1276.1999511719</ele>
        <time>2014-05-04T10:05:30.000Z</time>
      </trkpt>
      <trkpt lat="44.00606" lon="7.1984">
        <ele>1276.1999511719</ele>
        <time>2014-05-04T10:05:33.000Z</time>
      </trkpt>
      <trkpt lat="44.00606" lon="7.19842">
        <ele>1276.8000488281</ele>
        <time>2014-05-04T10:05:36.000Z</time>
      </trkpt>
      <trkpt lat="44.00609" lon="7.19847">
        <ele>1277.4000244141</ele>
        <time>2014-05-04T10:05:42.000Z</time>
      </trkpt>
      <trkpt lat="44.00615" lon="7.19853">
        <ele>1278.1999511719</ele>
        <time>2014-05-04T10:05:51.000Z</time>
      </trkpt>
      <trkpt lat="44.00617" lon="7.19858">
        <ele>1279.1999511719</ele>
        <time>2014-05-04T10:05:56.000Z</time>
      </trkpt>
      <trkpt lat="44.00618" lon="7.1986">
        <ele>1279.5999755859</ele>
        <time>2014-05-04T10:05:58.000Z</time>
      </trkpt>
      <trkpt lat="44.00618" lon="7.19862">
        <ele>1280.4000244141</ele>
        <time>2014-05-04T10:06:00.000Z</time>
      </trkpt>
      <trkpt lat="44.00618" lon="7.19864">
        <ele>1281.1999511719</ele>
        <time>2014-05-04T10:06:03.000Z</time>
      </trkpt>
      <trkpt lat="44.0062" lon="7.19871">
        <ele>1283</ele>
        <time>2014-05-04T10:06:11.000Z</time>
      </trkpt>
      <trkpt lat="44.00624" lon="7.19876">
        <ele>1284</ele>
        <time>2014-05-04T10:06:19.000Z</time>
      </trkpt>
      <trkpt lat="44.00626" lon="7.19881">
        <ele>1285</ele>
        <time>2014-05-04T10:06:25.000Z</time>
      </trkpt>
      <trkpt lat="44.00629" lon="7.19886">
        <ele>1286.4000244141</ele>
        <time>2014-05-04T10:06:33.000Z</time>
      </trkpt>
      <trkpt lat="44.00632" lon="7.19892">
        <ele>1287.5999755859</ele>
        <time>2014-05-04T10:06:41.000Z</time>
      </trkpt>
      <trkpt lat="44.00636" lon="7.19898">
        <ele>1288.4000244141</ele>
        <time>2014-05-04T10:06:48.000Z</time>
      </trkpt>
      <trkpt lat="44.00641" lon="7.19904">
        <ele>1289.5999755859</ele>
        <time>2014-05-04T10:06:57.000Z</time>
      </trkpt>
      <trkpt lat="44.00641" lon="7.19908">
        <ele>1291</ele>
        <time>2014-05-04T10:07:02.000Z</time>
      </trkpt>
      <trkpt lat="44.00636" lon="7.1991">
        <ele>1292.5999755859</ele>
        <time>2014-05-04T10:07:08.000Z</time>
      </trkpt>
      <trkpt lat="44.00633" lon="7.19912">
        <ele>1294.1999511719</ele>
        <time>2014-05-04T10:07:13.000Z</time>
      </trkpt>
      <trkpt lat="44.00627" lon="7.19914">
        <ele>1296.1999511719</ele>
        <time>2014-05-04T10:07:21.000Z</time>
      </trkpt>
      <trkpt lat="44.00621" lon="7.19914">
        <ele>1297.4000244141</ele>
        <time>2014-05-04T10:07:29.000Z</time>
      </trkpt>
      <trkpt lat="44.00616" lon="7.19913">
        <ele>1298.4000244141</ele>
        <time>2014-05-04T10:07:36.000Z</time>
      </trkpt>
      <trkpt lat="44.00611" lon="7.19914">
        <ele>1300</ele>
        <time>2014-05-04T10:07:42.000Z</time>
      </trkpt>
      <trkpt lat="44.0061" lon="7.19914">
        <ele>1300.1999511719</ele>
        <time>2014-05-04T10:07:43.000Z</time>
      </trkpt>
      <trkpt lat="44.00607" lon="7.19913">
        <ele>1301.1999511719</ele>
        <time>2014-05-04T10:07:47.000Z</time>
      </trkpt>
      <trkpt lat="44.00605" lon="7.19914">
        <ele>1302</ele>
        <time>2014-05-04T10:07:50.000Z</time>
      </trkpt>
      <trkpt lat="44.00598" lon="7.19914">
        <ele>1305.1999511719</ele>
        <time>2014-05-04T10:07:59.000Z</time>
      </trkpt>
      <trkpt lat="44.00592" lon="7.19915">
        <ele>1308</ele>
        <time>2014-05-04T10:08:07.000Z</time>
      </trkpt>
      <trkpt lat="44.00586" lon="7.19916">
        <ele>1310.5999755859</ele>
        <time>2014-05-04T10:08:15.000Z</time>
      </trkpt>
      <trkpt lat="44.0058" lon="7.19918">
        <ele>1313.8000488281</ele>
        <time>2014-05-04T10:08:24.000Z</time>
      </trkpt>
      <trkpt lat="44.00577" lon="7.19922">
        <ele>1316.1999511719</ele>
        <time>2014-05-04T10:08:30.000Z</time>
      </trkpt>
      <trkpt lat="44.00574" lon="7.19926">
        <ele>1319</ele>
        <time>2014-05-04T10:08:38.000Z</time>
      </trkpt>
      <trkpt lat="44.00569" lon="7.19927">
        <ele>1321.5999755859</ele>
        <time>2014-05-04T10:08:45.000Z</time>
      </trkpt>
      <trkpt lat="44.00567" lon="7.19929">
        <ele>1322.5999755859</ele>
        <time>2014-05-04T10:08:50.000Z</time>
      </trkpt>
      <trkpt lat="44.00572" lon="7.19934">
        <ele>1322.4000244141</ele>
        <time>2014-05-04T10:08:57.000Z</time>
      </trkpt>
      <trkpt lat="44.00577" lon="7.1994">
        <ele>1322</ele>
        <time>2014-05-04T10:09:03.000Z</time>
      </trkpt>
      <trkpt lat="44.00575" lon="7.19941">
        <ele>1323.1999511719</ele>
        <time>2014-05-04T10:09:05.000Z</time>
      </trkpt>
      <trkpt lat="44.00573" lon="7.19942">
        <ele>1324.1999511719</ele>
        <time>2014-05-04T10:09:08.000Z</time>
      </trkpt>
      <trkpt lat="44.00571" lon="7.19943">
        <ele>1325.4000244141</ele>
        <time>2014-05-04T10:09:10.000Z</time>
      </trkpt>
      <trkpt lat="44.00571" lon="7.19944">
        <ele>1326</ele>
        <time>2014-05-04T10:09:12.000Z</time>
      </trkpt>
      <trkpt lat="44.00571" lon="7.19946">
        <ele>1326.4000244141</ele>
        <time>2014-05-04T10:09:14.000Z</time>
      </trkpt>
      <trkpt lat="44.00574" lon="7.19952">
        <ele>1326.8000488281</ele>
        <time>2014-05-04T10:09:21.000Z</time>
      </trkpt>
      <trkpt lat="44.00577" lon="7.19955">
        <ele>1326.5999755859</ele>
        <time>2014-05-04T10:09:26.000Z</time>
      </trkpt>
      <trkpt lat="44.00581" lon="7.19961">
        <ele>1326.8000488281</ele>
        <time>2014-05-04T10:09:33.000Z</time>
      </trkpt>
      <trkpt lat="44.00583" lon="7.19964">
        <ele>1327</ele>
        <time>2014-05-04T10:09:36.000Z</time>
      </trkpt>
      <trkpt lat="44.00586" lon="7.19966">
        <ele>1326.5999755859</ele>
        <time>2014-05-04T10:09:40.000Z</time>
      </trkpt>
      <trkpt lat="44.00586" lon="7.19967">
        <ele>1326.4000244141</ele>
        <time>2014-05-04T10:09:41.000Z</time>
      </trkpt>
      <trkpt lat="44.00591" lon="7.19973">
        <ele>1326.5999755859</ele>
        <time>2014-05-04T10:09:49.000Z</time>
      </trkpt>
      <trkpt lat="44.00595" lon="7.19978">
        <ele>1326.4000244141</ele>
        <time>2014-05-04T10:09:56.000Z</time>
      </trkpt>
      <trkpt lat="44.00597" lon="7.19981">
        <ele>1326.5999755859</ele>
        <time>2014-05-04T10:10:00.000Z</time>
      </trkpt>
      <trkpt lat="44.00599" lon="7.19983">
        <ele>1326.5999755859</ele>
        <time>2014-05-04T10:10:03.000Z</time>
      </trkpt>
      <trkpt lat="44.00598" lon="7.19988">
        <ele>1327.5999755859</ele>
        <time>2014-05-04T10:10:07.000Z</time>
      </trkpt>
      <trkpt lat="44.00598" lon="7.1999">
        <ele>1328.4000244141</ele>
        <time>2014-05-04T10:10:09.000Z</time>
      </trkpt>
      <trkpt lat="44.00594" lon="7.19989">
        <ele>1329.4000244141</ele>
        <time>2014-05-04T10:10:14.000Z</time>
      </trkpt>
      <trkpt lat="44.00589" lon="7.19989">
        <ele>1331.1999511719</ele>
        <time>2014-05-04T10:10:22.000Z</time>
      </trkpt>
      <trkpt lat="44.00585" lon="7.1999">
        <ele>1332.5999755859</ele>
        <time>2014-05-04T10:10:28.000Z</time>
      </trkpt>
      <trkpt lat="44.0058" lon="7.19993">
        <ele>1335</ele>
        <time>2014-05-04T10:10:36.000Z</time>
      </trkpt>
      <trkpt lat="44.00581" lon="7.19999">
        <ele>1335.8000488281</ele>
        <time>2014-05-04T10:10:42.000Z</time>
      </trkpt>
      <trkpt lat="44.00582" lon="7.20006">
        <ele>1336.4000244141</ele>
        <time>2014-05-04T10:10:49.000Z</time>
      </trkpt>
      <trkpt lat="44.00581" lon="7.20005">
        <ele>1336.8000488281</ele>
        <time>2014-05-04T10:10:50.000Z</time>
      </trkpt>
      <trkpt lat="44.00577" lon="7.20003">
        <ele>1337.5999755859</ele>
        <time>2014-05-04T10:10:54.000Z</time>
      </trkpt>
      <trkpt lat="44.00576" lon="7.20003">
        <ele>1338.1999511719</ele>
        <time>2014-05-04T10:10:56.000Z</time>
      </trkpt>
      <trkpt lat="44.00572" lon="7.20002">
        <ele>1339.4000244141</ele>
        <time>2014-05-04T10:11:00.000Z</time>
      </trkpt>
      <trkpt lat="44.00564" lon="7.20002">
        <ele>1342</ele>
        <time>2014-05-04T10:11:07.000Z</time>
      </trkpt>
      <trkpt lat="44.00564" lon="7.20002">
        <ele>1342.1999511719</ele>
        <time>2014-05-04T10:11:08.000Z</time>
      </trkpt>
      <trkpt lat="44.00563" lon="7.20002">
        <ele>1342.4000244141</ele>
        <time>2014-05-04T10:11:09.000Z</time>
      </trkpt>
      <trkpt lat="44.00559" lon="7.2">
        <ele>1343.4000244141</ele>
        <time>2014-05-04T10:11:13.000Z</time>
      </trkpt>
      <trkpt lat="44.00558" lon="7.20001">
        <ele>1343.8000488281</ele>
        <time>2014-05-04T10:11:14.000Z</time>
      </trkpt>
      <trkpt lat="44.0055" lon="7.19999">
        <ele>1346.1999511719</ele>
        <time>2014-05-04T10:11:22.000Z</time>
      </trkpt>
      <trkpt lat="44.00546" lon="7.19998">
        <ele>1347.5999755859</ele>
        <time>2014-05-04T10:11:26.000Z</time>
      </trkpt>
      <trkpt lat="44.00543" lon="7.19996">
        <ele>1348.1999511719</ele>
        <time>2014-05-04T10:11:30.000Z</time>
      </trkpt>
      <trkpt lat="44.00533" lon="7.19994">
        <ele>1351.1999511719</ele>
        <time>2014-05-04T10:11:39.000Z</time>
      </trkpt>
      <trkpt lat="44.00524" lon="7.19992">
        <ele>1353.8000488281</ele>
        <time>2014-05-04T10:11:48.000Z</time>
      </trkpt>
      <trkpt lat="44.00517" lon="7.19989">
        <ele>1356.1999511719</ele>
        <time>2014-05-04T10:11:56.000Z</time>
      </trkpt>
      <trkpt lat="44.00509" lon="7.19985">
        <ele>1358.5999755859</ele>
        <time>2014-05-04T10:12:04.000Z</time>
      </trkpt>
      <trkpt lat="44.00502" lon="7.1998">
        <ele>1360.1999511719</ele>
        <time>2014-05-04T10:12:12.000Z</time>
      </trkpt>
      <trkpt lat="44.00495" lon="7.19975">
        <ele>1362.1999511719</ele>
        <time>2014-05-04T10:12:20.000Z</time>
      </trkpt>
      <trkpt lat="44.00487" lon="7.19971">
        <ele>1364.4000244141</ele>
        <time>2014-05-04T10:12:28.000Z</time>
      </trkpt>
      <trkpt lat="44.00482" lon="7.19966">
        <ele>1365.4000244141</ele>
        <time>2014-05-04T10:12:35.000Z</time>
      </trkpt>
      <trkpt lat="44.00479" lon="7.19963">
        <ele>1366</ele>
        <time>2014-05-04T10:12:41.000Z</time>
      </trkpt>
      <trkpt lat="44.00477" lon="7.19961">
        <ele>1366.4000244141</ele>
        <time>2014-05-04T10:12:44.000Z</time>
      </trkpt>
      <trkpt lat="44.00475" lon="7.19958">
        <ele>1366.5999755859</ele>
        <time>2014-05-04T10:12:47.000Z</time>
      </trkpt>
      <trkpt lat="44.00474" lon="7.19957">
        <ele>1366.5999755859</ele>
        <time>2014-05-04T10:12:48.000Z</time>
      </trkpt>
      <trkpt lat="44.00471" lon="7.19954">
        <ele>1367.1999511719</ele>
        <time>2014-05-04T10:12:52.000Z</time>
      </trkpt>
      <trkpt lat="44.00469" lon="7.19949">
        <ele>1366.8000488281</ele>
        <time>2014-05-04T10:12:56.000Z</time>
      </trkpt>
      <trkpt lat="44.00469" lon="7.19947">
        <ele>1366.5999755859</ele>
        <time>2014-05-04T10:12:58.000Z</time>
      </trkpt>
      <trkpt lat="44.00466" lon="7.19938">
        <ele>1365.8000488281</ele>
        <time>2014-05-04T10:13:06.000Z</time>
      </trkpt>
      <trkpt lat="44.00462" lon="7.19928">
        <ele>1365</ele>
        <time>2014-05-04T10:13:16.000Z</time>
      </trkpt>
      <trkpt lat="44.00461" lon="7.19926">
        <ele>1365.1999511719</ele>
        <time>2014-05-04T10:13:19.000Z</time>
      </trkpt>
      <trkpt lat="44.00459" lon="7.19924">
        <ele>1365.5999755859</ele>
        <time>2014-05-04T10:13:22.000Z</time>
      </trkpt>
      <trkpt lat="44.00457" lon="7.19922">
        <ele>1366</ele>
        <time>2014-05-04T10:13:24.000Z</time>
      </trkpt>
      <trkpt lat="44.00454" lon="7.19919">
        <ele>1366.4000244141</ele>
        <time>2014-05-04T10:13:29.000Z</time>
      </trkpt>
      <trkpt lat="44.00454" lon="7.19918">
        <ele>1366.4000244141</ele>
        <time>2014-05-04T10:13:30.000Z</time>
      </trkpt>
      <trkpt lat="44.00451" lon="7.19914">
        <ele>1366.8000488281</ele>
        <time>2014-05-04T10:13:36.000Z</time>
      </trkpt>
      <trkpt lat="44.00445" lon="7.1991">
        <ele>1368.1999511719</ele>
        <time>2014-05-04T10:13:44.000Z</time>
      </trkpt>
      <trkpt lat="44.00437" lon="7.1991">
        <ele>1371.1999511719</ele>
        <time>2014-05-04T10:13:52.000Z</time>
      </trkpt>
      <trkpt lat="44.00427" lon="7.19907">
        <ele>1373.1999511719</ele>
        <time>2014-05-04T10:14:02.000Z</time>
      </trkpt>
      <trkpt lat="44.00423" lon="7.19908">
        <ele>1374.8000488281</ele>
        <time>2014-05-04T10:14:07.000Z</time>
      </trkpt>
      <trkpt lat="44.00424" lon="7.1991">
        <ele>1375</ele>
        <time>2014-05-04T10:14:09.000Z</time>
      </trkpt>
      <trkpt lat="44.00426" lon="7.19914">
        <ele>1375.4000244141</ele>
        <time>2014-05-04T10:14:14.000Z</time>
      </trkpt>
      <trkpt lat="44.00428" lon="7.19914">
        <ele>1375</ele>
        <time>2014-05-04T10:14:15.000Z</time>
      </trkpt>
      <trkpt lat="44.00436" lon="7.19919">
        <ele>1373.1999511719</ele>
        <time>2014-05-04T10:14:19.000Z</time>
      </trkpt>
      <trkpt lat="44.00441" lon="7.19923">
        <ele>1372.5999755859</ele>
        <time>2014-05-04T10:14:21.000Z</time>
      </trkpt>
      <trkpt lat="44.00449" lon="7.19937">
        <ele>1372.5999755859</ele>
        <time>2014-05-04T10:14:25.000Z</time>
      </trkpt>
      <trkpt lat="44.00457" lon="7.19962">
        <ele>1374.5999755859</ele>
        <time>2014-05-04T10:14:31.000Z</time>
      </trkpt>
      <trkpt lat="44.00468" lon="7.19991">
        <ele>1376.5999755859</ele>
        <time>2014-05-04T10:14:37.000Z</time>
      </trkpt>
      <trkpt lat="44.00482" lon="7.2001">
        <ele>1376.4000244141</ele>
        <time>2014-05-04T10:14:43.000Z</time>
      </trkpt>
      <trkpt lat="44.00498" lon="7.20023">
        <ele>1374.5999755859</ele>
        <time>2014-05-04T10:14:49.000Z</time>
      </trkpt>
      <trkpt lat="44.00509" lon="7.20033">
        <ele>1373.4000244141</ele>
        <time>2014-05-04T10:14:53.000Z</time>
      </trkpt>
      <trkpt lat="44.00525" lon="7.20049">
        <ele>1372.1999511719</ele>
        <time>2014-05-04T10:14:59.000Z</time>
      </trkpt>
      <trkpt lat="44.00536" lon="7.20066">
        <ele>1372.4000244141</ele>
        <time>2014-05-04T10:15:04.000Z</time>
      </trkpt>
      <trkpt lat="44.00542" lon="7.20083">
        <ele>1373</ele>
        <time>2014-05-04T10:15:08.000Z</time>
      </trkpt>
      <trkpt lat="44.00548" lon="7.2011">
        <ele>1371.8000488281</ele>
        <time>2014-05-04T10:15:13.000Z</time>
      </trkpt>
      <trkpt lat="44.00548" lon="7.20133">
        <ele>1375</ele>
        <time>2014-05-04T10:15:18.000Z</time>
      </trkpt>
      <trkpt lat="44.00543" lon="7.20157">
        <ele>1382.1999511719</ele>
        <time>2014-05-04T10:15:23.000Z</time>
      </trkpt>
      <trkpt lat="44.00542" lon="7.20189">
        <ele>1382</ele>
        <time>2014-05-04T10:15:29.000Z</time>
      </trkpt>
      <trkpt lat="44.00539" lon="7.20213">
        <ele>1383.8000488281</ele>
        <time>2014-05-04T10:15:34.000Z</time>
      </trkpt>
      <trkpt lat="44.00531" lon="7.20242">
        <ele>1388.5999755859</ele>
        <time>2014-05-04T10:15:41.000Z</time>
      </trkpt>
      <trkpt lat="44.00523" lon="7.20278">
        <ele>1393.5999755859</ele>
        <time>2014-05-04T10:15:48.000Z</time>
      </trkpt>
      <trkpt lat="44.00513" lon="7.2031">
        <ele>1400.1999511719</ele>
        <time>2014-05-04T10:15:54.000Z</time>
      </trkpt>
      <trkpt lat="44.00516" lon="7.20318">
        <ele>1398.5999755859</ele>
        <time>2014-05-04T10:15:55.000Z</time>
      </trkpt>
      <trkpt lat="44.00522" lon="7.20333">
        <ele>1394.5999755859</ele>
        <time>2014-05-04T10:15:57.000Z</time>
      </trkpt>
      <trkpt lat="44.00527" lon="7.20346">
        <ele>1391.4000244141</ele>
        <time>2014-05-04T10:15:59.000Z</time>
      </trkpt>
      <trkpt lat="44.00532" lon="7.20371">
        <ele>1389</ele>
        <time>2014-05-04T10:16:03.000Z</time>
      </trkpt>
      <trkpt lat="44.00533" lon="7.20378">
        <ele>1388.4000244141</ele>
        <time>2014-05-04T10:16:04.000Z</time>
      </trkpt>
      <trkpt lat="44.00536" lon="7.20403">
        <ele>1387.1999511719</ele>
        <time>2014-05-04T10:16:08.000Z</time>
      </trkpt>
      <trkpt lat="44.00539" lon="7.2042">
        <ele>1385.5999755859</ele>
        <time>2014-05-04T10:16:11.000Z</time>
      </trkpt>
      <trkpt lat="44.00533" lon="7.20437">
        <ele>1387.4000244141</ele>
        <time>2014-05-04T10:16:14.000Z</time>
      </trkpt>
      <trkpt lat="44.00531" lon="7.20456">
        <ele>1386</ele>
        <time>2014-05-04T10:16:17.000Z</time>
      </trkpt>
      <trkpt lat="44.0053" lon="7.20473">
        <ele>1384.1999511719</ele>
        <time>2014-05-04T10:16:20.000Z</time>
      </trkpt>
      <trkpt lat="44.0053" lon="7.20499">
        <ele>1380</ele>
        <time>2014-05-04T10:16:25.000Z</time>
      </trkpt>
      <trkpt lat="44.00529" lon="7.20505">
        <ele>1379.5999755859</ele>
        <time>2014-05-04T10:16:26.000Z</time>
      </trkpt>
      <trkpt lat="44.00528" lon="7.20528">
        <ele>1375.5999755859</ele>
        <time>2014-05-04T10:16:30.000Z</time>
      </trkpt>
      <trkpt lat="44.00519" lon="7.20554">
        <ele>1374.8000488281</ele>
        <time>2014-05-04T10:16:35.000Z</time>
      </trkpt>
      <trkpt lat="44.00511" lon="7.20567">
        <ele>1376.4000244141</ele>
        <time>2014-05-04T10:16:38.000Z</time>
      </trkpt>
      <trkpt lat="44.00503" lon="7.20575">
        <ele>1379.1999511719</ele>
        <time>2014-05-04T10:16:40.000Z</time>
      </trkpt>
      <trkpt lat="44.00494" lon="7.20581">
        <ele>1382.4000244141</ele>
        <time>2014-05-04T10:16:42.000Z</time>
      </trkpt>
      <trkpt lat="44.00479" lon="7.20589">
        <ele>1388</ele>
        <time>2014-05-04T10:16:45.000Z</time>
      </trkpt>
      <trkpt lat="44.0046" lon="7.2061">
        <ele>1392.8000488281</ele>
        <time>2014-05-04T10:16:50.000Z</time>
      </trkpt>
      <trkpt lat="44.00453" lon="7.20621">
        <ele>1393.5999755859</ele>
        <time>2014-05-04T10:16:54.000Z</time>
      </trkpt>
      <trkpt lat="44.00451" lon="7.20626">
        <ele>1393.5999755859</ele>
        <time>2014-05-04T10:16:55.000Z</time>
      </trkpt>
      <trkpt lat="44.00446" lon="7.2065">
        <ele>1389.8000488281</ele>
        <time>2014-05-04T10:17:01.000Z</time>
      </trkpt>
      <trkpt lat="44.00445" lon="7.20669">
        <ele>1386</ele>
        <time>2014-05-04T10:17:06.000Z</time>
      </trkpt>
      <trkpt lat="44.00436" lon="7.20683">
        <ele>1389.8000488281</ele>
        <time>2014-05-04T10:17:11.000Z</time>
      </trkpt>
      <trkpt lat="44.00423" lon="7.20702">
        <ele>1397</ele>
        <time>2014-05-04T10:17:18.000Z</time>
      </trkpt>
      <trkpt lat="44.00414" lon="7.20716">
        <ele>1401.5999755859</ele>
        <time>2014-05-04T10:17:23.000Z</time>
      </trkpt>
      <trkpt lat="44.00403" lon="7.20739">
        <ele>1403.8000488281</ele>
        <time>2014-05-04T10:17:30.000Z</time>
      </trkpt>
      <trkpt lat="44.00401" lon="7.2076">
        <ele>1406.5999755859</ele>
        <time>2014-05-04T10:17:35.000Z</time>
      </trkpt>
      <trkpt lat="44.00393" lon="7.20786">
        <ele>1415.1999511719</ele>
        <time>2014-05-04T10:17:41.000Z</time>
      </trkpt>
      <trkpt lat="44.00393" lon="7.20811">
        <ele>1417.8000488281</ele>
        <time>2014-05-04T10:17:47.000Z</time>
      </trkpt>
      <trkpt lat="44.00403" lon="7.20824">
        <ele>1412</ele>
        <time>2014-05-04T10:17:52.000Z</time>
      </trkpt>
      <trkpt lat="44.00419" lon="7.20838">
        <ele>1404.8000488281</ele>
        <time>2014-05-04T10:17:57.000Z</time>
      </trkpt>
      <trkpt lat="44.00431" lon="7.20858">
        <ele>1401.4000244141</ele>
        <time>2014-05-04T10:18:03.000Z</time>
      </trkpt>
      <trkpt lat="44.00442" lon="7.20877">
        <ele>1399.1999511719</ele>
        <time>2014-05-04T10:18:09.000Z</time>
      </trkpt>
      <trkpt lat="44.00443" lon="7.20902">
        <ele>1403.4000244141</ele>
        <time>2014-05-04T10:18:14.000Z</time>
      </trkpt>
      <trkpt lat="44.00441" lon="7.20934">
        <ele>1409.1999511719</ele>
        <time>2014-05-04T10:18:21.000Z</time>
      </trkpt>
      <trkpt lat="44.00437" lon="7.2096">
        <ele>1414.5999755859</ele>
        <time>2014-05-04T10:18:26.000Z</time>
      </trkpt>
      <trkpt lat="44.00431" lon="7.2099">
        <ele>1420.8000488281</ele>
        <time>2014-05-04T10:18:32.000Z</time>
      </trkpt>
      <trkpt lat="44.00429" lon="7.21019">
        <ele>1425.8000488281</ele>
        <time>2014-05-04T10:18:38.000Z</time>
      </trkpt>
      <trkpt lat="44.00431" lon="7.21029">
        <ele>1425.8000488281</ele>
        <time>2014-05-04T10:18:41.000Z</time>
      </trkpt>
      <trkpt lat="44.00434" lon="7.21032">
        <ele>1423.8000488281</ele>
        <time>2014-05-04T10:18:42.000Z</time>
      </trkpt>
      <trkpt lat="44.00448" lon="7.2105">
        <ele>1417.4000244141</ele>
        <time>2014-05-04T10:18:48.000Z</time>
      </trkpt>
      <trkpt lat="44.00471" lon="7.21069">
        <ele>1406</ele>
        <time>2014-05-04T10:18:56.000Z</time>
      </trkpt>
      <trkpt lat="44.00478" lon="7.21088">
        <ele>1403.1999511719</ele>
        <time>2014-05-04T10:19:01.000Z</time>
      </trkpt>
      <trkpt lat="44.00472" lon="7.21105">
        <ele>1407.4000244141</ele>
        <time>2014-05-04T10:19:05.000Z</time>
      </trkpt>
      <trkpt lat="44.0046" lon="7.21128">
        <ele>1415.8000488281</ele>
        <time>2014-05-04T10:19:10.000Z</time>
      </trkpt>
      <trkpt lat="44.00447" lon="7.21152">
        <ele>1424.8000488281</ele>
        <time>2014-05-04T10:19:15.000Z</time>
      </trkpt>
      <trkpt lat="44.00445" lon="7.21157">
        <ele>1426</ele>
        <time>2014-05-04T10:19:16.000Z</time>
      </trkpt>
      <trkpt lat="44.00443" lon="7.21162">
        <ele>1427.4000244141</ele>
        <time>2014-05-04T10:19:17.000Z</time>
      </trkpt>
      <trkpt lat="44.00439" lon="7.21182">
        <ele>1432.8000488281</ele>
        <time>2014-05-04T10:19:21.000Z</time>
      </trkpt>
      <trkpt lat="44.00445" lon="7.21201">
        <ele>1431.4000244141</ele>
        <time>2014-05-04T10:19:25.000Z</time>
      </trkpt>
      <trkpt lat="44.00448" lon="7.21217">
        <ele>1431.8000488281</ele>
        <time>2014-05-04T10:19:28.000Z</time>
      </trkpt>
      <trkpt lat="44.00449" lon="7.21223">
        <ele>1432.1999511719</ele>
        <time>2014-05-04T10:19:29.000Z</time>
      </trkpt>
      <trkpt lat="44.00451" lon="7.21247">
        <ele>1434.5999755859</ele>
        <time>2014-05-04T10:19:33.000Z</time>
      </trkpt>
      <trkpt lat="44.00452" lon="7.21254">
        <ele>1435.4000244141</ele>
        <time>2014-05-04T10:19:34.000Z</time>
      </trkpt>
      <trkpt lat="44.00454" lon="7.21257">
        <ele>1434.8000488281</ele>
        <time>2014-05-04T10:19:35.000Z</time>
      </trkpt>
      <trkpt lat="44.00461" lon="7.21263">
        <ele>1431.8000488281</ele>
        <time>2014-05-04T10:19:37.000Z</time>
      </trkpt>
      <trkpt lat="44.00475" lon="7.21269">
        <ele>1424.5999755859</ele>
        <time>2014-05-04T10:19:40.000Z</time>
      </trkpt>
      <trkpt lat="44.00483" lon="7.21272">
        <ele>1419.8000488281</ele>
        <time>2014-05-04T10:19:42.000Z</time>
      </trkpt>
      <trkpt lat="44.00497" lon="7.21285">
        <ele>1414</ele>
        <time>2014-05-04T10:19:47.000Z</time>
      </trkpt>
      <trkpt lat="44.00504" lon="7.21311">
        <ele>1414.5999755859</ele>
        <time>2014-05-04T10:19:52.000Z</time>
      </trkpt>
      <trkpt lat="44.00507" lon="7.21343">
        <ele>1420.1999511719</ele>
        <time>2014-05-04T10:19:58.000Z</time>
      </trkpt>
      <trkpt lat="44.00508" lon="7.21363">
        <ele>1424</ele>
        <time>2014-05-04T10:20:03.000Z</time>
      </trkpt>
      <trkpt lat="44.00506" lon="7.21366">
        <ele>1425.8000488281</ele>
        <time>2014-05-04T10:20:04.000Z</time>
      </trkpt>
      <trkpt lat="44.00504" lon="7.21375">
        <ele>1429.4000244141</ele>
        <time>2014-05-04T10:20:08.000Z</time>
      </trkpt>
      <trkpt lat="44.00501" lon="7.21388">
        <ele>1434.5999755859</ele>
        <time>2014-05-04T10:20:14.000Z</time>
      </trkpt>
      <trkpt lat="44.005" lon="7.21391">
        <ele>1436</ele>
        <time>2014-05-04T10:20:18.000Z</time>
      </trkpt>
      <trkpt lat="44.005" lon="7.21392">
        <ele>1436.1999511719</ele>
        <time>2014-05-04T10:20:19.000Z</time>
      </trkpt>
      <trkpt lat="44.00499" lon="7.21393">
        <ele>1437</ele>
        <time>2014-05-04T10:20:26.000Z</time>
      </trkpt>
      <trkpt lat="44.00501" lon="7.21397">
        <ele>1436.4000244141</ele>
        <time>2014-05-04T10:20:30.000Z</time>
      </trkpt>
      <trkpt lat="44.00501" lon="7.21399">
        <ele>1437</ele>
        <time>2014-05-04T10:20:31.000Z</time>
      </trkpt>
      <trkpt lat="44.00504" lon="7.21406">
        <ele>1437</ele>
        <time>2014-05-04T10:20:35.000Z</time>
      </trkpt>
      <trkpt lat="44.00505" lon="7.21409">
        <ele>1436.4000244141</ele>
        <time>2014-05-04T10:20:37.000Z</time>
      </trkpt>
      <trkpt lat="44.00507" lon="7.21413">
        <ele>1436</ele>
        <time>2014-05-04T10:20:40.000Z</time>
      </trkpt>
      <trkpt lat="44.00508" lon="7.21416">
        <ele>1436.5999755859</ele>
        <time>2014-05-04T10:20:42.000Z</time>
      </trkpt>
      <trkpt lat="44.00509" lon="7.2142">
        <ele>1437.1999511719</ele>
        <time>2014-05-04T10:20:45.000Z</time>
      </trkpt>
      <trkpt lat="44.00512" lon="7.21428">
        <ele>1438</ele>
        <time>2014-05-04T10:20:49.000Z</time>
      </trkpt>
      <trkpt lat="44.00516" lon="7.21429">
        <ele>1435.8000488281</ele>
        <time>2014-05-04T10:20:51.000Z</time>
      </trkpt>
      <trkpt lat="44.00519" lon="7.21429">
        <ele>1433.5999755859</ele>
        <time>2014-05-04T10:20:55.000Z</time>
      </trkpt>
      <trkpt lat="44.00519" lon="7.21428">
        <ele>1433.4000244141</ele>
        <time>2014-05-04T10:20:56.000Z</time>
      </trkpt>
      <trkpt lat="44.00521" lon="7.21428">
        <ele>1432.4000244141</ele>
        <time>2014-05-04T10:20:57.000Z</time>
      </trkpt>
      <trkpt lat="44.00525" lon="7.2143">
        <ele>1430.8000488281</ele>
        <time>2014-05-04T10:21:01.000Z</time>
      </trkpt>
      <trkpt lat="44.0053" lon="7.21438">
        <ele>1431</ele>
        <time>2014-05-04T10:21:08.000Z</time>
      </trkpt>
      <trkpt lat="44.0053" lon="7.21441">
        <ele>1431.8000488281</ele>
        <time>2014-05-04T10:21:13.000Z</time>
      </trkpt>
      <trkpt lat="44.00544" lon="7.21446">
        <ele>1428.5999755859</ele>
        <time>2014-05-04T10:21:26.000Z</time>
      </trkpt>
      <trkpt lat="44.00547" lon="7.21449">
        <ele>1428.1999511719</ele>
        <time>2014-05-04T10:21:30.000Z</time>
      </trkpt>
      <trkpt lat="44.00551" lon="7.2146">
        <ele>1430.1999511719</ele>
        <time>2014-05-04T10:21:37.000Z</time>
      </trkpt>
      <trkpt lat="44.00554" lon="7.21463">
        <ele>1430.1999511719</ele>
        <time>2014-05-04T10:21:42.000Z</time>
      </trkpt>
      <trkpt lat="44.00558" lon="7.21464">
        <ele>1429.1999511719</ele>
        <time>2014-05-04T10:21:46.000Z</time>
      </trkpt>
      <trkpt lat="44.00566" lon="7.21468">
        <ele>1427.5999755859</ele>
        <time>2014-05-04T10:21:54.000Z</time>
      </trkpt>
      <trkpt lat="44.00572" lon="7.2147">
        <ele>1426.1999511719</ele>
        <time>2014-05-04T10:21:59.000Z</time>
      </trkpt>
      <trkpt lat="44.00574" lon="7.21473">
        <ele>1426.1999511719</ele>
        <time>2014-05-04T10:22:02.000Z</time>
      </trkpt>
      <trkpt lat="44.00575" lon="7.21479">
        <ele>1427.5999755859</ele>
        <time>2014-05-04T10:22:07.000Z</time>
      </trkpt>
      <trkpt lat="44.00577" lon="7.21484">
        <ele>1428.4000244141</ele>
        <time>2014-05-04T10:22:12.000Z</time>
      </trkpt>
      <trkpt lat="44.00577" lon="7.2149">
        <ele>1430.4000244141</ele>
        <time>2014-05-04T10:22:18.000Z</time>
      </trkpt>
      <trkpt lat="44.00576" lon="7.21495">
        <ele>1432</ele>
        <time>2014-05-04T10:22:21.000Z</time>
      </trkpt>
      <trkpt lat="44.00579" lon="7.21499">
        <ele>1432.8000488281</ele>
        <time>2014-05-04T10:22:23.000Z</time>
      </trkpt>
      <trkpt lat="44.00581" lon="7.21503">
        <ele>1434</ele>
        <time>2014-05-04T10:22:25.000Z</time>
      </trkpt>
      <trkpt lat="44.00581" lon="7.21505">
        <ele>1434.8000488281</ele>
        <time>2014-05-04T10:22:26.000Z</time>
      </trkpt>
      <trkpt lat="44.00584" lon="7.2151">
        <ele>1436.4000244141</ele>
        <time>2014-05-04T10:22:29.000Z</time>
      </trkpt>
      <trkpt lat="44.00586" lon="7.21516">
        <ele>1438.4000244141</ele>
        <time>2014-05-04T10:22:32.000Z</time>
      </trkpt>
      <trkpt lat="44.00592" lon="7.21528">
        <ele>1441.5999755859</ele>
        <time>2014-05-04T10:22:37.000Z</time>
      </trkpt>
      <trkpt lat="44.00597" lon="7.21534">
        <ele>1442.8000488281</ele>
        <time>2014-05-04T10:22:41.000Z</time>
      </trkpt>
      <trkpt lat="44.00599" lon="7.21539">
        <ele>1444.1999511719</ele>
        <time>2014-05-04T10:22:43.000Z</time>
      </trkpt>
      <trkpt lat="44.00606" lon="7.21549">
        <ele>1446.5999755859</ele>
        <time>2014-05-04T10:22:49.000Z</time>
      </trkpt>
      <trkpt lat="44.00609" lon="7.2156">
        <ele>1450.4000244141</ele>
        <time>2014-05-04T10:22:54.000Z</time>
      </trkpt>
      <trkpt lat="44.00614" lon="7.21579">
        <ele>1456</ele>
        <time>2014-05-04T10:23:00.000Z</time>
      </trkpt>
      <trkpt lat="44.00624" lon="7.21593">
        <ele>1454.8000488281</ele>
        <time>2014-05-04T10:23:04.000Z</time>
      </trkpt>
      <trkpt lat="44.0063" lon="7.21605">
        <ele>1455.1999511719</ele>
        <time>2014-05-04T10:23:08.000Z</time>
      </trkpt>
      <trkpt lat="44.00632" lon="7.21607">
        <ele>1454.8000488281</ele>
        <time>2014-05-04T10:23:09.000Z</time>
      </trkpt>
      <trkpt lat="44.00636" lon="7.21618">
        <ele>1456.8000488281</ele>
        <time>2014-05-04T10:23:12.000Z</time>
      </trkpt>
      <trkpt lat="44.00638" lon="7.21635">
        <ele>1462.1999511719</ele>
        <time>2014-05-04T10:23:16.000Z</time>
      </trkpt>
      <trkpt lat="44.00649" lon="7.2166">
        <ele>1464.5999755859</ele>
        <time>2014-05-04T10:23:23.000Z</time>
      </trkpt>
      <trkpt lat="44.0066" lon="7.21672">
        <ele>1462.1999511719</ele>
        <time>2014-05-04T10:23:27.000Z</time>
      </trkpt>
      <trkpt lat="44.00661" lon="7.21675">
        <ele>1462.1999511719</ele>
        <time>2014-05-04T10:23:28.000Z</time>
      </trkpt>
      <trkpt lat="44.00672" lon="7.21692">
        <ele>1461.1999511719</ele>
        <time>2014-05-04T10:23:33.000Z</time>
      </trkpt>
      <trkpt lat="44.00679" lon="7.2171">
        <ele>1462.4000244141</ele>
        <time>2014-05-04T10:23:38.000Z</time>
      </trkpt>
      <trkpt lat="44.00687" lon="7.21729">
        <ele>1463.4000244141</ele>
        <time>2014-05-04T10:23:43.000Z</time>
      </trkpt>
      <trkpt lat="44.00699" lon="7.21742">
        <ele>1464.8000488281</ele>
        <time>2014-05-04T10:23:48.000Z</time>
      </trkpt>
      <trkpt lat="44.00708" lon="7.21749">
        <ele>1467.1999511719</ele>
        <time>2014-05-04T10:23:53.000Z</time>
      </trkpt>
      <trkpt lat="44.00711" lon="7.21751">
        <ele>1467.8000488281</ele>
        <time>2014-05-04T10:23:58.000Z</time>
      </trkpt>
      <trkpt lat="44.00715" lon="7.2176">
        <ele>1470.4000244141</ele>
        <time>2014-05-04T10:24:12.000Z</time>
      </trkpt>
      <trkpt lat="44.00717" lon="7.21762">
        <ele>1471</ele>
        <time>2014-05-04T10:24:16.000Z</time>
      </trkpt>
      <trkpt lat="44.00717" lon="7.21763">
        <ele>1471.4000244141</ele>
        <time>2014-05-04T10:24:17.000Z</time>
      </trkpt>
      <trkpt lat="44.00717" lon="7.21766">
        <ele>1472.1999511719</ele>
        <time>2014-05-04T10:24:20.000Z</time>
      </trkpt>
      <trkpt lat="44.00717" lon="7.2177">
        <ele>1473.4000244141</ele>
        <time>2014-05-04T10:24:26.000Z</time>
      </trkpt>
      <trkpt lat="44.00718" lon="7.21775">
        <ele>1475.1999511719</ele>
        <time>2014-05-04T10:24:32.000Z</time>
      </trkpt>
      <trkpt lat="44.0072" lon="7.21773">
        <ele>1474.4000244141</ele>
        <time>2014-05-04T10:24:35.000Z</time>
      </trkpt>
      <trkpt lat="44.00721" lon="7.21772">
        <ele>1474</ele>
        <time>2014-05-04T10:24:37.000Z</time>
      </trkpt>
      <trkpt lat="44.00722" lon="7.21768">
        <ele>1472.8000488281</ele>
        <time>2014-05-04T10:24:40.000Z</time>
      </trkpt>
      <trkpt lat="44.00723" lon="7.21766">
        <ele>1472.1999511719</ele>
        <time>2014-05-04T10:24:42.000Z</time>
      </trkpt>
      <trkpt lat="44.00727" lon="7.21758">
        <ele>1469.8000488281</ele>
        <time>2014-05-04T10:24:49.000Z</time>
      </trkpt>
      <trkpt lat="44.00729" lon="7.21754">
        <ele>1468.5999755859</ele>
        <time>2014-05-04T10:24:55.000Z</time>
      </trkpt>
      <trkpt lat="44.00732" lon="7.21752">
        <ele>1468</ele>
        <time>2014-05-04T10:24:59.000Z</time>
      </trkpt>
      <trkpt lat="44.00736" lon="7.21749">
        <ele>1467.1999511719</ele>
        <time>2014-05-04T10:25:06.000Z</time>
      </trkpt>
      <trkpt lat="44.00737" lon="7.21751">
        <ele>1467.5999755859</ele>
        <time>2014-05-04T10:25:13.000Z</time>
      </trkpt>
      <trkpt lat="44.0074" lon="7.21747">
        <ele>1466.4000244141</ele>
        <time>2014-05-04T10:25:19.000Z</time>
      </trkpt>
      <trkpt lat="44.00739" lon="7.21744">
        <ele>1465.4000244141</ele>
        <time>2014-05-04T10:25:21.000Z</time>
      </trkpt>
      <trkpt lat="44.0074" lon="7.2174">
        <ele>1464</ele>
        <time>2014-05-04T10:25:25.000Z</time>
      </trkpt>
      <trkpt lat="44.00742" lon="7.21736">
        <ele>1462.8000488281</ele>
        <time>2014-05-04T10:25:31.000Z</time>
      </trkpt>
      <trkpt lat="44.00751" lon="7.21731">
        <ele>1461.4000244141</ele>
        <time>2014-05-04T10:25:40.000Z</time>
      </trkpt>
      <trkpt lat="44.00756" lon="7.2173">
        <ele>1461</ele>
        <time>2014-05-04T10:25:46.000Z</time>
      </trkpt>
      <trkpt lat="44.00757" lon="7.21729">
        <ele>1460.4000244141</ele>
        <time>2014-05-04T10:25:47.000Z</time>
      </trkpt>
      <trkpt lat="44.00759" lon="7.21725">
        <ele>1459.1999511719</ele>
        <time>2014-05-04T10:25:50.000Z</time>
      </trkpt>
      <trkpt lat="44.00759" lon="7.21724">
        <ele>1458.8000488281</ele>
        <time>2014-05-04T10:25:51.000Z</time>
      </trkpt>
      <trkpt lat="44.00759" lon="7.2172">
        <ele>1457.5999755859</ele>
        <time>2014-05-04T10:25:54.000Z</time>
      </trkpt>
      <trkpt lat="44.00759" lon="7.21718">
        <ele>1456.8000488281</ele>
        <time>2014-05-04T10:25:56.000Z</time>
      </trkpt>
      <trkpt lat="44.00761" lon="7.21709">
        <ele>1453.5999755859</ele>
        <time>2014-05-04T10:26:06.000Z</time>
      </trkpt>
      <trkpt lat="44.00765" lon="7.21704">
        <ele>1452</ele>
        <time>2014-05-04T10:26:12.000Z</time>
      </trkpt>
      <trkpt lat="44.0077" lon="7.21699">
        <ele>1450.4000244141</ele>
        <time>2014-05-04T10:26:19.000Z</time>
      </trkpt>
      <trkpt lat="44.00772" lon="7.21697">
        <ele>1450</ele>
        <time>2014-05-04T10:26:23.000Z</time>
      </trkpt>
      <trkpt lat="44.00773" lon="7.21698">
        <ele>1450</ele>
        <time>2014-05-04T10:26:24.000Z</time>
      </trkpt>
      <trkpt lat="44.00778" lon="7.21698">
        <ele>1451</ele>
        <time>2014-05-04T10:26:31.000Z</time>
      </trkpt>
      <trkpt lat="44.00783" lon="7.21697">
        <ele>1453</ele>
        <time>2014-05-04T10:26:39.000Z</time>
      </trkpt>
      <trkpt lat="44.00786" lon="7.21697">
        <ele>1453.8000488281</ele>
        <time>2014-05-04T10:26:41.000Z</time>
      </trkpt>
      <trkpt lat="44.00788" lon="7.21696">
        <ele>1454.4000244141</ele>
        <time>2014-05-04T10:26:44.000Z</time>
      </trkpt>
      <trkpt lat="44.0079" lon="7.21696">
        <ele>1455.1999511719</ele>
        <time>2014-05-04T10:26:46.000Z</time>
      </trkpt>
      <trkpt lat="44.00792" lon="7.21696">
        <ele>1455.8000488281</ele>
        <time>2014-05-04T10:26:48.000Z</time>
      </trkpt>
      <trkpt lat="44.00794" lon="7.21696">
        <ele>1457</ele>
        <time>2014-05-04T10:26:51.000Z</time>
      </trkpt>
      <trkpt lat="44.00799" lon="7.21698">
        <ele>1459.1999511719</ele>
        <time>2014-05-04T10:26:56.000Z</time>
      </trkpt>
      <trkpt lat="44.00803" lon="7.217">
        <ele>1461.8000488281</ele>
        <time>2014-05-04T10:27:01.000Z</time>
      </trkpt>
      <trkpt lat="44.00807" lon="7.21697">
        <ele>1462</ele>
        <time>2014-05-04T10:27:05.000Z</time>
      </trkpt>
      <trkpt lat="44.00809" lon="7.21696">
        <ele>1462.1999511719</ele>
        <time>2014-05-04T10:27:07.000Z</time>
      </trkpt>
      <trkpt lat="44.00811" lon="7.21695">
        <ele>1462.8000488281</ele>
        <time>2014-05-04T10:27:11.000Z</time>
      </trkpt>
      <trkpt lat="44.00814" lon="7.21693">
        <ele>1463</ele>
        <time>2014-05-04T10:27:15.000Z</time>
      </trkpt>
      <trkpt lat="44.00816" lon="7.21689">
        <ele>1462.1999511719</ele>
        <time>2014-05-04T10:27:18.000Z</time>
      </trkpt>
      <trkpt lat="44.00817" lon="7.21686">
        <ele>1461.5999755859</ele>
        <time>2014-05-04T10:27:21.000Z</time>
      </trkpt>
      <trkpt lat="44.00817" lon="7.21682">
        <ele>1459.8000488281</ele>
        <time>2014-05-04T10:27:23.000Z</time>
      </trkpt>
      <trkpt lat="44.00817" lon="7.21679">
        <ele>1458.8000488281</ele>
        <time>2014-05-04T10:27:24.000Z</time>
      </trkpt>
      <trkpt lat="44.00816" lon="7.21672">
        <ele>1455.8000488281</ele>
        <time>2014-05-04T10:27:29.000Z</time>
      </trkpt>
      <trkpt lat="44.00816" lon="7.21661">
        <ele>1451.4000244141</ele>
        <time>2014-05-04T10:27:36.000Z</time>
      </trkpt>
      <trkpt lat="44.00818" lon="7.21656">
        <ele>1448.8000488281</ele>
        <time>2014-05-04T10:27:41.000Z</time>
      </trkpt>
      <trkpt lat="44.0082" lon="7.21653">
        <ele>1448.1999511719</ele>
        <time>2014-05-04T10:27:43.000Z</time>
      </trkpt>
      <trkpt lat="44.00825" lon="7.21652">
        <ele>1448.8000488281</ele>
        <time>2014-05-04T10:27:46.000Z</time>
      </trkpt>
      <trkpt lat="44.00827" lon="7.2165">
        <ele>1448.1999511719</ele>
        <time>2014-05-04T10:27:48.000Z</time>
      </trkpt>
      <trkpt lat="44.00834" lon="7.2165">
        <ele>1450.4000244141</ele>
        <time>2014-05-04T10:27:52.000Z</time>
      </trkpt>
      <trkpt lat="44.00839" lon="7.2165">
        <ele>1452</ele>
        <time>2014-05-04T10:27:56.000Z</time>
      </trkpt>
      <trkpt lat="44.0084" lon="7.2165">
        <ele>1452.8000488281</ele>
        <time>2014-05-04T10:27:57.000Z</time>
      </trkpt>
      <trkpt lat="44.00845" lon="7.21649">
        <ele>1454</ele>
        <time>2014-05-04T10:27:59.000Z</time>
      </trkpt>
      <trkpt lat="44.00845" lon="7.21651">
        <ele>1455.5999755859</ele>
        <time>2014-05-04T10:28:01.000Z</time>
      </trkpt>
      <trkpt lat="44.00847" lon="7.21653">
        <ele>1457</ele>
        <time>2014-05-04T10:28:03.000Z</time>
      </trkpt>
      <trkpt lat="44.0085" lon="7.21651">
        <ele>1457.8000488281</ele>
        <time>2014-05-04T10:28:06.000Z</time>
      </trkpt>
      <trkpt lat="44.00855" lon="7.21648">
        <ele>1459.4000244141</ele>
        <time>2014-05-04T10:28:10.000Z</time>
      </trkpt>
      <trkpt lat="44.00856" lon="7.21647">
        <ele>1459.4000244141</ele>
        <time>2014-05-04T10:28:11.000Z</time>
      </trkpt>
      <trkpt lat="44.00858" lon="7.2164">
        <ele>1458.4000244141</ele>
        <time>2014-05-04T10:28:17.000Z</time>
      </trkpt>
      <trkpt lat="44.00859" lon="7.21638">
        <ele>1458</ele>
        <time>2014-05-04T10:28:18.000Z</time>
      </trkpt>
      <trkpt lat="44.00861" lon="7.21634">
        <ele>1457.1999511719</ele>
        <time>2014-05-04T10:28:21.000Z</time>
      </trkpt>
      <trkpt lat="44.00863" lon="7.21634">
        <ele>1458</ele>
        <time>2014-05-04T10:28:22.000Z</time>
      </trkpt>
      <trkpt lat="44.00869" lon="7.21631">
        <ele>1459.4000244141</ele>
        <time>2014-05-04T10:28:27.000Z</time>
      </trkpt>
      <trkpt lat="44.00871" lon="7.21633">
        <ele>1461</ele>
        <time>2014-05-04T10:28:33.000Z</time>
      </trkpt>
      <trkpt lat="44.00877" lon="7.21633">
        <ele>1463.4000244141</ele>
        <time>2014-05-04T10:28:36.000Z</time>
      </trkpt>
      <trkpt lat="44.00883" lon="7.2163">
        <ele>1465</ele>
        <time>2014-05-04T10:28:41.000Z</time>
      </trkpt>
      <trkpt lat="44.00885" lon="7.21631">
        <ele>1466</ele>
        <time>2014-05-04T10:28:42.000Z</time>
      </trkpt>
      <trkpt lat="44.00887" lon="7.21632">
        <ele>1467.1999511719</ele>
        <time>2014-05-04T10:28:45.000Z</time>
      </trkpt>
      <trkpt lat="44.0089" lon="7.21633">
        <ele>1468.8000488281</ele>
        <time>2014-05-04T10:28:48.000Z</time>
      </trkpt>
      <trkpt lat="44.00891" lon="7.21633">
        <ele>1469.1999511719</ele>
        <time>2014-05-04T10:28:49.000Z</time>
      </trkpt>
      <trkpt lat="44.00896" lon="7.21633">
        <ele>1471.1999511719</ele>
        <time>2014-05-04T10:28:54.000Z</time>
      </trkpt>
      <trkpt lat="44.00901" lon="7.21631">
        <ele>1472.4000244141</ele>
        <time>2014-05-04T10:29:00.000Z</time>
      </trkpt>
      <trkpt lat="44.00904" lon="7.21635">
        <ele>1475.1999511719</ele>
        <time>2014-05-04T10:29:05.000Z</time>
      </trkpt>
      <trkpt lat="44.00908" lon="7.21637">
        <ele>1477.5999755859</ele>
        <time>2014-05-04T10:29:10.000Z</time>
      </trkpt>
      <trkpt lat="44.00911" lon="7.21635">
        <ele>1478.1999511719</ele>
        <time>2014-05-04T10:29:12.000Z</time>
      </trkpt>
      <trkpt lat="44.00918" lon="7.21632">
        <ele>1479.5999755859</ele>
        <time>2014-05-04T10:29:15.000Z</time>
      </trkpt>
      <trkpt lat="44.00922" lon="7.21631">
        <ele>1480.8000488281</ele>
        <time>2014-05-04T10:29:19.000Z</time>
      </trkpt>
      <trkpt lat="44.00924" lon="7.2163">
        <ele>1480.8000488281</ele>
        <time>2014-05-04T10:29:20.000Z</time>
      </trkpt>
      <trkpt lat="44.00931" lon="7.21637">
        <ele>1486.5999755859</ele>
        <time>2014-05-04T10:29:26.000Z</time>
      </trkpt>
      <trkpt lat="44.00933" lon="7.21637">
        <ele>1487.1999511719</ele>
        <time>2014-05-04T10:29:27.000Z</time>
      </trkpt>
      <trkpt lat="44.00936" lon="7.21636">
        <ele>1488.1999511719</ele>
        <time>2014-05-04T10:29:29.000Z</time>
      </trkpt>
      <trkpt lat="44.0094" lon="7.21635">
        <ele>1489.4000244141</ele>
        <time>2014-05-04T10:29:32.000Z</time>
      </trkpt>
      <trkpt lat="44.00943" lon="7.21637">
        <ele>1491</ele>
        <time>2014-05-04T10:29:36.000Z</time>
      </trkpt>
      <trkpt lat="44.00946" lon="7.21639">
        <ele>1492</ele>
        <time>2014-05-04T10:29:39.000Z</time>
      </trkpt>
      <trkpt lat="44.00947" lon="7.21639">
        <ele>1492.1999511719</ele>
        <time>2014-05-04T10:29:40.000Z</time>
      </trkpt>
      <trkpt lat="44.00955" lon="7.21646">
        <ele>1495.8000488281</ele>
        <time>2014-05-04T10:29:48.000Z</time>
      </trkpt>
      <trkpt lat="44.00965" lon="7.21652">
        <ele>1499.1999511719</ele>
        <time>2014-05-04T10:29:58.000Z</time>
      </trkpt>
      <trkpt lat="44.00967" lon="7.21653">
        <ele>1499.8000488281</ele>
        <time>2014-05-04T10:30:04.000Z</time>
      </trkpt>
      <trkpt lat="44.0097" lon="7.21655">
        <ele>1500.8000488281</ele>
        <time>2014-05-04T10:30:11.000Z</time>
      </trkpt>
      <trkpt lat="44.00972" lon="7.21657">
        <ele>1501.8000488281</ele>
        <time>2014-05-04T10:30:15.000Z</time>
      </trkpt>
      <trkpt lat="44.00974" lon="7.21659">
        <ele>1502.8000488281</ele>
        <time>2014-05-04T10:30:21.000Z</time>
      </trkpt>
      <trkpt lat="44.00976" lon="7.21658">
        <ele>1502.5999755859</ele>
        <time>2014-05-04T10:30:24.000Z</time>
      </trkpt>
      <trkpt lat="44.00977" lon="7.21657">
        <ele>1502.5999755859</ele>
        <time>2014-05-04T10:30:25.000Z</time>
      </trkpt>
      <trkpt lat="44.0098" lon="7.21657">
        <ele>1502.8000488281</ele>
        <time>2014-05-04T10:30:28.000Z</time>
      </trkpt>
      <trkpt lat="44.00982" lon="7.21658">
        <ele>1503.1999511719</ele>
        <time>2014-05-04T10:30:30.000Z</time>
      </trkpt>
      <trkpt lat="44.00982" lon="7.21659">
        <ele>1503.8000488281</ele>
        <time>2014-05-04T10:30:31.000Z</time>
      </trkpt>
      <trkpt lat="44.00985" lon="7.21662">
        <ele>1505.1999511719</ele>
        <time>2014-05-04T10:30:35.000Z</time>
      </trkpt>
      <trkpt lat="44.0099" lon="7.21665">
        <ele>1507</ele>
        <time>2014-05-04T10:30:41.000Z</time>
      </trkpt>
      <trkpt lat="44.00995" lon="7.21665">
        <ele>1507.5999755859</ele>
        <time>2014-05-04T10:30:46.000Z</time>
      </trkpt>
      <trkpt lat="44.00998" lon="7.21667">
        <ele>1508.5999755859</ele>
        <time>2014-05-04T10:30:53.000Z</time>
      </trkpt>
      <trkpt lat="44.01003" lon="7.21667">
        <ele>1509.1999511719</ele>
        <time>2014-05-04T10:30:57.000Z</time>
      </trkpt>
      <trkpt lat="44.01007" lon="7.21666">
        <ele>1509</ele>
        <time>2014-05-04T10:31:01.000Z</time>
      </trkpt>
      <trkpt lat="44.0101" lon="7.21668">
        <ele>1510.1999511719</ele>
        <time>2014-05-04T10:31:04.000Z</time>
      </trkpt>
      <trkpt lat="44.01011" lon="7.21668">
        <ele>1510.4000244141</ele>
        <time>2014-05-04T10:31:05.000Z</time>
      </trkpt>
      <trkpt lat="44.01015" lon="7.21669">
        <ele>1511.1999511719</ele>
        <time>2014-05-04T10:31:08.000Z</time>
      </trkpt>
      <trkpt lat="44.01016" lon="7.21668">
        <ele>1511.1999511719</ele>
        <time>2014-05-04T10:31:09.000Z</time>
      </trkpt>
      <trkpt lat="44.0102" lon="7.21672">
        <ele>1513</ele>
        <time>2014-05-04T10:31:12.000Z</time>
      </trkpt>
      <trkpt lat="44.01023" lon="7.21675">
        <ele>1514.8000488281</ele>
        <time>2014-05-04T10:31:17.000Z</time>
      </trkpt>
      <trkpt lat="44.01025" lon="7.21676">
        <ele>1515.4000244141</ele>
        <time>2014-05-04T10:31:18.000Z</time>
      </trkpt>
      <trkpt lat="44.01025" lon="7.21676">
        <ele>1515.1999511719</ele>
        <time>2014-05-04T10:31:21.000Z</time>
      </trkpt>
      <trkpt lat="44.01028" lon="7.21674">
        <ele>1515</ele>
        <time>2014-05-04T10:31:24.000Z</time>
      </trkpt>
      <trkpt lat="44.01033" lon="7.21671">
        <ele>1514.5999755859</ele>
        <time>2014-05-04T10:31:27.000Z</time>
      </trkpt>
      <trkpt lat="44.01042" lon="7.21664">
        <ele>1514</ele>
        <time>2014-05-04T10:31:32.000Z</time>
      </trkpt>
      <trkpt lat="44.01049" lon="7.21644">
        <ele>1509.1999511719</ele>
        <time>2014-05-04T10:31:36.000Z</time>
      </trkpt>
      <trkpt lat="44.01057" lon="7.21609">
        <ele>1499.1999511719</ele>
        <time>2014-05-04T10:31:40.000Z</time>
      </trkpt>
      <trkpt lat="44.01058" lon="7.21588">
        <ele>1495.4000244141</ele>
        <time>2014-05-04T10:31:42.000Z</time>
      </trkpt>
      <trkpt lat="44.01057" lon="7.21577">
        <ele>1492.8000488281</ele>
        <time>2014-05-04T10:31:43.000Z</time>
      </trkpt>
      <trkpt lat="44.01057" lon="7.21566">
        <ele>1489.4000244141</ele>
        <time>2014-05-04T10:31:44.000Z</time>
      </trkpt>
      <trkpt lat="44.01058" lon="7.21556">
        <ele>1486.5999755859</ele>
        <time>2014-05-04T10:31:45.000Z</time>
      </trkpt>
      <trkpt lat="44.01066" lon="7.21527">
        <ele>1481.8000488281</ele>
        <time>2014-05-04T10:31:48.000Z</time>
      </trkpt>
      <trkpt lat="44.01069" lon="7.2149">
        <ele>1475.4000244141</ele>
        <time>2014-05-04T10:31:52.000Z</time>
      </trkpt>
      <trkpt lat="44.01052" lon="7.21457">
        <ele>1460</ele>
        <time>2014-05-04T10:31:55.000Z</time>
      </trkpt>
      <trkpt lat="44.01046" lon="7.21433">
        <ele>1452.4000244141</ele>
        <time>2014-05-04T10:31:58.000Z</time>
      </trkpt>
      <trkpt lat="44.01064" lon="7.21418">
        <ele>1458.4000244141</ele>
        <time>2014-05-04T10:32:01.000Z</time>
      </trkpt>
      <trkpt lat="44.01089" lon="7.21415">
        <ele>1470.1999511719</ele>
        <time>2014-05-04T10:32:04.000Z</time>
      </trkpt>
      <trkpt lat="44.01127" lon="7.21398">
        <ele>1481.8000488281</ele>
        <time>2014-05-04T10:32:08.000Z</time>
      </trkpt>
      <trkpt lat="44.01134" lon="7.21391">
        <ele>1482.1999511719</ele>
        <time>2014-05-04T10:32:09.000Z</time>
      </trkpt>
      <trkpt lat="44.01142" lon="7.21368">
        <ele>1476.1999511719</ele>
        <time>2014-05-04T10:32:11.000Z</time>
      </trkpt>
      <trkpt lat="44.01144" lon="7.21345">
        <ele>1468.4000244141</ele>
        <time>2014-05-04T10:32:13.000Z</time>
      </trkpt>
      <trkpt lat="44.01147" lon="7.21334">
        <ele>1466.5999755859</ele>
        <time>2014-05-04T10:32:14.000Z</time>
      </trkpt>
      <trkpt lat="44.0116" lon="7.21305">
        <ele>1461.5999755859</ele>
        <time>2014-05-04T10:32:17.000Z</time>
      </trkpt>
      <trkpt lat="44.01164" lon="7.21287">
        <ele>1456.5999755859</ele>
        <time>2014-05-04T10:32:19.000Z</time>
      </trkpt>
      <trkpt lat="44.01155" lon="7.21253">
        <ele>1439.4000244141</ele>
        <time>2014-05-04T10:32:22.000Z</time>
      </trkpt>
      <trkpt lat="44.01162" lon="7.21234">
        <ele>1438.5999755859</ele>
        <time>2014-05-04T10:32:25.000Z</time>
      </trkpt>
      <trkpt lat="44.01182" lon="7.21224">
        <ele>1445.4000244141</ele>
        <time>2014-05-04T10:32:28.000Z</time>
      </trkpt>
      <trkpt lat="44.01212" lon="7.21204">
        <ele>1449.1999511719</ele>
        <time>2014-05-04T10:32:32.000Z</time>
      </trkpt>
      <trkpt lat="44.01217" lon="7.21195">
        <ele>1448.4000244141</ele>
        <time>2014-05-04T10:32:33.000Z</time>
      </trkpt>
      <trkpt lat="44.01234" lon="7.21169">
        <ele>1443.4000244141</ele>
        <time>2014-05-04T10:32:36.000Z</time>
      </trkpt>
      <trkpt lat="44.01266" lon="7.21138">
        <ele>1441.8000488281</ele>
        <time>2014-05-04T10:32:41.000Z</time>
      </trkpt>
      <trkpt lat="44.01285" lon="7.21123">
        <ele>1440.4000244141</ele>
        <time>2014-05-04T10:32:44.000Z</time>
      </trkpt>
      <trkpt lat="44.01298" lon="7.21107">
        <ele>1436.8000488281</ele>
        <time>2014-05-04T10:32:46.000Z</time>
      </trkpt>
      <trkpt lat="44.01326" lon="7.21066">
        <ele>1432.8000488281</ele>
        <time>2014-05-04T10:32:50.000Z</time>
      </trkpt>
      <trkpt lat="44.01349" lon="7.2103">
        <ele>1432</ele>
        <time>2014-05-04T10:32:54.000Z</time>
      </trkpt>
      <trkpt lat="44.01352" lon="7.20995">
        <ele>1421.5999755859</ele>
        <time>2014-05-04T10:32:57.000Z</time>
      </trkpt>
      <trkpt lat="44.01368" lon="7.20982">
        <ele>1424.5999755859</ele>
        <time>2014-05-04T10:33:00.000Z</time>
      </trkpt>
      <trkpt lat="44.01391" lon="7.20997">
        <ele>1425.1999511719</ele>
        <time>2014-05-04T10:33:03.000Z</time>
      </trkpt>
      <trkpt lat="44.01404" lon="7.21037">
        <ele>1430.4000244141</ele>
        <time>2014-05-04T10:33:06.000Z</time>
      </trkpt>
      <trkpt lat="44.01412" lon="7.21059">
        <ele>1435.5999755859</ele>
        <time>2014-05-04T10:33:08.000Z</time>
      </trkpt>
      <trkpt lat="44.01416" lon="7.21086">
        <ele>1442.4000244141</ele>
        <time>2014-05-04T10:33:10.000Z</time>
      </trkpt>
      <trkpt lat="44.01427" lon="7.21129">
        <ele>1447.4000244141</ele>
        <time>2014-05-04T10:33:15.000Z</time>
      </trkpt>
      <trkpt lat="44.01431" lon="7.21135">
        <ele>1447.8000488281</ele>
        <time>2014-05-04T10:33:16.000Z</time>
      </trkpt>
      <trkpt lat="44.01433" lon="7.21136">
        <ele>1447.4000244141</ele>
        <time>2014-05-04T10:33:19.000Z</time>
      </trkpt>
      <trkpt lat="44.01431" lon="7.21128">
        <ele>1446.5999755859</ele>
        <time>2014-05-04T10:33:23.000Z</time>
      </trkpt>
      <trkpt lat="44.01427" lon="7.21113">
        <ele>1444.8000488281</ele>
        <time>2014-05-04T10:33:27.000Z</time>
      </trkpt>
      <trkpt lat="44.01427" lon="7.21095">
        <ele>1442</ele>
        <time>2014-05-04T10:33:31.000Z</time>
      </trkpt>
      <trkpt lat="44.01427" lon="7.21091">
        <ele>1441.1999511719</ele>
        <time>2014-05-04T10:33:32.000Z</time>
      </trkpt>
      <trkpt lat="44.01427" lon="7.21077">
        <ele>1438.4000244141</ele>
        <time>2014-05-04T10:33:35.000Z</time>
      </trkpt>
      <trkpt lat="44.01434" lon="7.21069">
        <ele>1434.8000488281</ele>
        <time>2014-05-04T10:33:36.000Z</time>
      </trkpt>
      <trkpt lat="44.01447" lon="7.21047">
        <ele>1428.1999511719</ele>
        <time>2014-05-04T10:33:40.000Z</time>
      </trkpt>
      <trkpt lat="44.01461" lon="7.21035">
        <ele>1417.8000488281</ele>
        <time>2014-05-04T10:33:42.000Z</time>
      </trkpt>
      <trkpt lat="44.01466" lon="7.21025">
        <ele>1413</ele>
        <time>2014-05-04T10:33:44.000Z</time>
      </trkpt>
      <trkpt lat="44.01465" lon="7.21019">
        <ele>1413</ele>
        <time>2014-05-04T10:33:46.000Z</time>
      </trkpt>
      <trkpt lat="44.01459" lon="7.21019">
        <ele>1416.5999755859</ele>
        <time>2014-05-04T10:33:47.000Z</time>
      </trkpt>
      <trkpt lat="44.01445" lon="7.21004">
        <ele>1424.1999511719</ele>
        <time>2014-05-04T10:33:51.000Z</time>
      </trkpt>
      <trkpt lat="44.01432" lon="7.20992">
        <ele>1424.8000488281</ele>
        <time>2014-05-04T10:33:54.000Z</time>
      </trkpt>
      <trkpt lat="44.0143" lon="7.20982">
        <ele>1424.4000244141</ele>
        <time>2014-05-04T10:33:56.000Z</time>
      </trkpt>
      <trkpt lat="44.01437" lon="7.20967">
        <ele>1421.8000488281</ele>
        <time>2014-05-04T10:34:00.000Z</time>
      </trkpt>
      <trkpt lat="44.01441" lon="7.2096">
        <ele>1420.5999755859</ele>
        <time>2014-05-04T10:34:01.000Z</time>
      </trkpt>
      <trkpt lat="44.01448" lon="7.20943">
        <ele>1414.5999755859</ele>
        <time>2014-05-04T10:34:04.000Z</time>
      </trkpt>
      <trkpt lat="44.0145" lon="7.20933">
        <ele>1412</ele>
        <time>2014-05-04T10:34:06.000Z</time>
      </trkpt>
      <trkpt lat="44.01452" lon="7.2092">
        <ele>1409</ele>
        <time>2014-05-04T10:34:08.000Z</time>
      </trkpt>
      <trkpt lat="44.01455" lon="7.20909">
        <ele>1404.5999755859</ele>
        <time>2014-05-04T10:34:10.000Z</time>
      </trkpt>
      <trkpt lat="44.01457" lon="7.20902">
        <ele>1400</ele>
        <time>2014-05-04T10:34:12.000Z</time>
      </trkpt>
      <trkpt lat="44.01458" lon="7.209">
        <ele>1398.4000244141</ele>
        <time>2014-05-04T10:34:13.000Z</time>
      </trkpt>
      <trkpt lat="44.01458" lon="7.20896">
        <ele>1396.8000488281</ele>
        <time>2014-05-04T10:34:14.000Z</time>
      </trkpt>
      <trkpt lat="44.01452" lon="7.20889">
        <ele>1396.4000244141</ele>
        <time>2014-05-04T10:34:17.000Z</time>
      </trkpt>
      <trkpt lat="44.01447" lon="7.20885">
        <ele>1397.5999755859</ele>
        <time>2014-05-04T10:34:19.000Z</time>
      </trkpt>
      <trkpt lat="44.01438" lon="7.20882">
        <ele>1401.1999511719</ele>
        <time>2014-05-04T10:34:22.000Z</time>
      </trkpt>
      <trkpt lat="44.01423" lon="7.20873">
        <ele>1403</ele>
        <time>2014-05-04T10:34:27.000Z</time>
      </trkpt>
      <trkpt lat="44.01419" lon="7.20865">
        <ele>1400.8000488281</ele>
        <time>2014-05-04T10:34:30.000Z</time>
      </trkpt>
      <trkpt lat="44.01419" lon="7.20859">
        <ele>1398.1999511719</ele>
        <time>2014-05-04T10:34:31.000Z</time>
      </trkpt>
      <trkpt lat="44.01406" lon="7.20827">
        <ele>1388.1999511719</ele>
        <time>2014-05-04T10:34:37.000Z</time>
      </trkpt>
      <trkpt lat="44.01396" lon="7.20804">
        <ele>1389</ele>
        <time>2014-05-04T10:34:41.000Z</time>
      </trkpt>
      <trkpt lat="44.01384" lon="7.20788">
        <ele>1391</ele>
        <time>2014-05-04T10:34:42.000Z</time>
      </trkpt>
      <trkpt lat="44.01384" lon="7.20777">
        <ele>1389.5999755859</ele>
        <time>2014-05-04T10:34:45.000Z</time>
      </trkpt>
      <trkpt lat="44.0138" lon="7.20759">
        <ele>1386</ele>
        <time>2014-05-04T10:34:49.000Z</time>
      </trkpt>
      <trkpt lat="44.01379" lon="7.20751">
        <ele>1383.1999511719</ele>
        <time>2014-05-04T10:34:51.000Z</time>
      </trkpt>
      <trkpt lat="44.01379" lon="7.20746">
        <ele>1381.1999511719</ele>
        <time>2014-05-04T10:34:52.000Z</time>
      </trkpt>
      <trkpt lat="44.01379" lon="7.20741">
        <ele>1379.1999511719</ele>
        <time>2014-05-04T10:34:54.000Z</time>
      </trkpt>
      <trkpt lat="44.01372" lon="7.20734">
        <ele>1382.4000244141</ele>
        <time>2014-05-04T10:34:57.000Z</time>
      </trkpt>
      <trkpt lat="44.01372" lon="7.2073">
        <ele>1381.5999755859</ele>
        <time>2014-05-04T10:34:58.000Z</time>
      </trkpt>
      <trkpt lat="44.01365" lon="7.20714">
        <ele>1381.8000488281</ele>
        <time>2014-05-04T10:35:01.000Z</time>
      </trkpt>
      <trkpt lat="44.01356" lon="7.20695">
        <ele>1380.4000244141</ele>
        <time>2014-05-04T10:35:05.000Z</time>
      </trkpt>
      <trkpt lat="44.01352" lon="7.20686">
        <ele>1376.5999755859</ele>
        <time>2014-05-04T10:35:08.000Z</time>
      </trkpt>
      <trkpt lat="44.01352" lon="7.20683">
        <ele>1375.8000488281</ele>
        <time>2014-05-04T10:35:09.000Z</time>
      </trkpt>
      <trkpt lat="44.01345" lon="7.20666">
        <ele>1369.1999511719</ele>
        <time>2014-05-04T10:35:13.000Z</time>
      </trkpt>
      <trkpt lat="44.01341" lon="7.20648">
        <ele>1364.4000244141</ele>
        <time>2014-05-04T10:35:17.000Z</time>
      </trkpt>
      <trkpt lat="44.01342" lon="7.20645">
        <ele>1363.8000488281</ele>
        <time>2014-05-04T10:35:18.000Z</time>
      </trkpt>
      <trkpt lat="44.01343" lon="7.20622">
        <ele>1357</ele>
        <time>2014-05-04T10:35:22.000Z</time>
      </trkpt>
      <trkpt lat="44.01337" lon="7.20593">
        <ele>1347</ele>
        <time>2014-05-04T10:35:27.000Z</time>
      </trkpt>
      <trkpt lat="44.0134" lon="7.20583">
        <ele>1344.1999511719</ele>
        <time>2014-05-04T10:35:31.000Z</time>
      </trkpt>
      <trkpt lat="44.01338" lon="7.20577">
        <ele>1342.1999511719</ele>
        <time>2014-05-04T10:35:33.000Z</time>
      </trkpt>
      <trkpt lat="44.01336" lon="7.20569">
        <ele>1339.5999755859</ele>
        <time>2014-05-04T10:35:35.000Z</time>
      </trkpt>
      <trkpt lat="44.01326" lon="7.20558">
        <ele>1335</ele>
        <time>2014-05-04T10:35:39.000Z</time>
      </trkpt>
      <trkpt lat="44.01309" lon="7.20546">
        <ele>1329.1999511719</ele>
        <time>2014-05-04T10:35:43.000Z</time>
      </trkpt>
      <trkpt lat="44.01294" lon="7.20553">
        <ele>1328.4000244141</ele>
        <time>2014-05-04T10:35:47.000Z</time>
      </trkpt>
      <trkpt lat="44.01282" lon="7.20562">
        <ele>1329</ele>
        <time>2014-05-04T10:35:50.000Z</time>
      </trkpt>
      <trkpt lat="44.01269" lon="7.2057">
        <ele>1326.5999755859</ele>
        <time>2014-05-04T10:35:52.000Z</time>
      </trkpt>
      <trkpt lat="44.01252" lon="7.20581">
        <ele>1320.1999511719</ele>
        <time>2014-05-04T10:35:55.000Z</time>
      </trkpt>
      <trkpt lat="44.01239" lon="7.2059">
        <ele>1315.5999755859</ele>
        <time>2014-05-04T10:35:57.000Z</time>
      </trkpt>
      <trkpt lat="44.01224" lon="7.20604">
        <ele>1310.4000244141</ele>
        <time>2014-05-04T10:36:00.000Z</time>
      </trkpt>
      <trkpt lat="44.0122" lon="7.2061">
        <ele>1309.4000244141</ele>
        <time>2014-05-04T10:36:01.000Z</time>
      </trkpt>
      <trkpt lat="44.01209" lon="7.2063">
        <ele>1307.5999755859</ele>
        <time>2014-05-04T10:36:04.000Z</time>
      </trkpt>
      <trkpt lat="44.01205" lon="7.20636">
        <ele>1306.8000488281</ele>
        <time>2014-05-04T10:36:05.000Z</time>
      </trkpt>
      <trkpt lat="44.01202" lon="7.2064">
        <ele>1305.8000488281</ele>
        <time>2014-05-04T10:36:06.000Z</time>
      </trkpt>
      <trkpt lat="44.0119" lon="7.20654">
        <ele>1302.5999755859</ele>
        <time>2014-05-04T10:36:09.000Z</time>
      </trkpt>
      <trkpt lat="44.01178" lon="7.20671">
        <ele>1296</ele>
        <time>2014-05-04T10:36:13.000Z</time>
      </trkpt>
      <trkpt lat="44.01166" lon="7.20686">
        <ele>1289.1999511719</ele>
        <time>2014-05-04T10:36:16.000Z</time>
      </trkpt>
      <trkpt lat="44.01163" lon="7.20691">
        <ele>1287</ele>
        <time>2014-05-04T10:36:17.000Z</time>
      </trkpt>
      <trkpt lat="44.01161" lon="7.20695">
        <ele>1286</ele>
        <time>2014-05-04T10:36:18.000Z</time>
      </trkpt>
      <trkpt lat="44.01156" lon="7.20707">
        <ele>1282.5999755859</ele>
        <time>2014-05-04T10:36:21.000Z</time>
      </trkpt>
      <trkpt lat="44.01151" lon="7.20715">
        <ele>1279.8000488281</ele>
        <time>2014-05-04T10:36:23.000Z</time>
      </trkpt>
      <trkpt lat="44.01145" lon="7.20737">
        <ele>1275.8000488281</ele>
        <time>2014-05-04T10:36:28.000Z</time>
      </trkpt>
      <trkpt lat="44.0115" lon="7.20752">
        <ele>1279.1999511719</ele>
        <time>2014-05-04T10:36:32.000Z</time>
      </trkpt>
      <trkpt lat="44.01156" lon="7.2076">
        <ele>1283.1999511719</ele>
        <time>2014-05-04T10:36:36.000Z</time>
      </trkpt>
      <trkpt lat="44.01157" lon="7.20762">
        <ele>1284.1999511719</ele>
        <time>2014-05-04T10:36:37.000Z</time>
      </trkpt>
      <trkpt lat="44.01164" lon="7.20772">
        <ele>1289.1999511719</ele>
        <time>2014-05-04T10:36:41.000Z</time>
      </trkpt>
      <trkpt lat="44.01166" lon="7.2078">
        <ele>1291</ele>
        <time>2014-05-04T10:36:43.000Z</time>
      </trkpt>
      <trkpt lat="44.0117" lon="7.2079">
        <ele>1293.8000488281</ele>
        <time>2014-05-04T10:36:46.000Z</time>
      </trkpt>
      <trkpt lat="44.01171" lon="7.20799">
        <ele>1294.5999755859</ele>
        <time>2014-05-04T10:36:48.000Z</time>
      </trkpt>
      <trkpt lat="44.01166" lon="7.20809">
        <ele>1292.4000244141</ele>
        <time>2014-05-04T10:36:50.000Z</time>
      </trkpt>
      <trkpt lat="44.01158" lon="7.20831">
        <ele>1289.1999511719</ele>
        <time>2014-05-04T10:36:55.000Z</time>
      </trkpt>
      <trkpt lat="44.01151" lon="7.20855">
        <ele>1287.5999755859</ele>
        <time>2014-05-04T10:37:00.000Z</time>
      </trkpt>
      <trkpt lat="44.01149" lon="7.20858">
        <ele>1286.8000488281</ele>
        <time>2014-05-04T10:37:01.000Z</time>
      </trkpt>
      <trkpt lat="44.01145" lon="7.20871">
        <ele>1287.1999511719</ele>
        <time>2014-05-04T10:37:04.000Z</time>
      </trkpt>
      <trkpt lat="44.01145" lon="7.2088">
        <ele>1289.5999755859</ele>
        <time>2014-05-04T10:37:06.000Z</time>
      </trkpt>
      <trkpt lat="44.01146" lon="7.20896">
        <ele>1295.4000244141</ele>
        <time>2014-05-04T10:37:09.000Z</time>
      </trkpt>
      <trkpt lat="44.01147" lon="7.20901">
        <ele>1297.1999511719</ele>
        <time>2014-05-04T10:37:10.000Z</time>
      </trkpt>
      <trkpt lat="44.01144" lon="7.20915">
        <ele>1300.1999511719</ele>
        <time>2014-05-04T10:37:12.000Z</time>
      </trkpt>
      <trkpt lat="44.0114" lon="7.2093">
        <ele>1303.8000488281</ele>
        <time>2014-05-04T10:37:14.000Z</time>
      </trkpt>
      <trkpt lat="44.01139" lon="7.20941">
        <ele>1307.4000244141</ele>
        <time>2014-05-04T10:37:18.000Z</time>
      </trkpt>
      <trkpt lat="44.0114" lon="7.2095">
        <ele>1312</ele>
        <time>2014-05-04T10:37:22.000Z</time>
      </trkpt>
      <trkpt lat="44.0114" lon="7.20951">
        <ele>1312.1999511719</ele>
        <time>2014-05-04T10:37:23.000Z</time>
      </trkpt>
      <trkpt lat="44.01143" lon="7.20945">
        <ele>1310.5999755859</ele>
        <time>2014-05-04T10:37:27.000Z</time>
      </trkpt>
      <trkpt lat="44.01148" lon="7.20943">
        <ele>1312</ele>
        <time>2014-05-04T10:37:30.000Z</time>
      </trkpt>
      <trkpt lat="44.01152" lon="7.20938">
        <ele>1311.5999755859</ele>
        <time>2014-05-04T10:37:34.000Z</time>
      </trkpt>
      <trkpt lat="44.01152" lon="7.20934">
        <ele>1310.8000488281</ele>
        <time>2014-05-04T10:37:39.000Z</time>
      </trkpt>
      <trkpt lat="44.01153" lon="7.20937">
        <ele>1312</ele>
        <time>2014-05-04T10:37:42.000Z</time>
      </trkpt>
      <trkpt lat="44.01148" lon="7.20944">
        <ele>1312.1999511719</ele>
        <time>2014-05-04T10:37:47.000Z</time>
      </trkpt>
      <trkpt lat="44.01144" lon="7.20944">
        <ele>1310.8000488281</ele>
        <time>2014-05-04T10:37:52.000Z</time>
      </trkpt>
      <trkpt lat="44.01143" lon="7.20946">
        <ele>1310.8000488281</ele>
        <time>2014-05-04T10:37:53.000Z</time>
      </trkpt>
      <trkpt lat="44.0114" lon="7.20951">
        <ele>1312.4000244141</ele>
        <time>2014-05-04T10:37:56.000Z</time>
      </trkpt>
      <trkpt lat="44.01138" lon="7.20951">
        <ele>1311.5999755859</ele>
        <time>2014-05-04T10:37:58.000Z</time>
      </trkpt>
      <trkpt lat="44.01129" lon="7.20955">
        <ele>1311.4000244141</ele>
        <time>2014-05-04T10:38:02.000Z</time>
      </trkpt>
      <trkpt lat="44.01126" lon="7.20953">
        <ele>1309.8000488281</ele>
        <time>2014-05-04T10:38:04.000Z</time>
      </trkpt>
      <trkpt lat="44.01122" lon="7.2095">
        <ele>1307</ele>
        <time>2014-05-04T10:38:06.000Z</time>
      </trkpt>
      <trkpt lat="44.01114" lon="7.20953">
        <ele>1306</ele>
        <time>2014-05-04T10:38:11.000Z</time>
      </trkpt>
      <trkpt lat="44.01111" lon="7.20954">
        <ele>1305.8000488281</ele>
        <time>2014-05-04T10:38:12.000Z</time>
      </trkpt>
      <trkpt lat="44.01102" lon="7.20957">
        <ele>1306.4000244141</ele>
        <time>2014-05-04T10:38:15.000Z</time>
      </trkpt>
      <trkpt lat="44.01099" lon="7.20959">
        <ele>1307.5999755859</ele>
        <time>2014-05-04T10:38:16.000Z</time>
      </trkpt>
      <trkpt lat="44.01083" lon="7.20972">
        <ele>1313</ele>
        <time>2014-05-04T10:38:21.000Z</time>
      </trkpt>
      <trkpt lat="44.01074" lon="7.20978">
        <ele>1313.1999511719</ele>
        <time>2014-05-04T10:38:25.000Z</time>
      </trkpt>
      <trkpt lat="44.01073" lon="7.20975">
        <ele>1312</ele>
        <time>2014-05-04T10:38:26.000Z</time>
      </trkpt>
      <trkpt lat="44.01069" lon="7.20965">
        <ele>1307.8000488281</ele>
        <time>2014-05-04T10:38:29.000Z</time>
      </trkpt>
      <trkpt lat="44.01062" lon="7.20959">
        <ele>1304.1999511719</ele>
        <time>2014-05-04T10:38:34.000Z</time>
      </trkpt>
      <trkpt lat="44.01054" lon="7.20952">
        <ele>1300.4000244141</ele>
        <time>2014-05-04T10:38:39.000Z</time>
      </trkpt>
      <trkpt lat="44.01046" lon="7.20947">
        <ele>1297.1999511719</ele>
        <time>2014-05-04T10:38:42.000Z</time>
      </trkpt>
      <trkpt lat="44.01041" lon="7.20943">
        <ele>1294.5999755859</ele>
        <time>2014-05-04T10:38:44.000Z</time>
      </trkpt>
      <trkpt lat="44.01032" lon="7.20936">
        <ele>1290.5999755859</ele>
        <time>2014-05-04T10:38:48.000Z</time>
      </trkpt>
      <trkpt lat="44.01029" lon="7.20935">
        <ele>1289.8000488281</ele>
        <time>2014-05-04T10:38:49.000Z</time>
      </trkpt>
      <trkpt lat="44.01012" lon="7.20932">
        <ele>1282.5999755859</ele>
        <time>2014-05-04T10:38:53.000Z</time>
      </trkpt>
      <trkpt lat="44.00993" lon="7.20932">
        <ele>1275.1999511719</ele>
        <time>2014-05-04T10:38:57.000Z</time>
      </trkpt>
      <trkpt lat="44.00981" lon="7.20927">
        <ele>1269.4000244141</ele>
        <time>2014-05-04T10:39:00.000Z</time>
      </trkpt>
      <trkpt lat="44.00974" lon="7.20929">
        <ele>1267.1999511719</ele>
        <time>2014-05-04T10:39:02.000Z</time>
      </trkpt>
      <trkpt lat="44.00969" lon="7.20935">
        <ele>1267</ele>
        <time>2014-05-04T10:39:04.000Z</time>
      </trkpt>
      <trkpt lat="44.00966" lon="7.20938">
        <ele>1267.1999511719</ele>
        <time>2014-05-04T10:39:05.000Z</time>
      </trkpt>
      <trkpt lat="44.00962" lon="7.20946">
        <ele>1268</ele>
        <time>2014-05-04T10:39:07.000Z</time>
      </trkpt>
      <trkpt lat="44.00946" lon="7.20973">
        <ele>1270.4000244141</ele>
        <time>2014-05-04T10:39:12.000Z</time>
      </trkpt>
      <trkpt lat="44.00936" lon="7.20988">
        <ele>1271.4000244141</ele>
        <time>2014-05-04T10:39:16.000Z</time>
      </trkpt>
      <trkpt lat="44.00929" lon="7.20995">
        <ele>1270.1999511719</ele>
        <time>2014-05-04T10:39:20.000Z</time>
      </trkpt>
      <trkpt lat="44.00927" lon="7.20995">
        <ele>1269.1999511719</ele>
        <time>2014-05-04T10:39:21.000Z</time>
      </trkpt>
      <trkpt lat="44.00918" lon="7.20994">
        <ele>1265</ele>
        <time>2014-05-04T10:39:24.000Z</time>
      </trkpt>
      <trkpt lat="44.00894" lon="7.20992">
        <ele>1253.4000244141</ele>
        <time>2014-05-04T10:39:30.000Z</time>
      </trkpt>
      <trkpt lat="44.00875" lon="7.20992">
        <ele>1244.5999755859</ele>
        <time>2014-05-04T10:39:34.000Z</time>
      </trkpt>
      <trkpt lat="44.00867" lon="7.20994">
        <ele>1241.4000244141</ele>
        <time>2014-05-04T10:39:36.000Z</time>
      </trkpt>
      <trkpt lat="44.00856" lon="7.20999">
        <ele>1238.1999511719</ele>
        <time>2014-05-04T10:39:38.000Z</time>
      </trkpt>
      <trkpt lat="44.0085" lon="7.21002">
        <ele>1237.8000488281</ele>
        <time>2014-05-04T10:39:39.000Z</time>
      </trkpt>
      <trkpt lat="44.00843" lon="7.2101">
        <ele>1238.1999511719</ele>
        <time>2014-05-04T10:39:42.000Z</time>
      </trkpt>
      <trkpt lat="44.0084" lon="7.21027">
        <ele>1240.8000488281</ele>
        <time>2014-05-04T10:39:46.000Z</time>
      </trkpt>
      <trkpt lat="44.0084" lon="7.21029">
        <ele>1241.1999511719</ele>
        <time>2014-05-04T10:39:47.000Z</time>
      </trkpt>
      <trkpt lat="44.00837" lon="7.21044">
        <ele>1243.8000488281</ele>
        <time>2014-05-04T10:39:50.000Z</time>
      </trkpt>
      <trkpt lat="44.00838" lon="7.21055">
        <ele>1246.1999511719</ele>
        <time>2014-05-04T10:39:52.000Z</time>
      </trkpt>
      <trkpt lat="44.00838" lon="7.21074">
        <ele>1249.1999511719</ele>
        <time>2014-05-04T10:39:54.000Z</time>
      </trkpt>
      <trkpt lat="44.00842" lon="7.21091">
        <ele>1254.1999511719</ele>
        <time>2014-05-04T10:39:58.000Z</time>
      </trkpt>
      <trkpt lat="44.00843" lon="7.21095">
        <ele>1255.4000244141</ele>
        <time>2014-05-04T10:39:59.000Z</time>
      </trkpt>
      <trkpt lat="44.00845" lon="7.21101">
        <ele>1257.4000244141</ele>
        <time>2014-05-04T10:40:02.000Z</time>
      </trkpt>
      <trkpt lat="44.00846" lon="7.21104">
        <ele>1258.5999755859</ele>
        <time>2014-05-04T10:40:05.000Z</time>
      </trkpt>
      <trkpt lat="44.00845" lon="7.21105">
        <ele>1258.5999755859</ele>
        <time>2014-05-04T10:40:09.000Z</time>
      </trkpt>
      <trkpt lat="44.00843" lon="7.21106">
        <ele>1258.5999755859</ele>
        <time>2014-05-04T10:40:20.000Z</time>
      </trkpt>
      <trkpt lat="44.00846" lon="7.21103">
        <ele>1258.4000244141</ele>
        <time>2014-05-04T10:40:23.000Z</time>
      </trkpt>
      <trkpt lat="44.00845" lon="7.21103">
        <ele>1258</ele>
        <time>2014-05-04T10:40:27.000Z</time>
      </trkpt>
      <trkpt lat="44.00844" lon="7.211">
        <ele>1257</ele>
        <time>2014-05-04T10:40:30.000Z</time>
      </trkpt>
      <trkpt lat="44.00844" lon="7.21099">
        <ele>1256.8000488281</ele>
        <time>2014-05-04T10:40:32.000Z</time>
      </trkpt>
      <trkpt lat="44.00841" lon="7.21098">
        <ele>1255.8000488281</ele>
        <time>2014-05-04T10:40:35.000Z</time>
      </trkpt>
      <trkpt lat="44.00839" lon="7.21098">
        <ele>1255.1999511719</ele>
        <time>2014-05-04T10:40:41.000Z</time>
      </trkpt>
      <trkpt lat="44.00837" lon="7.21099">
        <ele>1254.8000488281</ele>
        <time>2014-05-04T10:40:42.000Z</time>
      </trkpt>
      <trkpt lat="44.00828" lon="7.21102">
        <ele>1253.4000244141</ele>
        <time>2014-05-04T10:40:46.000Z</time>
      </trkpt>
      <trkpt lat="44.00825" lon="7.21104">
        <ele>1253.1999511719</ele>
        <time>2014-05-04T10:40:47.000Z</time>
      </trkpt>
      <trkpt lat="44.00818" lon="7.21117">
        <ele>1255</ele>
        <time>2014-05-04T10:40:50.000Z</time>
      </trkpt>
      <trkpt lat="44.00816" lon="7.21121">
        <ele>1255.8000488281</ele>
        <time>2014-05-04T10:40:51.000Z</time>
      </trkpt>
      <trkpt lat="44.0081" lon="7.21132">
        <ele>1259</ele>
        <time>2014-05-04T10:40:55.000Z</time>
      </trkpt>
      <trkpt lat="44.00808" lon="7.21135">
        <ele>1259.5999755859</ele>
        <time>2014-05-04T10:40:56.000Z</time>
      </trkpt>
      <trkpt lat="44.00803" lon="7.2113">
        <ele>1257</ele>
        <time>2014-05-04T10:40:59.000Z</time>
      </trkpt>
      <trkpt lat="44.00801" lon="7.21117">
        <ele>1252.1999511719</ele>
        <time>2014-05-04T10:41:03.000Z</time>
      </trkpt>
      <trkpt lat="44.00801" lon="7.21106">
        <ele>1248</ele>
        <time>2014-05-04T10:41:08.000Z</time>
      </trkpt>
      <trkpt lat="44.00792" lon="7.21093">
        <ele>1242</ele>
        <time>2014-05-04T10:41:13.000Z</time>
      </trkpt>
      <trkpt lat="44.00779" lon="7.21084">
        <ele>1236.4000244141</ele>
        <time>2014-05-04T10:41:18.000Z</time>
      </trkpt>
      <trkpt lat="44.00761" lon="7.21082">
        <ele>1242.5999755859</ele>
        <time>2014-05-04T10:41:23.000Z</time>
      </trkpt>
      <trkpt lat="44.00741" lon="7.21089">
        <ele>1255.5999755859</ele>
        <time>2014-05-04T10:41:27.000Z</time>
      </trkpt>
      <trkpt lat="44.00728" lon="7.21096">
        <ele>1265</ele>
        <time>2014-05-04T10:41:31.000Z</time>
      </trkpt>
      <trkpt lat="44.00728" lon="7.21096">
        <ele>1265</ele>
        <time>2014-05-04T10:41:32.000Z</time>
      </trkpt>
      <trkpt lat="44.00717" lon="7.21098">
        <ele>1271.1999511719</ele>
        <time>2014-05-04T10:41:35.000Z</time>
      </trkpt>
      <trkpt lat="44.00715" lon="7.21098">
        <ele>1272.1999511719</ele>
        <time>2014-05-04T10:41:36.000Z</time>
      </trkpt>
      <trkpt lat="44.00718" lon="7.211">
        <ele>1271.4000244141</ele>
        <time>2014-05-04T10:41:40.000Z</time>
      </trkpt>
      <trkpt lat="44.0072" lon="7.21098">
        <ele>1269.8000488281</ele>
        <time>2014-05-04T10:41:43.000Z</time>
      </trkpt>
      <trkpt lat="44.00723" lon="7.21097">
        <ele>1267.8000488281</ele>
        <time>2014-05-04T10:41:46.000Z</time>
      </trkpt>
      <trkpt lat="44.00727" lon="7.2109">
        <ele>1263</ele>
        <time>2014-05-04T10:41:51.000Z</time>
      </trkpt>
      <trkpt lat="44.00729" lon="7.21086">
        <ele>1260.4000244141</ele>
        <time>2014-05-04T10:41:54.000Z</time>
      </trkpt>
      <trkpt lat="44.00729" lon="7.21082">
        <ele>1259</ele>
        <time>2014-05-04T10:41:57.000Z</time>
      </trkpt>
      <trkpt lat="44.0073" lon="7.21079">
        <ele>1257.4000244141</ele>
        <time>2014-05-04T10:41:59.000Z</time>
      </trkpt>
      <trkpt lat="44.00734" lon="7.21079">
        <ele>1255.4000244141</ele>
        <time>2014-05-04T10:42:03.000Z</time>
      </trkpt>
      <trkpt lat="44.00737" lon="7.21077">
        <ele>1253.4000244141</ele>
        <time>2014-05-04T10:42:08.000Z</time>
      </trkpt>
      <trkpt lat="44.00742" lon="7.21072">
        <ele>1250.8000488281</ele>
        <time>2014-05-04T10:42:12.000Z</time>
      </trkpt>
      <trkpt lat="44.00743" lon="7.2107">
        <ele>1250.4000244141</ele>
        <time>2014-05-04T10:42:13.000Z</time>
      </trkpt>
      <trkpt lat="44.0074" lon="7.21063">
        <ele>1251.5999755859</ele>
        <time>2014-05-04T10:42:17.000Z</time>
      </trkpt>
      <trkpt lat="44.00745" lon="7.21056">
        <ele>1248.8000488281</ele>
        <time>2014-05-04T10:42:27.000Z</time>
      </trkpt>
      <trkpt lat="44.00755" lon="7.21048">
        <ele>1242.1999511719</ele>
        <time>2014-05-04T10:42:29.000Z</time>
      </trkpt>
      <trkpt lat="44.00757" lon="7.21036">
        <ele>1238.8000488281</ele>
        <time>2014-05-04T10:42:34.000Z</time>
      </trkpt>
      <trkpt lat="44.00756" lon="7.21022">
        <ele>1238</ele>
        <time>2014-05-04T10:42:38.000Z</time>
      </trkpt>
      <trkpt lat="44.00752" lon="7.21015">
        <ele>1239.4000244141</ele>
        <time>2014-05-04T10:42:42.000Z</time>
      </trkpt>
      <trkpt lat="44.00748" lon="7.21013">
        <ele>1241.4000244141</ele>
        <time>2014-05-04T10:42:44.000Z</time>
      </trkpt>
      <trkpt lat="44.00736" lon="7.21001">
        <ele>1247.4000244141</ele>
        <time>2014-05-04T10:42:50.000Z</time>
      </trkpt>
      <trkpt lat="44.00732" lon="7.20994">
        <ele>1248.5999755859</ele>
        <time>2014-05-04T10:42:52.000Z</time>
      </trkpt>
      <trkpt lat="44.00728" lon="7.20989">
        <ele>1250.1999511719</ele>
        <time>2014-05-04T10:42:56.000Z</time>
      </trkpt>
      <trkpt lat="44.00717" lon="7.20979">
        <ele>1255.4000244141</ele>
        <time>2014-05-04T10:43:03.000Z</time>
      </trkpt>
      <trkpt lat="44.00717" lon="7.20977">
        <ele>1255</ele>
        <time>2014-05-04T10:43:04.000Z</time>
      </trkpt>
      <trkpt lat="44.00717" lon="7.20974">
        <ele>1254.1999511719</ele>
        <time>2014-05-04T10:43:07.000Z</time>
      </trkpt>
      <trkpt lat="44.00716" lon="7.20974">
        <ele>1255.1999511719</ele>
        <time>2014-05-04T10:43:08.000Z</time>
      </trkpt>
      <trkpt lat="44.00715" lon="7.20975">
        <ele>1256</ele>
        <time>2014-05-04T10:43:11.000Z</time>
      </trkpt>
      <trkpt lat="44.00717" lon="7.20982">
        <ele>1256.1999511719</ele>
        <time>2014-05-04T10:43:15.000Z</time>
      </trkpt>
      <trkpt lat="44.00718" lon="7.2099">
        <ele>1257</ele>
        <time>2014-05-04T10:43:19.000Z</time>
      </trkpt>
      <trkpt lat="44.00718" lon="7.20993">
        <ele>1257.1999511719</ele>
        <time>2014-05-04T10:43:21.000Z</time>
      </trkpt>
      <trkpt lat="44.00719" lon="7.21003">
        <ele>1258</ele>
        <time>2014-05-04T10:43:26.000Z</time>
      </trkpt>
      <trkpt lat="44.0072" lon="7.21003">
        <ele>1257.5999755859</ele>
        <time>2014-05-04T10:43:27.000Z</time>
      </trkpt>
      <trkpt lat="44.0072" lon="7.21004">
        <ele>1258</ele>
        <time>2014-05-04T10:43:28.000Z</time>
      </trkpt>
      <trkpt lat="44.00716" lon="7.21014">
        <ele>1261.4000244141</ele>
        <time>2014-05-04T10:43:36.000Z</time>
      </trkpt>
      <trkpt lat="44.00717" lon="7.21015">
        <ele>1261.1999511719</ele>
        <time>2014-05-04T10:43:37.000Z</time>
      </trkpt>
      <trkpt lat="44.00714" lon="7.21016">
        <ele>1262.8000488281</ele>
        <time>2014-05-04T10:43:41.000Z</time>
      </trkpt>
      <trkpt lat="44.00714" lon="7.21017">
        <ele>1263.1999511719</ele>
        <time>2014-05-04T10:43:42.000Z</time>
      </trkpt>
      <trkpt lat="44.00716" lon="7.21023">
        <ele>1262.1999511719</ele>
        <time>2014-05-04T10:43:46.000Z</time>
      </trkpt>
      <trkpt lat="44.00717" lon="7.21025">
        <ele>1262.1999511719</ele>
        <time>2014-05-04T10:43:48.000Z</time>
      </trkpt>
      <trkpt lat="44.00714" lon="7.21031">
        <ele>1263.5999755859</ele>
        <time>2014-05-04T10:43:52.000Z</time>
      </trkpt>
      <trkpt lat="44.00718" lon="7.2103">
        <ele>1261.5999755859</ele>
        <time>2014-05-04T10:43:55.000Z</time>
      </trkpt>
      <trkpt lat="44.00719" lon="7.21029">
        <ele>1261.1999511719</ele>
        <time>2014-05-04T10:43:57.000Z</time>
      </trkpt>
      <trkpt lat="44.00722" lon="7.21028">
        <ele>1259.5999755859</ele>
        <time>2014-05-04T10:43:58.000Z</time>
      </trkpt>
      <trkpt lat="44.00723" lon="7.2102">
        <ele>1258</ele>
        <time>2014-05-04T10:44:04.000Z</time>
      </trkpt>
      <trkpt lat="44.00719" lon="7.21016">
        <ele>1259.8000488281</ele>
        <time>2014-05-04T10:44:07.000Z</time>
      </trkpt>
      <trkpt lat="44.00716" lon="7.21013">
        <ele>1261.5999755859</ele>
        <time>2014-05-04T10:44:10.000Z</time>
      </trkpt>
      <trkpt lat="44.00709" lon="7.21006">
        <ele>1264.4000244141</ele>
        <time>2014-05-04T10:44:14.000Z</time>
      </trkpt>
      <trkpt lat="44.00708" lon="7.21002">
        <ele>1265.1999511719</ele>
        <time>2014-05-04T10:44:16.000Z</time>
      </trkpt>
      <trkpt lat="44.00707" lon="7.20988">
        <ele>1263.4000244141</ele>
        <time>2014-05-04T10:44:24.000Z</time>
      </trkpt>
      <trkpt lat="44.00707" lon="7.20988">
        <ele>1263.1999511719</ele>
        <time>2014-05-04T10:44:25.000Z</time>
      </trkpt>
      <trkpt lat="44.00707" lon="7.20987">
        <ele>1263.1999511719</ele>
        <time>2014-05-04T10:44:26.000Z</time>
      </trkpt>
      <trkpt lat="44.00699" lon="7.20987">
        <ele>1267.8000488281</ele>
        <time>2014-05-04T10:44:30.000Z</time>
      </trkpt>
      <trkpt lat="44.00698" lon="7.2098">
        <ele>1267.8000488281</ele>
        <time>2014-05-04T10:44:37.000Z</time>
      </trkpt>
      <trkpt lat="44.00695" lon="7.20974">
        <ele>1268</ele>
        <time>2014-05-04T10:44:43.000Z</time>
      </trkpt>
      <trkpt lat="44.00696" lon="7.20973">
        <ele>1267.5999755859</ele>
        <time>2014-05-04T10:44:44.000Z</time>
      </trkpt>
      <trkpt lat="44.00695" lon="7.20969">
        <ele>1267.1999511719</ele>
        <time>2014-05-04T10:44:47.000Z</time>
      </trkpt>
      <trkpt lat="44.00693" lon="7.20968">
        <ele>1268.4000244141</ele>
        <time>2014-05-04T10:44:49.000Z</time>
      </trkpt>
      <trkpt lat="44.00695" lon="7.20966">
        <ele>1267.1999511719</ele>
        <time>2014-05-04T10:44:50.000Z</time>
      </trkpt>
      <trkpt lat="44.00693" lon="7.20962">
        <ele>1267.4000244141</ele>
        <time>2014-05-04T10:44:53.000Z</time>
      </trkpt>
      <trkpt lat="44.00691" lon="7.20961">
        <ele>1268.1999511719</ele>
        <time>2014-05-04T10:44:54.000Z</time>
      </trkpt>
      <trkpt lat="44.00684" lon="7.20953">
        <ele>1270</ele>
        <time>2014-05-04T10:45:00.000Z</time>
      </trkpt>
      <trkpt lat="44.00678" lon="7.20947">
        <ele>1271.1999511719</ele>
        <time>2014-05-04T10:45:06.000Z</time>
      </trkpt>
      <trkpt lat="44.00677" lon="7.20946">
        <ele>1271.5999755859</ele>
        <time>2014-05-04T10:45:07.000Z</time>
      </trkpt>
      <trkpt lat="44.00676" lon="7.20944">
        <ele>1271.8000488281</ele>
        <time>2014-05-04T10:45:10.000Z</time>
      </trkpt>
      <trkpt lat="44.00675" lon="7.20942">
        <ele>1271.8000488281</ele>
        <time>2014-05-04T10:45:11.000Z</time>
      </trkpt>
      <trkpt lat="44.00669" lon="7.20935">
        <ele>1273.4000244141</ele>
        <time>2014-05-04T10:45:19.000Z</time>
      </trkpt>
      <trkpt lat="44.00668" lon="7.20933">
        <ele>1273.1999511719</ele>
        <time>2014-05-04T10:45:21.000Z</time>
      </trkpt>
      <trkpt lat="44.00663" lon="7.20928">
        <ele>1274.5999755859</ele>
        <time>2014-05-04T10:45:26.000Z</time>
      </trkpt>
      <trkpt lat="44.00656" lon="7.20927">
        <ele>1277.5999755859</ele>
        <time>2014-05-04T10:45:32.000Z</time>
      </trkpt>
      <trkpt lat="44.0065" lon="7.20927">
        <ele>1280.5999755859</ele>
        <time>2014-05-04T10:45:39.000Z</time>
      </trkpt>
      <trkpt lat="44.00648" lon="7.20926">
        <ele>1281.1999511719</ele>
        <time>2014-05-04T10:45:42.000Z</time>
      </trkpt>
      <trkpt lat="44.00642" lon="7.20926">
        <ele>1283.8000488281</ele>
        <time>2014-05-04T10:45:46.000Z</time>
      </trkpt>
      <trkpt lat="44.00638" lon="7.20923">
        <ele>1284.8000488281</ele>
        <time>2014-05-04T10:45:51.000Z</time>
      </trkpt>
      <trkpt lat="44.00633" lon="7.20919">
        <ele>1286.4000244141</ele>
        <time>2014-05-04T10:45:57.000Z</time>
      </trkpt>
      <trkpt lat="44.00629" lon="7.20918">
        <ele>1288</ele>
        <time>2014-05-04T10:46:01.000Z</time>
      </trkpt>
      <trkpt lat="44.00619" lon="7.2091">
        <ele>1291</ele>
        <time>2014-05-04T10:46:07.000Z</time>
      </trkpt>
      <trkpt lat="44.00617" lon="7.2091">
        <ele>1291.8000488281</ele>
        <time>2014-05-04T10:46:09.000Z</time>
      </trkpt>
      <trkpt lat="44.00615" lon="7.20912">
        <ele>1293.1999511719</ele>
        <time>2014-05-04T10:46:11.000Z</time>
      </trkpt>
      <trkpt lat="44.00613" lon="7.20914">
        <ele>1294.5999755859</ele>
        <time>2014-05-04T10:46:14.000Z</time>
      </trkpt>
      <trkpt lat="44.00609" lon="7.20916">
        <ele>1296.8000488281</ele>
        <time>2014-05-04T10:46:18.000Z</time>
      </trkpt>
      <trkpt lat="44.00606" lon="7.20918">
        <ele>1299</ele>
        <time>2014-05-04T10:46:22.000Z</time>
      </trkpt>
      <trkpt lat="44.00603" lon="7.20918">
        <ele>1300.5999755859</ele>
        <time>2014-05-04T10:46:24.000Z</time>
      </trkpt>
      <trkpt lat="44.00602" lon="7.20921">
        <ele>1301.8000488281</ele>
        <time>2014-05-04T10:46:29.000Z</time>
      </trkpt>
      <trkpt lat="44.00604" lon="7.20922">
        <ele>1301.4000244141</ele>
        <time>2014-05-04T10:46:30.000Z</time>
      </trkpt>
      <trkpt lat="44.00608" lon="7.2092">
        <ele>1298.8000488281</ele>
        <time>2014-05-04T10:46:33.000Z</time>
      </trkpt>
      <trkpt lat="44.00609" lon="7.20918">
        <ele>1297.4000244141</ele>
        <time>2014-05-04T10:46:35.000Z</time>
      </trkpt>
      <trkpt lat="44.00613" lon="7.20909">
        <ele>1294</ele>
        <time>2014-05-04T10:46:41.000Z</time>
      </trkpt>
      <trkpt lat="44.00619" lon="7.20904">
        <ele>1290.8000488281</ele>
        <time>2014-05-04T10:46:45.000Z</time>
      </trkpt>
      <trkpt lat="44.00628" lon="7.20891">
        <ele>1286</ele>
        <time>2014-05-04T10:46:50.000Z</time>
      </trkpt>
      <trkpt lat="44.00629" lon="7.20885">
        <ele>1285.1999511719</ele>
        <time>2014-05-04T10:46:55.000Z</time>
      </trkpt>
      <trkpt lat="44.00627" lon="7.20875">
        <ele>1285.5999755859</ele>
        <time>2014-05-04T10:47:00.000Z</time>
      </trkpt>
      <trkpt lat="44.0063" lon="7.20863">
        <ele>1283.5999755859</ele>
        <time>2014-05-04T10:47:06.000Z</time>
      </trkpt>
      <trkpt lat="44.00623" lon="7.20853">
        <ele>1286</ele>
        <time>2014-05-04T10:47:12.000Z</time>
      </trkpt>
      <trkpt lat="44.00618" lon="7.2085">
        <ele>1288.1999511719</ele>
        <time>2014-05-04T10:47:16.000Z</time>
      </trkpt>
      <trkpt lat="44.00615" lon="7.20848">
        <ele>1289.1999511719</ele>
        <time>2014-05-04T10:47:17.000Z</time>
      </trkpt>
      <trkpt lat="44.00613" lon="7.20841">
        <ele>1289.8000488281</ele>
        <time>2014-05-04T10:47:21.000Z</time>
      </trkpt>
      <trkpt lat="44.00616" lon="7.20832">
        <ele>1288</ele>
        <time>2014-05-04T10:47:26.000Z</time>
      </trkpt>
      <trkpt lat="44.00615" lon="7.2083">
        <ele>1288</ele>
        <time>2014-05-04T10:47:28.000Z</time>
      </trkpt>
      <trkpt lat="44.00615" lon="7.20828">
        <ele>1287.8000488281</ele>
        <time>2014-05-04T10:47:30.000Z</time>
      </trkpt>
      <trkpt lat="44.00613" lon="7.20827">
        <ele>1288.8000488281</ele>
        <time>2014-05-04T10:47:32.000Z</time>
      </trkpt>
      <trkpt lat="44.00611" lon="7.20827">
        <ele>1289.8000488281</ele>
        <time>2014-05-04T10:47:33.000Z</time>
      </trkpt>
      <trkpt lat="44.00608" lon="7.20827">
        <ele>1291.4000244141</ele>
        <time>2014-05-04T10:47:39.000Z</time>
      </trkpt>
      <trkpt lat="44.00602" lon="7.20825">
        <ele>1294.5999755859</ele>
        <time>2014-05-04T10:47:47.000Z</time>
      </trkpt>
      <trkpt lat="44.00596" lon="7.20826">
        <ele>1297.4000244141</ele>
        <time>2014-05-04T10:47:51.000Z</time>
      </trkpt>
      <trkpt lat="44.00586" lon="7.20821">
        <ele>1302.8000488281</ele>
        <time>2014-05-04T10:47:59.000Z</time>
      </trkpt>
      <trkpt lat="44.00581" lon="7.2082">
        <ele>1305.4000244141</ele>
        <time>2014-05-04T10:48:05.000Z</time>
      </trkpt>
      <trkpt lat="44.00581" lon="7.20815">
        <ele>1305.1999511719</ele>
        <time>2014-05-04T10:48:09.000Z</time>
      </trkpt>
      <trkpt lat="44.00584" lon="7.20811">
        <ele>1303.4000244141</ele>
        <time>2014-05-04T10:48:12.000Z</time>
      </trkpt>
      <trkpt lat="44.00581" lon="7.208">
        <ele>1305</ele>
        <time>2014-05-04T10:48:18.000Z</time>
      </trkpt>
      <trkpt lat="44.00575" lon="7.20796">
        <ele>1307.8000488281</ele>
        <time>2014-05-04T10:48:22.000Z</time>
      </trkpt>
      <trkpt lat="44.00575" lon="7.20795">
        <ele>1307.8000488281</ele>
        <time>2014-05-04T10:48:23.000Z</time>
      </trkpt>
      <trkpt lat="44.00575" lon="7.20793">
        <ele>1307.8000488281</ele>
        <time>2014-05-04T10:48:24.000Z</time>
      </trkpt>
      <trkpt lat="44.00573" lon="7.20792">
        <ele>1309</ele>
        <time>2014-05-04T10:48:26.000Z</time>
      </trkpt>
      <trkpt lat="44.00571" lon="7.20791">
        <ele>1309.8000488281</ele>
        <time>2014-05-04T10:48:27.000Z</time>
      </trkpt>
      <trkpt lat="44.00561" lon="7.20786">
        <ele>1315.1999511719</ele>
        <time>2014-05-04T10:48:32.000Z</time>
      </trkpt>
      <trkpt lat="44.00558" lon="7.20778">
        <ele>1316.4000244141</ele>
        <time>2014-05-04T10:48:36.000Z</time>
      </trkpt>
      <trkpt lat="44.00568" lon="7.20769">
        <ele>1311.8000488281</ele>
        <time>2014-05-04T10:48:41.000Z</time>
      </trkpt>
      <trkpt lat="44.0057" lon="7.20768">
        <ele>1310.8000488281</ele>
        <time>2014-05-04T10:48:42.000Z</time>
      </trkpt>
      <trkpt lat="44.00575" lon="7.20761">
        <ele>1308.4000244141</ele>
        <time>2014-05-04T10:48:48.000Z</time>
      </trkpt>
      <trkpt lat="44.00575" lon="7.20755">
        <ele>1308.4000244141</ele>
        <time>2014-05-04T10:48:53.000Z</time>
      </trkpt>
      <trkpt lat="44.00575" lon="7.20751">
        <ele>1308.5999755859</ele>
        <time>2014-05-04T10:48:57.000Z</time>
      </trkpt>
      <trkpt lat="44.00575" lon="7.20749">
        <ele>1308.4000244141</ele>
        <time>2014-05-04T10:48:58.000Z</time>
      </trkpt>
      <trkpt lat="44.00571" lon="7.20747">
        <ele>1310.4000244141</ele>
        <time>2014-05-04T10:49:02.000Z</time>
      </trkpt>
      <trkpt lat="44.00574" lon="7.20736">
        <ele>1310.1999511719</ele>
        <time>2014-05-04T10:49:08.000Z</time>
      </trkpt>
      <trkpt lat="44.00576" lon="7.20729">
        <ele>1310.4000244141</ele>
        <time>2014-05-04T10:49:14.000Z</time>
      </trkpt>
      <trkpt lat="44.00576" lon="7.20724">
        <ele>1310.5999755859</ele>
        <time>2014-05-04T10:49:18.000Z</time>
      </trkpt>
      <trkpt lat="44.00574" lon="7.20721">
        <ele>1312.1999511719</ele>
        <time>2014-05-04T10:49:20.000Z</time>
      </trkpt>
      <trkpt lat="44.00567" lon="7.20713">
        <ele>1316.5999755859</ele>
        <time>2014-05-04T10:49:26.000Z</time>
      </trkpt>
      <trkpt lat="44.00564" lon="7.20711">
        <ele>1318.4000244141</ele>
        <time>2014-05-04T10:49:28.000Z</time>
      </trkpt>
      <trkpt lat="44.00558" lon="7.20706">
        <ele>1322.1999511719</ele>
        <time>2014-05-04T10:49:32.000Z</time>
      </trkpt>
      <trkpt lat="44.00555" lon="7.20692">
        <ele>1325.5999755859</ele>
        <time>2014-05-04T10:49:38.000Z</time>
      </trkpt>
      <trkpt lat="44.0055" lon="7.20684">
        <ele>1328.5999755859</ele>
        <time>2014-05-04T10:49:44.000Z</time>
      </trkpt>
      <trkpt lat="44.0055" lon="7.20682">
        <ele>1329</ele>
        <time>2014-05-04T10:49:45.000Z</time>
      </trkpt>
      <trkpt lat="44.00551" lon="7.2068">
        <ele>1328.8000488281</ele>
        <time>2014-05-04T10:49:46.000Z</time>
      </trkpt>
      <trkpt lat="44.00554" lon="7.20679">
        <ele>1327.4000244141</ele>
        <time>2014-05-04T10:49:49.000Z</time>
      </trkpt>
      <trkpt lat="44.00556" lon="7.20678">
        <ele>1326.4000244141</ele>
        <time>2014-05-04T10:49:50.000Z</time>
      </trkpt>
      <trkpt lat="44.0056" lon="7.20674">
        <ele>1325.1999511719</ele>
        <time>2014-05-04T10:49:53.000Z</time>
      </trkpt>
      <trkpt lat="44.00561" lon="7.20672">
        <ele>1324.8000488281</ele>
        <time>2014-05-04T10:49:55.000Z</time>
      </trkpt>
      <trkpt lat="44.00563" lon="7.2067">
        <ele>1324.1999511719</ele>
        <time>2014-05-04T10:49:57.000Z</time>
      </trkpt>
      <trkpt lat="44.00566" lon="7.20667">
        <ele>1323.4000244141</ele>
        <time>2014-05-04T10:49:58.000Z</time>
      </trkpt>
      <trkpt lat="44.00575" lon="7.20656">
        <ele>1320.8000488281</ele>
        <time>2014-05-04T10:50:04.000Z</time>
      </trkpt>
      <trkpt lat="44.00585" lon="7.20645">
        <ele>1319</ele>
        <time>2014-05-04T10:50:10.000Z</time>
      </trkpt>
      <trkpt lat="44.00593" lon="7.20637">
        <ele>1316.4000244141</ele>
        <time>2014-05-04T10:50:16.000Z</time>
      </trkpt>
      <trkpt lat="44.00593" lon="7.20635">
        <ele>1317</ele>
        <time>2014-05-04T10:50:17.000Z</time>
      </trkpt>
      <trkpt lat="44.00593" lon="7.20624">
        <ele>1319.4000244141</ele>
        <time>2014-05-04T10:50:22.000Z</time>
      </trkpt>
      <trkpt lat="44.00599" lon="7.20615">
        <ele>1317.4000244141</ele>
        <time>2014-05-04T10:50:27.000Z</time>
      </trkpt>
      <trkpt lat="44.00598" lon="7.2061">
        <ele>1319.4000244141</ele>
        <time>2014-05-04T10:50:32.000Z</time>
      </trkpt>
      <trkpt lat="44.00596" lon="7.20605">
        <ele>1321.4000244141</ele>
        <time>2014-05-04T10:50:35.000Z</time>
      </trkpt>
      <trkpt lat="44.00597" lon="7.20603">
        <ele>1321.1999511719</ele>
        <time>2014-05-04T10:50:37.000Z</time>
      </trkpt>
      <trkpt lat="44.00603" lon="7.20595">
        <ele>1319.8000488281</ele>
        <time>2014-05-04T10:50:43.000Z</time>
      </trkpt>
      <trkpt lat="44.00608" lon="7.20588">
        <ele>1318.4000244141</ele>
        <time>2014-05-04T10:50:48.000Z</time>
      </trkpt>
      <trkpt lat="44.0061" lon="7.20579">
        <ele>1319</ele>
        <time>2014-05-04T10:50:53.000Z</time>
      </trkpt>
      <trkpt lat="44.0061" lon="7.20577">
        <ele>1319.1999511719</ele>
        <time>2014-05-04T10:50:54.000Z</time>
      </trkpt>
      <trkpt lat="44.0061" lon="7.20568">
        <ele>1320.4000244141</ele>
        <time>2014-05-04T10:50:59.000Z</time>
      </trkpt>
      <trkpt lat="44.00611" lon="7.20561">
        <ele>1321.1999511719</ele>
        <time>2014-05-04T10:51:02.000Z</time>
      </trkpt>
      <trkpt lat="44.00611" lon="7.20556">
        <ele>1321.5999755859</ele>
        <time>2014-05-04T10:51:05.000Z</time>
      </trkpt>
      <trkpt lat="44.0061" lon="7.20554">
        <ele>1322.4000244141</ele>
        <time>2014-05-04T10:51:07.000Z</time>
      </trkpt>
      <trkpt lat="44.00607" lon="7.20547">
        <ele>1325.4000244141</ele>
        <time>2014-05-04T10:51:11.000Z</time>
      </trkpt>
      <trkpt lat="44.00609" lon="7.20544">
        <ele>1324.8000488281</ele>
        <time>2014-05-04T10:51:13.000Z</time>
      </trkpt>
      <trkpt lat="44.00606" lon="7.2054">
        <ele>1326.8000488281</ele>
        <time>2014-05-04T10:51:17.000Z</time>
      </trkpt>
      <trkpt lat="44.00605" lon="7.20529">
        <ele>1329.1999511719</ele>
        <time>2014-05-04T10:51:23.000Z</time>
      </trkpt>
      <trkpt lat="44.00596" lon="7.20522">
        <ele>1336</ele>
        <time>2014-05-04T10:51:29.000Z</time>
      </trkpt>
      <trkpt lat="44.00597" lon="7.20518">
        <ele>1335.5999755859</ele>
        <time>2014-05-04T10:51:31.000Z</time>
      </trkpt>
      <trkpt lat="44.00598" lon="7.20516">
        <ele>1335.4000244141</ele>
        <time>2014-05-04T10:51:32.000Z</time>
      </trkpt>
      <trkpt lat="44.00598" lon="7.20516">
        <ele>1335.4000244141</ele>
        <time>2014-05-04T10:51:33.000Z</time>
      </trkpt>
      <trkpt lat="44.00598" lon="7.20515">
        <ele>1336</ele>
        <time>2014-05-04T10:51:34.000Z</time>
      </trkpt>
      <trkpt lat="44.00597" lon="7.20511">
        <ele>1336.8000488281</ele>
        <time>2014-05-04T10:51:37.000Z</time>
      </trkpt>
      <trkpt lat="44.00596" lon="7.20509">
        <ele>1337.5999755859</ele>
        <time>2014-05-04T10:51:38.000Z</time>
      </trkpt>
      <trkpt lat="44.00598" lon="7.20503">
        <ele>1337.1999511719</ele>
        <time>2014-05-04T10:51:42.000Z</time>
      </trkpt>
      <trkpt lat="44.00601" lon="7.20497">
        <ele>1336.5999755859</ele>
        <time>2014-05-04T10:51:47.000Z</time>
      </trkpt>
      <trkpt lat="44.00601" lon="7.20495">
        <ele>1337</ele>
        <time>2014-05-04T10:51:48.000Z</time>
      </trkpt>
      <trkpt lat="44.00599" lon="7.20486">
        <ele>1339</ele>
        <time>2014-05-04T10:51:52.000Z</time>
      </trkpt>
      <trkpt lat="44.00592" lon="7.20473">
        <ele>1344.5999755859</ele>
        <time>2014-05-04T10:51:59.000Z</time>
      </trkpt>
      <trkpt lat="44.0059" lon="7.20472">
        <ele>1346</ele>
        <time>2014-05-04T10:52:00.000Z</time>
      </trkpt>
      <trkpt lat="44.0059" lon="7.20467">
        <ele>1346.1999511719</ele>
        <time>2014-05-04T10:52:04.000Z</time>
      </trkpt>
      <trkpt lat="44.00589" lon="7.20465">
        <ele>1346.8000488281</ele>
        <time>2014-05-04T10:52:05.000Z</time>
      </trkpt>
      <trkpt lat="44.00589" lon="7.20456">
        <ele>1347.4000244141</ele>
        <time>2014-05-04T10:52:09.000Z</time>
      </trkpt>
      <trkpt lat="44.00587" lon="7.2045">
        <ele>1348.4000244141</ele>
        <time>2014-05-04T10:52:12.000Z</time>
      </trkpt>
      <trkpt lat="44.00588" lon="7.20446">
        <ele>1348.1999511719</ele>
        <time>2014-05-04T10:52:14.000Z</time>
      </trkpt>
      <trkpt lat="44.00586" lon="7.20439">
        <ele>1349.4000244141</ele>
        <time>2014-05-04T10:52:19.000Z</time>
      </trkpt>
      <trkpt lat="44.00587" lon="7.20437">
        <ele>1349.1999511719</ele>
        <time>2014-05-04T10:52:20.000Z</time>
      </trkpt>
      <trkpt lat="44.00584" lon="7.20428">
        <ele>1351</ele>
        <time>2014-05-04T10:52:24.000Z</time>
      </trkpt>
      <trkpt lat="44.00586" lon="7.20426">
        <ele>1350</ele>
        <time>2014-05-04T10:52:25.000Z</time>
      </trkpt>
      <trkpt lat="44.00586" lon="7.20413">
        <ele>1350</ele>
        <time>2014-05-04T10:52:31.000Z</time>
      </trkpt>
      <trkpt lat="44.0059" lon="7.20402">
        <ele>1346.5999755859</ele>
        <time>2014-05-04T10:52:36.000Z</time>
      </trkpt>
      <trkpt lat="44.00589" lon="7.20392">
        <ele>1346.8000488281</ele>
        <time>2014-05-04T10:52:41.000Z</time>
      </trkpt>
      <trkpt lat="44.00589" lon="7.2039">
        <ele>1346.8000488281</ele>
        <time>2014-05-04T10:52:42.000Z</time>
      </trkpt>
      <trkpt lat="44.00584" lon="7.2038">
        <ele>1350</ele>
        <time>2014-05-04T10:52:47.000Z</time>
      </trkpt>
      <trkpt lat="44.00582" lon="7.20378">
        <ele>1351</ele>
        <time>2014-05-04T10:52:48.000Z</time>
      </trkpt>
      <trkpt lat="44.00584" lon="7.20375">
        <ele>1350</ele>
        <time>2014-05-04T10:52:49.000Z</time>
      </trkpt>
      <trkpt lat="44.00585" lon="7.20366">
        <ele>1348.5999755859</ele>
        <time>2014-05-04T10:52:52.000Z</time>
      </trkpt>
      <trkpt lat="44.00585" lon="7.20363">
        <ele>1348.1999511719</ele>
        <time>2014-05-04T10:52:53.000Z</time>
      </trkpt>
      <trkpt lat="44.00583" lon="7.20354">
        <ele>1349.1999511719</ele>
        <time>2014-05-04T10:52:57.000Z</time>
      </trkpt>
      <trkpt lat="44.00583" lon="7.20345">
        <ele>1349</ele>
        <time>2014-05-04T10:53:01.000Z</time>
      </trkpt>
      <trkpt lat="44.00582" lon="7.20344">
        <ele>1350</ele>
        <time>2014-05-04T10:53:02.000Z</time>
      </trkpt>
      <trkpt lat="44.00575" lon="7.20335">
        <ele>1354.4000244141</ele>
        <time>2014-05-04T10:53:06.000Z</time>
      </trkpt>
      <trkpt lat="44.00575" lon="7.20333">
        <ele>1354.5999755859</ele>
        <time>2014-05-04T10:53:07.000Z</time>
      </trkpt>
      <trkpt lat="44.00575" lon="7.20325">
        <ele>1354</ele>
        <time>2014-05-04T10:53:11.000Z</time>
      </trkpt>
      <trkpt lat="44.00574" lon="7.20315">
        <ele>1355.4000244141</ele>
        <time>2014-05-04T10:53:16.000Z</time>
      </trkpt>
      <trkpt lat="44.0057" lon="7.20301">
        <ele>1358.4000244141</ele>
        <time>2014-05-04T10:53:21.000Z</time>
      </trkpt>
      <trkpt lat="44.0057" lon="7.20299">
        <ele>1358.5999755859</ele>
        <time>2014-05-04T10:53:22.000Z</time>
      </trkpt>
      <trkpt lat="44.00573" lon="7.20296">
        <ele>1356.4000244141</ele>
        <time>2014-05-04T10:53:23.000Z</time>
      </trkpt>
      <trkpt lat="44.00575" lon="7.20293">
        <ele>1355</ele>
        <time>2014-05-04T10:53:26.000Z</time>
      </trkpt>
      <trkpt lat="44.00575" lon="7.20289">
        <ele>1355</ele>
        <time>2014-05-04T10:53:28.000Z</time>
      </trkpt>
      <trkpt lat="44.00576" lon="7.20284">
        <ele>1354.5999755859</ele>
        <time>2014-05-04T10:53:30.000Z</time>
      </trkpt>
      <trkpt lat="44.00574" lon="7.20282">
        <ele>1355.8000488281</ele>
        <time>2014-05-04T10:53:32.000Z</time>
      </trkpt>
      <trkpt lat="44.00573" lon="7.20276">
        <ele>1356.8000488281</ele>
        <time>2014-05-04T10:53:35.000Z</time>
      </trkpt>
      <trkpt lat="44.00573" lon="7.20267">
        <ele>1357.1999511719</ele>
        <time>2014-05-04T10:53:39.000Z</time>
      </trkpt>
      <trkpt lat="44.00571" lon="7.2026">
        <ele>1359.1999511719</ele>
        <time>2014-05-04T10:53:42.000Z</time>
      </trkpt>
      <trkpt lat="44.00571" lon="7.2026">
        <ele>1359</ele>
        <time>2014-05-04T10:53:43.000Z</time>
      </trkpt>
      <trkpt lat="44.00568" lon="7.20253">
        <ele>1361.5999755859</ele>
        <time>2014-05-04T10:53:47.000Z</time>
      </trkpt>
      <trkpt lat="44.00565" lon="7.20248">
        <ele>1364.4000244141</ele>
        <time>2014-05-04T10:53:50.000Z</time>
      </trkpt>
      <trkpt lat="44.00565" lon="7.20246">
        <ele>1364</ele>
        <time>2014-05-04T10:53:51.000Z</time>
      </trkpt>
      <trkpt lat="44.00567" lon="7.20243">
        <ele>1363.1999511719</ele>
        <time>2014-05-04T10:53:52.000Z</time>
      </trkpt>
      <trkpt lat="44.00565" lon="7.2024">
        <ele>1364.1999511719</ele>
        <time>2014-05-04T10:53:53.000Z</time>
      </trkpt>
      <trkpt lat="44.00569" lon="7.20235">
        <ele>1361.8000488281</ele>
        <time>2014-05-04T10:53:56.000Z</time>
      </trkpt>
      <trkpt lat="44.00568" lon="7.20232">
        <ele>1362.4000244141</ele>
        <time>2014-05-04T10:53:57.000Z</time>
      </trkpt>
      <trkpt lat="44.00568" lon="7.20223">
        <ele>1362.5999755859</ele>
        <time>2014-05-04T10:54:01.000Z</time>
      </trkpt>
      <trkpt lat="44.00566" lon="7.20217">
        <ele>1364</ele>
        <time>2014-05-04T10:54:04.000Z</time>
      </trkpt>
      <trkpt lat="44.00571" lon="7.20212">
        <ele>1361</ele>
        <time>2014-05-04T10:54:07.000Z</time>
      </trkpt>
      <trkpt lat="44.00574" lon="7.20198">
        <ele>1359.5999755859</ele>
        <time>2014-05-04T10:54:14.000Z</time>
      </trkpt>
      <trkpt lat="44.00575" lon="7.20189">
        <ele>1359.5999755859</ele>
        <time>2014-05-04T10:54:20.000Z</time>
      </trkpt>
      <trkpt lat="44.00573" lon="7.20183">
        <ele>1361.1999511719</ele>
        <time>2014-05-04T10:54:25.000Z</time>
      </trkpt>
      <trkpt lat="44.00575" lon="7.20182">
        <ele>1360.1999511719</ele>
        <time>2014-05-04T10:54:26.000Z</time>
      </trkpt>
      <trkpt lat="44.00575" lon="7.2018">
        <ele>1360.1999511719</ele>
        <time>2014-05-04T10:54:27.000Z</time>
      </trkpt>
      <trkpt lat="44.00573" lon="7.20177">
        <ele>1361.5999755859</ele>
        <time>2014-05-04T10:54:29.000Z</time>
      </trkpt>
      <trkpt lat="44.00568" lon="7.20169">
        <ele>1365.4000244141</ele>
        <time>2014-05-04T10:54:34.000Z</time>
      </trkpt>
      <trkpt lat="44.00569" lon="7.20167">
        <ele>1365.1999511719</ele>
        <time>2014-05-04T10:54:35.000Z</time>
      </trkpt>
      <trkpt lat="44.00563" lon="7.20153">
        <ele>1368.1999511719</ele>
        <time>2014-05-04T10:54:41.000Z</time>
      </trkpt>
      <trkpt lat="44.00563" lon="7.20151">
        <ele>1367.5999755859</ele>
        <time>2014-05-04T10:54:42.000Z</time>
      </trkpt>
      <trkpt lat="44.00562" lon="7.20148">
        <ele>1368.1999511719</ele>
        <time>2014-05-04T10:54:45.000Z</time>
      </trkpt>
      <trkpt lat="44.0056" lon="7.20141">
        <ele>1368</ele>
        <time>2014-05-04T10:54:49.000Z</time>
      </trkpt>
      <trkpt lat="44.00557" lon="7.20131">
        <ele>1369.1999511719</ele>
        <time>2014-05-04T10:54:55.000Z</time>
      </trkpt>
      <trkpt lat="44.00556" lon="7.20121">
        <ele>1368</ele>
        <time>2014-05-04T10:55:01.000Z</time>
      </trkpt>
      <trkpt lat="44.00555" lon="7.20116">
        <ele>1368</ele>
        <time>2014-05-04T10:55:04.000Z</time>
      </trkpt>
      <trkpt lat="44.00554" lon="7.2011">
        <ele>1367.1999511719</ele>
        <time>2014-05-04T10:55:07.000Z</time>
      </trkpt>
      <trkpt lat="44.00553" lon="7.20104">
        <ele>1367.8000488281</ele>
        <time>2014-05-04T10:55:10.000Z</time>
      </trkpt>
      <trkpt lat="44.0055" lon="7.20101">
        <ele>1369.4000244141</ele>
        <time>2014-05-04T10:55:12.000Z</time>
      </trkpt>
      <trkpt lat="44.00541" lon="7.2009">
        <ele>1373.8000488281</ele>
        <time>2014-05-04T10:55:19.000Z</time>
      </trkpt>
      <trkpt lat="44.00535" lon="7.20084">
        <ele>1376.5999755859</ele>
        <time>2014-05-04T10:55:24.000Z</time>
      </trkpt>
      <trkpt lat="44.00535" lon="7.20082">
        <ele>1377</ele>
        <time>2014-05-04T10:55:25.000Z</time>
      </trkpt>
      <trkpt lat="44.00532" lon="7.20076">
        <ele>1377.4000244141</ele>
        <time>2014-05-04T10:55:30.000Z</time>
      </trkpt>
      <trkpt lat="44.00532" lon="7.20076">
        <ele>1377.5999755859</ele>
        <time>2014-05-04T10:55:31.000Z</time>
      </trkpt>
      <trkpt lat="44.00533" lon="7.20078">
        <ele>1377.4000244141</ele>
        <time>2014-05-04T10:55:35.000Z</time>
      </trkpt>
      <trkpt lat="44.00538" lon="7.20073">
        <ele>1373.5999755859</ele>
        <time>2014-05-04T10:55:44.000Z</time>
      </trkpt>
      <trkpt lat="44.00539" lon="7.20078">
        <ele>1374.5999755859</ele>
        <time>2014-05-04T10:57:18.000Z</time>
      </trkpt>
      <trkpt lat="44.00548" lon="7.20094">
        <ele>1370.4000244141</ele>
        <time>2014-05-04T10:57:22.000Z</time>
      </trkpt>
      <trkpt lat="44.00554" lon="7.20114">
        <ele>1368</ele>
        <time>2014-05-04T10:57:28.000Z</time>
      </trkpt>
      <trkpt lat="44.0056" lon="7.20126">
        <ele>1366</ele>
        <time>2014-05-04T10:57:33.000Z</time>
      </trkpt>
      <trkpt lat="44.00564" lon="7.2015">
        <ele>1367</ele>
        <time>2014-05-04T10:57:38.000Z</time>
      </trkpt>
      <trkpt lat="44.00571" lon="7.20175">
        <ele>1363.4000244141</ele>
        <time>2014-05-04T10:57:44.000Z</time>
      </trkpt>
      <trkpt lat="44.00571" lon="7.20197">
        <ele>1361.4000244141</ele>
        <time>2014-05-04T10:57:49.000Z</time>
      </trkpt>
      <trkpt lat="44.00571" lon="7.20215">
        <ele>1360.5999755859</ele>
        <time>2014-05-04T10:57:53.000Z</time>
      </trkpt>
      <trkpt lat="44.00572" lon="7.20217">
        <ele>1360.1999511719</ele>
        <time>2014-05-04T10:57:54.000Z</time>
      </trkpt>
      <trkpt lat="44.0057" lon="7.20222">
        <ele>1361</ele>
        <time>2014-05-04T10:57:55.000Z</time>
      </trkpt>
      <trkpt lat="44.00569" lon="7.20233">
        <ele>1362</ele>
        <time>2014-05-04T10:57:58.000Z</time>
      </trkpt>
      <trkpt lat="44.0057" lon="7.20256">
        <ele>1360</ele>
        <time>2014-05-04T10:58:03.000Z</time>
      </trkpt>
      <trkpt lat="44.00571" lon="7.20278">
        <ele>1358</ele>
        <time>2014-05-04T10:58:07.000Z</time>
      </trkpt>
      <trkpt lat="44.00563" lon="7.20291">
        <ele>1363.5999755859</ele>
        <time>2014-05-04T10:58:10.000Z</time>
      </trkpt>
      <trkpt lat="44.00559" lon="7.20303">
        <ele>1366.5999755859</ele>
        <time>2014-05-04T10:58:15.000Z</time>
      </trkpt>
      <trkpt lat="44.00559" lon="7.20306">
        <ele>1366.5999755859</ele>
        <time>2014-05-04T10:58:16.000Z</time>
      </trkpt>
      <trkpt lat="44.00563" lon="7.20325">
        <ele>1363.5999755859</ele>
        <time>2014-05-04T10:58:20.000Z</time>
      </trkpt>
      <trkpt lat="44.00563" lon="7.20331">
        <ele>1363.1999511719</ele>
        <time>2014-05-04T10:58:21.000Z</time>
      </trkpt>
      <trkpt lat="44.00568" lon="7.20357">
        <ele>1360.5999755859</ele>
        <time>2014-05-04T10:58:25.000Z</time>
      </trkpt>
      <trkpt lat="44.0058" lon="7.20375">
        <ele>1352.8000488281</ele>
        <time>2014-05-04T10:58:28.000Z</time>
      </trkpt>
      <trkpt lat="44.00583" lon="7.20381">
        <ele>1350.5999755859</ele>
        <time>2014-05-04T10:58:29.000Z</time>
      </trkpt>
      <trkpt lat="44.00586" lon="7.20385">
        <ele>1348.8000488281</ele>
        <time>2014-05-04T10:58:30.000Z</time>
      </trkpt>
      <trkpt lat="44.00592" lon="7.20402">
        <ele>1345.1999511719</ele>
        <time>2014-05-04T10:58:34.000Z</time>
      </trkpt>
      <trkpt lat="44.00592" lon="7.20409">
        <ele>1345.1999511719</ele>
        <time>2014-05-04T10:58:38.000Z</time>
      </trkpt>
      <trkpt lat="44.00589" lon="7.20411">
        <ele>1347.8000488281</ele>
        <time>2014-05-04T10:58:43.000Z</time>
      </trkpt>
      <trkpt lat="44.0059" lon="7.20412">
        <ele>1347.1999511719</ele>
        <time>2014-05-04T10:58:44.000Z</time>
      </trkpt>
      <trkpt lat="44.0059" lon="7.20414">
        <ele>1347.1999511719</ele>
        <time>2014-05-04T10:58:45.000Z</time>
      </trkpt>
      <trkpt lat="44.00594" lon="7.20421">
        <ele>1344.1999511719</ele>
        <time>2014-05-04T10:58:49.000Z</time>
      </trkpt>
      <trkpt lat="44.00594" lon="7.20422">
        <ele>1344</ele>
        <time>2014-05-04T10:58:50.000Z</time>
      </trkpt>
      <trkpt lat="44.00592" lon="7.20425">
        <ele>1345.4000244141</ele>
        <time>2014-05-04T10:58:51.000Z</time>
      </trkpt>
      <trkpt lat="44.00587" lon="7.20434">
        <ele>1348.5999755859</ele>
        <time>2014-05-04T10:58:55.000Z</time>
      </trkpt>
      <trkpt lat="44.00584" lon="7.20452">
        <ele>1350.8000488281</ele>
        <time>2014-05-04T10:59:00.000Z</time>
      </trkpt>
      <trkpt lat="44.00589" lon="7.2046">
        <ele>1347.4000244141</ele>
        <time>2014-05-04T10:59:04.000Z</time>
      </trkpt>
      <trkpt lat="44.00598" lon="7.20471">
        <ele>1339.8000488281</ele>
        <time>2014-05-04T10:59:10.000Z</time>
      </trkpt>
      <trkpt lat="44.006" lon="7.20487">
        <ele>1338.5999755859</ele>
        <time>2014-05-04T10:59:15.000Z</time>
      </trkpt>
      <trkpt lat="44.00599" lon="7.20495">
        <ele>1337.8000488281</ele>
        <time>2014-05-04T10:59:17.000Z</time>
      </trkpt>
      <trkpt lat="44.00598" lon="7.20508">
        <ele>1336.5999755859</ele>
        <time>2014-05-04T10:59:20.000Z</time>
      </trkpt>
      <trkpt lat="44.00607" lon="7.2053">
        <ele>1327.8000488281</ele>
        <time>2014-05-04T10:59:25.000Z</time>
      </trkpt>
      <trkpt lat="44.00612" lon="7.20554">
        <ele>1321.5999755859</ele>
        <time>2014-05-04T10:59:29.000Z</time>
      </trkpt>
      <trkpt lat="44.0061" lon="7.20567">
        <ele>1320.5999755859</ele>
        <time>2014-05-04T10:59:31.000Z</time>
      </trkpt>
      <trkpt lat="44.00608" lon="7.20582">
        <ele>1319.8000488281</ele>
        <time>2014-05-04T10:59:33.000Z</time>
      </trkpt>
      <trkpt lat="44.00604" lon="7.20599">
        <ele>1318.4000244141</ele>
        <time>2014-05-04T10:59:36.000Z</time>
      </trkpt>
      <trkpt lat="44.00603" lon="7.20604">
        <ele>1318</ele>
        <time>2014-05-04T10:59:37.000Z</time>
      </trkpt>
      <trkpt lat="44.00598" lon="7.20624">
        <ele>1316.5999755859</ele>
        <time>2014-05-04T10:59:40.000Z</time>
      </trkpt>
      <trkpt lat="44.00592" lon="7.20637">
        <ele>1317</ele>
        <time>2014-05-04T10:59:42.000Z</time>
      </trkpt>
      <trkpt lat="44.00575" lon="7.20666">
        <ele>1318.8000488281</ele>
        <time>2014-05-04T10:59:47.000Z</time>
      </trkpt>
      <trkpt lat="44.00552" lon="7.20688">
        <ele>1327.1999511719</ele>
        <time>2014-05-04T10:59:51.000Z</time>
      </trkpt>
      <trkpt lat="44.0056" lon="7.20705">
        <ele>1321.1999511719</ele>
        <time>2014-05-04T10:59:54.000Z</time>
      </trkpt>
      <trkpt lat="44.00572" lon="7.20719">
        <ele>1313.4000244141</ele>
        <time>2014-05-04T10:59:58.000Z</time>
      </trkpt>
      <trkpt lat="44.00574" lon="7.20722">
        <ele>1312</ele>
        <time>2014-05-04T10:59:59.000Z</time>
      </trkpt>
      <trkpt lat="44.00577" lon="7.20734">
        <ele>1309</ele>
        <time>2014-05-04T11:00:02.000Z</time>
      </trkpt>
      <trkpt lat="44.00576" lon="7.20751">
        <ele>1308.1999511719</ele>
        <time>2014-05-04T11:00:05.000Z</time>
      </trkpt>
      <trkpt lat="44.00574" lon="7.20761">
        <ele>1309</ele>
        <time>2014-05-04T11:00:07.000Z</time>
      </trkpt>
      <trkpt lat="44.00568" lon="7.20774">
        <ele>1311.4000244141</ele>
        <time>2014-05-04T11:00:11.000Z</time>
      </trkpt>
      <trkpt lat="44.00567" lon="7.20787">
        <ele>1312</ele>
        <time>2014-05-04T11:00:16.000Z</time>
      </trkpt>
      <trkpt lat="44.00577" lon="7.20791">
        <ele>1306.8000488281</ele>
        <time>2014-05-04T11:00:20.000Z</time>
      </trkpt>
      <trkpt lat="44.00578" lon="7.20794">
        <ele>1306.4000244141</ele>
        <time>2014-05-04T11:00:21.000Z</time>
      </trkpt>
      <trkpt lat="44.00578" lon="7.20803">
        <ele>1306.4000244141</ele>
        <time>2014-05-04T11:00:24.000Z</time>
      </trkpt>
      <trkpt lat="44.00578" lon="7.20809">
        <ele>1306.4000244141</ele>
        <time>2014-05-04T11:00:27.000Z</time>
      </trkpt>
      <trkpt lat="44.0058" lon="7.2081">
        <ele>1305.8000488281</ele>
        <time>2014-05-04T11:00:28.000Z</time>
      </trkpt>
      <trkpt lat="44.00582" lon="7.20811">
        <ele>1304.5999755859</ele>
        <time>2014-05-04T11:00:31.000Z</time>
      </trkpt>
      <trkpt lat="44.00583" lon="7.20812">
        <ele>1303.8000488281</ele>
        <time>2014-05-04T11:00:32.000Z</time>
      </trkpt>
      <trkpt lat="44.00598" lon="7.20812">
        <ele>1296.1999511719</ele>
        <time>2014-05-04T11:00:36.000Z</time>
      </trkpt>
      <trkpt lat="44.00614" lon="7.20825">
        <ele>1288.5999755859</ele>
        <time>2014-05-04T11:00:40.000Z</time>
      </trkpt>
      <trkpt lat="44.0062" lon="7.2084">
        <ele>1286.5999755859</ele>
        <time>2014-05-04T11:00:44.000Z</time>
      </trkpt>
      <trkpt lat="44.00619" lon="7.20842">
        <ele>1287.1999511719</ele>
        <time>2014-05-04T11:00:45.000Z</time>
      </trkpt>
      <trkpt lat="44.00617" lon="7.20856">
        <ele>1288.5999755859</ele>
        <time>2014-05-04T11:00:49.000Z</time>
      </trkpt>
      <trkpt lat="44.00617" lon="7.20872">
        <ele>1289.8000488281</ele>
        <time>2014-05-04T11:00:53.000Z</time>
      </trkpt>
      <trkpt lat="44.00615" lon="7.20875">
        <ele>1290.8000488281</ele>
        <time>2014-05-04T11:00:54.000Z</time>
      </trkpt>
      <trkpt lat="44.00612" lon="7.20887">
        <ele>1292.8000488281</ele>
        <time>2014-05-04T11:00:57.000Z</time>
      </trkpt>
      <trkpt lat="44.0061" lon="7.20895">
        <ele>1294.4000244141</ele>
        <time>2014-05-04T11:00:59.000Z</time>
      </trkpt>
      <trkpt lat="44.00607" lon="7.20901">
        <ele>1296</ele>
        <time>2014-05-04T11:01:02.000Z</time>
      </trkpt>
      <trkpt lat="44.00605" lon="7.20905">
        <ele>1297.4000244141</ele>
        <time>2014-05-04T11:01:07.000Z</time>
      </trkpt>
      <trkpt lat="44.00602" lon="7.20915">
        <ele>1300.1999511719</ele>
        <time>2014-05-04T11:01:11.000Z</time>
      </trkpt>
      <trkpt lat="44.00604" lon="7.20911">
        <ele>1298.1999511719</ele>
        <time>2014-05-04T11:01:14.000Z</time>
      </trkpt>
      <trkpt lat="44.00606" lon="7.2091">
        <ele>1297.4000244141</ele>
        <time>2014-05-04T11:01:15.000Z</time>
      </trkpt>
      <trkpt lat="44.00621" lon="7.20902">
        <ele>1290</ele>
        <time>2014-05-04T11:01:19.000Z</time>
      </trkpt>
      <trkpt lat="44.00641" lon="7.20901">
        <ele>1281</ele>
        <time>2014-05-04T11:01:23.000Z</time>
      </trkpt>
      <trkpt lat="44.00667" lon="7.20901">
        <ele>1269.5999755859</ele>
        <time>2014-05-04T11:01:27.000Z</time>
      </trkpt>
      <trkpt lat="44.00681" lon="7.20926">
        <ele>1266.5999755859</ele>
        <time>2014-05-04T11:01:31.000Z</time>
      </trkpt>
      <trkpt lat="44.00688" lon="7.20945">
        <ele>1266.5999755859</ele>
        <time>2014-05-04T11:01:33.000Z</time>
      </trkpt>
      <trkpt lat="44.00695" lon="7.20963">
        <ele>1266.4000244141</ele>
        <time>2014-05-04T11:01:36.000Z</time>
      </trkpt>
      <trkpt lat="44.00698" lon="7.20973">
        <ele>1266.1999511719</ele>
        <time>2014-05-04T11:01:38.000Z</time>
      </trkpt>
      <trkpt lat="44.007" lon="7.20982">
        <ele>1266.4000244141</ele>
        <time>2014-05-04T11:01:40.000Z</time>
      </trkpt>
      <trkpt lat="44.00701" lon="7.20984">
        <ele>1266</ele>
        <time>2014-05-04T11:01:41.000Z</time>
      </trkpt>
      <trkpt lat="44.00706" lon="7.20991">
        <ele>1264</ele>
        <time>2014-05-04T11:01:43.000Z</time>
      </trkpt>
      <trkpt lat="44.00709" lon="7.20997">
        <ele>1263.5999755859</ele>
        <time>2014-05-04T11:01:45.000Z</time>
      </trkpt>
      <trkpt lat="44.00712" lon="7.21013">
        <ele>1263.8000488281</ele>
        <time>2014-05-04T11:01:50.000Z</time>
      </trkpt>
      <trkpt lat="44.00712" lon="7.21016">
        <ele>1264.1999511719</ele>
        <time>2014-05-04T11:01:51.000Z</time>
      </trkpt>
      <trkpt lat="44.00711" lon="7.2102">
        <ele>1265.1999511719</ele>
        <time>2014-05-04T11:01:52.000Z</time>
      </trkpt>
      <trkpt lat="44.00708" lon="7.21027">
        <ele>1266.8000488281</ele>
        <time>2014-05-04T11:01:55.000Z</time>
      </trkpt>
      <trkpt lat="44.00707" lon="7.21029">
        <ele>1267.1999511719</ele>
        <time>2014-05-04T11:01:58.000Z</time>
      </trkpt>
      <trkpt lat="44.00712" lon="7.21023">
        <ele>1264.4000244141</ele>
        <time>2014-05-04T11:02:00.000Z</time>
      </trkpt>
      <trkpt lat="44.00715" lon="7.21016">
        <ele>1262.4000244141</ele>
        <time>2014-05-04T11:02:02.000Z</time>
      </trkpt>
      <trkpt lat="44.00717" lon="7.21008">
        <ele>1260.1999511719</ele>
        <time>2014-05-04T11:02:04.000Z</time>
      </trkpt>
      <trkpt lat="44.00721" lon="7.20981">
        <ele>1253.4000244141</ele>
        <time>2014-05-04T11:02:09.000Z</time>
      </trkpt>
      <trkpt lat="44.00714" lon="7.20955">
        <ele>1253</ele>
        <time>2014-05-04T11:02:14.000Z</time>
      </trkpt>
      <trkpt lat="44.00714" lon="7.20948">
        <ele>1251.5999755859</ele>
        <time>2014-05-04T11:02:15.000Z</time>
      </trkpt>
      <trkpt lat="44.00715" lon="7.20928">
        <ele>1248.5999755859</ele>
        <time>2014-05-04T11:02:18.000Z</time>
      </trkpt>
      <trkpt lat="44.00715" lon="7.20922">
        <ele>1248.4000244141</ele>
        <time>2014-05-04T11:02:19.000Z</time>
      </trkpt>
      <trkpt lat="44.00711" lon="7.209">
        <ele>1249.1999511719</ele>
        <time>2014-05-04T11:02:23.000Z</time>
      </trkpt>
      <trkpt lat="44.00708" lon="7.20895">
        <ele>1250.4000244141</ele>
        <time>2014-05-04T11:02:24.000Z</time>
      </trkpt>
      <trkpt lat="44.007" lon="7.20884">
        <ele>1253</ele>
        <time>2014-05-04T11:02:27.000Z</time>
      </trkpt>
      <trkpt lat="44.00697" lon="7.20876">
        <ele>1253.8000488281</ele>
        <time>2014-05-04T11:02:31.000Z</time>
      </trkpt>
      <trkpt lat="44.00696" lon="7.20874">
        <ele>1254.4000244141</ele>
        <time>2014-05-04T11:02:33.000Z</time>
      </trkpt>
      <trkpt lat="44.00694" lon="7.20873">
        <ele>1255.1999511719</ele>
        <time>2014-05-04T11:02:36.000Z</time>
      </trkpt>
      <trkpt lat="44.00689" lon="7.20871">
        <ele>1257.1999511719</ele>
        <time>2014-05-04T11:02:41.000Z</time>
      </trkpt>
      <trkpt lat="44.00689" lon="7.2087">
        <ele>1257.4000244141</ele>
        <time>2014-05-04T11:02:42.000Z</time>
      </trkpt>
      <trkpt lat="44.00688" lon="7.2087">
        <ele>1257.5999755859</ele>
        <time>2014-05-04T11:02:46.000Z</time>
      </trkpt>
      <trkpt lat="44.00691" lon="7.20865">
        <ele>1255.8000488281</ele>
        <time>2014-05-04T11:02:50.000Z</time>
      </trkpt>
      <trkpt lat="44.00693" lon="7.20865">
        <ele>1255</ele>
        <time>2014-05-04T11:02:53.000Z</time>
      </trkpt>
      <trkpt lat="44.00686" lon="7.20863">
        <ele>1258</ele>
        <time>2014-05-04T11:03:03.000Z</time>
      </trkpt>
      <trkpt lat="44.00681" lon="7.20861">
        <ele>1260.1999511719</ele>
        <time>2014-05-04T11:03:06.000Z</time>
      </trkpt>
      <trkpt lat="44.00679" lon="7.2086">
        <ele>1261.1999511719</ele>
        <time>2014-05-04T11:03:07.000Z</time>
      </trkpt>
      <trkpt lat="44.00681" lon="7.2086">
        <ele>1260.4000244141</ele>
        <time>2014-05-04T11:03:10.000Z</time>
      </trkpt>
      <trkpt lat="44.00683" lon="7.2086">
        <ele>1259.1999511719</ele>
        <time>2014-05-04T11:03:11.000Z</time>
      </trkpt>
      <trkpt lat="44.00694" lon="7.20859">
        <ele>1254.1999511719</ele>
        <time>2014-05-04T11:03:16.000Z</time>
      </trkpt>
      <trkpt lat="44.00696" lon="7.20858">
        <ele>1253.1999511719</ele>
        <time>2014-05-04T11:03:17.000Z</time>
      </trkpt>
      <trkpt lat="44.00702" lon="7.20856">
        <ele>1250</ele>
        <time>2014-05-04T11:03:23.000Z</time>
      </trkpt>
      <trkpt lat="44.00703" lon="7.20856">
        <ele>1249.5999755859</ele>
        <time>2014-05-04T11:03:24.000Z</time>
      </trkpt>
      <trkpt lat="44.00709" lon="7.20858">
        <ele>1246.8000488281</ele>
        <time>2014-05-04T11:03:38.000Z</time>
      </trkpt>
      <trkpt lat="44.00703" lon="7.2086">
        <ele>1249.8000488281</ele>
        <time>2014-05-04T11:03:43.000Z</time>
      </trkpt>
      <trkpt lat="44.00701" lon="7.20866">
        <ele>1251.4000244141</ele>
        <time>2014-05-04T11:03:51.000Z</time>
      </trkpt>
      <trkpt lat="44.00704" lon="7.20863">
        <ele>1250</ele>
        <time>2014-05-04T11:03:56.000Z</time>
      </trkpt>
      <trkpt lat="44.00709" lon="7.20862">
        <ele>1247.4000244141</ele>
        <time>2014-05-04T11:04:01.000Z</time>
      </trkpt>
      <trkpt lat="44.00713" lon="7.20862">
        <ele>1245.1999511719</ele>
        <time>2014-05-04T11:04:09.000Z</time>
      </trkpt>
      <trkpt lat="44.00723" lon="7.20857">
        <ele>1240.4000244141</ele>
        <time>2014-05-04T11:04:18.000Z</time>
      </trkpt>
      <trkpt lat="44.00724" lon="7.20856">
        <ele>1239.8000488281</ele>
        <time>2014-05-04T11:04:19.000Z</time>
      </trkpt>
      <trkpt lat="44.00727" lon="7.20849">
        <ele>1237.8000488281</ele>
        <time>2014-05-04T11:04:22.000Z</time>
      </trkpt>
      <trkpt lat="44.0073" lon="7.20846">
        <ele>1236.5999755859</ele>
        <time>2014-05-04T11:04:24.000Z</time>
      </trkpt>
      <trkpt lat="44.00732" lon="7.20838">
        <ele>1235</ele>
        <time>2014-05-04T11:04:27.000Z</time>
      </trkpt>
      <trkpt lat="44.00735" lon="7.20828">
        <ele>1232.5999755859</ele>
        <time>2014-05-04T11:04:32.000Z</time>
      </trkpt>
      <trkpt lat="44.0074" lon="7.20826">
        <ele>1230.5999755859</ele>
        <time>2014-05-04T11:04:35.000Z</time>
      </trkpt>
      <trkpt lat="44.0074" lon="7.20823">
        <ele>1230</ele>
        <time>2014-05-04T11:04:37.000Z</time>
      </trkpt>
      <trkpt lat="44.00743" lon="7.20807">
        <ele>1227.8000488281</ele>
        <time>2014-05-04T11:04:43.000Z</time>
      </trkpt>
      <trkpt lat="44.00746" lon="7.20805">
        <ele>1226.4000244141</ele>
        <time>2014-05-04T11:04:47.000Z</time>
      </trkpt>
      <trkpt lat="44.00748" lon="7.20805">
        <ele>1225.4000244141</ele>
        <time>2014-05-04T11:04:49.000Z</time>
      </trkpt>
      <trkpt lat="44.00751" lon="7.20803">
        <ele>1224.1999511719</ele>
        <time>2014-05-04T11:04:53.000Z</time>
      </trkpt>
      <trkpt lat="44.00758" lon="7.20791">
        <ele>1220.8000488281</ele>
        <time>2014-05-04T11:04:58.000Z</time>
      </trkpt>
      <trkpt lat="44.00761" lon="7.2077">
        <ele>1219</ele>
        <time>2014-05-04T11:05:02.000Z</time>
      </trkpt>
      <trkpt lat="44.00759" lon="7.20757">
        <ele>1219.5999755859</ele>
        <time>2014-05-04T11:05:07.000Z</time>
      </trkpt>
      <trkpt lat="44.00756" lon="7.20756">
        <ele>1220.5999755859</ele>
        <time>2014-05-04T11:05:09.000Z</time>
      </trkpt>
      <trkpt lat="44.00752" lon="7.20753">
        <ele>1222.4000244141</ele>
        <time>2014-05-04T11:05:12.000Z</time>
      </trkpt>
      <trkpt lat="44.0075" lon="7.20753">
        <ele>1223.5999755859</ele>
        <time>2014-05-04T11:05:14.000Z</time>
      </trkpt>
      <trkpt lat="44.00748" lon="7.20752">
        <ele>1224.4000244141</ele>
        <time>2014-05-04T11:05:16.000Z</time>
      </trkpt>
      <trkpt lat="44.00747" lon="7.20751">
        <ele>1224.8000488281</ele>
        <time>2014-05-04T11:05:17.000Z</time>
      </trkpt>
      <trkpt lat="44.00745" lon="7.20749">
        <ele>1225.1999511719</ele>
        <time>2014-05-04T11:05:22.000Z</time>
      </trkpt>
      <trkpt lat="44.0074" lon="7.20742">
        <ele>1227.8000488281</ele>
        <time>2014-05-04T11:05:26.000Z</time>
      </trkpt>
      <trkpt lat="44.00729" lon="7.20729">
        <ele>1233.8000488281</ele>
        <time>2014-05-04T11:05:31.000Z</time>
      </trkpt>
      <trkpt lat="44.00723" lon="7.20719">
        <ele>1237.4000244141</ele>
        <time>2014-05-04T11:05:36.000Z</time>
      </trkpt>
      <trkpt lat="44.00724" lon="7.20717">
        <ele>1237.1999511719</ele>
        <time>2014-05-04T11:05:38.000Z</time>
      </trkpt>
      <trkpt lat="44.0073" lon="7.2071">
        <ele>1235</ele>
        <time>2014-05-04T11:05:46.000Z</time>
      </trkpt>
      <trkpt lat="44.00731" lon="7.20713">
        <ele>1234.1999511719</ele>
        <time>2014-05-04T11:05:48.000Z</time>
      </trkpt>
      <trkpt lat="44.00736" lon="7.20722">
        <ele>1231.1999511719</ele>
        <time>2014-05-04T11:05:52.000Z</time>
      </trkpt>
      <trkpt lat="44.00741" lon="7.20722">
        <ele>1229</ele>
        <time>2014-05-04T11:05:56.000Z</time>
      </trkpt>
      <trkpt lat="44.00744" lon="7.20718">
        <ele>1228.1999511719</ele>
        <time>2014-05-04T11:05:58.000Z</time>
      </trkpt>
      <trkpt lat="44.00748" lon="7.20713">
        <ele>1227.1999511719</ele>
        <time>2014-05-04T11:06:01.000Z</time>
      </trkpt>
      <trkpt lat="44.00752" lon="7.20705">
        <ele>1227</ele>
        <time>2014-05-04T11:06:05.000Z</time>
      </trkpt>
      <trkpt lat="44.00756" lon="7.20708">
        <ele>1224.5999755859</ele>
        <time>2014-05-04T11:06:13.000Z</time>
      </trkpt>
      <trkpt lat="44.0076" lon="7.20714">
        <ele>1222.4000244141</ele>
        <time>2014-05-04T11:06:18.000Z</time>
      </trkpt>
      <trkpt lat="44.00762" lon="7.20715">
        <ele>1221.5999755859</ele>
        <time>2014-05-04T11:06:20.000Z</time>
      </trkpt>
      <trkpt lat="44.00759" lon="7.20717">
        <ele>1222.1999511719</ele>
        <time>2014-05-04T11:06:23.000Z</time>
      </trkpt>
      <trkpt lat="44.00758" lon="7.2072">
        <ele>1222.4000244141</ele>
        <time>2014-05-04T11:06:27.000Z</time>
      </trkpt>
      <trkpt lat="44.00757" lon="7.2072">
        <ele>1222.5999755859</ele>
        <time>2014-05-04T11:06:28.000Z</time>
      </trkpt>
      <trkpt lat="44.0075" lon="7.2072">
        <ele>1225.4000244141</ele>
        <time>2014-05-04T11:06:32.000Z</time>
      </trkpt>
      <trkpt lat="44.0075" lon="7.20717">
        <ele>1225.8000488281</ele>
        <time>2014-05-04T11:06:33.000Z</time>
      </trkpt>
      <trkpt lat="44.00756" lon="7.20708">
        <ele>1225</ele>
        <time>2014-05-04T11:06:41.000Z</time>
      </trkpt>
      <trkpt lat="44.00762" lon="7.20704">
        <ele>1223.4000244141</ele>
        <time>2014-05-04T11:06:45.000Z</time>
      </trkpt>
      <trkpt lat="44.00764" lon="7.20706">
        <ele>1222.1999511719</ele>
        <time>2014-05-04T11:06:50.000Z</time>
      </trkpt>
      <trkpt lat="44.00769" lon="7.20708">
        <ele>1220.1999511719</ele>
        <time>2014-05-04T11:06:53.000Z</time>
      </trkpt>
      <trkpt lat="44.00775" lon="7.2071">
        <ele>1217.5999755859</ele>
        <time>2014-05-04T11:06:56.000Z</time>
      </trkpt>
      <trkpt lat="44.00776" lon="7.20721">
        <ele>1215.1999511719</ele>
        <time>2014-05-04T11:07:01.000Z</time>
      </trkpt>
      <trkpt lat="44.00779" lon="7.20725">
        <ele>1213.1999511719</ele>
        <time>2014-05-04T11:07:06.000Z</time>
      </trkpt>
      <trkpt lat="44.0078" lon="7.20729">
        <ele>1212.4000244141</ele>
        <time>2014-05-04T11:07:08.000Z</time>
      </trkpt>
      <trkpt lat="44.00781" lon="7.20732">
        <ele>1211.1999511719</ele>
        <time>2014-05-04T11:07:09.000Z</time>
      </trkpt>
      <trkpt lat="44.00784" lon="7.20735">
        <ele>1209.4000244141</ele>
        <time>2014-05-04T11:07:13.000Z</time>
      </trkpt>
      <trkpt lat="44.00784" lon="7.20744">
        <ele>1208.4000244141</ele>
        <time>2014-05-04T11:07:18.000Z</time>
      </trkpt>
      <trkpt lat="44.00784" lon="7.20748">
        <ele>1208.5999755859</ele>
        <time>2014-05-04T11:07:19.000Z</time>
      </trkpt>
      <trkpt lat="44.00785" lon="7.2077">
        <ele>1209.8000488281</ele>
        <time>2014-05-04T11:07:22.000Z</time>
      </trkpt>
      <trkpt lat="44.00786" lon="7.20785">
        <ele>1210</ele>
        <time>2014-05-04T11:07:24.000Z</time>
      </trkpt>
      <trkpt lat="44.0079" lon="7.20795">
        <ele>1209</ele>
        <time>2014-05-04T11:07:26.000Z</time>
      </trkpt>
      <trkpt lat="44.00796" lon="7.20805">
        <ele>1207.5999755859</ele>
        <time>2014-05-04T11:07:29.000Z</time>
      </trkpt>
      <trkpt lat="44.00804" lon="7.20804">
        <ele>1205.5999755859</ele>
        <time>2014-05-04T11:07:30.000Z</time>
      </trkpt>
      <trkpt lat="44.00815" lon="7.20795">
        <ele>1202.1999511719</ele>
        <time>2014-05-04T11:07:33.000Z</time>
      </trkpt>
      <trkpt lat="44.0082" lon="7.20793">
        <ele>1200.8000488281</ele>
        <time>2014-05-04T11:07:34.000Z</time>
      </trkpt>
      <trkpt lat="44.00822" lon="7.20793">
        <ele>1200.1999511719</ele>
        <time>2014-05-04T11:07:35.000Z</time>
      </trkpt>
      <trkpt lat="44.00822" lon="7.20792">
        <ele>1200.1999511719</ele>
        <time>2014-05-04T11:07:37.000Z</time>
      </trkpt>
      <trkpt lat="44.00821" lon="7.20788">
        <ele>1200</ele>
        <time>2014-05-04T11:07:41.000Z</time>
      </trkpt>
      <trkpt lat="44.00824" lon="7.20784">
        <ele>1198</ele>
        <time>2014-05-04T11:07:45.000Z</time>
      </trkpt>
      <trkpt lat="44.00826" lon="7.20783">
        <ele>1196.8000488281</ele>
        <time>2014-05-04T11:07:47.000Z</time>
      </trkpt>
      <trkpt lat="44.00831" lon="7.20779">
        <ele>1193.5999755859</ele>
        <time>2014-05-04T11:07:53.000Z</time>
      </trkpt>
      <trkpt lat="44.00837" lon="7.20769">
        <ele>1189</ele>
        <time>2014-05-04T11:07:58.000Z</time>
      </trkpt>
      <trkpt lat="44.00846" lon="7.20759">
        <ele>1183.5999755859</ele>
        <time>2014-05-04T11:08:04.000Z</time>
      </trkpt>
      <trkpt lat="44.00853" lon="7.20751">
        <ele>1178.5999755859</ele>
        <time>2014-05-04T11:08:09.000Z</time>
      </trkpt>
      <trkpt lat="44.00867" lon="7.20739">
        <ele>1176.4000244141</ele>
        <time>2014-05-04T11:08:13.000Z</time>
      </trkpt>
      <trkpt lat="44.00889" lon="7.20722">
        <ele>1180</ele>
        <time>2014-05-04T11:08:18.000Z</time>
      </trkpt>
      <trkpt lat="44.00895" lon="7.20717">
        <ele>1181.1999511719</ele>
        <time>2014-05-04T11:08:19.000Z</time>
      </trkpt>
      <trkpt lat="44.0091" lon="7.20704">
        <ele>1181.1999511719</ele>
        <time>2014-05-04T11:08:22.000Z</time>
      </trkpt>
      <trkpt lat="44.00918" lon="7.20689">
        <ele>1176.8000488281</ele>
        <time>2014-05-04T11:08:26.000Z</time>
      </trkpt>
      <trkpt lat="44.00918" lon="7.20674">
        <ele>1174</ele>
        <time>2014-05-04T11:08:30.000Z</time>
      </trkpt>
      <trkpt lat="44.00917" lon="7.2067">
        <ele>1173.4000244141</ele>
        <time>2014-05-04T11:08:31.000Z</time>
      </trkpt>
      <trkpt lat="44.00917" lon="7.20649">
        <ele>1172.5999755859</ele>
        <time>2014-05-04T11:08:35.000Z</time>
      </trkpt>
      <trkpt lat="44.0091" lon="7.20619">
        <ele>1173.4000244141</ele>
        <time>2014-05-04T11:08:40.000Z</time>
      </trkpt>
      <trkpt lat="44.00912" lon="7.20614">
        <ele>1172.1999511719</ele>
        <time>2014-05-04T11:08:41.000Z</time>
      </trkpt>
      <trkpt lat="44.00917" lon="7.20607">
        <ele>1169.8000488281</ele>
        <time>2014-05-04T11:08:43.000Z</time>
      </trkpt>
      <trkpt lat="44.00919" lon="7.20602">
        <ele>1168.4000244141</ele>
        <time>2014-05-04T11:08:45.000Z</time>
      </trkpt>
      <trkpt lat="44.00924" lon="7.20595">
        <ele>1165.8000488281</ele>
        <time>2014-05-04T11:08:48.000Z</time>
      </trkpt>
      <trkpt lat="44.00932" lon="7.20584">
        <ele>1162.1999511719</ele>
        <time>2014-05-04T11:08:53.000Z</time>
      </trkpt>
      <trkpt lat="44.00937" lon="7.20576">
        <ele>1159.4000244141</ele>
        <time>2014-05-04T11:08:58.000Z</time>
      </trkpt>
      <trkpt lat="44.00937" lon="7.20575">
        <ele>1159.1999511719</ele>
        <time>2014-05-04T11:09:04.000Z</time>
      </trkpt>
      <trkpt lat="44.0094" lon="7.20567">
        <ele>1156.8000488281</ele>
        <time>2014-05-04T11:09:10.000Z</time>
      </trkpt>
      <trkpt lat="44.00941" lon="7.20562">
        <ele>1155.1999511719</ele>
        <time>2014-05-04T11:09:15.000Z</time>
      </trkpt>
      <trkpt lat="44.00948" lon="7.20555">
        <ele>1156</ele>
        <time>2014-05-04T11:09:20.000Z</time>
      </trkpt>
      <trkpt lat="44.00957" lon="7.20551">
        <ele>1158.1999511719</ele>
        <time>2014-05-04T11:09:26.000Z</time>
      </trkpt>
      <trkpt lat="44.00963" lon="7.20545">
        <ele>1159.4000244141</ele>
        <time>2014-05-04T11:09:32.000Z</time>
      </trkpt>
      <trkpt lat="44.00968" lon="7.20545">
        <ele>1161.1999511719</ele>
        <time>2014-05-04T11:09:38.000Z</time>
      </trkpt>
      <trkpt lat="44.00968" lon="7.20541">
        <ele>1160.1999511719</ele>
        <time>2014-05-04T11:09:42.000Z</time>
      </trkpt>
      <trkpt lat="44.00968" lon="7.20536">
        <ele>1159.4000244141</ele>
        <time>2014-05-04T11:09:46.000Z</time>
      </trkpt>
      <trkpt lat="44.00968" lon="7.20533">
        <ele>1158.8000488281</ele>
        <time>2014-05-04T11:09:48.000Z</time>
      </trkpt>
      <trkpt lat="44.00969" lon="7.20526">
        <ele>1158</ele>
        <time>2014-05-04T11:09:53.000Z</time>
      </trkpt>
      <trkpt lat="44.0097" lon="7.20522">
        <ele>1157.5999755859</ele>
        <time>2014-05-04T11:09:55.000Z</time>
      </trkpt>
      <trkpt lat="44.00971" lon="7.20519">
        <ele>1157.4000244141</ele>
        <time>2014-05-04T11:09:58.000Z</time>
      </trkpt>
      <trkpt lat="44.00972" lon="7.20515">
        <ele>1157.5999755859</ele>
        <time>2014-05-04T11:10:01.000Z</time>
      </trkpt>
      <trkpt lat="44.00973" lon="7.20509">
        <ele>1157</ele>
        <time>2014-05-04T11:10:04.000Z</time>
      </trkpt>
      <trkpt lat="44.00977" lon="7.20501">
        <ele>1157.1999511719</ele>
        <time>2014-05-04T11:10:11.000Z</time>
      </trkpt>
      <trkpt lat="44.00978" lon="7.20494">
        <ele>1157</ele>
        <time>2014-05-04T11:10:17.000Z</time>
      </trkpt>
      <trkpt lat="44.00979" lon="7.20485">
        <ele>1156.1999511719</ele>
        <time>2014-05-04T11:10:23.000Z</time>
      </trkpt>
      <trkpt lat="44.00984" lon="7.20476">
        <ele>1157.1999511719</ele>
        <time>2014-05-04T11:10:30.000Z</time>
      </trkpt>
      <trkpt lat="44.00984" lon="7.20473">
        <ele>1157.1999511719</ele>
        <time>2014-05-04T11:10:35.000Z</time>
      </trkpt>
      <trkpt lat="44.00982" lon="7.2047">
        <ele>1156</ele>
        <time>2014-05-04T11:10:38.000Z</time>
      </trkpt>
      <trkpt lat="44.00981" lon="7.20468">
        <ele>1155.4000244141</ele>
        <time>2014-05-04T11:10:40.000Z</time>
      </trkpt>
      <trkpt lat="44.00981" lon="7.20451">
        <ele>1154</ele>
        <time>2014-05-04T11:10:48.000Z</time>
      </trkpt>
      <trkpt lat="44.00983" lon="7.20442">
        <ele>1153.1999511719</ele>
        <time>2014-05-04T11:10:52.000Z</time>
      </trkpt>
      <trkpt lat="44.00985" lon="7.20438">
        <ele>1153.1999511719</ele>
        <time>2014-05-04T11:10:54.000Z</time>
      </trkpt>
      <trkpt lat="44.00988" lon="7.20432">
        <ele>1153.4000244141</ele>
        <time>2014-05-04T11:10:57.000Z</time>
      </trkpt>
      <trkpt lat="44.00988" lon="7.20429">
        <ele>1153</ele>
        <time>2014-05-04T11:10:58.000Z</time>
      </trkpt>
      <trkpt lat="44.00989" lon="7.2042">
        <ele>1152</ele>
        <time>2014-05-04T11:11:03.000Z</time>
      </trkpt>
      <trkpt lat="44.00989" lon="7.2042">
        <ele>1152</ele>
        <time>2014-05-04T11:11:04.000Z</time>
      </trkpt>
      <trkpt lat="44.00993" lon="7.20417">
        <ele>1152.8000488281</ele>
        <time>2014-05-04T11:11:10.000Z</time>
      </trkpt>
      <trkpt lat="44.00999" lon="7.2041">
        <ele>1154.1999511719</ele>
        <time>2014-05-04T11:11:15.000Z</time>
      </trkpt>
      <trkpt lat="44.01005" lon="7.20404">
        <ele>1156</ele>
        <time>2014-05-04T11:11:19.000Z</time>
      </trkpt>
      <trkpt lat="44.01007" lon="7.20402">
        <ele>1156.5999755859</ele>
        <time>2014-05-04T11:11:20.000Z</time>
      </trkpt>
      <trkpt lat="44.01009" lon="7.20405">
        <ele>1157.1999511719</ele>
        <time>2014-05-04T11:11:23.000Z</time>
      </trkpt>
      <trkpt lat="44.01008" lon="7.20407">
        <ele>1157</ele>
        <time>2014-05-04T11:11:24.000Z</time>
      </trkpt>
      <trkpt lat="44.01008" lon="7.20409">
        <ele>1157.1999511719</ele>
        <time>2014-05-04T11:11:26.000Z</time>
      </trkpt>
      <trkpt lat="44.01009" lon="7.20413">
        <ele>1157.5999755859</ele>
        <time>2014-05-04T11:11:29.000Z</time>
      </trkpt>
      <trkpt lat="44.0101" lon="7.20419">
        <ele>1159</ele>
        <time>2014-05-04T11:11:34.000Z</time>
      </trkpt>
      <trkpt lat="44.01009" lon="7.20421">
        <ele>1159</ele>
        <time>2014-05-04T11:11:35.000Z</time>
      </trkpt>
      <trkpt lat="44.01008" lon="7.20426">
        <ele>1159.1999511719</ele>
        <time>2014-05-04T11:11:41.000Z</time>
      </trkpt>
      <trkpt lat="44.01007" lon="7.20431">
        <ele>1159.8000488281</ele>
        <time>2014-05-04T11:11:44.000Z</time>
      </trkpt>
      <trkpt lat="44.01007" lon="7.20434">
        <ele>1160.1999511719</ele>
        <time>2014-05-04T11:11:45.000Z</time>
      </trkpt>
      <trkpt lat="44.01009" lon="7.20444">
        <ele>1162</ele>
        <time>2014-05-04T11:11:50.000Z</time>
      </trkpt>
      <trkpt lat="44.01009" lon="7.20445">
        <ele>1162.1999511719</ele>
        <time>2014-05-04T11:11:51.000Z</time>
      </trkpt>
      <trkpt lat="44.01007" lon="7.20453">
        <ele>1162.8000488281</ele>
        <time>2014-05-04T11:11:56.000Z</time>
      </trkpt>
      <trkpt lat="44.01007" lon="7.20456">
        <ele>1163.1999511719</ele>
        <time>2014-05-04T11:11:58.000Z</time>
      </trkpt>
      <trkpt lat="44.01007" lon="7.20459">
        <ele>1163.5999755859</ele>
        <time>2014-05-04T11:12:01.000Z</time>
      </trkpt>
      <trkpt lat="44.01006" lon="7.20461">
        <ele>1163.8000488281</ele>
        <time>2014-05-04T11:12:03.000Z</time>
      </trkpt>
      <trkpt lat="44.01006" lon="7.20464">
        <ele>1164.1999511719</ele>
        <time>2014-05-04T11:12:05.000Z</time>
      </trkpt>
      <trkpt lat="44.01006" lon="7.20469">
        <ele>1164.5999755859</ele>
        <time>2014-05-04T11:12:07.000Z</time>
      </trkpt>
      <trkpt lat="44.01004" lon="7.20475">
        <ele>1165</ele>
        <time>2014-05-04T11:12:11.000Z</time>
      </trkpt>
      <trkpt lat="44.01004" lon="7.20477">
        <ele>1165.1999511719</ele>
        <time>2014-05-04T11:12:12.000Z</time>
      </trkpt>
      <trkpt lat="44.01004" lon="7.20488">
        <ele>1166.1999511719</ele>
        <time>2014-05-04T11:12:16.000Z</time>
      </trkpt>
      <trkpt lat="44.01004" lon="7.2049">
        <ele>1166.5999755859</ele>
        <time>2014-05-04T11:12:18.000Z</time>
      </trkpt>
      <trkpt lat="44.01003" lon="7.20494">
        <ele>1166.4000244141</ele>
        <time>2014-05-04T11:12:20.000Z</time>
      </trkpt>
      <trkpt lat="44.01003" lon="7.20498">
        <ele>1167</ele>
        <time>2014-05-04T11:12:23.000Z</time>
      </trkpt>
      <trkpt lat="44.01007" lon="7.205">
        <ele>1168.5999755859</ele>
        <time>2014-05-04T11:12:29.000Z</time>
      </trkpt>
      <trkpt lat="44.01009" lon="7.20497">
        <ele>1169</ele>
        <time>2014-05-04T11:12:34.000Z</time>
      </trkpt>
      <trkpt lat="44.01009" lon="7.20493">
        <ele>1168.5999755859</ele>
        <time>2014-05-04T11:12:39.000Z</time>
      </trkpt>
      <trkpt lat="44.01012" lon="7.20486">
        <ele>1169.1999511719</ele>
        <time>2014-05-04T11:12:44.000Z</time>
      </trkpt>
      <trkpt lat="44.01017" lon="7.20478">
        <ele>1169.5999755859</ele>
        <time>2014-05-04T11:12:49.000Z</time>
      </trkpt>
      <trkpt lat="44.01021" lon="7.20468">
        <ele>1169.5999755859</ele>
        <time>2014-05-04T11:12:53.000Z</time>
      </trkpt>
      <trkpt lat="44.01021" lon="7.20463">
        <ele>1169</ele>
        <time>2014-05-04T11:12:56.000Z</time>
      </trkpt>
      <trkpt lat="44.01023" lon="7.20461">
        <ele>1169.1999511719</ele>
        <time>2014-05-04T11:12:58.000Z</time>
      </trkpt>
      <trkpt lat="44.01026" lon="7.20456">
        <ele>1169.5999755859</ele>
        <time>2014-05-04T11:13:01.000Z</time>
      </trkpt>
      <trkpt lat="44.01028" lon="7.20452">
        <ele>1170.1999511719</ele>
        <time>2014-05-04T11:13:03.000Z</time>
      </trkpt>
      <trkpt lat="44.01034" lon="7.20445">
        <ele>1173.1999511719</ele>
        <time>2014-05-04T11:13:08.000Z</time>
      </trkpt>
      <trkpt lat="44.0104" lon="7.20438">
        <ele>1175.5999755859</ele>
        <time>2014-05-04T11:13:13.000Z</time>
      </trkpt>
      <trkpt lat="44.01042" lon="7.20437">
        <ele>1176.4000244141</ele>
        <time>2014-05-04T11:13:14.000Z</time>
      </trkpt>
      <trkpt lat="44.01048" lon="7.20428">
        <ele>1178.8000488281</ele>
        <time>2014-05-04T11:13:21.000Z</time>
      </trkpt>
      <trkpt lat="44.01054" lon="7.20419">
        <ele>1180.1999511719</ele>
        <time>2014-05-04T11:13:27.000Z</time>
      </trkpt>
      <trkpt lat="44.01059" lon="7.20411">
        <ele>1181.4000244141</ele>
        <time>2014-05-04T11:13:33.000Z</time>
      </trkpt>
      <trkpt lat="44.01062" lon="7.20407">
        <ele>1182.8000488281</ele>
        <time>2014-05-04T11:13:36.000Z</time>
      </trkpt>
      <trkpt lat="44.01066" lon="7.20402">
        <ele>1184.8000488281</ele>
        <time>2014-05-04T11:13:39.000Z</time>
      </trkpt>
      <trkpt lat="44.01073" lon="7.20393">
        <ele>1187.5999755859</ele>
        <time>2014-05-04T11:13:46.000Z</time>
      </trkpt>
      <trkpt lat="44.01077" lon="7.20388">
        <ele>1189.1999511719</ele>
        <time>2014-05-04T11:13:51.000Z</time>
      </trkpt>
      <trkpt lat="44.01082" lon="7.20387">
        <ele>1192</ele>
        <time>2014-05-04T11:13:56.000Z</time>
      </trkpt>
      <trkpt lat="44.01085" lon="7.20388">
        <ele>1193.8000488281</ele>
        <time>2014-05-04T11:14:00.000Z</time>
      </trkpt>
      <trkpt lat="44.01086" lon="7.20388">
        <ele>1194.1999511719</ele>
        <time>2014-05-04T11:14:01.000Z</time>
      </trkpt>
      <trkpt lat="44.01086" lon="7.20387">
        <ele>1194</ele>
        <time>2014-05-04T11:14:02.000Z</time>
      </trkpt>
      <trkpt lat="44.01088" lon="7.20383">
        <ele>1193.1999511719</ele>
        <time>2014-05-04T11:14:06.000Z</time>
      </trkpt>
      <trkpt lat="44.01089" lon="7.20383">
        <ele>1193.4000244141</ele>
        <time>2014-05-04T11:14:07.000Z</time>
      </trkpt>
      <trkpt lat="44.01089" lon="7.20382">
        <ele>1193.4000244141</ele>
        <time>2014-05-04T11:14:11.000Z</time>
      </trkpt>
      <trkpt lat="44.01093" lon="7.20379">
        <ele>1194</ele>
        <time>2014-05-04T11:14:15.000Z</time>
      </trkpt>
      <trkpt lat="44.01096" lon="7.20375">
        <ele>1194</ele>
        <time>2014-05-04T11:14:20.000Z</time>
      </trkpt>
      <trkpt lat="44.01101" lon="7.20371">
        <ele>1194.8000488281</ele>
        <time>2014-05-04T11:14:25.000Z</time>
      </trkpt>
      <trkpt lat="44.01107" lon="7.20368">
        <ele>1196</ele>
        <time>2014-05-04T11:14:32.000Z</time>
      </trkpt>
      <trkpt lat="44.01111" lon="7.20363">
        <ele>1196</ele>
        <time>2014-05-04T11:14:39.000Z</time>
      </trkpt>
      <trkpt lat="44.01112" lon="7.20356">
        <ele>1195</ele>
        <time>2014-05-04T11:14:45.000Z</time>
      </trkpt>
      <trkpt lat="44.01115" lon="7.20351">
        <ele>1194.8000488281</ele>
        <time>2014-05-04T11:14:51.000Z</time>
      </trkpt>
      <trkpt lat="44.0112" lon="7.20348">
        <ele>1196</ele>
        <time>2014-05-04T11:15:00.000Z</time>
      </trkpt>
      <trkpt lat="44.01123" lon="7.20344">
        <ele>1196</ele>
        <time>2014-05-04T11:15:04.000Z</time>
      </trkpt>
      <trkpt lat="44.01124" lon="7.20342">
        <ele>1196.4000244141</ele>
        <time>2014-05-04T11:15:08.000Z</time>
      </trkpt>
      <trkpt lat="44.01126" lon="7.20338">
        <ele>1196.4000244141</ele>
        <time>2014-05-04T11:15:12.000Z</time>
      </trkpt>
      <trkpt lat="44.01131" lon="7.20331">
        <ele>1196.5999755859</ele>
        <time>2014-05-04T11:15:18.000Z</time>
      </trkpt>
      <trkpt lat="44.01132" lon="7.2033">
        <ele>1197</ele>
        <time>2014-05-04T11:15:20.000Z</time>
      </trkpt>
      <trkpt lat="44.01134" lon="7.20328">
        <ele>1197.5999755859</ele>
        <time>2014-05-04T11:15:21.000Z</time>
      </trkpt>
      <trkpt lat="44.01137" lon="7.20325">
        <ele>1198.4000244141</ele>
        <time>2014-05-04T11:15:24.000Z</time>
      </trkpt>
      <trkpt lat="44.01146" lon="7.20319">
        <ele>1200.8000488281</ele>
        <time>2014-05-04T11:15:30.000Z</time>
      </trkpt>
      <trkpt lat="44.01148" lon="7.20316">
        <ele>1201.4000244141</ele>
        <time>2014-05-04T11:15:32.000Z</time>
      </trkpt>
      <trkpt lat="44.0115" lon="7.20311">
        <ele>1200.8000488281</ele>
        <time>2014-05-04T11:15:35.000Z</time>
      </trkpt>
      <trkpt lat="44.01149" lon="7.20309">
        <ele>1200.4000244141</ele>
        <time>2014-05-04T11:15:36.000Z</time>
      </trkpt>
      <trkpt lat="44.01149" lon="7.20305">
        <ele>1198.8000488281</ele>
        <time>2014-05-04T11:15:40.000Z</time>
      </trkpt>
      <trkpt lat="44.0115" lon="7.20299">
        <ele>1198</ele>
        <time>2014-05-04T11:15:44.000Z</time>
      </trkpt>
      <trkpt lat="44.01151" lon="7.20298">
        <ele>1198.4000244141</ele>
        <time>2014-05-04T11:15:45.000Z</time>
      </trkpt>
      <trkpt lat="44.01158" lon="7.20292">
        <ele>1200</ele>
        <time>2014-05-04T11:15:52.000Z</time>
      </trkpt>
      <trkpt lat="44.01161" lon="7.20287">
        <ele>1200.8000488281</ele>
        <time>2014-05-04T11:15:56.000Z</time>
      </trkpt>
      <trkpt lat="44.01162" lon="7.20283">
        <ele>1201.1999511719</ele>
        <time>2014-05-04T11:15:59.000Z</time>
      </trkpt>
      <trkpt lat="44.01164" lon="7.20279">
        <ele>1201.1999511719</ele>
        <time>2014-05-04T11:16:04.000Z</time>
      </trkpt>
      <trkpt lat="44.01165" lon="7.20274">
        <ele>1201.1999511719</ele>
        <time>2014-05-04T11:16:10.000Z</time>
      </trkpt>
      <trkpt lat="44.01169" lon="7.20269">
        <ele>1202.4000244141</ele>
        <time>2014-05-04T11:16:14.000Z</time>
      </trkpt>
      <trkpt lat="44.01171" lon="7.20264">
        <ele>1202.8000488281</ele>
        <time>2014-05-04T11:16:17.000Z</time>
      </trkpt>
      <trkpt lat="44.01172" lon="7.2026">
        <ele>1202.5999755859</ele>
        <time>2014-05-04T11:16:19.000Z</time>
      </trkpt>
      <trkpt lat="44.01175" lon="7.20251">
        <ele>1202.8000488281</ele>
        <time>2014-05-04T11:16:23.000Z</time>
      </trkpt>
      <trkpt lat="44.01176" lon="7.20249">
        <ele>1202.5999755859</ele>
        <time>2014-05-04T11:16:24.000Z</time>
      </trkpt>
      <trkpt lat="44.01179" lon="7.2024">
        <ele>1202</ele>
        <time>2014-05-04T11:16:31.000Z</time>
      </trkpt>
      <trkpt lat="44.01183" lon="7.20232">
        <ele>1201.5999755859</ele>
        <time>2014-05-04T11:16:37.000Z</time>
      </trkpt>
      <trkpt lat="44.01185" lon="7.2023">
        <ele>1201.8000488281</ele>
        <time>2014-05-04T11:16:38.000Z</time>
      </trkpt>
      <trkpt lat="44.01189" lon="7.20221">
        <ele>1201.4000244141</ele>
        <time>2014-05-04T11:16:42.000Z</time>
      </trkpt>
      <trkpt lat="44.0119" lon="7.20219">
        <ele>1201</ele>
        <time>2014-05-04T11:16:43.000Z</time>
      </trkpt>
      <trkpt lat="44.01194" lon="7.20207">
        <ele>1199.1999511719</ele>
        <time>2014-05-04T11:16:49.000Z</time>
      </trkpt>
      <trkpt lat="44.01198" lon="7.20196">
        <ele>1197</ele>
        <time>2014-05-04T11:16:56.000Z</time>
      </trkpt>
      <trkpt lat="44.012" lon="7.20187">
        <ele>1194.8000488281</ele>
        <time>2014-05-04T11:17:03.000Z</time>
      </trkpt>
      <trkpt lat="44.01202" lon="7.20182">
        <ele>1194</ele>
        <time>2014-05-04T11:17:11.000Z</time>
      </trkpt>
      <trkpt lat="44.01204" lon="7.20176">
        <ele>1192.5999755859</ele>
        <time>2014-05-04T11:17:21.000Z</time>
      </trkpt>
      <trkpt lat="44.01205" lon="7.2017">
        <ele>1190.8000488281</ele>
        <time>2014-05-04T11:17:26.000Z</time>
      </trkpt>
      <trkpt lat="44.0121" lon="7.20163">
        <ele>1190.4000244141</ele>
        <time>2014-05-04T11:17:33.000Z</time>
      </trkpt>
      <trkpt lat="44.01219" lon="7.20162">
        <ele>1193.5999755859</ele>
        <time>2014-05-04T11:17:39.000Z</time>
      </trkpt>
      <trkpt lat="44.01227" lon="7.20161">
        <ele>1196.1999511719</ele>
        <time>2014-05-04T11:17:45.000Z</time>
      </trkpt>
      <trkpt lat="44.0123" lon="7.20163">
        <ele>1197.8000488281</ele>
        <time>2014-05-04T11:17:48.000Z</time>
      </trkpt>
      <trkpt lat="44.01234" lon="7.20166">
        <ele>1200.4000244141</ele>
        <time>2014-05-04T11:17:50.000Z</time>
      </trkpt>
      <trkpt lat="44.01247" lon="7.20175">
        <ele>1209</ele>
        <time>2014-05-04T11:17:54.000Z</time>
      </trkpt>
      <trkpt lat="44.01258" lon="7.20181">
        <ele>1215.1999511719</ele>
        <time>2014-05-04T11:17:59.000Z</time>
      </trkpt>
      <trkpt lat="44.01257" lon="7.2018">
        <ele>1214.5999755859</ele>
        <time>2014-05-04T11:18:02.000Z</time>
      </trkpt>
      <trkpt lat="44.01253" lon="7.20182">
        <ele>1213.5999755859</ele>
        <time>2014-05-04T11:18:03.000Z</time>
      </trkpt>
      <trkpt lat="44.01242" lon="7.20178">
        <ele>1208</ele>
        <time>2014-05-04T11:18:07.000Z</time>
      </trkpt>
      <trkpt lat="44.01246" lon="7.20167">
        <ele>1205.8000488281</ele>
        <time>2014-05-04T11:18:10.000Z</time>
      </trkpt>
      <trkpt lat="44.01253" lon="7.20168">
        <ele>1208.5999755859</ele>
        <time>2014-05-04T11:18:13.000Z</time>
      </trkpt>
      <trkpt lat="44.01256" lon="7.20169">
        <ele>1210.1999511719</ele>
        <time>2014-05-04T11:18:14.000Z</time>
      </trkpt>
      <trkpt lat="44.01268" lon="7.20182">
        <ele>1219.5999755859</ele>
        <time>2014-05-04T11:18:18.000Z</time>
      </trkpt>
      <trkpt lat="44.01281" lon="7.20192">
        <ele>1224</ele>
        <time>2014-05-04T11:18:22.000Z</time>
      </trkpt>
      <trkpt lat="44.01296" lon="7.20203">
        <ele>1223.1999511719</ele>
        <time>2014-05-04T11:18:26.000Z</time>
      </trkpt>
      <trkpt lat="44.01301" lon="7.20207">
        <ele>1222.8000488281</ele>
        <time>2014-05-04T11:18:27.000Z</time>
      </trkpt>
      <trkpt lat="44.01318" lon="7.20221">
        <ele>1222.5999755859</ele>
        <time>2014-05-04T11:18:30.000Z</time>
      </trkpt>
      <trkpt lat="44.0134" lon="7.20238">
        <ele>1221.1999511719</ele>
        <time>2014-05-04T11:18:35.000Z</time>
      </trkpt>
      <trkpt lat="44.01349" lon="7.20251">
        <ele>1223.5999755859</ele>
        <time>2014-05-04T11:18:39.000Z</time>
      </trkpt>
      <trkpt lat="44.01353" lon="7.20254">
        <ele>1223.1999511719</ele>
        <time>2014-05-04T11:18:40.000Z</time>
      </trkpt>
      <trkpt lat="44.01358" lon="7.20256">
        <ele>1222.8000488281</ele>
        <time>2014-05-04T11:18:41.000Z</time>
      </trkpt>
      <trkpt lat="44.01363" lon="7.20258">
        <ele>1220.5999755859</ele>
        <time>2014-05-04T11:18:43.000Z</time>
      </trkpt>
      <trkpt lat="44.01376" lon="7.20266">
        <ele>1216</ele>
        <time>2014-05-04T11:18:48.000Z</time>
      </trkpt>
      <trkpt lat="44.01378" lon="7.20268">
        <ele>1215.4000244141</ele>
        <time>2014-05-04T11:18:49.000Z</time>
      </trkpt>
      <trkpt lat="44.01393" lon="7.20281">
        <ele>1211</ele>
        <time>2014-05-04T11:18:53.000Z</time>
      </trkpt>
      <trkpt lat="44.01411" lon="7.20296">
        <ele>1206.1999511719</ele>
        <time>2014-05-04T11:18:58.000Z</time>
      </trkpt>
      <trkpt lat="44.01422" lon="7.20312">
        <ele>1205.4000244141</ele>
        <time>2014-05-04T11:19:02.000Z</time>
      </trkpt>
      <trkpt lat="44.0143" lon="7.20324">
        <ele>1205.4000244141</ele>
        <time>2014-05-04T11:19:05.000Z</time>
      </trkpt>
      <trkpt lat="44.01435" lon="7.20331">
        <ele>1205.1999511719</ele>
        <time>2014-05-04T11:19:07.000Z</time>
      </trkpt>
      <trkpt lat="44.01442" lon="7.20348">
        <ele>1206.1999511719</ele>
        <time>2014-05-04T11:19:10.000Z</time>
      </trkpt>
      <trkpt lat="44.01446" lon="7.20355">
        <ele>1205.5999755859</ele>
        <time>2014-05-04T11:19:11.000Z</time>
      </trkpt>
      <trkpt lat="44.01462" lon="7.20374">
        <ele>1199</ele>
        <time>2014-05-04T11:19:15.000Z</time>
      </trkpt>
      <trkpt lat="44.01467" lon="7.20377">
        <ele>1195.8000488281</ele>
        <time>2014-05-04T11:19:16.000Z</time>
      </trkpt>
      <trkpt lat="44.01485" lon="7.20387">
        <ele>1184.4000244141</ele>
        <time>2014-05-04T11:19:20.000Z</time>
      </trkpt>
      <trkpt lat="44.01487" lon="7.20387">
        <ele>1182.5999755859</ele>
        <time>2014-05-04T11:19:21.000Z</time>
      </trkpt>
      <trkpt lat="44.01498" lon="7.20392">
        <ele>1175.8000488281</ele>
        <time>2014-05-04T11:19:26.000Z</time>
      </trkpt>
      <trkpt lat="44.01496" lon="7.20389">
        <ele>1176.1999511719</ele>
        <time>2014-05-04T11:19:31.000Z</time>
      </trkpt>
      <trkpt lat="44.01488" lon="7.20369">
        <ele>1176.8000488281</ele>
        <time>2014-05-04T11:19:35.000Z</time>
      </trkpt>
      <trkpt lat="44.01477" lon="7.20349">
        <ele>1181</ele>
        <time>2014-05-04T11:19:40.000Z</time>
      </trkpt>
      <trkpt lat="44.01473" lon="7.20343">
        <ele>1182.5999755859</ele>
        <time>2014-05-04T11:19:42.000Z</time>
      </trkpt>
      <trkpt lat="44.01472" lon="7.20339">
        <ele>1182.5999755859</ele>
        <time>2014-05-04T11:19:44.000Z</time>
      </trkpt>
      <trkpt lat="44.01472" lon="7.20336">
        <ele>1181.8000488281</ele>
        <time>2014-05-04T11:19:47.000Z</time>
      </trkpt>
      <trkpt lat="44.01474" lon="7.20335">
        <ele>1180</ele>
        <time>2014-05-04T11:19:50.000Z</time>
      </trkpt>
      <trkpt lat="44.01482" lon="7.20345">
        <ele>1176.8000488281</ele>
        <time>2014-05-04T11:19:55.000Z</time>
      </trkpt>
      <trkpt lat="44.01485" lon="7.20346">
        <ele>1175.4000244141</ele>
        <time>2014-05-04T11:19:56.000Z</time>
      </trkpt>
      <trkpt lat="44.01487" lon="7.20351">
        <ele>1174.4000244141</ele>
        <time>2014-05-04T11:19:58.000Z</time>
      </trkpt>
      <trkpt lat="44.0149" lon="7.20361">
        <ele>1174.5999755859</ele>
        <time>2014-05-04T11:20:00.000Z</time>
      </trkpt>
      <trkpt lat="44.01496" lon="7.2038">
        <ele>1173.4000244141</ele>
        <time>2014-05-04T11:20:04.000Z</time>
      </trkpt>
      <trkpt lat="44.01507" lon="7.20399">
        <ele>1170.1999511719</ele>
        <time>2014-05-04T11:20:09.000Z</time>
      </trkpt>
      <trkpt lat="44.01518" lon="7.2041">
        <ele>1165.1999511719</ele>
        <time>2014-05-04T11:20:14.000Z</time>
      </trkpt>
      <trkpt lat="44.01518" lon="7.20414">
        <ele>1166.1999511719</ele>
        <time>2014-05-04T11:20:18.000Z</time>
      </trkpt>
      <trkpt lat="44.01519" lon="7.20415">
        <ele>1165.5999755859</ele>
        <time>2014-05-04T11:20:19.000Z</time>
      </trkpt>
      <trkpt lat="44.01515" lon="7.20419">
        <ele>1169.5999755859</ele>
        <time>2014-05-04T11:20:22.000Z</time>
      </trkpt>
      <trkpt lat="44.01513" lon="7.20421">
        <ele>1171.8000488281</ele>
        <time>2014-05-04T11:20:24.000Z</time>
      </trkpt>
      <trkpt lat="44.01515" lon="7.20423">
        <ele>1171.1999511719</ele>
        <time>2014-05-04T11:20:25.000Z</time>
      </trkpt>
      <trkpt lat="44.01516" lon="7.20427">
        <ele>1170.8000488281</ele>
        <time>2014-05-04T11:20:29.000Z</time>
      </trkpt>
      <trkpt lat="44.01515" lon="7.20435">
        <ele>1174</ele>
        <time>2014-05-04T11:20:36.000Z</time>
      </trkpt>
      <trkpt lat="44.01513" lon="7.20441">
        <ele>1177.1999511719</ele>
        <time>2014-05-04T11:20:40.000Z</time>
      </trkpt>
      <trkpt lat="44.01513" lon="7.20443">
        <ele>1177</ele>
        <time>2014-05-04T11:20:42.000Z</time>
      </trkpt>
      <trkpt lat="44.01512" lon="7.20448">
        <ele>1179</ele>
        <time>2014-05-04T11:20:46.000Z</time>
      </trkpt>
      <trkpt lat="44.01509" lon="7.20453">
        <ele>1183</ele>
        <time>2014-05-04T11:20:52.000Z</time>
      </trkpt>
      <trkpt lat="44.01508" lon="7.20455">
        <ele>1184</ele>
        <time>2014-05-04T11:20:55.000Z</time>
      </trkpt>
      <trkpt lat="44.0151" lon="7.20455">
        <ele>1183</ele>
        <time>2014-05-04T11:20:56.000Z</time>
      </trkpt>
      <trkpt lat="44.01514" lon="7.20456">
        <ele>1179.5999755859</ele>
        <time>2014-05-04T11:20:59.000Z</time>
      </trkpt>
      <trkpt lat="44.01516" lon="7.20458">
        <ele>1179</ele>
        <time>2014-05-04T11:21:02.000Z</time>
      </trkpt>
      <trkpt lat="44.01512" lon="7.20458">
        <ele>1182</ele>
        <time>2014-05-04T11:21:05.000Z</time>
      </trkpt>
      <trkpt lat="44.0151" lon="7.20458">
        <ele>1183.1999511719</ele>
        <time>2014-05-04T11:21:06.000Z</time>
      </trkpt>
      <trkpt lat="44.01507" lon="7.20457">
        <ele>1185.5999755859</ele>
        <time>2014-05-04T11:21:09.000Z</time>
      </trkpt>
      <trkpt lat="44.01508" lon="7.20461">
        <ele>1186</ele>
        <time>2014-05-04T11:21:20.000Z</time>
      </trkpt>
      <trkpt lat="44.01508" lon="7.20462">
        <ele>1185.8000488281</ele>
        <time>2014-05-04T11:21:21.000Z</time>
      </trkpt>
      <trkpt lat="44.01514" lon="7.2047">
        <ele>1183.4000244141</ele>
        <time>2014-05-04T11:21:25.000Z</time>
      </trkpt>
      <trkpt lat="44.01521" lon="7.20489">
        <ele>1181.5999755859</ele>
        <time>2014-05-04T11:21:29.000Z</time>
      </trkpt>
      <trkpt lat="44.01532" lon="7.20512">
        <ele>1179.5999755859</ele>
        <time>2014-05-04T11:21:33.000Z</time>
      </trkpt>
      <trkpt lat="44.01531" lon="7.20531">
        <ele>1185.1999511719</ele>
        <time>2014-05-04T11:21:37.000Z</time>
      </trkpt>
      <trkpt lat="44.01535" lon="7.20542">
        <ele>1185.5999755859</ele>
        <time>2014-05-04T11:21:41.000Z</time>
      </trkpt>
      <trkpt lat="44.01542" lon="7.2055">
        <ele>1182.5999755859</ele>
        <time>2014-05-04T11:21:46.000Z</time>
      </trkpt>
      <trkpt lat="44.01551" lon="7.20556">
        <ele>1178.1999511719</ele>
        <time>2014-05-04T11:21:50.000Z</time>
      </trkpt>
      <trkpt lat="44.01567" lon="7.2056">
        <ele>1167.4000244141</ele>
        <time>2014-05-04T11:21:55.000Z</time>
      </trkpt>
      <trkpt lat="44.01574" lon="7.20571">
        <ele>1165.8000488281</ele>
        <time>2014-05-04T11:22:00.000Z</time>
      </trkpt>
      <trkpt lat="44.01577" lon="7.20583">
        <ele>1167.5999755859</ele>
        <time>2014-05-04T11:22:05.000Z</time>
      </trkpt>
      <trkpt lat="44.01583" lon="7.20585">
        <ele>1164.5999755859</ele>
        <time>2014-05-04T11:22:10.000Z</time>
      </trkpt>
      <trkpt lat="44.01584" lon="7.20586">
        <ele>1164.5999755859</ele>
        <time>2014-05-04T11:22:11.000Z</time>
      </trkpt>
      <trkpt lat="44.01584" lon="7.20592">
        <ele>1167.1999511719</ele>
        <time>2014-05-04T11:22:16.000Z</time>
      </trkpt>
      <trkpt lat="44.01586" lon="7.20592">
        <ele>1166.1999511719</ele>
        <time>2014-05-04T11:22:17.000Z</time>
      </trkpt>
      <trkpt lat="44.01584" lon="7.20596">
        <ele>1169.8000488281</ele>
        <time>2014-05-04T11:22:20.000Z</time>
      </trkpt>
      <trkpt lat="44.01597" lon="7.20595">
        <ele>1159.8000488281</ele>
        <time>2014-05-04T11:22:24.000Z</time>
      </trkpt>
      <trkpt lat="44.01615" lon="7.20599">
        <ele>1152.4000244141</ele>
        <time>2014-05-04T11:22:28.000Z</time>
      </trkpt>
      <trkpt lat="44.0162" lon="7.20601">
        <ele>1152</ele>
        <time>2014-05-04T11:22:30.000Z</time>
      </trkpt>
      <trkpt lat="44.01642" lon="7.20612">
        <ele>1151.4000244141</ele>
        <time>2014-05-04T11:22:38.000Z</time>
      </trkpt>
      <trkpt lat="44.01644" lon="7.20624">
        <ele>1157.1999511719</ele>
        <time>2014-05-04T11:22:44.000Z</time>
      </trkpt>
      <trkpt lat="44.01648" lon="7.20631">
        <ele>1159.8000488281</ele>
        <time>2014-05-04T11:22:50.000Z</time>
      </trkpt>
      <trkpt lat="44.01655" lon="7.20634">
        <ele>1159.5999755859</ele>
        <time>2014-05-04T11:22:56.000Z</time>
      </trkpt>
      <trkpt lat="44.01668" lon="7.20643">
        <ele>1160.4000244141</ele>
        <time>2014-05-04T11:23:03.000Z</time>
      </trkpt>
      <trkpt lat="44.01679" lon="7.20651">
        <ele>1162</ele>
        <time>2014-05-04T11:23:10.000Z</time>
      </trkpt>
      <trkpt lat="44.01686" lon="7.20662">
        <ele>1165.5999755859</ele>
        <time>2014-05-04T11:23:16.000Z</time>
      </trkpt>
      <trkpt lat="44.01687" lon="7.20664">
        <ele>1166.1999511719</ele>
        <time>2014-05-04T11:23:17.000Z</time>
      </trkpt>
      <trkpt lat="44.01691" lon="7.20673">
        <ele>1168</ele>
        <time>2014-05-04T11:23:21.000Z</time>
      </trkpt>
      <trkpt lat="44.01697" lon="7.20687">
        <ele>1171.1999511719</ele>
        <time>2014-05-04T11:23:26.000Z</time>
      </trkpt>
      <trkpt lat="44.017" lon="7.20707">
        <ele>1176.8000488281</ele>
        <time>2014-05-04T11:23:34.000Z</time>
      </trkpt>
      <trkpt lat="44.01701" lon="7.20713">
        <ele>1178.5999755859</ele>
        <time>2014-05-04T11:23:37.000Z</time>
      </trkpt>
      <trkpt lat="44.01701" lon="7.2072">
        <ele>1180.5999755859</ele>
        <time>2014-05-04T11:23:40.000Z</time>
      </trkpt>
      <trkpt lat="44.017" lon="7.20735">
        <ele>1186.1999511719</ele>
        <time>2014-05-04T11:23:45.000Z</time>
      </trkpt>
      <trkpt lat="44.017" lon="7.20752">
        <ele>1190.5999755859</ele>
        <time>2014-05-04T11:23:51.000Z</time>
      </trkpt>
      <trkpt lat="44.01696" lon="7.20764">
        <ele>1195.1999511719</ele>
        <time>2014-05-04T11:23:56.000Z</time>
      </trkpt>
      <trkpt lat="44.01697" lon="7.20778">
        <ele>1199.1999511719</ele>
        <time>2014-05-04T11:24:02.000Z</time>
      </trkpt>
      <trkpt lat="44.017" lon="7.20784">
        <ele>1200</ele>
        <time>2014-05-04T11:24:08.000Z</time>
      </trkpt>
      <trkpt lat="44.01701" lon="7.20787">
        <ele>1200.5999755859</ele>
        <time>2014-05-04T11:24:12.000Z</time>
      </trkpt>
      <trkpt lat="44.01703" lon="7.20798">
        <ele>1203.5999755859</ele>
        <time>2014-05-04T11:24:19.000Z</time>
      </trkpt>
      <trkpt lat="44.01702" lon="7.20811">
        <ele>1207.4000244141</ele>
        <time>2014-05-04T11:24:26.000Z</time>
      </trkpt>
      <trkpt lat="44.01702" lon="7.20816">
        <ele>1209.1999511719</ele>
        <time>2014-05-04T11:24:32.000Z</time>
      </trkpt>
      <trkpt lat="44.017" lon="7.2082">
        <ele>1210.8000488281</ele>
        <time>2014-05-04T11:24:37.000Z</time>
      </trkpt>
      <trkpt lat="44.01703" lon="7.20825">
        <ele>1211.4000244141</ele>
        <time>2014-05-04T11:24:42.000Z</time>
      </trkpt>
      <trkpt lat="44.01705" lon="7.20827">
        <ele>1211.4000244141</ele>
        <time>2014-05-04T11:24:43.000Z</time>
      </trkpt>
      <trkpt lat="44.01709" lon="7.20832">
        <ele>1211</ele>
        <time>2014-05-04T11:24:46.000Z</time>
      </trkpt>
      <trkpt lat="44.0171" lon="7.20834">
        <ele>1211.1999511719</ele>
        <time>2014-05-04T11:24:47.000Z</time>
      </trkpt>
      <trkpt lat="44.01711" lon="7.20835">
        <ele>1211</ele>
        <time>2014-05-04T11:24:48.000Z</time>
      </trkpt>
      <trkpt lat="44.01716" lon="7.2084">
        <ele>1210.8000488281</ele>
        <time>2014-05-04T11:24:52.000Z</time>
      </trkpt>
      <trkpt lat="44.01717" lon="7.20841">
        <ele>1210.5999755859</ele>
        <time>2014-05-04T11:24:54.000Z</time>
      </trkpt>
      <trkpt lat="44.01728" lon="7.20852">
        <ele>1209.1999511719</ele>
        <time>2014-05-04T11:25:00.000Z</time>
      </trkpt>
      <trkpt lat="44.01735" lon="7.20867">
        <ele>1209.8000488281</ele>
        <time>2014-05-04T11:25:06.000Z</time>
      </trkpt>
      <trkpt lat="44.0174" lon="7.20889">
        <ele>1215</ele>
        <time>2014-05-04T11:25:14.000Z</time>
      </trkpt>
      <trkpt lat="44.01745" lon="7.20907">
        <ele>1219.8000488281</ele>
        <time>2014-05-04T11:25:20.000Z</time>
      </trkpt>
      <trkpt lat="44.01752" lon="7.20922">
        <ele>1219.1999511719</ele>
        <time>2014-05-04T11:25:25.000Z</time>
      </trkpt>
      <trkpt lat="44.01749" lon="7.20939">
        <ele>1223.1999511719</ele>
        <time>2014-05-04T11:25:31.000Z</time>
      </trkpt>
      <trkpt lat="44.01749" lon="7.2094">
        <ele>1223.5999755859</ele>
        <time>2014-05-04T11:25:34.000Z</time>
      </trkpt>
      <trkpt lat="44.01748" lon="7.20942">
        <ele>1224.1999511719</ele>
        <time>2014-05-04T11:25:35.000Z</time>
      </trkpt>
      <trkpt lat="44.01751" lon="7.20929">
        <ele>1221</ele>
        <time>2014-05-04T11:25:43.000Z</time>
      </trkpt>
      <trkpt lat="44.01751" lon="7.20925">
        <ele>1220</ele>
        <time>2014-05-04T11:25:46.000Z</time>
      </trkpt>
      <trkpt lat="44.01755" lon="7.20915">
        <ele>1217</ele>
        <time>2014-05-04T11:25:51.000Z</time>
      </trkpt>
      <trkpt lat="44.01762" lon="7.2091">
        <ele>1212</ele>
        <time>2014-05-04T11:25:54.000Z</time>
      </trkpt>
      <trkpt lat="44.01768" lon="7.20904">
        <ele>1206.8000488281</ele>
        <time>2014-05-04T11:25:57.000Z</time>
      </trkpt>
      <trkpt lat="44.01772" lon="7.20894">
        <ele>1203.5999755859</ele>
        <time>2014-05-04T11:26:01.000Z</time>
      </trkpt>
      <trkpt lat="44.01772" lon="7.20891">
        <ele>1202.8000488281</ele>
        <time>2014-05-04T11:26:03.000Z</time>
      </trkpt>
      <trkpt lat="44.01772" lon="7.20884">
        <ele>1201.4000244141</ele>
        <time>2014-05-04T11:26:06.000Z</time>
      </trkpt>
      <trkpt lat="44.01774" lon="7.20875">
        <ele>1199</ele>
        <time>2014-05-04T11:26:10.000Z</time>
      </trkpt>
      <trkpt lat="44.01776" lon="7.20865">
        <ele>1196.5999755859</ele>
        <time>2014-05-04T11:26:16.000Z</time>
      </trkpt>
      <trkpt lat="44.01777" lon="7.20861">
        <ele>1196.4000244141</ele>
        <time>2014-05-04T11:26:19.000Z</time>
      </trkpt>
      <trkpt lat="44.01778" lon="7.20854">
        <ele>1195.4000244141</ele>
        <time>2014-05-04T11:26:22.000Z</time>
      </trkpt>
      <trkpt lat="44.01776" lon="7.2084">
        <ele>1191.5999755859</ele>
        <time>2014-05-04T11:26:27.000Z</time>
      </trkpt>
      <trkpt lat="44.01774" lon="7.20836">
        <ele>1191</ele>
        <time>2014-05-04T11:26:28.000Z</time>
      </trkpt>
      <trkpt lat="44.01771" lon="7.20827">
        <ele>1190.1999511719</ele>
        <time>2014-05-04T11:26:32.000Z</time>
      </trkpt>
      <trkpt lat="44.01769" lon="7.20824">
        <ele>1189.5999755859</ele>
        <time>2014-05-04T11:26:34.000Z</time>
      </trkpt>
      <trkpt lat="44.01765" lon="7.20811">
        <ele>1187.8000488281</ele>
        <time>2014-05-04T11:26:40.000Z</time>
      </trkpt>
      <trkpt lat="44.01766" lon="7.20794">
        <ele>1184.4000244141</ele>
        <time>2014-05-04T11:26:46.000Z</time>
      </trkpt>
      <trkpt lat="44.01772" lon="7.20779">
        <ele>1180.4000244141</ele>
        <time>2014-05-04T11:26:52.000Z</time>
      </trkpt>
      <trkpt lat="44.01778" lon="7.20772">
        <ele>1179.5999755859</ele>
        <time>2014-05-04T11:26:56.000Z</time>
      </trkpt>
      <trkpt lat="44.01781" lon="7.20768">
        <ele>1180.1999511719</ele>
        <time>2014-05-04T11:26:58.000Z</time>
      </trkpt>
      <trkpt lat="44.01793" lon="7.20759">
        <ele>1183.5999755859</ele>
        <time>2014-05-04T11:27:06.000Z</time>
      </trkpt>
      <trkpt lat="44.01795" lon="7.20758">
        <ele>1184.1999511719</ele>
        <time>2014-05-04T11:27:07.000Z</time>
      </trkpt>
      <trkpt lat="44.01802" lon="7.20754">
        <ele>1185.4000244141</ele>
        <time>2014-05-04T11:27:11.000Z</time>
      </trkpt>
      <trkpt lat="44.01803" lon="7.20753">
        <ele>1185.4000244141</ele>
        <time>2014-05-04T11:27:12.000Z</time>
      </trkpt>
      <trkpt lat="44.0181" lon="7.20744">
        <ele>1185.5999755859</ele>
        <time>2014-05-04T11:27:18.000Z</time>
      </trkpt>
      <trkpt lat="44.01817" lon="7.20741">
        <ele>1187.5999755859</ele>
        <time>2014-05-04T11:27:24.000Z</time>
      </trkpt>
      <trkpt lat="44.01827" lon="7.20735">
        <ele>1190</ele>
        <time>2014-05-04T11:27:30.000Z</time>
      </trkpt>
      <trkpt lat="44.01836" lon="7.20728">
        <ele>1191.5999755859</ele>
        <time>2014-05-04T11:27:36.000Z</time>
      </trkpt>
      <trkpt lat="44.01837" lon="7.20728">
        <ele>1192.1999511719</ele>
        <time>2014-05-04T11:27:37.000Z</time>
      </trkpt>
      <trkpt lat="44.01846" lon="7.20721">
        <ele>1192.8000488281</ele>
        <time>2014-05-04T11:27:42.000Z</time>
      </trkpt>
      <trkpt lat="44.01858" lon="7.20713">
        <ele>1193.8000488281</ele>
        <time>2014-05-04T11:27:48.000Z</time>
      </trkpt>
      <trkpt lat="44.01865" lon="7.20704">
        <ele>1192.5999755859</ele>
        <time>2014-05-04T11:27:54.000Z</time>
      </trkpt>
      <trkpt lat="44.01876" lon="7.20708">
        <ele>1196.1999511719</ele>
        <time>2014-05-04T11:28:01.000Z</time>
      </trkpt>
      <trkpt lat="44.01877" lon="7.20708">
        <ele>1196.4000244141</ele>
        <time>2014-05-04T11:28:02.000Z</time>
      </trkpt>
      <trkpt lat="44.01882" lon="7.2071">
        <ele>1198</ele>
        <time>2014-05-04T11:28:06.000Z</time>
      </trkpt>
      <trkpt lat="44.01893" lon="7.20718">
        <ele>1202.8000488281</ele>
        <time>2014-05-04T11:28:13.000Z</time>
      </trkpt>
      <trkpt lat="44.01899" lon="7.20718">
        <ele>1204.4000244141</ele>
        <time>2014-05-04T11:28:18.000Z</time>
      </trkpt>
      <trkpt lat="44.01906" lon="7.20721">
        <ele>1206.8000488281</ele>
        <time>2014-05-04T11:28:24.000Z</time>
      </trkpt>
      <trkpt lat="44.01907" lon="7.20721">
        <ele>1207</ele>
        <time>2014-05-04T11:28:25.000Z</time>
      </trkpt>
      <trkpt lat="44.01913" lon="7.20723">
        <ele>1208.8000488281</ele>
        <time>2014-05-04T11:28:31.000Z</time>
      </trkpt>
      <trkpt lat="44.01914" lon="7.20722">
        <ele>1208.8000488281</ele>
        <time>2014-05-04T11:28:32.000Z</time>
      </trkpt>
      <trkpt lat="44.01919" lon="7.20724">
        <ele>1210.4000244141</ele>
        <time>2014-05-04T11:28:34.000Z</time>
      </trkpt>
      <trkpt lat="44.01927" lon="7.20724">
        <ele>1212.1999511719</ele>
        <time>2014-05-04T11:28:38.000Z</time>
      </trkpt>
      <trkpt lat="44.01931" lon="7.20724">
        <ele>1213</ele>
        <time>2014-05-04T11:28:41.000Z</time>
      </trkpt>
      <trkpt lat="44.01936" lon="7.20725">
        <ele>1214.8000488281</ele>
        <time>2014-05-04T11:28:44.000Z</time>
      </trkpt>
      <trkpt lat="44.01946" lon="7.20724">
        <ele>1216.1999511719</ele>
        <time>2014-05-04T11:28:50.000Z</time>
      </trkpt>
      <trkpt lat="44.01955" lon="7.20731">
        <ele>1218.4000244141</ele>
        <time>2014-05-04T11:28:55.000Z</time>
      </trkpt>
      <trkpt lat="44.01964" lon="7.2074">
        <ele>1221.1999511719</ele>
        <time>2014-05-04T11:29:01.000Z</time>
      </trkpt>
      <trkpt lat="44.01972" lon="7.2075">
        <ele>1224.8000488281</ele>
        <time>2014-05-04T11:29:07.000Z</time>
      </trkpt>
      <trkpt lat="44.01984" lon="7.20767">
        <ele>1231.1999511719</ele>
        <time>2014-05-04T11:29:14.000Z</time>
      </trkpt>
      <trkpt lat="44.01992" lon="7.20774">
        <ele>1234</ele>
        <time>2014-05-04T11:29:20.000Z</time>
      </trkpt>
      <trkpt lat="44.02001" lon="7.2078">
        <ele>1236.1999511719</ele>
        <time>2014-05-04T11:29:25.000Z</time>
      </trkpt>
      <trkpt lat="44.02001" lon="7.20782">
        <ele>1236.8000488281</ele>
        <time>2014-05-04T11:29:26.000Z</time>
      </trkpt>
      <trkpt lat="44.02006" lon="7.20789">
        <ele>1239.5999755859</ele>
        <time>2014-05-04T11:29:30.000Z</time>
      </trkpt>
      <trkpt lat="44.02016" lon="7.20797">
        <ele>1242.5999755859</ele>
        <time>2014-05-04T11:29:35.000Z</time>
      </trkpt>
      <trkpt lat="44.02016" lon="7.20806">
        <ele>1245.8000488281</ele>
        <time>2014-05-04T11:29:40.000Z</time>
      </trkpt>
      <trkpt lat="44.02021" lon="7.20818">
        <ele>1250.1999511719</ele>
        <time>2014-05-04T11:29:47.000Z</time>
      </trkpt>
      <trkpt lat="44.0203" lon="7.20827">
        <ele>1253.8000488281</ele>
        <time>2014-05-04T11:29:52.000Z</time>
      </trkpt>
      <trkpt lat="44.02036" lon="7.2083">
        <ele>1255.1999511719</ele>
        <time>2014-05-04T11:29:55.000Z</time>
      </trkpt>
      <trkpt lat="44.02035" lon="7.20831">
        <ele>1255.1999511719</ele>
        <time>2014-05-04T11:29:57.000Z</time>
      </trkpt>
      <trkpt lat="44.02036" lon="7.20833">
        <ele>1255.4000244141</ele>
        <time>2014-05-04T11:29:58.000Z</time>
      </trkpt>
      <trkpt lat="44.02044" lon="7.2084">
        <ele>1256.8000488281</ele>
        <time>2014-05-04T11:30:02.000Z</time>
      </trkpt>
      <trkpt lat="44.02047" lon="7.20842">
        <ele>1257.4000244141</ele>
        <time>2014-05-04T11:30:04.000Z</time>
      </trkpt>
      <trkpt lat="44.0205" lon="7.20843">
        <ele>1257.5999755859</ele>
        <time>2014-05-04T11:30:05.000Z</time>
      </trkpt>
      <trkpt lat="44.02057" lon="7.20842">
        <ele>1258.1999511719</ele>
        <time>2014-05-04T11:30:08.000Z</time>
      </trkpt>
      <trkpt lat="44.02063" lon="7.2084">
        <ele>1258.8000488281</ele>
        <time>2014-05-04T11:30:12.000Z</time>
      </trkpt>
      <trkpt lat="44.02066" lon="7.20834">
        <ele>1258.4000244141</ele>
        <time>2014-05-04T11:30:17.000Z</time>
      </trkpt>
      <trkpt lat="44.02068" lon="7.2082">
        <ele>1255.1999511719</ele>
        <time>2014-05-04T11:30:22.000Z</time>
      </trkpt>
      <trkpt lat="44.0207" lon="7.20813">
        <ele>1252.8000488281</ele>
        <time>2014-05-04T11:30:26.000Z</time>
      </trkpt>
      <trkpt lat="44.02072" lon="7.20808">
        <ele>1251.4000244141</ele>
        <time>2014-05-04T11:30:28.000Z</time>
      </trkpt>
      <trkpt lat="44.02071" lon="7.20802">
        <ele>1249.1999511719</ele>
        <time>2014-05-04T11:30:31.000Z</time>
      </trkpt>
      <trkpt lat="44.02071" lon="7.20796">
        <ele>1247.1999511719</ele>
        <time>2014-05-04T11:30:33.000Z</time>
      </trkpt>
      <trkpt lat="44.0207" lon="7.2078">
        <ele>1244.8000488281</ele>
        <time>2014-05-04T11:30:39.000Z</time>
      </trkpt>
      <trkpt lat="44.02068" lon="7.20773">
        <ele>1243.5999755859</ele>
        <time>2014-05-04T11:30:43.000Z</time>
      </trkpt>
      <trkpt lat="44.02066" lon="7.20772">
        <ele>1243</ele>
        <time>2014-05-04T11:30:44.000Z</time>
      </trkpt>
      <trkpt lat="44.0206" lon="7.20757">
        <ele>1239.8000488281</ele>
        <time>2014-05-04T11:30:50.000Z</time>
      </trkpt>
      <trkpt lat="44.02057" lon="7.20739">
        <ele>1238.5999755859</ele>
        <time>2014-05-04T11:30:56.000Z</time>
      </trkpt>
      <trkpt lat="44.02055" lon="7.20725">
        <ele>1238</ele>
        <time>2014-05-04T11:31:02.000Z</time>
      </trkpt>
      <trkpt lat="44.02053" lon="7.20721">
        <ele>1237</ele>
        <time>2014-05-04T11:31:04.000Z</time>
      </trkpt>
      <trkpt lat="44.02051" lon="7.20712">
        <ele>1236.1999511719</ele>
        <time>2014-05-04T11:31:07.000Z</time>
      </trkpt>
      <trkpt lat="44.02043" lon="7.20703">
        <ele>1232.8000488281</ele>
        <time>2014-05-04T11:31:13.000Z</time>
      </trkpt>
      <trkpt lat="44.0203" lon="7.20701">
        <ele>1227</ele>
        <time>2014-05-04T11:31:20.000Z</time>
      </trkpt>
      <trkpt lat="44.02026" lon="7.20682">
        <ele>1225.4000244141</ele>
        <time>2014-05-04T11:31:25.000Z</time>
      </trkpt>
      <trkpt lat="44.02025" lon="7.20678">
        <ele>1225</ele>
        <time>2014-05-04T11:31:26.000Z</time>
      </trkpt>
      <trkpt lat="44.02028" lon="7.20665">
        <ele>1226</ele>
        <time>2014-05-04T11:31:30.000Z</time>
      </trkpt>
      <trkpt lat="44.02029" lon="7.20661">
        <ele>1227</ele>
        <time>2014-05-04T11:31:31.000Z</time>
      </trkpt>
      <trkpt lat="44.02039" lon="7.2065">
        <ele>1231.4000244141</ele>
        <time>2014-05-04T11:31:37.000Z</time>
      </trkpt>
      <trkpt lat="44.0205" lon="7.20638">
        <ele>1236.1999511719</ele>
        <time>2014-05-04T11:31:44.000Z</time>
      </trkpt>
      <trkpt lat="44.02055" lon="7.20627">
        <ele>1238.5999755859</ele>
        <time>2014-05-04T11:31:50.000Z</time>
      </trkpt>
      <trkpt lat="44.02062" lon="7.20614">
        <ele>1241.4000244141</ele>
        <time>2014-05-04T11:31:57.000Z</time>
      </trkpt>
      <trkpt lat="44.02065" lon="7.20601">
        <ele>1243.1999511719</ele>
        <time>2014-05-04T11:32:03.000Z</time>
      </trkpt>
      <trkpt lat="44.02063" lon="7.20588">
        <ele>1242.4000244141</ele>
        <time>2014-05-04T11:32:09.000Z</time>
      </trkpt>
      <trkpt lat="44.02057" lon="7.20571">
        <ele>1240</ele>
        <time>2014-05-04T11:32:17.000Z</time>
      </trkpt>
      <trkpt lat="44.02051" lon="7.20549">
        <ele>1241</ele>
        <time>2014-05-04T11:32:24.000Z</time>
      </trkpt>
      <trkpt lat="44.02043" lon="7.20523">
        <ele>1241.1999511719</ele>
        <time>2014-05-04T11:32:32.000Z</time>
      </trkpt>
      <trkpt lat="44.02036" lon="7.20514">
        <ele>1238.4000244141</ele>
        <time>2014-05-04T11:32:37.000Z</time>
      </trkpt>
      <trkpt lat="44.02034" lon="7.20513">
        <ele>1237.8000488281</ele>
        <time>2014-05-04T11:32:38.000Z</time>
      </trkpt>
      <trkpt lat="44.02029" lon="7.20497">
        <ele>1238</ele>
        <time>2014-05-04T11:32:44.000Z</time>
      </trkpt>
      <trkpt lat="44.02025" lon="7.20482">
        <ele>1239.1999511719</ele>
        <time>2014-05-04T11:32:50.000Z</time>
      </trkpt>
      <trkpt lat="44.02025" lon="7.2048">
        <ele>1239.8000488281</ele>
        <time>2014-05-04T11:32:51.000Z</time>
      </trkpt>
      <trkpt lat="44.02021" lon="7.20467">
        <ele>1241.5999755859</ele>
        <time>2014-05-04T11:32:57.000Z</time>
      </trkpt>
      <trkpt lat="44.02022" lon="7.20464">
        <ele>1242.5999755859</ele>
        <time>2014-05-04T11:32:58.000Z</time>
      </trkpt>
      <trkpt lat="44.02023" lon="7.20459">
        <ele>1244</ele>
        <time>2014-05-04T11:33:00.000Z</time>
      </trkpt>
      <trkpt lat="44.02027" lon="7.20451">
        <ele>1247.5999755859</ele>
        <time>2014-05-04T11:33:03.000Z</time>
      </trkpt>
      <trkpt lat="44.0202" lon="7.20448">
        <ele>1246</ele>
        <time>2014-05-04T11:33:08.000Z</time>
      </trkpt>
      <trkpt lat="44.02017" lon="7.20448">
        <ele>1245.1999511719</ele>
        <time>2014-05-04T11:33:10.000Z</time>
      </trkpt>
      <trkpt lat="44.02013" lon="7.20447">
        <ele>1244.5999755859</ele>
        <time>2014-05-04T11:33:14.000Z</time>
      </trkpt>
      <trkpt lat="44.02018" lon="7.20448">
        <ele>1245.4000244141</ele>
        <time>2014-05-04T11:35:41.000Z</time>
      </trkpt>
      <trkpt lat="44.02018" lon="7.2045">
        <ele>1245</ele>
        <time>2014-05-04T11:35:47.000Z</time>
      </trkpt>
      <trkpt lat="44.02016" lon="7.20448">
        <ele>1245</ele>
        <time>2014-05-04T11:36:19.000Z</time>
      </trkpt>
      <trkpt lat="44.02012" lon="7.20442">
        <ele>1245.5999755859</ele>
        <time>2014-05-04T11:36:25.000Z</time>
      </trkpt>
      <trkpt lat="44.02004" lon="7.20438">
        <ele>1244.5999755859</ele>
        <time>2014-05-04T11:36:30.000Z</time>
      </trkpt>
      <trkpt lat="44.01996" lon="7.20433">
        <ele>1243.8000488281</ele>
        <time>2014-05-04T11:36:38.000Z</time>
      </trkpt>
      <trkpt lat="44.0199" lon="7.20429">
        <ele>1243.1999511719</ele>
        <time>2014-05-04T11:36:46.000Z</time>
      </trkpt>
      <trkpt lat="44.01989" lon="7.20429">
        <ele>1243.1999511719</ele>
        <time>2014-05-04T11:36:47.000Z</time>
      </trkpt>
      <trkpt lat="44.01988" lon="7.20427">
        <ele>1243.5999755859</ele>
        <time>2014-05-04T11:36:50.000Z</time>
      </trkpt>
      <trkpt lat="44.01989" lon="7.20426">
        <ele>1244</ele>
        <time>2014-05-04T11:36:53.000Z</time>
      </trkpt>
      <trkpt lat="44.01991" lon="7.20425">
        <ele>1244.5999755859</ele>
        <time>2014-05-04T11:36:55.000Z</time>
      </trkpt>
      <trkpt lat="44.01989" lon="7.20424">
        <ele>1244.1999511719</ele>
        <time>2014-05-04T11:36:57.000Z</time>
      </trkpt>
      <trkpt lat="44.01986" lon="7.20424">
        <ele>1243.5999755859</ele>
        <time>2014-05-04T11:36:59.000Z</time>
      </trkpt>
      <trkpt lat="44.01982" lon="7.20426">
        <ele>1242</ele>
        <time>2014-05-04T11:37:04.000Z</time>
      </trkpt>
      <trkpt lat="44.01975" lon="7.20429">
        <ele>1239.8000488281</ele>
        <time>2014-05-04T11:37:08.000Z</time>
      </trkpt>
      <trkpt lat="44.01968" lon="7.20432">
        <ele>1237.1999511719</ele>
        <time>2014-05-04T11:37:12.000Z</time>
      </trkpt>
      <trkpt lat="44.01964" lon="7.2043">
        <ele>1237</ele>
        <time>2014-05-04T11:37:14.000Z</time>
      </trkpt>
      <trkpt lat="44.01962" lon="7.2043">
        <ele>1236.4000244141</ele>
        <time>2014-05-04T11:37:15.000Z</time>
      </trkpt>
      <trkpt lat="44.01955" lon="7.20428">
        <ele>1234.5999755859</ele>
        <time>2014-05-04T11:37:19.000Z</time>
      </trkpt>
      <trkpt lat="44.01948" lon="7.20428">
        <ele>1232.5999755859</ele>
        <time>2014-05-04T11:37:21.000Z</time>
      </trkpt>
      <trkpt lat="44.01945" lon="7.20429">
        <ele>1230.5999755859</ele>
        <time>2014-05-04T11:37:22.000Z</time>
      </trkpt>
      <trkpt lat="44.0194" lon="7.2043">
        <ele>1229</ele>
        <time>2014-05-04T11:37:23.000Z</time>
      </trkpt>
      <trkpt lat="44.01928" lon="7.20431">
        <ele>1226.1999511719</ele>
        <time>2014-05-04T11:37:27.000Z</time>
      </trkpt>
      <trkpt lat="44.01922" lon="7.20425">
        <ele>1227.4000244141</ele>
        <time>2014-05-04T11:37:30.000Z</time>
      </trkpt>
      <trkpt lat="44.01922" lon="7.20421">
        <ele>1228.8000488281</ele>
        <time>2014-05-04T11:37:31.000Z</time>
      </trkpt>
      <trkpt lat="44.01932" lon="7.20408">
        <ele>1232.8000488281</ele>
        <time>2014-05-04T11:37:34.000Z</time>
      </trkpt>
      <trkpt lat="44.01937" lon="7.20403">
        <ele>1232</ele>
        <time>2014-05-04T11:37:35.000Z</time>
      </trkpt>
      <trkpt lat="44.01956" lon="7.20382">
        <ele>1228.8000488281</ele>
        <time>2014-05-04T11:37:39.000Z</time>
      </trkpt>
      <trkpt lat="44.01968" lon="7.20373">
        <ele>1228.5999755859</ele>
        <time>2014-05-04T11:37:41.000Z</time>
      </trkpt>
      <trkpt lat="44.01979" lon="7.20366">
        <ele>1228.8000488281</ele>
        <time>2014-05-04T11:37:43.000Z</time>
      </trkpt>
      <trkpt lat="44.02005" lon="7.20348">
        <ele>1232.8000488281</ele>
        <time>2014-05-04T11:37:48.000Z</time>
      </trkpt>
      <trkpt lat="44.02019" lon="7.20334">
        <ele>1233.4000244141</ele>
        <time>2014-05-04T11:37:51.000Z</time>
      </trkpt>
      <trkpt lat="44.02025" lon="7.20331">
        <ele>1234.4000244141</ele>
        <time>2014-05-04T11:37:52.000Z</time>
      </trkpt>
      <trkpt lat="44.02052" lon="7.20312">
        <ele>1234.5999755859</ele>
        <time>2014-05-04T11:37:57.000Z</time>
      </trkpt>
      <trkpt lat="44.02076" lon="7.20295">
        <ele>1233.8000488281</ele>
        <time>2014-05-04T11:38:01.000Z</time>
      </trkpt>
      <trkpt lat="44.02082" lon="7.20289">
        <ele>1233.8000488281</ele>
        <time>2014-05-04T11:38:02.000Z</time>
      </trkpt>
      <trkpt lat="44.021" lon="7.20271">
        <ele>1232.8000488281</ele>
        <time>2014-05-04T11:38:06.000Z</time>
      </trkpt>
      <trkpt lat="44.02112" lon="7.2025">
        <ele>1228.1999511719</ele>
        <time>2014-05-04T11:38:10.000Z</time>
      </trkpt>
      <trkpt lat="44.02115" lon="7.20244">
        <ele>1227.1999511719</ele>
        <time>2014-05-04T11:38:11.000Z</time>
      </trkpt>
      <trkpt lat="44.02122" lon="7.20228">
        <ele>1225.5999755859</ele>
        <time>2014-05-04T11:38:13.000Z</time>
      </trkpt>
      <trkpt lat="44.0213" lon="7.20215">
        <ele>1224.8000488281</ele>
        <time>2014-05-04T11:38:15.000Z</time>
      </trkpt>
      <trkpt lat="44.02137" lon="7.20206">
        <ele>1225</ele>
        <time>2014-05-04T11:38:17.000Z</time>
      </trkpt>
      <trkpt lat="44.02146" lon="7.2019">
        <ele>1224</ele>
        <time>2014-05-04T11:38:20.000Z</time>
      </trkpt>
      <trkpt lat="44.02155" lon="7.20179">
        <ele>1224.1999511719</ele>
        <time>2014-05-04T11:38:22.000Z</time>
      </trkpt>
      <trkpt lat="44.02157" lon="7.20169">
        <ele>1222.4000244141</ele>
        <time>2014-05-04T11:38:24.000Z</time>
      </trkpt>
      <trkpt lat="44.02164" lon="7.20159">
        <ele>1223</ele>
        <time>2014-05-04T11:38:27.000Z</time>
      </trkpt>
      <trkpt lat="44.02168" lon="7.20151">
        <ele>1223.8000488281</ele>
        <time>2014-05-04T11:38:29.000Z</time>
      </trkpt>
      <trkpt lat="44.02186" lon="7.20133">
        <ele>1224.4000244141</ele>
        <time>2014-05-04T11:38:33.000Z</time>
      </trkpt>
      <trkpt lat="44.02197" lon="7.20125">
        <ele>1225</ele>
        <time>2014-05-04T11:38:35.000Z</time>
      </trkpt>
      <trkpt lat="44.02202" lon="7.2012">
        <ele>1225.1999511719</ele>
        <time>2014-05-04T11:38:36.000Z</time>
      </trkpt>
      <trkpt lat="44.02206" lon="7.20113">
        <ele>1224.5999755859</ele>
        <time>2014-05-04T11:38:37.000Z</time>
      </trkpt>
      <trkpt lat="44.02217" lon="7.20101">
        <ele>1224.4000244141</ele>
        <time>2014-05-04T11:38:41.000Z</time>
      </trkpt>
      <trkpt lat="44.02218" lon="7.20095">
        <ele>1222</ele>
        <time>2014-05-04T11:38:42.000Z</time>
      </trkpt>
      <trkpt lat="44.0222" lon="7.20086">
        <ele>1218.1999511719</ele>
        <time>2014-05-04T11:38:45.000Z</time>
      </trkpt>
      <trkpt lat="44.02225" lon="7.20071">
        <ele>1217.1999511719</ele>
        <time>2014-05-04T11:38:50.000Z</time>
      </trkpt>
      <trkpt lat="44.02227" lon="7.20064">
        <ele>1219</ele>
        <time>2014-05-04T11:38:53.000Z</time>
      </trkpt>
      <trkpt lat="44.02227" lon="7.20061">
        <ele>1219.5999755859</ele>
        <time>2014-05-04T11:38:56.000Z</time>
      </trkpt>
      <trkpt lat="44.02235" lon="7.20068">
        <ele>1220.1999511719</ele>
        <time>2014-05-04T11:39:04.000Z</time>
      </trkpt>
      <trkpt lat="44.02239" lon="7.2007">
        <ele>1220.5999755859</ele>
        <time>2014-05-04T11:39:06.000Z</time>
      </trkpt>
      <trkpt lat="44.02242" lon="7.20071">
        <ele>1221.1999511719</ele>
        <time>2014-05-04T11:39:08.000Z</time>
      </trkpt>
      <trkpt lat="44.02251" lon="7.20073">
        <ele>1223</ele>
        <time>2014-05-04T11:39:13.000Z</time>
      </trkpt>
      <trkpt lat="44.02262" lon="7.20072">
        <ele>1226</ele>
        <time>2014-05-04T11:39:17.000Z</time>
      </trkpt>
      <trkpt lat="44.02265" lon="7.20068">
        <ele>1227.4000244141</ele>
        <time>2014-05-04T11:39:21.000Z</time>
      </trkpt>
      <trkpt lat="44.02266" lon="7.20065">
        <ele>1228</ele>
        <time>2014-05-04T11:39:26.000Z</time>
      </trkpt>
      <trkpt lat="44.02265" lon="7.20062">
        <ele>1228</ele>
        <time>2014-05-04T11:39:30.000Z</time>
      </trkpt>
      <trkpt lat="44.02263" lon="7.20058">
        <ele>1228.1999511719</ele>
        <time>2014-05-04T11:39:31.000Z</time>
      </trkpt>
      <trkpt lat="44.02261" lon="7.20049">
        <ele>1229</ele>
        <time>2014-05-04T11:39:34.000Z</time>
      </trkpt>
      <trkpt lat="44.02261" lon="7.20044">
        <ele>1229.5999755859</ele>
        <time>2014-05-04T11:39:35.000Z</time>
      </trkpt>
      <trkpt lat="44.0226" lon="7.20041">
        <ele>1229.5999755859</ele>
        <time>2014-05-04T11:39:36.000Z</time>
      </trkpt>
      <trkpt lat="44.02252" lon="7.20026">
        <ele>1230</ele>
        <time>2014-05-04T11:39:40.000Z</time>
      </trkpt>
      <trkpt lat="44.0224" lon="7.20015">
        <ele>1229.1999511719</ele>
        <time>2014-05-04T11:39:44.000Z</time>
      </trkpt>
      <trkpt lat="44.02223" lon="7.20014">
        <ele>1226.1999511719</ele>
        <time>2014-05-04T11:39:49.000Z</time>
      </trkpt>
      <trkpt lat="44.02211" lon="7.20016">
        <ele>1223.8000488281</ele>
        <time>2014-05-04T11:39:53.000Z</time>
      </trkpt>
      <trkpt lat="44.02207" lon="7.20018">
        <ele>1222.4000244141</ele>
        <time>2014-05-04T11:39:54.000Z</time>
      </trkpt>
      <trkpt lat="44.02191" lon="7.20026">
        <ele>1217.4000244141</ele>
        <time>2014-05-04T11:39:57.000Z</time>
      </trkpt>
      <trkpt lat="44.02177" lon="7.20023">
        <ele>1219</ele>
        <time>2014-05-04T11:40:00.000Z</time>
      </trkpt>
      <trkpt lat="44.02172" lon="7.20022">
        <ele>1219.1999511719</ele>
        <time>2014-05-04T11:40:01.000Z</time>
      </trkpt>
      <trkpt lat="44.0216" lon="7.2002">
        <ele>1220.4000244141</ele>
        <time>2014-05-04T11:40:05.000Z</time>
      </trkpt>
      <trkpt lat="44.02148" lon="7.20027">
        <ele>1220</ele>
        <time>2014-05-04T11:40:08.000Z</time>
      </trkpt>
      <trkpt lat="44.02143" lon="7.2003">
        <ele>1219.4000244141</ele>
        <time>2014-05-04T11:40:09.000Z</time>
      </trkpt>
      <trkpt lat="44.02135" lon="7.20038">
        <ele>1214</ele>
        <time>2014-05-04T11:40:12.000Z</time>
      </trkpt>
      <trkpt lat="44.02125" lon="7.20041">
        <ele>1210.4000244141</ele>
        <time>2014-05-04T11:40:16.000Z</time>
      </trkpt>
      <trkpt lat="44.02101" lon="7.2006">
        <ele>1198.4000244141</ele>
        <time>2014-05-04T11:40:24.000Z</time>
      </trkpt>
      <trkpt lat="44.02089" lon="7.20069">
        <ele>1193.4000244141</ele>
        <time>2014-05-04T11:40:26.000Z</time>
      </trkpt>
      <trkpt lat="44.02077" lon="7.20075">
        <ele>1188.4000244141</ele>
        <time>2014-05-04T11:40:28.000Z</time>
      </trkpt>
      <trkpt lat="44.02061" lon="7.20081">
        <ele>1185</ele>
        <time>2014-05-04T11:40:31.000Z</time>
      </trkpt>
      <trkpt lat="44.02049" lon="7.20084">
        <ele>1184.4000244141</ele>
        <time>2014-05-04T11:40:33.000Z</time>
      </trkpt>
      <trkpt lat="44.02028" lon="7.20086">
        <ele>1181</ele>
        <time>2014-05-04T11:40:36.000Z</time>
      </trkpt>
      <trkpt lat="44.02022" lon="7.20083">
        <ele>1180</ele>
        <time>2014-05-04T11:40:37.000Z</time>
      </trkpt>
      <trkpt lat="44.02005" lon="7.20079">
        <ele>1179.4000244141</ele>
        <time>2014-05-04T11:40:40.000Z</time>
      </trkpt>
      <trkpt lat="44.01999" lon="7.20079">
        <ele>1179</ele>
        <time>2014-05-04T11:40:41.000Z</time>
      </trkpt>
      <trkpt lat="44.01994" lon="7.20075">
        <ele>1180.8000488281</ele>
        <time>2014-05-04T11:40:42.000Z</time>
      </trkpt>
      <trkpt lat="44.01975" lon="7.20069">
        <ele>1183</ele>
        <time>2014-05-04T11:40:45.000Z</time>
      </trkpt>
      <trkpt lat="44.01952" lon="7.20072">
        <ele>1179.4000244141</ele>
        <time>2014-05-04T11:40:50.000Z</time>
      </trkpt>
      <trkpt lat="44.0195" lon="7.20069">
        <ele>1181.4000244141</ele>
        <time>2014-05-04T11:40:51.000Z</time>
      </trkpt>
      <trkpt lat="44.01941" lon="7.20071">
        <ele>1178.8000488281</ele>
        <time>2014-05-04T11:40:53.000Z</time>
      </trkpt>
      <trkpt lat="44.01937" lon="7.20072">
        <ele>1177.1999511719</ele>
        <time>2014-05-04T11:40:54.000Z</time>
      </trkpt>
      <trkpt lat="44.01916" lon="7.20078">
        <ele>1169.1999511719</ele>
        <time>2014-05-04T11:40:59.000Z</time>
      </trkpt>
      <trkpt lat="44.01912" lon="7.2008">
        <ele>1167.5999755859</ele>
        <time>2014-05-04T11:41:00.000Z</time>
      </trkpt>
      <trkpt lat="44.01889" lon="7.2009">
        <ele>1158.8000488281</ele>
        <time>2014-05-04T11:41:04.000Z</time>
      </trkpt>
      <trkpt lat="44.01884" lon="7.20091">
        <ele>1157</ele>
        <time>2014-05-04T11:41:05.000Z</time>
      </trkpt>
      <trkpt lat="44.01872" lon="7.20093">
        <ele>1153.8000488281</ele>
        <time>2014-05-04T11:41:07.000Z</time>
      </trkpt>
      <trkpt lat="44.01865" lon="7.20092">
        <ele>1152.8000488281</ele>
        <time>2014-05-04T11:41:08.000Z</time>
      </trkpt>
      <trkpt lat="44.01839" lon="7.20085">
        <ele>1147.1999511719</ele>
        <time>2014-05-04T11:41:12.000Z</time>
      </trkpt>
      <trkpt lat="44.01834" lon="7.20081">
        <ele>1147</ele>
        <time>2014-05-04T11:41:13.000Z</time>
      </trkpt>
      <trkpt lat="44.01825" lon="7.20075">
        <ele>1146</ele>
        <time>2014-05-04T11:41:15.000Z</time>
      </trkpt>
      <trkpt lat="44.01814" lon="7.20066">
        <ele>1145.5999755859</ele>
        <time>2014-05-04T11:41:18.000Z</time>
      </trkpt>
      <trkpt lat="44.01803" lon="7.20061">
        <ele>1144.1999511719</ele>
        <time>2014-05-04T11:41:21.000Z</time>
      </trkpt>
      <trkpt lat="44.01801" lon="7.20059">
        <ele>1143.8000488281</ele>
        <time>2014-05-04T11:41:22.000Z</time>
      </trkpt>
      <trkpt lat="44.01787" lon="7.20049">
        <ele>1143.1999511719</ele>
        <time>2014-05-04T11:41:26.000Z</time>
      </trkpt>
      <trkpt lat="44.01784" lon="7.20046">
        <ele>1143.5999755859</ele>
        <time>2014-05-04T11:41:27.000Z</time>
      </trkpt>
      <trkpt lat="44.01769" lon="7.2004">
        <ele>1140</ele>
        <time>2014-05-04T11:41:31.000Z</time>
      </trkpt>
      <trkpt lat="44.01755" lon="7.20042">
        <ele>1132.5999755859</ele>
        <time>2014-05-04T11:41:34.000Z</time>
      </trkpt>
      <trkpt lat="44.01746" lon="7.20042">
        <ele>1128.8000488281</ele>
        <time>2014-05-04T11:41:35.000Z</time>
      </trkpt>
      <trkpt lat="44.01727" lon="7.2003">
        <ele>1124.4000244141</ele>
        <time>2014-05-04T11:41:38.000Z</time>
      </trkpt>
      <trkpt lat="44.01718" lon="7.20019">
        <ele>1124.5999755859</ele>
        <time>2014-05-04T11:41:40.000Z</time>
      </trkpt>
      <trkpt lat="44.01714" lon="7.20009">
        <ele>1126.4000244141</ele>
        <time>2014-05-04T11:41:41.000Z</time>
      </trkpt>
      <trkpt lat="44.0171" lon="7.20001">
        <ele>1128.1999511719</ele>
        <time>2014-05-04T11:41:42.000Z</time>
      </trkpt>
      <trkpt lat="44.017" lon="7.19978">
        <ele>1132.5999755859</ele>
        <time>2014-05-04T11:41:45.000Z</time>
      </trkpt>
      <trkpt lat="44.01697" lon="7.19972">
        <ele>1133.1999511719</ele>
        <time>2014-05-04T11:41:46.000Z</time>
      </trkpt>
      <trkpt lat="44.01681" lon="7.19954">
        <ele>1133.8000488281</ele>
        <time>2014-05-04T11:41:49.000Z</time>
      </trkpt>
      <trkpt lat="44.01675" lon="7.19948">
        <ele>1134</ele>
        <time>2014-05-04T11:41:50.000Z</time>
      </trkpt>
      <trkpt lat="44.01662" lon="7.19936">
        <ele>1133.1999511719</ele>
        <time>2014-05-04T11:41:52.000Z</time>
      </trkpt>
      <trkpt lat="44.01647" lon="7.19926">
        <ele>1131.5999755859</ele>
        <time>2014-05-04T11:41:54.000Z</time>
      </trkpt>
      <trkpt lat="44.01618" lon="7.19896">
        <ele>1131.4000244141</ele>
        <time>2014-05-04T11:41:59.000Z</time>
      </trkpt>
      <trkpt lat="44.01613" lon="7.19893">
        <ele>1130.4000244141</ele>
        <time>2014-05-04T11:42:00.000Z</time>
      </trkpt>
      <trkpt lat="44.01602" lon="7.19886">
        <ele>1126.8000488281</ele>
        <time>2014-05-04T11:42:02.000Z</time>
      </trkpt>
      <trkpt lat="44.01595" lon="7.1989">
        <ele>1122</ele>
        <time>2014-05-04T11:42:03.000Z</time>
      </trkpt>
      <trkpt lat="44.01569" lon="7.19894">
        <ele>1107.5999755859</ele>
        <time>2014-05-04T11:42:06.000Z</time>
      </trkpt>
      <trkpt lat="44.01562" lon="7.19894">
        <ele>1103.8000488281</ele>
        <time>2014-05-04T11:42:07.000Z</time>
      </trkpt>
      <trkpt lat="44.01549" lon="7.19892">
        <ele>1097.5999755859</ele>
        <time>2014-05-04T11:42:09.000Z</time>
      </trkpt>
      <trkpt lat="44.01544" lon="7.19889">
        <ele>1096.1999511719</ele>
        <time>2014-05-04T11:42:10.000Z</time>
      </trkpt>
      <trkpt lat="44.01543" lon="7.19871">
        <ele>1099.4000244141</ele>
        <time>2014-05-04T11:42:12.000Z</time>
      </trkpt>
      <trkpt lat="44.01537" lon="7.19841">
        <ele>1104</ele>
        <time>2014-05-04T11:42:16.000Z</time>
      </trkpt>
      <trkpt lat="44.01531" lon="7.19813">
        <ele>1102.4000244141</ele>
        <time>2014-05-04T11:42:19.000Z</time>
      </trkpt>
      <trkpt lat="44.01531" lon="7.19806">
        <ele>1101</ele>
        <time>2014-05-04T11:42:20.000Z</time>
      </trkpt>
      <trkpt lat="44.01537" lon="7.19782">
        <ele>1101.4000244141</ele>
        <time>2014-05-04T11:42:23.000Z</time>
      </trkpt>
      <trkpt lat="44.01537" lon="7.19777">
        <ele>1101</ele>
        <time>2014-05-04T11:42:24.000Z</time>
      </trkpt>
      <trkpt lat="44.01541" lon="7.19764">
        <ele>1101.8000488281</ele>
        <time>2014-05-04T11:42:27.000Z</time>
      </trkpt>
      <trkpt lat="44.01553" lon="7.19734">
        <ele>1105.5999755859</ele>
        <time>2014-05-04T11:42:32.000Z</time>
      </trkpt>
      <trkpt lat="44.01555" lon="7.1973">
        <ele>1106.5999755859</ele>
        <time>2014-05-04T11:42:33.000Z</time>
      </trkpt>
      <trkpt lat="44.01557" lon="7.19713">
        <ele>1108</ele>
        <time>2014-05-04T11:42:36.000Z</time>
      </trkpt>
      <trkpt lat="44.01571" lon="7.1969">
        <ele>1112.5999755859</ele>
        <time>2014-05-04T11:42:40.000Z</time>
      </trkpt>
      <trkpt lat="44.01576" lon="7.19685">
        <ele>1113.1999511719</ele>
        <time>2014-05-04T11:42:41.000Z</time>
      </trkpt>
      <trkpt lat="44.01597" lon="7.19663">
        <ele>1115.5999755859</ele>
        <time>2014-05-04T11:42:46.000Z</time>
      </trkpt>
      <trkpt lat="44.01604" lon="7.19646">
        <ele>1121.8000488281</ele>
        <time>2014-05-04T11:42:50.000Z</time>
      </trkpt>
      <trkpt lat="44.01589" lon="7.19649">
        <ele>1117.8000488281</ele>
        <time>2014-05-04T11:42:53.000Z</time>
      </trkpt>
      <trkpt lat="44.0157" lon="7.19638">
        <ele>1115.4000244141</ele>
        <time>2014-05-04T11:42:57.000Z</time>
      </trkpt>
      <trkpt lat="44.01561" lon="7.1963">
        <ele>1115.8000488281</ele>
        <time>2014-05-04T11:43:01.000Z</time>
      </trkpt>
      <trkpt lat="44.01563" lon="7.19623">
        <ele>1119</ele>
        <time>2014-05-04T11:43:03.000Z</time>
      </trkpt>
      <trkpt lat="44.01566" lon="7.1962">
        <ele>1121.4000244141</ele>
        <time>2014-05-04T11:43:05.000Z</time>
      </trkpt>
      <trkpt lat="44.01563" lon="7.19624">
        <ele>1118.5999755859</ele>
        <time>2014-05-04T11:43:25.000Z</time>
      </trkpt>
      <trkpt lat="44.01561" lon="7.19624">
        <ele>1117.8000488281</ele>
        <time>2014-05-04T11:43:28.000Z</time>
      </trkpt>
      <trkpt lat="44.01554" lon="7.19625">
        <ele>1115.4000244141</ele>
        <time>2014-05-04T11:43:34.000Z</time>
      </trkpt>
      <trkpt lat="44.01545" lon="7.19628">
        <ele>1111.1999511719</ele>
        <time>2014-05-04T11:43:37.000Z</time>
      </trkpt>
      <trkpt lat="44.01532" lon="7.19622">
        <ele>1109.1999511719</ele>
        <time>2014-05-04T11:43:41.000Z</time>
      </trkpt>
      <trkpt lat="44.01515" lon="7.19617">
        <ele>1107</ele>
        <time>2014-05-04T11:43:45.000Z</time>
      </trkpt>
      <trkpt lat="44.01497" lon="7.1961">
        <ele>1106.1999511719</ele>
        <time>2014-05-04T11:43:50.000Z</time>
      </trkpt>
      <trkpt lat="44.01488" lon="7.19609">
        <ele>1104.5999755859</ele>
        <time>2014-05-04T11:43:52.000Z</time>
      </trkpt>
      <trkpt lat="44.01479" lon="7.19611">
        <ele>1102</ele>
        <time>2014-05-04T11:43:54.000Z</time>
      </trkpt>
      <trkpt lat="44.01461" lon="7.19607">
        <ele>1098.8000488281</ele>
        <time>2014-05-04T11:43:58.000Z</time>
      </trkpt>
      <trkpt lat="44.0144" lon="7.19602">
        <ele>1095</ele>
        <time>2014-05-04T11:44:02.000Z</time>
      </trkpt>
      <trkpt lat="44.01436" lon="7.19601">
        <ele>1093.8000488281</ele>
        <time>2014-05-04T11:44:03.000Z</time>
      </trkpt>
      <trkpt lat="44.01414" lon="7.19593">
        <ele>1089.1999511719</ele>
        <time>2014-05-04T11:44:08.000Z</time>
      </trkpt>
      <trkpt lat="44.01394" lon="7.19584">
        <ele>1085.4000244141</ele>
        <time>2014-05-04T11:44:12.000Z</time>
      </trkpt>
      <trkpt lat="44.01383" lon="7.1957">
        <ele>1085.8000488281</ele>
        <time>2014-05-04T11:44:15.000Z</time>
      </trkpt>
      <trkpt lat="44.01379" lon="7.19568">
        <ele>1084.8000488281</ele>
        <time>2014-05-04T11:44:16.000Z</time>
      </trkpt>
      <trkpt lat="44.01376" lon="7.19564">
        <ele>1084.4000244141</ele>
        <time>2014-05-04T11:44:17.000Z</time>
      </trkpt>
      <trkpt lat="44.01356" lon="7.19551">
        <ele>1079.5999755859</ele>
        <time>2014-05-04T11:44:21.000Z</time>
      </trkpt>
      <trkpt lat="44.01348" lon="7.19542">
        <ele>1077</ele>
        <time>2014-05-04T11:44:23.000Z</time>
      </trkpt>
      <trkpt lat="44.01338" lon="7.19528">
        <ele>1074</ele>
        <time>2014-05-04T11:44:26.000Z</time>
      </trkpt>
      <trkpt lat="44.01329" lon="7.19517">
        <ele>1071.4000244141</ele>
        <time>2014-05-04T11:44:28.000Z</time>
      </trkpt>
      <trkpt lat="44.01324" lon="7.19504">
        <ele>1072</ele>
        <time>2014-05-04T11:44:30.000Z</time>
      </trkpt>
      <trkpt lat="44.01321" lon="7.19498">
        <ele>1071.4000244141</ele>
        <time>2014-05-04T11:44:31.000Z</time>
      </trkpt>
      <trkpt lat="44.01317" lon="7.19478">
        <ele>1068.5999755859</ele>
        <time>2014-05-04T11:44:34.000Z</time>
      </trkpt>
      <trkpt lat="44.01316" lon="7.19474">
        <ele>1067.8000488281</ele>
        <time>2014-05-04T11:44:35.000Z</time>
      </trkpt>
      <trkpt lat="44.01316" lon="7.19469">
        <ele>1067.4000244141</ele>
        <time>2014-05-04T11:44:36.000Z</time>
      </trkpt>
      <trkpt lat="44.01314" lon="7.19461">
        <ele>1065.8000488281</ele>
        <time>2014-05-04T11:44:38.000Z</time>
      </trkpt>
      <trkpt lat="44.01313" lon="7.19442">
        <ele>1064.5999755859</ele>
        <time>2014-05-04T11:44:42.000Z</time>
      </trkpt>
      <trkpt lat="44.01313" lon="7.19437">
        <ele>1064.5999755859</ele>
        <time>2014-05-04T11:44:43.000Z</time>
      </trkpt>
      <trkpt lat="44.01317" lon="7.19408">
        <ele>1068</ele>
        <time>2014-05-04T11:44:48.000Z</time>
      </trkpt>
      <trkpt lat="44.01325" lon="7.19382">
        <ele>1075.8000488281</ele>
        <time>2014-05-04T11:44:53.000Z</time>
      </trkpt>
      <trkpt lat="44.01332" lon="7.19363">
        <ele>1076.4000244141</ele>
        <time>2014-05-04T11:44:57.000Z</time>
      </trkpt>
      <trkpt lat="44.01342" lon="7.1935">
        <ele>1078.1999511719</ele>
        <time>2014-05-04T11:45:00.000Z</time>
      </trkpt>
      <trkpt lat="44.01346" lon="7.19346">
        <ele>1079.1999511719</ele>
        <time>2014-05-04T11:45:01.000Z</time>
      </trkpt>
      <trkpt lat="44.01357" lon="7.19331">
        <ele>1081</ele>
        <time>2014-05-04T11:45:05.000Z</time>
      </trkpt>
      <trkpt lat="44.01363" lon="7.19324">
        <ele>1083.1999511719</ele>
        <time>2014-05-04T11:45:07.000Z</time>
      </trkpt>
      <trkpt lat="44.01369" lon="7.19316">
        <ele>1086.8000488281</ele>
        <time>2014-05-04T11:45:11.000Z</time>
      </trkpt>
      <trkpt lat="44.01377" lon="7.19311">
        <ele>1090.5999755859</ele>
        <time>2014-05-04T11:45:15.000Z</time>
      </trkpt>
      <trkpt lat="44.01384" lon="7.1931">
        <ele>1094.1999511719</ele>
        <time>2014-05-04T11:45:19.000Z</time>
      </trkpt>
      <trkpt lat="44.01387" lon="7.19308">
        <ele>1095.8000488281</ele>
        <time>2014-05-04T11:45:20.000Z</time>
      </trkpt>
      <trkpt lat="44.01393" lon="7.19296">
        <ele>1099</ele>
        <time>2014-05-04T11:45:24.000Z</time>
      </trkpt>
      <trkpt lat="44.01393" lon="7.19291">
        <ele>1099.1999511719</ele>
        <time>2014-05-04T11:45:25.000Z</time>
      </trkpt>
      <trkpt lat="44.0138" lon="7.19269">
        <ele>1093.5999755859</ele>
        <time>2014-05-04T11:45:29.000Z</time>
      </trkpt>
      <trkpt lat="44.01367" lon="7.19261">
        <ele>1087.5999755859</ele>
        <time>2014-05-04T11:45:32.000Z</time>
      </trkpt>
      <trkpt lat="44.01366" lon="7.19257">
        <ele>1087.1999511719</ele>
        <time>2014-05-04T11:45:33.000Z</time>
      </trkpt>
      <trkpt lat="44.01366" lon="7.19244">
        <ele>1087.1999511719</ele>
        <time>2014-05-04T11:45:37.000Z</time>
      </trkpt>
      <trkpt lat="44.01375" lon="7.19224">
        <ele>1099.4000244141</ele>
        <time>2014-05-04T11:45:41.000Z</time>
      </trkpt>
      <trkpt lat="44.01375" lon="7.19222">
        <ele>1100.5999755859</ele>
        <time>2014-05-04T11:45:42.000Z</time>
      </trkpt>
      <trkpt lat="44.01373" lon="7.19217">
        <ele>1101.8000488281</ele>
        <time>2014-05-04T11:45:45.000Z</time>
      </trkpt>
      <trkpt lat="44.0137" lon="7.19218">
        <ele>1100.4000244141</ele>
        <time>2014-05-04T11:45:46.000Z</time>
      </trkpt>
      <trkpt lat="44.01361" lon="7.19221">
        <ele>1095.5999755859</ele>
        <time>2014-05-04T11:45:49.000Z</time>
      </trkpt>
      <trkpt lat="44.01344" lon="7.19214">
        <ele>1095.4000244141</ele>
        <time>2014-05-04T11:45:53.000Z</time>
      </trkpt>
      <trkpt lat="44.01325" lon="7.19217">
        <ele>1091</ele>
        <time>2014-05-04T11:45:57.000Z</time>
      </trkpt>
      <trkpt lat="44.01318" lon="7.19218">
        <ele>1089.4000244141</ele>
        <time>2014-05-04T11:45:59.000Z</time>
      </trkpt>
      <trkpt lat="44.0131" lon="7.19219">
        <ele>1087.5999755859</ele>
        <time>2014-05-04T11:46:01.000Z</time>
      </trkpt>
      <trkpt lat="44.01291" lon="7.19224">
        <ele>1082</ele>
        <time>2014-05-04T11:46:05.000Z</time>
      </trkpt>
      <trkpt lat="44.01265" lon="7.19226">
        <ele>1074.8000488281</ele>
        <time>2014-05-04T11:46:08.000Z</time>
      </trkpt>
      <trkpt lat="44.01242" lon="7.19225">
        <ele>1067.4000244141</ele>
        <time>2014-05-04T11:46:12.000Z</time>
      </trkpt>
      <trkpt lat="44.01214" lon="7.19234">
        <ele>1057.1999511719</ele>
        <time>2014-05-04T11:46:17.000Z</time>
      </trkpt>
      <trkpt lat="44.01194" lon="7.19213">
        <ele>1058.5999755859</ele>
        <time>2014-05-04T11:46:21.000Z</time>
      </trkpt>
      <trkpt lat="44.01185" lon="7.19203">
        <ele>1057</ele>
        <time>2014-05-04T11:46:23.000Z</time>
      </trkpt>
      <trkpt lat="44.0118" lon="7.19201">
        <ele>1054.4000244141</ele>
        <time>2014-05-04T11:46:25.000Z</time>
      </trkpt>
      <trkpt lat="44.01174" lon="7.19203">
        <ele>1050</ele>
        <time>2014-05-04T11:46:27.000Z</time>
      </trkpt>
      <trkpt lat="44.01165" lon="7.19202">
        <ele>1044.5999755859</ele>
        <time>2014-05-04T11:46:29.000Z</time>
      </trkpt>
      <trkpt lat="44.01147" lon="7.19193">
        <ele>1037</ele>
        <time>2014-05-04T11:46:32.000Z</time>
      </trkpt>
      <trkpt lat="44.01143" lon="7.1919">
        <ele>1035.1999511719</ele>
        <time>2014-05-04T11:46:33.000Z</time>
      </trkpt>
      <trkpt lat="44.01134" lon="7.1918">
        <ele>1032.4000244141</ele>
        <time>2014-05-04T11:46:36.000Z</time>
      </trkpt>
      <trkpt lat="44.01127" lon="7.19156">
        <ele>1036.1999511719</ele>
        <time>2014-05-04T11:46:40.000Z</time>
      </trkpt>
      <trkpt lat="44.01122" lon="7.19131">
        <ele>1041.4000244141</ele>
        <time>2014-05-04T11:46:43.000Z</time>
      </trkpt>
      <trkpt lat="44.01121" lon="7.19124">
        <ele>1043</ele>
        <time>2014-05-04T11:46:44.000Z</time>
      </trkpt>
      <trkpt lat="44.01107" lon="7.19104">
        <ele>1041.5999755859</ele>
        <time>2014-05-04T11:46:48.000Z</time>
      </trkpt>
      <trkpt lat="44.01084" lon="7.19101">
        <ele>1028.8000488281</ele>
        <time>2014-05-04T11:46:52.000Z</time>
      </trkpt>
      <trkpt lat="44.0107" lon="7.19082">
        <ele>1026.8000488281</ele>
        <time>2014-05-04T11:46:56.000Z</time>
      </trkpt>
      <trkpt lat="44.01062" lon="7.19054">
        <ele>1032.5999755859</ele>
        <time>2014-05-04T11:47:00.000Z</time>
      </trkpt>
      <trkpt lat="44.01059" lon="7.19048">
        <ele>1033.1999511719</ele>
        <time>2014-05-04T11:47:01.000Z</time>
      </trkpt>
      <trkpt lat="44.01055" lon="7.19043">
        <ele>1032.8000488281</ele>
        <time>2014-05-04T11:47:02.000Z</time>
      </trkpt>
      <trkpt lat="44.01045" lon="7.19034">
        <ele>1030.1999511719</ele>
        <time>2014-05-04T11:47:05.000Z</time>
      </trkpt>
      <trkpt lat="44.01035" lon="7.19029">
        <ele>1027</ele>
        <time>2014-05-04T11:47:07.000Z</time>
      </trkpt>
      <trkpt lat="44.01021" lon="7.19019">
        <ele>1022.4000244141</ele>
        <time>2014-05-04T11:47:10.000Z</time>
      </trkpt>
      <trkpt lat="44.0101" lon="7.19009">
        <ele>1019.200012207</ele>
        <time>2014-05-04T11:47:13.000Z</time>
      </trkpt>
      <trkpt lat="44.01001" lon="7.19002">
        <ele>1016.799987793</ele>
        <time>2014-05-04T11:47:15.000Z</time>
      </trkpt>
      <trkpt lat="44.00984" lon="7.1899">
        <ele>1009.799987793</ele>
        <time>2014-05-04T11:47:19.000Z</time>
      </trkpt>
      <trkpt lat="44.00978" lon="7.18989">
        <ele>1006.799987793</ele>
        <time>2014-05-04T11:47:20.000Z</time>
      </trkpt>
      <trkpt lat="44.00974" lon="7.18985">
        <ele>1004.4000244141</ele>
        <time>2014-05-04T11:47:21.000Z</time>
      </trkpt>
      <trkpt lat="44.00952" lon="7.18974">
        <ele>992.59997558594</ele>
        <time>2014-05-04T11:47:25.000Z</time>
      </trkpt>
      <trkpt lat="44.00943" lon="7.18956">
        <ele>989.59997558594</ele>
        <time>2014-05-04T11:47:29.000Z</time>
      </trkpt>
      <trkpt lat="44.00943" lon="7.1895">
        <ele>990.79998779297</ele>
        <time>2014-05-04T11:47:30.000Z</time>
      </trkpt>
      <trkpt lat="44.00941" lon="7.18933">
        <ele>991.79998779297</ele>
        <time>2014-05-04T11:47:33.000Z</time>
      </trkpt>
      <trkpt lat="44.00941" lon="7.18928">
        <ele>992.40002441406</ele>
        <time>2014-05-04T11:47:34.000Z</time>
      </trkpt>
      <trkpt lat="44.00947" lon="7.18909">
        <ele>998.40002441406</ele>
        <time>2014-05-04T11:47:37.000Z</time>
      </trkpt>
      <trkpt lat="44.0095" lon="7.18902">
        <ele>1000</ele>
        <time>2014-05-04T11:47:38.000Z</time>
      </trkpt>
      <trkpt lat="44.00956" lon="7.18886">
        <ele>1004.799987793</ele>
        <time>2014-05-04T11:47:40.000Z</time>
      </trkpt>
      <trkpt lat="44.00961" lon="7.18879">
        <ele>1008.200012207</ele>
        <time>2014-05-04T11:47:41.000Z</time>
      </trkpt>
      <trkpt lat="44.00973" lon="7.18866">
        <ele>1015.5999755859</ele>
        <time>2014-05-04T11:47:44.000Z</time>
      </trkpt>
      <trkpt lat="44.00977" lon="7.1886">
        <ele>1017.4000244141</ele>
        <time>2014-05-04T11:47:45.000Z</time>
      </trkpt>
      <trkpt lat="44.00981" lon="7.18853">
        <ele>1016.799987793</ele>
        <time>2014-05-04T11:47:46.000Z</time>
      </trkpt>
      <trkpt lat="44.00989" lon="7.18841">
        <ele>1016.5999755859</ele>
        <time>2014-05-04T11:47:49.000Z</time>
      </trkpt>
      <trkpt lat="44.01005" lon="7.18832">
        <ele>1019</ele>
        <time>2014-05-04T11:47:53.000Z</time>
      </trkpt>
      <trkpt lat="44.01012" lon="7.18822">
        <ele>1021.799987793</ele>
        <time>2014-05-04T11:47:56.000Z</time>
      </trkpt>
      <trkpt lat="44.01013" lon="7.18818">
        <ele>1023.4000244141</ele>
        <time>2014-05-04T11:47:57.000Z</time>
      </trkpt>
      <trkpt lat="44.01015" lon="7.18815">
        <ele>1024.5999755859</ele>
        <time>2014-05-04T11:47:58.000Z</time>
      </trkpt>
      <trkpt lat="44.01019" lon="7.18801">
        <ele>1027.5999755859</ele>
        <time>2014-05-04T11:48:03.000Z</time>
      </trkpt>
      <trkpt lat="44.01015" lon="7.18802">
        <ele>1026.5999755859</ele>
        <time>2014-05-04T11:48:07.000Z</time>
      </trkpt>
      <trkpt lat="44.01013" lon="7.18805">
        <ele>1026</ele>
        <time>2014-05-04T11:48:08.000Z</time>
      </trkpt>
      <trkpt lat="44.01005" lon="7.18803">
        <ele>1024.8000488281</ele>
        <time>2014-05-04T11:48:13.000Z</time>
      </trkpt>
      <trkpt lat="44.00993" lon="7.18798">
        <ele>1023.5999755859</ele>
        <time>2014-05-04T11:48:26.000Z</time>
      </trkpt>
      <trkpt lat="44.00983" lon="7.18789">
        <ele>1023.200012207</ele>
        <time>2014-05-04T11:48:36.000Z</time>
      </trkpt>
      <trkpt lat="44.00979" lon="7.18783">
        <ele>1023.799987793</ele>
        <time>2014-05-04T11:48:43.000Z</time>
      </trkpt>
      <trkpt lat="44.00975" lon="7.1878">
        <ele>1023.5999755859</ele>
        <time>2014-05-04T11:48:47.000Z</time>
      </trkpt>
      <trkpt lat="44.00974" lon="7.18779">
        <ele>1023.4000244141</ele>
        <time>2014-05-04T11:48:48.000Z</time>
      </trkpt>
      <trkpt lat="44.0097" lon="7.18779">
        <ele>1022.200012207</ele>
        <time>2014-05-04T11:48:51.000Z</time>
      </trkpt>
      <trkpt lat="44.00965" lon="7.1878">
        <ele>1020.799987793</ele>
        <time>2014-05-04T11:48:55.000Z</time>
      </trkpt>
      <trkpt lat="44.00964" lon="7.1878">
        <ele>1020.200012207</ele>
        <time>2014-05-04T11:48:58.000Z</time>
      </trkpt>
      <trkpt lat="44.00961" lon="7.1878">
        <ele>1019.4000244141</ele>
        <time>2014-05-04T11:49:01.000Z</time>
      </trkpt>
      <trkpt lat="44.00957" lon="7.18782">
        <ele>1017.5999755859</ele>
        <time>2014-05-04T11:49:07.000Z</time>
      </trkpt>
      <trkpt lat="44.00954" lon="7.18781">
        <ele>1017</ele>
        <time>2014-05-04T11:49:09.000Z</time>
      </trkpt>
      <trkpt lat="44.0095" lon="7.18782">
        <ele>1015.4000244141</ele>
        <time>2014-05-04T11:49:13.000Z</time>
      </trkpt>
      <trkpt lat="44.00942" lon="7.18785">
        <ele>1012.4000244141</ele>
        <time>2014-05-04T11:49:19.000Z</time>
      </trkpt>
      <trkpt lat="44.00925" lon="7.18785">
        <ele>1008.5999755859</ele>
        <time>2014-05-04T11:49:26.000Z</time>
      </trkpt>
      <trkpt lat="44.00912" lon="7.18785">
        <ele>1005.4000244141</ele>
        <time>2014-05-04T11:49:33.000Z</time>
      </trkpt>
      <trkpt lat="44.00906" lon="7.18786">
        <ele>1003.799987793</ele>
        <time>2014-05-04T11:49:37.000Z</time>
      </trkpt>
      <trkpt lat="44.00903" lon="7.18786">
        <ele>1002.799987793</ele>
        <time>2014-05-04T11:49:39.000Z</time>
      </trkpt>
      <trkpt lat="44.00898" lon="7.18782">
        <ele>1002.799987793</ele>
        <time>2014-05-04T11:49:42.000Z</time>
      </trkpt>
      <trkpt lat="44.00896" lon="7.1878">
        <ele>1003</ele>
        <time>2014-05-04T11:49:44.000Z</time>
      </trkpt>
      <trkpt lat="44.00895" lon="7.1878">
        <ele>1002.5999755859</ele>
        <time>2014-05-04T11:49:45.000Z</time>
      </trkpt>
      <trkpt lat="44.00894" lon="7.18776">
        <ele>1003.5999755859</ele>
        <time>2014-05-04T11:49:48.000Z</time>
      </trkpt>
      <trkpt lat="44.00898" lon="7.18774">
        <ele>1004.799987793</ele>
        <time>2014-05-04T11:49:51.000Z</time>
      </trkpt>
      <trkpt lat="44.00899" lon="7.18774">
        <ele>1005.200012207</ele>
        <time>2014-05-04T11:49:52.000Z</time>
      </trkpt>
      <trkpt lat="44.009" lon="7.18771">
        <ele>1006.4000244141</ele>
        <time>2014-05-04T11:49:56.000Z</time>
      </trkpt>
      <trkpt lat="44.009" lon="7.1876">
        <ele>1009.4000244141</ele>
        <time>2014-05-04T11:50:08.000Z</time>
      </trkpt>
      <trkpt lat="44.009" lon="7.18757">
        <ele>1010.4000244141</ele>
        <time>2014-05-04T11:50:10.000Z</time>
      </trkpt>
      <trkpt lat="44.00901" lon="7.18749">
        <ele>1013</ele>
        <time>2014-05-04T11:50:14.000Z</time>
      </trkpt>
      <trkpt lat="44.00901" lon="7.18747">
        <ele>1013.5999755859</ele>
        <time>2014-05-04T11:50:15.000Z</time>
      </trkpt>
      <trkpt lat="44.009" lon="7.18745">
        <ele>1014</ele>
        <time>2014-05-04T11:50:20.000Z</time>
      </trkpt>
      <trkpt lat="44.009" lon="7.18743">
        <ele>1014.200012207</ele>
        <time>2014-05-04T11:50:22.000Z</time>
      </trkpt>
      <trkpt lat="44.00902" lon="7.1874">
        <ele>1014.5999755859</ele>
        <time>2014-05-04T11:50:25.000Z</time>
      </trkpt>
      <trkpt lat="44.00902" lon="7.18738">
        <ele>1014.5999755859</ele>
        <time>2014-05-04T11:50:27.000Z</time>
      </trkpt>
      <trkpt lat="44.00903" lon="7.18734">
        <ele>1015</ele>
        <time>2014-05-04T11:50:31.000Z</time>
      </trkpt>
      <trkpt lat="44.009" lon="7.18728">
        <ele>1014.5999755859</ele>
        <time>2014-05-04T11:50:49.000Z</time>
      </trkpt>
      <trkpt lat="44.00905" lon="7.18715">
        <ele>1016.200012207</ele>
        <time>2014-05-04T11:50:53.000Z</time>
      </trkpt>
      <trkpt lat="44.00911" lon="7.18697">
        <ele>1020.200012207</ele>
        <time>2014-05-04T11:50:58.000Z</time>
      </trkpt>
      <trkpt lat="44.00912" lon="7.18692">
        <ele>1021.4000244141</ele>
        <time>2014-05-04T11:51:00.000Z</time>
      </trkpt>
      <trkpt lat="44.00911" lon="7.18685">
        <ele>1022</ele>
        <time>2014-05-04T11:51:03.000Z</time>
      </trkpt>
      <trkpt lat="44.00904" lon="7.18673">
        <ele>1021</ele>
        <time>2014-05-04T11:51:07.000Z</time>
      </trkpt>
      <trkpt lat="44.009" lon="7.1867">
        <ele>1020.4000244141</ele>
        <time>2014-05-04T11:51:08.000Z</time>
      </trkpt>
      <trkpt lat="44.00889" lon="7.18666">
        <ele>1017</ele>
        <time>2014-05-04T11:51:11.000Z</time>
      </trkpt>
      <trkpt lat="44.00867" lon="7.18657">
        <ele>1011.200012207</ele>
        <time>2014-05-04T11:51:17.000Z</time>
      </trkpt>
      <trkpt lat="44.00845" lon="7.18643">
        <ele>1005.200012207</ele>
        <time>2014-05-04T11:51:23.000Z</time>
      </trkpt>
      <trkpt lat="44.00825" lon="7.18633">
        <ele>997.59997558594</ele>
        <time>2014-05-04T11:51:29.000Z</time>
      </trkpt>
      <trkpt lat="44.00805" lon="7.18622">
        <ele>990.59997558594</ele>
        <time>2014-05-04T11:51:34.000Z</time>
      </trkpt>
      <trkpt lat="44.00792" lon="7.18607">
        <ele>988.20001220703</ele>
        <time>2014-05-04T11:51:38.000Z</time>
      </trkpt>
      <trkpt lat="44.00791" lon="7.18602">
        <ele>988.79998779297</ele>
        <time>2014-05-04T11:51:39.000Z</time>
      </trkpt>
      <trkpt lat="44.00791" lon="7.18582">
        <ele>994.59997558594</ele>
        <time>2014-05-04T11:51:42.000Z</time>
      </trkpt>
      <trkpt lat="44.0079" lon="7.18569">
        <ele>996</ele>
        <time>2014-05-04T11:51:44.000Z</time>
      </trkpt>
      <trkpt lat="44.00797" lon="7.18541">
        <ele>1001.4000244141</ele>
        <time>2014-05-04T11:51:48.000Z</time>
      </trkpt>
      <trkpt lat="44.00801" lon="7.18515">
        <ele>1005</ele>
        <time>2014-05-04T11:51:52.000Z</time>
      </trkpt>
      <trkpt lat="44.00799" lon="7.18508">
        <ele>1004.4000244141</ele>
        <time>2014-05-04T11:51:53.000Z</time>
      </trkpt>
      <trkpt lat="44.00797" lon="7.185">
        <ele>1003.799987793</ele>
        <time>2014-05-04T11:51:55.000Z</time>
      </trkpt>
      <trkpt lat="44.00795" lon="7.1848">
        <ele>1005.4000244141</ele>
        <time>2014-05-04T11:51:59.000Z</time>
      </trkpt>
      <trkpt lat="44.00801" lon="7.1846">
        <ele>1011.4000244141</ele>
        <time>2014-05-04T11:52:03.000Z</time>
      </trkpt>
      <trkpt lat="44.00805" lon="7.18451">
        <ele>1015</ele>
        <time>2014-05-04T11:52:05.000Z</time>
      </trkpt>
      <trkpt lat="44.00808" lon="7.18441">
        <ele>1017.799987793</ele>
        <time>2014-05-04T11:52:08.000Z</time>
      </trkpt>
      <trkpt lat="44.00814" lon="7.18416">
        <ele>1022.799987793</ele>
        <time>2014-05-04T11:52:13.000Z</time>
      </trkpt>
      <trkpt lat="44.00815" lon="7.18398">
        <ele>1027.4000244141</ele>
        <time>2014-05-04T11:52:17.000Z</time>
      </trkpt>
      <trkpt lat="44.00814" lon="7.18396">
        <ele>1027.4000244141</ele>
        <time>2014-05-04T11:52:21.000Z</time>
      </trkpt>
      <trkpt lat="44.00818" lon="7.18394">
        <ele>1030.4000244141</ele>
        <time>2014-05-04T11:52:31.000Z</time>
      </trkpt>
      <trkpt lat="44.0082" lon="7.18397">
        <ele>1030.4000244141</ele>
        <time>2014-05-04T11:52:35.000Z</time>
      </trkpt>
      <trkpt lat="44.00819" lon="7.18397">
        <ele>1030</ele>
        <time>2014-05-04T11:52:36.000Z</time>
      </trkpt>
      <trkpt lat="44.00813" lon="7.18397">
        <ele>1026.5999755859</ele>
        <time>2014-05-04T11:52:39.000Z</time>
      </trkpt>
      <trkpt lat="44.0081" lon="7.184">
        <ele>1024.4000244141</ele>
        <time>2014-05-04T11:52:40.000Z</time>
      </trkpt>
      <trkpt lat="44.00796" lon="7.18401">
        <ele>1017.5999755859</ele>
        <time>2014-05-04T11:52:43.000Z</time>
      </trkpt>
      <trkpt lat="44.00789" lon="7.18399">
        <ele>1014.4000244141</ele>
        <time>2014-05-04T11:52:44.000Z</time>
      </trkpt>
      <trkpt lat="44.00761" lon="7.18392">
        <ele>1005.200012207</ele>
        <time>2014-05-04T11:52:48.000Z</time>
      </trkpt>
      <trkpt lat="44.00736" lon="7.18385">
        <ele>997.40002441406</ele>
        <time>2014-05-04T11:52:52.000Z</time>
      </trkpt>
      <trkpt lat="44.00732" lon="7.18384">
        <ele>996</ele>
        <time>2014-05-04T11:52:53.000Z</time>
      </trkpt>
      <trkpt lat="44.00726" lon="7.18376">
        <ele>996.79998779297</ele>
        <time>2014-05-04T11:52:55.000Z</time>
      </trkpt>
      <trkpt lat="44.00727" lon="7.18363">
        <ele>1003.4000244141</ele>
        <time>2014-05-04T11:52:57.000Z</time>
      </trkpt>
      <trkpt lat="44.00727" lon="7.18359">
        <ele>1004.4000244141</ele>
        <time>2014-05-04T11:52:58.000Z</time>
      </trkpt>
      <trkpt lat="44.00725" lon="7.18354">
        <ele>1005.5999755859</ele>
        <time>2014-05-04T11:52:59.000Z</time>
      </trkpt>
      <trkpt lat="44.00719" lon="7.1834">
        <ele>1007.799987793</ele>
        <time>2014-05-04T11:53:03.000Z</time>
      </trkpt>
      <trkpt lat="44.00715" lon="7.18341">
        <ele>1006.200012207</ele>
        <time>2014-05-04T11:53:04.000Z</time>
      </trkpt>
      <trkpt lat="44.00702" lon="7.18347">
        <ele>998.79998779297</ele>
        <time>2014-05-04T11:53:07.000Z</time>
      </trkpt>
      <trkpt lat="44.00684" lon="7.18355">
        <ele>985.59997558594</ele>
        <time>2014-05-04T11:53:11.000Z</time>
      </trkpt>
      <trkpt lat="44.0068" lon="7.18355">
        <ele>983.20001220703</ele>
        <time>2014-05-04T11:53:12.000Z</time>
      </trkpt>
      <trkpt lat="44.0067" lon="7.18356">
        <ele>977.20001220703</ele>
        <time>2014-05-04T11:53:14.000Z</time>
      </trkpt>
      <trkpt lat="44.00656" lon="7.1835">
        <ele>971.79998779297</ele>
        <time>2014-05-04T11:53:17.000Z</time>
      </trkpt>
      <trkpt lat="44.0065" lon="7.18347">
        <ele>970.20001220703</ele>
        <time>2014-05-04T11:53:18.000Z</time>
      </trkpt>
      <trkpt lat="44.00646" lon="7.18342">
        <ele>969.59997558594</ele>
        <time>2014-05-04T11:53:19.000Z</time>
      </trkpt>
      <trkpt lat="44.00636" lon="7.18333">
        <ele>968.59997558594</ele>
        <time>2014-05-04T11:53:21.000Z</time>
      </trkpt>
      <trkpt lat="44.00612" lon="7.18302">
        <ele>963.20001220703</ele>
        <time>2014-05-04T11:53:26.000Z</time>
      </trkpt>
      <trkpt lat="44.00605" lon="7.18272">
        <ele>965.20001220703</ele>
        <time>2014-05-04T11:53:30.000Z</time>
      </trkpt>
      <trkpt lat="44.00604" lon="7.18263">
        <ele>966.79998779297</ele>
        <time>2014-05-04T11:53:31.000Z</time>
      </trkpt>
      <trkpt lat="44.00602" lon="7.18254">
        <ele>967.40002441406</ele>
        <time>2014-05-04T11:53:32.000Z</time>
      </trkpt>
      <trkpt lat="44.00597" lon="7.18242">
        <ele>966.20001220703</ele>
        <time>2014-05-04T11:53:34.000Z</time>
      </trkpt>
      <trkpt lat="44.00588" lon="7.1822">
        <ele>961.20001220703</ele>
        <time>2014-05-04T11:53:38.000Z</time>
      </trkpt>
      <trkpt lat="44.00594" lon="7.18199">
        <ele>962.79998779297</ele>
        <time>2014-05-04T11:53:42.000Z</time>
      </trkpt>
      <trkpt lat="44.00596" lon="7.18193">
        <ele>963.79998779297</ele>
        <time>2014-05-04T11:53:43.000Z</time>
      </trkpt>
      <trkpt lat="44.00601" lon="7.1817">
        <ele>965.20001220703</ele>
        <time>2014-05-04T11:53:46.000Z</time>
      </trkpt>
      <trkpt lat="44.00601" lon="7.18163">
        <ele>965</ele>
        <time>2014-05-04T11:53:47.000Z</time>
      </trkpt>
      <trkpt lat="44.00605" lon="7.18142">
        <ele>968.59997558594</ele>
        <time>2014-05-04T11:53:50.000Z</time>
      </trkpt>
      <trkpt lat="44.00614" lon="7.18111">
        <ele>975.20001220703</ele>
        <time>2014-05-04T11:53:54.000Z</time>
      </trkpt>
      <trkpt lat="44.00611" lon="7.1809">
        <ele>974.20001220703</ele>
        <time>2014-05-04T11:53:57.000Z</time>
      </trkpt>
      <trkpt lat="44.0061" lon="7.18085">
        <ele>973.79998779297</ele>
        <time>2014-05-04T11:54:00.000Z</time>
      </trkpt>
      <trkpt lat="44.00609" lon="7.1808">
        <ele>973</ele>
        <time>2014-05-04T11:54:02.000Z</time>
      </trkpt>
      <trkpt lat="44.00605" lon="7.18072">
        <ele>972.40002441406</ele>
        <time>2014-05-04T11:54:05.000Z</time>
      </trkpt>
      <trkpt lat="44.00602" lon="7.18071">
        <ele>971.20001220703</ele>
        <time>2014-05-04T11:54:06.000Z</time>
      </trkpt>
      <trkpt lat="44.00591" lon="7.1807">
        <ele>966.59997558594</ele>
        <time>2014-05-04T11:54:09.000Z</time>
      </trkpt>
      <trkpt lat="44.00572" lon="7.18058">
        <ele>960.20001220703</ele>
        <time>2014-05-04T11:54:14.000Z</time>
      </trkpt>
      <trkpt lat="44.00555" lon="7.18049">
        <ele>954.20001220703</ele>
        <time>2014-05-04T11:54:19.000Z</time>
      </trkpt>
      <trkpt lat="44.00546" lon="7.18047">
        <ele>950.59997558594</ele>
        <time>2014-05-04T11:54:21.000Z</time>
      </trkpt>
      <trkpt lat="44.00537" lon="7.18045">
        <ele>947.20001220703</ele>
        <time>2014-05-04T11:54:23.000Z</time>
      </trkpt>
      <trkpt lat="44.00536" lon="7.18042">
        <ele>946.79998779297</ele>
        <time>2014-05-04T11:54:24.000Z</time>
      </trkpt>
      <trkpt lat="44.00535" lon="7.18017">
        <ele>949.59997558594</ele>
        <time>2014-05-04T11:54:28.000Z</time>
      </trkpt>
      <trkpt lat="44.00549" lon="7.17995">
        <ele>960.40002441406</ele>
        <time>2014-05-04T11:54:32.000Z</time>
      </trkpt>
      <trkpt lat="44.00552" lon="7.17991">
        <ele>962.20001220703</ele>
        <time>2014-05-04T11:54:33.000Z</time>
      </trkpt>
      <trkpt lat="44.00556" lon="7.17986">
        <ele>965</ele>
        <time>2014-05-04T11:54:35.000Z</time>
      </trkpt>
      <trkpt lat="44.00554" lon="7.17979">
        <ele>964.79998779297</ele>
        <time>2014-05-04T11:54:37.000Z</time>
      </trkpt>
      <trkpt lat="44.0054" lon="7.17968">
        <ele>959.20001220703</ele>
        <time>2014-05-04T11:54:40.000Z</time>
      </trkpt>
      <trkpt lat="44.0053" lon="7.17945">
        <ele>957.20001220703</ele>
        <time>2014-05-04T11:54:44.000Z</time>
      </trkpt>
      <trkpt lat="44.00529" lon="7.17937">
        <ele>957.59997558594</ele>
        <time>2014-05-04T11:54:45.000Z</time>
      </trkpt>
      <trkpt lat="44.00521" lon="7.17904">
        <ele>958</ele>
        <time>2014-05-04T11:54:50.000Z</time>
      </trkpt>
      <trkpt lat="44.0051" lon="7.17889">
        <ele>953.79998779297</ele>
        <time>2014-05-04T11:54:54.000Z</time>
      </trkpt>
      <trkpt lat="44.00507" lon="7.17868">
        <ele>955.79998779297</ele>
        <time>2014-05-04T11:54:58.000Z</time>
      </trkpt>
      <trkpt lat="44.00513" lon="7.17852">
        <ele>962.40002441406</ele>
        <time>2014-05-04T11:55:01.000Z</time>
      </trkpt>
      <trkpt lat="44.00518" lon="7.17844">
        <ele>966.79998779297</ele>
        <time>2014-05-04T11:55:04.000Z</time>
      </trkpt>
      <trkpt lat="44.00514" lon="7.17842">
        <ele>965</ele>
        <time>2014-05-04T11:55:05.000Z</time>
      </trkpt>
      <trkpt lat="44.005" lon="7.17836">
        <ele>957.20001220703</ele>
        <time>2014-05-04T11:55:08.000Z</time>
      </trkpt>
      <trkpt lat="44.00481" lon="7.17828">
        <ele>947.59997558594</ele>
        <time>2014-05-04T11:55:13.000Z</time>
      </trkpt>
      <trkpt lat="44.00468" lon="7.17819">
        <ele>939.20001220703</ele>
        <time>2014-05-04T11:55:17.000Z</time>
      </trkpt>
      <trkpt lat="44.00465" lon="7.178">
        <ele>936.59997558594</ele>
        <time>2014-05-04T11:55:21.000Z</time>
      </trkpt>
      <trkpt lat="44.00466" lon="7.17793">
        <ele>936.59997558594</ele>
        <time>2014-05-04T11:55:22.000Z</time>
      </trkpt>
      <trkpt lat="44.00464" lon="7.17777">
        <ele>934.79998779297</ele>
        <time>2014-05-04T11:55:24.000Z</time>
      </trkpt>
      <trkpt lat="44.00464" lon="7.17769">
        <ele>934.59997558594</ele>
        <time>2014-05-04T11:55:25.000Z</time>
      </trkpt>
      <trkpt lat="44.00472" lon="7.17749">
        <ele>941.79998779297</ele>
        <time>2014-05-04T11:55:28.000Z</time>
      </trkpt>
      <trkpt lat="44.00479" lon="7.17725">
        <ele>948</ele>
        <time>2014-05-04T11:55:32.000Z</time>
      </trkpt>
      <trkpt lat="44.00479" lon="7.17712">
        <ele>948.20001220703</ele>
        <time>2014-05-04T11:55:34.000Z</time>
      </trkpt>
      <trkpt lat="44.00482" lon="7.17679">
        <ele>949.79998779297</ele>
        <time>2014-05-04T11:55:39.000Z</time>
      </trkpt>
      <trkpt lat="44.00477" lon="7.17654">
        <ele>948</ele>
        <time>2014-05-04T11:55:43.000Z</time>
      </trkpt>
      <trkpt lat="44.00474" lon="7.17647">
        <ele>948.59997558594</ele>
        <time>2014-05-04T11:55:44.000Z</time>
      </trkpt>
      <trkpt lat="44.00473" lon="7.17641">
        <ele>950.40002441406</ele>
        <time>2014-05-04T11:55:45.000Z</time>
      </trkpt>
      <trkpt lat="44.00475" lon="7.17628">
        <ele>956.79998779297</ele>
        <time>2014-05-04T11:55:47.000Z</time>
      </trkpt>
      <trkpt lat="44.00478" lon="7.17616">
        <ele>963.20001220703</ele>
        <time>2014-05-04T11:55:50.000Z</time>
      </trkpt>
      <trkpt lat="44.00479" lon="7.17601">
        <ele>964.79998779297</ele>
        <time>2014-05-04T11:55:53.000Z</time>
      </trkpt>
      <trkpt lat="44.0048" lon="7.17598">
        <ele>965.40002441406</ele>
        <time>2014-05-04T11:55:54.000Z</time>
      </trkpt>
      <trkpt lat="44.00482" lon="7.17585">
        <ele>966.59997558594</ele>
        <time>2014-05-04T11:55:59.000Z</time>
      </trkpt>
      <trkpt lat="44.00467" lon="7.17592">
        <ele>961</ele>
        <time>2014-05-04T11:56:02.000Z</time>
      </trkpt>
      <trkpt lat="44.00446" lon="7.17591">
        <ele>951.40002441406</ele>
        <time>2014-05-04T11:56:06.000Z</time>
      </trkpt>
      <trkpt lat="44.00434" lon="7.17593">
        <ele>944.79998779297</ele>
        <time>2014-05-04T11:56:09.000Z</time>
      </trkpt>
      <trkpt lat="44.00422" lon="7.17597">
        <ele>939.59997558594</ele>
        <time>2014-05-04T11:56:11.000Z</time>
      </trkpt>
      <trkpt lat="44.00419" lon="7.17594">
        <ele>939.20001220703</ele>
        <time>2014-05-04T11:56:12.000Z</time>
      </trkpt>
      <trkpt lat="44.00405" lon="7.1759">
        <ele>936.20001220703</ele>
        <time>2014-05-04T11:56:15.000Z</time>
      </trkpt>
      <trkpt lat="44.00401" lon="7.1759">
        <ele>934.79998779297</ele>
        <time>2014-05-04T11:56:16.000Z</time>
      </trkpt>
      <trkpt lat="44.00386" lon="7.17587">
        <ele>931</ele>
        <time>2014-05-04T11:56:19.000Z</time>
      </trkpt>
      <trkpt lat="44.00377" lon="7.17577">
        <ele>931.20001220703</ele>
        <time>2014-05-04T11:56:22.000Z</time>
      </trkpt>
      <trkpt lat="44.00373" lon="7.17575">
        <ele>930.20001220703</ele>
        <time>2014-05-04T11:56:23.000Z</time>
      </trkpt>
      <trkpt lat="44.00355" lon="7.17566">
        <ele>924.20001220703</ele>
        <time>2014-05-04T11:56:27.000Z</time>
      </trkpt>
      <trkpt lat="44.0035" lon="7.17565">
        <ele>921.59997558594</ele>
        <time>2014-05-04T11:56:28.000Z</time>
      </trkpt>
      <trkpt lat="44.00346" lon="7.17563">
        <ele>919.40002441406</ele>
        <time>2014-05-04T11:56:29.000Z</time>
      </trkpt>
      <trkpt lat="44.00332" lon="7.17556">
        <ele>912.79998779297</ele>
        <time>2014-05-04T11:56:32.000Z</time>
      </trkpt>
      <trkpt lat="44.00329" lon="7.17552">
        <ele>911.20001220703</ele>
        <time>2014-05-04T11:56:33.000Z</time>
      </trkpt>
      <trkpt lat="44.00331" lon="7.17528">
        <ele>914.20001220703</ele>
        <time>2014-05-04T11:56:36.000Z</time>
      </trkpt>
      <trkpt lat="44.00333" lon="7.1752">
        <ele>916.40002441406</ele>
        <time>2014-05-04T11:56:37.000Z</time>
      </trkpt>
      <trkpt lat="44.00341" lon="7.17484">
        <ele>926.40002441406</ele>
        <time>2014-05-04T11:56:41.000Z</time>
      </trkpt>
      <trkpt lat="44.00338" lon="7.17476">
        <ele>927</ele>
        <time>2014-05-04T11:56:42.000Z</time>
      </trkpt>
      <trkpt lat="44.00331" lon="7.17466">
        <ele>926</ele>
        <time>2014-05-04T11:56:44.000Z</time>
      </trkpt>
      <trkpt lat="44.00333" lon="7.17451">
        <ele>927.40002441406</ele>
        <time>2014-05-04T11:56:47.000Z</time>
      </trkpt>
      <trkpt lat="44.00345" lon="7.17433">
        <ele>932.40002441406</ele>
        <time>2014-05-04T11:56:51.000Z</time>
      </trkpt>
      <trkpt lat="44.00345" lon="7.17415">
        <ele>933.59997558594</ele>
        <time>2014-05-04T11:56:55.000Z</time>
      </trkpt>
      <trkpt lat="44.00345" lon="7.17411">
        <ele>933.79998779297</ele>
        <time>2014-05-04T11:56:56.000Z</time>
      </trkpt>
      <trkpt lat="44.0035" lon="7.17398">
        <ele>939.40002441406</ele>
        <time>2014-05-04T11:56:59.000Z</time>
      </trkpt>
      <trkpt lat="44.0035" lon="7.17388">
        <ele>942.40002441406</ele>
        <time>2014-05-04T11:57:02.000Z</time>
      </trkpt>
      <trkpt lat="44.00347" lon="7.17387">
        <ele>941.59997558594</ele>
        <time>2014-05-04T11:57:03.000Z</time>
      </trkpt>
      <trkpt lat="44.00337" lon="7.17382">
        <ele>939.79998779297</ele>
        <time>2014-05-04T11:57:07.000Z</time>
      </trkpt>
      <trkpt lat="44.00324" lon="7.17373">
        <ele>938.20001220703</ele>
        <time>2014-05-04T11:57:12.000Z</time>
      </trkpt>
      <trkpt lat="44.0032" lon="7.17371">
        <ele>937.59997558594</ele>
        <time>2014-05-04T11:57:13.000Z</time>
      </trkpt>
      <trkpt lat="44.00309" lon="7.17371">
        <ele>934.40002441406</ele>
        <time>2014-05-04T11:57:16.000Z</time>
      </trkpt>
      <trkpt lat="44.00284" lon="7.1738">
        <ele>923.40002441406</ele>
        <time>2014-05-04T11:57:22.000Z</time>
      </trkpt>
      <trkpt lat="44.00274" lon="7.17384">
        <ele>918.40002441406</ele>
        <time>2014-05-04T11:57:24.000Z</time>
      </trkpt>
      <trkpt lat="44.00264" lon="7.17386">
        <ele>912.40002441406</ele>
        <time>2014-05-04T11:57:26.000Z</time>
      </trkpt>
      <trkpt lat="44.00258" lon="7.17387">
        <ele>908.79998779297</ele>
        <time>2014-05-04T11:57:27.000Z</time>
      </trkpt>
      <trkpt lat="44.00245" lon="7.17385">
        <ele>903</ele>
        <time>2014-05-04T11:57:30.000Z</time>
      </trkpt>
      <trkpt lat="44.00242" lon="7.17385">
        <ele>902</ele>
        <time>2014-05-04T11:57:31.000Z</time>
      </trkpt>
      <trkpt lat="44.00225" lon="7.17388">
        <ele>896</ele>
        <time>2014-05-04T11:57:35.000Z</time>
      </trkpt>
      <trkpt lat="44.00211" lon="7.17379">
        <ele>892</ele>
        <time>2014-05-04T11:57:39.000Z</time>
      </trkpt>
      <trkpt lat="44.0021" lon="7.17358">
        <ele>893.59997558594</ele>
        <time>2014-05-04T11:57:42.000Z</time>
      </trkpt>
      <trkpt lat="44.00209" lon="7.17326">
        <ele>899.59997558594</ele>
        <time>2014-05-04T11:57:46.000Z</time>
      </trkpt>
      <trkpt lat="44.00201" lon="7.17306">
        <ele>894.59997558594</ele>
        <time>2014-05-04T11:57:49.000Z</time>
      </trkpt>
      <trkpt lat="44.00196" lon="7.17296">
        <ele>892.20001220703</ele>
        <time>2014-05-04T11:57:51.000Z</time>
      </trkpt>
      <trkpt lat="44.00194" lon="7.17281">
        <ele>890.40002441406</ele>
        <time>2014-05-04T11:57:53.000Z</time>
      </trkpt>
      <trkpt lat="44.00194" lon="7.17275">
        <ele>890.40002441406</ele>
        <time>2014-05-04T11:57:54.000Z</time>
      </trkpt>
      <trkpt lat="44.00196" lon="7.17235">
        <ele>892.79998779297</ele>
        <time>2014-05-04T11:57:59.000Z</time>
      </trkpt>
      <trkpt lat="44.00198" lon="7.17227">
        <ele>895.20001220703</ele>
        <time>2014-05-04T11:58:00.000Z</time>
      </trkpt>
      <trkpt lat="44.00204" lon="7.17213">
        <ele>901.40002441406</ele>
        <time>2014-05-04T11:58:02.000Z</time>
      </trkpt>
      <trkpt lat="44.00215" lon="7.17191">
        <ele>911</ele>
        <time>2014-05-04T11:58:06.000Z</time>
      </trkpt>
      <trkpt lat="44.00218" lon="7.17178">
        <ele>913.20001220703</ele>
        <time>2014-05-04T11:58:09.000Z</time>
      </trkpt>
      <trkpt lat="44.00224" lon="7.17169">
        <ele>915.20001220703</ele>
        <time>2014-05-04T11:58:11.000Z</time>
      </trkpt>
      <trkpt lat="44.00226" lon="7.17164">
        <ele>916</ele>
        <time>2014-05-04T11:58:12.000Z</time>
      </trkpt>
      <trkpt lat="44.00224" lon="7.17152">
        <ele>918</ele>
        <time>2014-05-04T11:58:15.000Z</time>
      </trkpt>
      <trkpt lat="44.00207" lon="7.17144">
        <ele>912.40002441406</ele>
        <time>2014-05-04T11:58:18.000Z</time>
      </trkpt>
      <trkpt lat="44.00204" lon="7.17141">
        <ele>911.79998779297</ele>
        <time>2014-05-04T11:58:19.000Z</time>
      </trkpt>
      <trkpt lat="44.00199" lon="7.17138">
        <ele>910.79998779297</ele>
        <time>2014-05-04T11:58:20.000Z</time>
      </trkpt>
      <trkpt lat="44.00187" lon="7.17131">
        <ele>907.79998779297</ele>
        <time>2014-05-04T11:58:23.000Z</time>
      </trkpt>
      <trkpt lat="44.00179" lon="7.17127">
        <ele>905.79998779297</ele>
        <time>2014-05-04T11:58:25.000Z</time>
      </trkpt>
      <trkpt lat="44.00172" lon="7.17125">
        <ele>903.40002441406</ele>
        <time>2014-05-04T11:58:27.000Z</time>
      </trkpt>
      <trkpt lat="44.00168" lon="7.17124">
        <ele>902</ele>
        <time>2014-05-04T11:58:28.000Z</time>
      </trkpt>
      <trkpt lat="44.0016" lon="7.17122">
        <ele>899.79998779297</ele>
        <time>2014-05-04T11:58:30.000Z</time>
      </trkpt>
      <trkpt lat="44.00153" lon="7.17119">
        <ele>897.40002441406</ele>
        <time>2014-05-04T11:58:33.000Z</time>
      </trkpt>
      <trkpt lat="44.00148" lon="7.17121">
        <ele>894.40002441406</ele>
        <time>2014-05-04T11:58:34.000Z</time>
      </trkpt>
      <trkpt lat="44.00138" lon="7.17124">
        <ele>890</ele>
        <time>2014-05-04T11:58:36.000Z</time>
      </trkpt>
      <trkpt lat="44.00116" lon="7.17132">
        <ele>879</ele>
        <time>2014-05-04T11:58:40.000Z</time>
      </trkpt>
      <trkpt lat="44.00111" lon="7.17134">
        <ele>876.20001220703</ele>
        <time>2014-05-04T11:58:41.000Z</time>
      </trkpt>
      <trkpt lat="44.001" lon="7.17135">
        <ele>869.40002441406</ele>
        <time>2014-05-04T11:58:43.000Z</time>
      </trkpt>
      <trkpt lat="44.00087" lon="7.1713">
        <ele>862.20001220703</ele>
        <time>2014-05-04T11:58:46.000Z</time>
      </trkpt>
      <trkpt lat="44.00078" lon="7.1713">
        <ele>856.79998779297</ele>
        <time>2014-05-04T11:58:48.000Z</time>
      </trkpt>
      <trkpt lat="44.00075" lon="7.17129">
        <ele>855</ele>
        <time>2014-05-04T11:58:49.000Z</time>
      </trkpt>
      <trkpt lat="44.00071" lon="7.17127">
        <ele>853.59997558594</ele>
        <time>2014-05-04T11:58:50.000Z</time>
      </trkpt>
      <trkpt lat="44.0007" lon="7.17116">
        <ele>855.59997558594</ele>
        <time>2014-05-04T11:58:53.000Z</time>
      </trkpt>
      <trkpt lat="44.00074" lon="7.17106">
        <ele>861.79998779297</ele>
        <time>2014-05-04T11:58:57.000Z</time>
      </trkpt>
      <trkpt lat="44.00077" lon="7.17099">
        <ele>866.20001220703</ele>
        <time>2014-05-04T11:58:59.000Z</time>
      </trkpt>
      <trkpt lat="44.00082" lon="7.17089">
        <ele>873</ele>
        <time>2014-05-04T11:59:01.000Z</time>
      </trkpt>
      <trkpt lat="44.00091" lon="7.17059">
        <ele>877.20001220703</ele>
        <time>2014-05-04T11:59:07.000Z</time>
      </trkpt>
      <trkpt lat="44.00091" lon="7.17053">
        <ele>875.40002441406</ele>
        <time>2014-05-04T11:59:08.000Z</time>
      </trkpt>
      <trkpt lat="44.00088" lon="7.17041">
        <ele>870.20001220703</ele>
        <time>2014-05-04T11:59:10.000Z</time>
      </trkpt>
      <trkpt lat="44.00086" lon="7.17031">
        <ele>866.40002441406</ele>
        <time>2014-05-04T11:59:12.000Z</time>
      </trkpt>
      <trkpt lat="44.00087" lon="7.17025">
        <ele>865.40002441406</ele>
        <time>2014-05-04T11:59:13.000Z</time>
      </trkpt>
      <trkpt lat="44.00094" lon="7.17007">
        <ele>865.59997558594</ele>
        <time>2014-05-04T11:59:16.000Z</time>
      </trkpt>
      <trkpt lat="44.00096" lon="7.17">
        <ele>865.20001220703</ele>
        <time>2014-05-04T11:59:17.000Z</time>
      </trkpt>
      <trkpt lat="44.00105" lon="7.16978">
        <ele>868</ele>
        <time>2014-05-04T11:59:20.000Z</time>
      </trkpt>
      <trkpt lat="44.00107" lon="7.16973">
        <ele>868.59997558594</ele>
        <time>2014-05-04T11:59:21.000Z</time>
      </trkpt>
      <trkpt lat="44.0011" lon="7.16971">
        <ele>870.20001220703</ele>
        <time>2014-05-04T11:59:22.000Z</time>
      </trkpt>
      <trkpt lat="44.00117" lon="7.16969">
        <ele>874.59997558594</ele>
        <time>2014-05-04T11:59:24.000Z</time>
      </trkpt>
      <trkpt lat="44.00121" lon="7.16966">
        <ele>877</ele>
        <time>2014-05-04T11:59:25.000Z</time>
      </trkpt>
      <trkpt lat="44.00128" lon="7.16951">
        <ele>880.40002441406</ele>
        <time>2014-05-04T11:59:28.000Z</time>
      </trkpt>
      <trkpt lat="44.00137" lon="7.16943">
        <ele>885.40002441406</ele>
        <time>2014-05-04T11:59:30.000Z</time>
      </trkpt>
      <trkpt lat="44.00143" lon="7.16936">
        <ele>889</ele>
        <time>2014-05-04T11:59:32.000Z</time>
      </trkpt>
      <trkpt lat="44.00146" lon="7.16932">
        <ele>890.20001220703</ele>
        <time>2014-05-04T11:59:33.000Z</time>
      </trkpt>
      <trkpt lat="44.00157" lon="7.16909">
        <ele>894.79998779297</ele>
        <time>2014-05-04T11:59:37.000Z</time>
      </trkpt>
      <trkpt lat="44.00162" lon="7.16891">
        <ele>905.40002441406</ele>
        <time>2014-05-04T11:59:41.000Z</time>
      </trkpt>
      <trkpt lat="44.00146" lon="7.16883">
        <ele>897.79998779297</ele>
        <time>2014-05-04T11:59:43.000Z</time>
      </trkpt>
      <trkpt lat="44.00133" lon="7.16879">
        <ele>891</ele>
        <time>2014-05-04T11:59:45.000Z</time>
      </trkpt>
      <trkpt lat="44.00119" lon="7.16874">
        <ele>883.79998779297</ele>
        <time>2014-05-04T11:59:48.000Z</time>
      </trkpt>
      <trkpt lat="44.00115" lon="7.16872">
        <ele>881.59997558594</ele>
        <time>2014-05-04T11:59:49.000Z</time>
      </trkpt>
      <trkpt lat="44.00101" lon="7.16867">
        <ele>874.59997558594</ele>
        <time>2014-05-04T11:59:52.000Z</time>
      </trkpt>
      <trkpt lat="44.00097" lon="7.16865">
        <ele>872.79998779297</ele>
        <time>2014-05-04T11:59:53.000Z</time>
      </trkpt>
      <trkpt lat="44.00092" lon="7.16864">
        <ele>870.40002441406</ele>
        <time>2014-05-04T11:59:54.000Z</time>
      </trkpt>
      <trkpt lat="44.00072" lon="7.16854">
        <ele>861</ele>
        <time>2014-05-04T11:59:58.000Z</time>
      </trkpt>
      <trkpt lat="44.00052" lon="7.16844">
        <ele>852.40002441406</ele>
        <time>2014-05-04T12:00:02.000Z</time>
      </trkpt>
      <trkpt lat="44.00043" lon="7.16838">
        <ele>848.59997558594</ele>
        <time>2014-05-04T12:00:04.000Z</time>
      </trkpt>
      <trkpt lat="44.00036" lon="7.16833">
        <ele>846.20001220703</ele>
        <time>2014-05-04T12:00:06.000Z</time>
      </trkpt>
      <trkpt lat="44.00033" lon="7.16825">
        <ele>846.79998779297</ele>
        <time>2014-05-04T12:00:08.000Z</time>
      </trkpt>
      <trkpt lat="44.00033" lon="7.16815">
        <ele>849.40002441406</ele>
        <time>2014-05-04T12:00:10.000Z</time>
      </trkpt>
      <trkpt lat="44.00035" lon="7.1681">
        <ele>851.79998779297</ele>
        <time>2014-05-04T12:00:11.000Z</time>
      </trkpt>
      <trkpt lat="44.00036" lon="7.16803">
        <ele>854.20001220703</ele>
        <time>2014-05-04T12:00:12.000Z</time>
      </trkpt>
      <trkpt lat="44.00041" lon="7.16784">
        <ele>862.59997558594</ele>
        <time>2014-05-04T12:00:15.000Z</time>
      </trkpt>
      <trkpt lat="44.00044" lon="7.16766">
        <ele>868.79998779297</ele>
        <time>2014-05-04T12:00:18.000Z</time>
      </trkpt>
      <trkpt lat="44.00031" lon="7.16752">
        <ele>864.20001220703</ele>
        <time>2014-05-04T12:00:22.000Z</time>
      </trkpt>
      <trkpt lat="44.0002" lon="7.16747">
        <ele>858.20001220703</ele>
        <time>2014-05-04T12:00:26.000Z</time>
      </trkpt>
      <trkpt lat="44.00017" lon="7.16736">
        <ele>854</ele>
        <time>2014-05-04T12:00:28.000Z</time>
      </trkpt>
      <trkpt lat="44.00014" lon="7.16725">
        <ele>849.59997558594</ele>
        <time>2014-05-04T12:00:30.000Z</time>
      </trkpt>
      <trkpt lat="44.00014" lon="7.16714">
        <ele>847.20001220703</ele>
        <time>2014-05-04T12:00:32.000Z</time>
      </trkpt>
      <trkpt lat="44.00016" lon="7.16705">
        <ele>846.79998779297</ele>
        <time>2014-05-04T12:00:34.000Z</time>
      </trkpt>
      <trkpt lat="44.00029" lon="7.16683">
        <ele>851</ele>
        <time>2014-05-04T12:00:38.000Z</time>
      </trkpt>
      <trkpt lat="44.00042" lon="7.16661">
        <ele>855.59997558594</ele>
        <time>2014-05-04T12:00:42.000Z</time>
      </trkpt>
      <trkpt lat="44.00044" lon="7.16657">
        <ele>855.20001220703</ele>
        <time>2014-05-04T12:00:43.000Z</time>
      </trkpt>
      <trkpt lat="44.00048" lon="7.1665">
        <ele>854.40002441406</ele>
        <time>2014-05-04T12:00:45.000Z</time>
      </trkpt>
      <trkpt lat="44.00051" lon="7.16642">
        <ele>852.79998779297</ele>
        <time>2014-05-04T12:00:47.000Z</time>
      </trkpt>
      <trkpt lat="44.00057" lon="7.16626">
        <ele>850.20001220703</ele>
        <time>2014-05-04T12:00:50.000Z</time>
      </trkpt>
      <trkpt lat="44.00062" lon="7.16617">
        <ele>848.79998779297</ele>
        <time>2014-05-04T12:00:52.000Z</time>
      </trkpt>
      <trkpt lat="44.00062" lon="7.16611">
        <ele>846</ele>
        <time>2014-05-04T12:00:53.000Z</time>
      </trkpt>
      <trkpt lat="44.00064" lon="7.16603">
        <ele>842.40002441406</ele>
        <time>2014-05-04T12:00:55.000Z</time>
      </trkpt>
      <trkpt lat="44.00076" lon="7.16581">
        <ele>837.79998779297</ele>
        <time>2014-05-04T12:01:00.000Z</time>
      </trkpt>
      <trkpt lat="44.00079" lon="7.16578">
        <ele>838.20001220703</ele>
        <time>2014-05-04T12:01:01.000Z</time>
      </trkpt>
      <trkpt lat="44.00093" lon="7.16563">
        <ele>845.40002441406</ele>
        <time>2014-05-04T12:01:06.000Z</time>
      </trkpt>
      <trkpt lat="44.00107" lon="7.1654">
        <ele>848.20001220703</ele>
        <time>2014-05-04T12:01:12.000Z</time>
      </trkpt>
      <trkpt lat="44.00112" lon="7.16522">
        <ele>847.40002441406</ele>
        <time>2014-05-04T12:01:17.000Z</time>
      </trkpt>
      <trkpt lat="44.0011" lon="7.16518">
        <ele>845.59997558594</ele>
        <time>2014-05-04T12:01:19.000Z</time>
      </trkpt>
      <trkpt lat="44.00107" lon="7.16509">
        <ele>842.40002441406</ele>
        <time>2014-05-04T12:01:21.000Z</time>
      </trkpt>
      <trkpt lat="44.0011" lon="7.16489">
        <ele>843.59997558594</ele>
        <time>2014-05-04T12:01:24.000Z</time>
      </trkpt>
      <trkpt lat="44.00112" lon="7.16481">
        <ele>848.20001220703</ele>
        <time>2014-05-04T12:01:27.000Z</time>
      </trkpt>
      <trkpt lat="44.00112" lon="7.1648">
        <ele>849.20001220703</ele>
        <time>2014-05-04T12:01:28.000Z</time>
      </trkpt>
      <trkpt lat="44.00112" lon="7.16479">
        <ele>849</ele>
        <time>2014-05-04T12:01:32.000Z</time>
      </trkpt>
      <trkpt lat="44.00112" lon="7.16475">
        <ele>850.59997558594</ele>
        <time>2014-05-04T12:01:36.000Z</time>
      </trkpt>
      <trkpt lat="44.0011" lon="7.16474">
        <ele>850</ele>
        <time>2014-05-04T12:01:41.000Z</time>
      </trkpt>
      <trkpt lat="44.00103" lon="7.16469">
        <ele>848.79998779297</ele>
        <time>2014-05-04T12:01:49.000Z</time>
      </trkpt>
      <trkpt lat="44.00088" lon="7.16464">
        <ele>844.79998779297</ele>
        <time>2014-05-04T12:01:53.000Z</time>
      </trkpt>
      <trkpt lat="44.00064" lon="7.1646">
        <ele>834.59997558594</ele>
        <time>2014-05-04T12:01:57.000Z</time>
      </trkpt>
      <trkpt lat="44.00058" lon="7.16457">
        <ele>833</ele>
        <time>2014-05-04T12:01:59.000Z</time>
      </trkpt>
      <trkpt lat="44.00055" lon="7.16453">
        <ele>833.40002441406</ele>
        <time>2014-05-04T12:02:00.000Z</time>
      </trkpt>
      <trkpt lat="44.00052" lon="7.16429">
        <ele>844.40002441406</ele>
        <time>2014-05-04T12:02:03.000Z</time>
      </trkpt>
      <trkpt lat="44.00052" lon="7.16423">
        <ele>846.79998779297</ele>
        <time>2014-05-04T12:02:04.000Z</time>
      </trkpt>
      <trkpt lat="44.00053" lon="7.16418">
        <ele>849.20001220703</ele>
        <time>2014-05-04T12:02:06.000Z</time>
      </trkpt>
      <trkpt lat="44.00053" lon="7.16415">
        <ele>850.59997558594</ele>
        <time>2014-05-04T12:02:10.000Z</time>
      </trkpt>
      <trkpt lat="44.00052" lon="7.16414">
        <ele>850.59997558594</ele>
        <time>2014-05-04T12:02:11.000Z</time>
      </trkpt>
      <trkpt lat="44.00048" lon="7.16409">
        <ele>851.40002441406</ele>
        <time>2014-05-04T12:02:15.000Z</time>
      </trkpt>
      <trkpt lat="44.00043" lon="7.1641">
        <ele>848.40002441406</ele>
        <time>2014-05-04T12:02:20.000Z</time>
      </trkpt>
      <trkpt lat="44.00042" lon="7.16408">
        <ele>849.59997558594</ele>
        <time>2014-05-04T12:02:21.000Z</time>
      </trkpt>
      <trkpt lat="44.00039" lon="7.16407">
        <ele>848.79998779297</ele>
        <time>2014-05-04T12:02:24.000Z</time>
      </trkpt>
      <trkpt lat="44.00032" lon="7.16406">
        <ele>846</ele>
        <time>2014-05-04T12:02:29.000Z</time>
      </trkpt>
      <trkpt lat="44.0001" lon="7.16404">
        <ele>842</ele>
        <time>2014-05-04T12:02:33.000Z</time>
      </trkpt>
      <trkpt lat="43.99998" lon="7.16401">
        <ele>842.20001220703</ele>
        <time>2014-05-04T12:02:35.000Z</time>
      </trkpt>
      <trkpt lat="43.99981" lon="7.1639">
        <ele>845.59997558594</ele>
        <time>2014-05-04T12:02:38.000Z</time>
      </trkpt>
      <trkpt lat="43.99971" lon="7.16384">
        <ele>847.59997558594</ele>
        <time>2014-05-04T12:02:41.000Z</time>
      </trkpt>
      <trkpt lat="43.99959" lon="7.16385">
        <ele>845.59997558594</ele>
        <time>2014-05-04T12:02:45.000Z</time>
      </trkpt>
      <trkpt lat="43.99945" lon="7.16396">
        <ele>839.20001220703</ele>
        <time>2014-05-04T12:02:48.000Z</time>
      </trkpt>
      <trkpt lat="43.99941" lon="7.16396">
        <ele>838.79998779297</ele>
        <time>2014-05-04T12:02:49.000Z</time>
      </trkpt>
      <trkpt lat="43.9992" lon="7.16398">
        <ele>832.59997558594</ele>
        <time>2014-05-04T12:02:53.000Z</time>
      </trkpt>
      <trkpt lat="43.99897" lon="7.16393">
        <ele>830.79998779297</ele>
        <time>2014-05-04T12:02:58.000Z</time>
      </trkpt>
      <trkpt lat="43.99887" lon="7.16396">
        <ele>828.79998779297</ele>
        <time>2014-05-04T12:03:00.000Z</time>
      </trkpt>
      <trkpt lat="43.99869" lon="7.16403">
        <ele>824.59997558594</ele>
        <time>2014-05-04T12:03:03.000Z</time>
      </trkpt>
      <trkpt lat="43.99857" lon="7.16405">
        <ele>821.79998779297</ele>
        <time>2014-05-04T12:03:05.000Z</time>
      </trkpt>
      <trkpt lat="43.99842" lon="7.16405">
        <ele>816</ele>
        <time>2014-05-04T12:03:07.000Z</time>
      </trkpt>
      <trkpt lat="43.99831" lon="7.16403">
        <ele>812.40002441406</ele>
        <time>2014-05-04T12:03:09.000Z</time>
      </trkpt>
      <trkpt lat="43.9982" lon="7.16397">
        <ele>809.20001220703</ele>
        <time>2014-05-04T12:03:11.000Z</time>
      </trkpt>
      <trkpt lat="43.99808" lon="7.1639">
        <ele>806</ele>
        <time>2014-05-04T12:03:13.000Z</time>
      </trkpt>
      <trkpt lat="43.99803" lon="7.16387">
        <ele>804.59997558594</ele>
        <time>2014-05-04T12:03:14.000Z</time>
      </trkpt>
      <trkpt lat="43.99792" lon="7.16382">
        <ele>801.40002441406</ele>
        <time>2014-05-04T12:03:16.000Z</time>
      </trkpt>
      <trkpt lat="43.99778" lon="7.1636">
        <ele>799.20001220703</ele>
        <time>2014-05-04T12:03:20.000Z</time>
      </trkpt>
      <trkpt lat="43.99778" lon="7.16348">
        <ele>800.79998779297</ele>
        <time>2014-05-04T12:03:22.000Z</time>
      </trkpt>
      <trkpt lat="43.9978" lon="7.16343">
        <ele>801.79998779297</ele>
        <time>2014-05-04T12:03:23.000Z</time>
      </trkpt>
      <trkpt lat="43.99783" lon="7.16329">
        <ele>805.40002441406</ele>
        <time>2014-05-04T12:03:25.000Z</time>
      </trkpt>
      <trkpt lat="43.99788" lon="7.16315">
        <ele>807.40002441406</ele>
        <time>2014-05-04T12:03:27.000Z</time>
      </trkpt>
      <trkpt lat="43.99799" lon="7.16291">
        <ele>810.20001220703</ele>
        <time>2014-05-04T12:03:31.000Z</time>
      </trkpt>
      <trkpt lat="43.99803" lon="7.16279">
        <ele>811</ele>
        <time>2014-05-04T12:03:33.000Z</time>
      </trkpt>
      <trkpt lat="43.99799" lon="7.16255">
        <ele>807.20001220703</ele>
        <time>2014-05-04T12:03:37.000Z</time>
      </trkpt>
      <trkpt lat="43.99783" lon="7.16229">
        <ele>799</ele>
        <time>2014-05-04T12:03:42.000Z</time>
      </trkpt>
      <trkpt lat="43.9978" lon="7.16225">
        <ele>797.20001220703</ele>
        <time>2014-05-04T12:03:43.000Z</time>
      </trkpt>
      <trkpt lat="43.99772" lon="7.16216">
        <ele>793.79998779297</ele>
        <time>2014-05-04T12:03:45.000Z</time>
      </trkpt>
      <trkpt lat="43.99764" lon="7.16202">
        <ele>791.40002441406</ele>
        <time>2014-05-04T12:03:48.000Z</time>
      </trkpt>
      <trkpt lat="43.99761" lon="7.16199">
        <ele>790.40002441406</ele>
        <time>2014-05-04T12:03:49.000Z</time>
      </trkpt>
      <trkpt lat="43.99749" lon="7.16183">
        <ele>786.40002441406</ele>
        <time>2014-05-04T12:03:53.000Z</time>
      </trkpt>
      <trkpt lat="43.99744" lon="7.16174">
        <ele>784.79998779297</ele>
        <time>2014-05-04T12:03:55.000Z</time>
      </trkpt>
      <trkpt lat="43.99743" lon="7.16158">
        <ele>785</ele>
        <time>2014-05-04T12:03:58.000Z</time>
      </trkpt>
      <trkpt lat="43.99753" lon="7.16148">
        <ele>787.79998779297</ele>
        <time>2014-05-04T12:04:01.000Z</time>
      </trkpt>
      <trkpt lat="43.99761" lon="7.16143">
        <ele>789.59997558594</ele>
        <time>2014-05-04T12:04:05.000Z</time>
      </trkpt>
      <trkpt lat="43.99761" lon="7.16143">
        <ele>789.59997558594</ele>
        <time>2014-05-04T12:04:06.000Z</time>
      </trkpt>
      <trkpt lat="43.99758" lon="7.16143">
        <ele>789</ele>
        <time>2014-05-04T12:04:07.000Z</time>
      </trkpt>
      <trkpt lat="43.99754" lon="7.16144">
        <ele>787.79998779297</ele>
        <time>2014-05-04T12:04:08.000Z</time>
      </trkpt>
      <trkpt lat="43.99737" lon="7.16148">
        <ele>781.79998779297</ele>
        <time>2014-05-04T12:04:14.000Z</time>
      </trkpt>
      <trkpt lat="43.99727" lon="7.16147">
        <ele>778.20001220703</ele>
        <time>2014-05-04T12:04:19.000Z</time>
      </trkpt>
      <trkpt lat="43.99735" lon="7.16139">
        <ele>780.20001220703</ele>
        <time>2014-05-04T12:04:22.000Z</time>
      </trkpt>
      <trkpt lat="43.99737" lon="7.16138">
        <ele>781</ele>
        <time>2014-05-04T12:04:23.000Z</time>
      </trkpt>
      <trkpt lat="43.99741" lon="7.16134">
        <ele>782</ele>
        <time>2014-05-04T12:04:25.000Z</time>
      </trkpt>
      <trkpt lat="43.99738" lon="7.16134">
        <ele>780.79998779297</ele>
        <time>2014-05-04T12:04:27.000Z</time>
      </trkpt>
      <trkpt lat="43.99724" lon="7.16136">
        <ele>776</ele>
        <time>2014-05-04T12:04:30.000Z</time>
      </trkpt>
      <trkpt lat="43.99707" lon="7.1614">
        <ele>770</ele>
        <time>2014-05-04T12:04:35.000Z</time>
      </trkpt>
      <trkpt lat="43.99704" lon="7.16139">
        <ele>768.79998779297</ele>
        <time>2014-05-04T12:04:37.000Z</time>
      </trkpt>
      <trkpt lat="43.99705" lon="7.16136">
        <ele>768.79998779297</ele>
        <time>2014-05-04T12:04:39.000Z</time>
      </trkpt>
      <trkpt lat="43.99705" lon="7.16135">
        <ele>769</ele>
        <time>2014-05-04T12:04:41.000Z</time>
      </trkpt>
      <trkpt lat="43.99708" lon="7.16132">
        <ele>769.40002441406</ele>
        <time>2014-05-04T12:04:45.000Z</time>
      </trkpt>
      <trkpt lat="43.9971" lon="7.16128">
        <ele>770</ele>
        <time>2014-05-04T12:04:46.000Z</time>
      </trkpt>
      <trkpt lat="43.99715" lon="7.16125">
        <ele>771.59997558594</ele>
        <time>2014-05-04T12:04:48.000Z</time>
      </trkpt>
      <trkpt lat="43.99724" lon="7.16114">
        <ele>774.20001220703</ele>
        <time>2014-05-04T12:04:51.000Z</time>
      </trkpt>
      <trkpt lat="43.99731" lon="7.1611">
        <ele>774.79998779297</ele>
        <time>2014-05-04T12:04:53.000Z</time>
      </trkpt>
      <trkpt lat="43.99747" lon="7.16094">
        <ele>772.79998779297</ele>
        <time>2014-05-04T12:04:58.000Z</time>
      </trkpt>
      <trkpt lat="43.99762" lon="7.16084">
        <ele>771.79998779297</ele>
        <time>2014-05-04T12:05:02.000Z</time>
      </trkpt>
      <trkpt lat="43.99767" lon="7.16082">
        <ele>772</ele>
        <time>2014-05-04T12:05:03.000Z</time>
      </trkpt>
      <trkpt lat="43.99774" lon="7.16071">
        <ele>770</ele>
        <time>2014-05-04T12:05:06.000Z</time>
      </trkpt>
      <trkpt lat="43.99784" lon="7.16062">
        <ele>770.20001220703</ele>
        <time>2014-05-04T12:05:10.000Z</time>
      </trkpt>
      <trkpt lat="43.99798" lon="7.16055">
        <ele>772.20001220703</ele>
        <time>2014-05-04T12:05:14.000Z</time>
      </trkpt>
      <trkpt lat="43.99806" lon="7.16046">
        <ele>772</ele>
        <time>2014-05-04T12:05:16.000Z</time>
      </trkpt>
      <trkpt lat="43.99813" lon="7.1604">
        <ele>772</ele>
        <time>2014-05-04T12:05:18.000Z</time>
      </trkpt>
      <trkpt lat="43.99826" lon="7.1602">
        <ele>772.79998779297</ele>
        <time>2014-05-04T12:05:23.000Z</time>
      </trkpt>
      <trkpt lat="43.99834" lon="7.16004">
        <ele>773</ele>
        <time>2014-05-04T12:05:28.000Z</time>
      </trkpt>
      <trkpt lat="43.99827" lon="7.16006">
        <ele>770.59997558594</ele>
        <time>2014-05-04T12:05:29.000Z</time>
      </trkpt>
      <trkpt lat="43.99821" lon="7.16006">
        <ele>768.40002441406</ele>
        <time>2014-05-04T12:05:30.000Z</time>
      </trkpt>
      <trkpt lat="43.99802" lon="7.16004">
        <ele>760.59997558594</ele>
        <time>2014-05-04T12:05:33.000Z</time>
      </trkpt>
      <trkpt lat="43.99796" lon="7.16001">
        <ele>757.40002441406</ele>
        <time>2014-05-04T12:05:34.000Z</time>
      </trkpt>
      <trkpt lat="43.99779" lon="7.1599">
        <ele>750.79998779297</ele>
        <time>2014-05-04T12:05:37.000Z</time>
      </trkpt>
      <trkpt lat="43.99773" lon="7.15985">
        <ele>749</ele>
        <time>2014-05-04T12:05:38.000Z</time>
      </trkpt>
      <trkpt lat="43.99748" lon="7.15967">
        <ele>739</ele>
        <time>2014-05-04T12:05:42.000Z</time>
      </trkpt>
      <trkpt lat="43.99714" lon="7.15938">
        <ele>727.20001220703</ele>
        <time>2014-05-04T12:05:46.000Z</time>
      </trkpt>
      <trkpt lat="43.99674" lon="7.15895">
        <ele>710.20001220703</ele>
        <time>2014-05-04T12:05:51.000Z</time>
      </trkpt>
      <trkpt lat="43.99663" lon="7.15857">
        <ele>709</ele>
        <time>2014-05-04T12:05:54.000Z</time>
      </trkpt>
      <trkpt lat="43.99639" lon="7.15796">
        <ele>701.40002441406</ele>
        <time>2014-05-04T12:05:59.000Z</time>
      </trkpt>
      <trkpt lat="43.99637" lon="7.15783">
        <ele>700.79998779297</ele>
        <time>2014-05-04T12:06:00.000Z</time>
      </trkpt>
      <trkpt lat="43.99636" lon="7.15755">
        <ele>702.40002441406</ele>
        <time>2014-05-04T12:06:02.000Z</time>
      </trkpt>
      <trkpt lat="43.99645" lon="7.15706">
        <ele>704.40002441406</ele>
        <time>2014-05-04T12:06:05.000Z</time>
      </trkpt>
      <trkpt lat="43.99664" lon="7.15627">
        <ele>707.59997558594</ele>
        <time>2014-05-04T12:06:10.000Z</time>
      </trkpt>
      <trkpt lat="43.99671" lon="7.15583">
        <ele>713</ele>
        <time>2014-05-04T12:06:14.000Z</time>
      </trkpt>
      <trkpt lat="43.99661" lon="7.15574">
        <ele>707.20001220703</ele>
        <time>2014-05-04T12:06:15.000Z</time>
      </trkpt>
      <trkpt lat="43.99652" lon="7.1557">
        <ele>702.40002441406</ele>
        <time>2014-05-04T12:06:16.000Z</time>
      </trkpt>
      <trkpt lat="43.99634" lon="7.15565">
        <ele>692</ele>
        <time>2014-05-04T12:06:18.000Z</time>
      </trkpt>
      <trkpt lat="43.99631" lon="7.15556">
        <ele>691</ele>
        <time>2014-05-04T12:06:19.000Z</time>
      </trkpt>
      <trkpt lat="43.99619" lon="7.15536">
        <ele>686.59997558594</ele>
        <time>2014-05-04T12:06:22.000Z</time>
      </trkpt>
      <trkpt lat="43.99616" lon="7.15526">
        <ele>686.40002441406</ele>
        <time>2014-05-04T12:06:23.000Z</time>
      </trkpt>
      <trkpt lat="43.9961" lon="7.15502">
        <ele>686.20001220703</ele>
        <time>2014-05-04T12:06:26.000Z</time>
      </trkpt>
      <trkpt lat="43.99606" lon="7.15486">
        <ele>685.79998779297</ele>
        <time>2014-05-04T12:06:29.000Z</time>
      </trkpt>
      <trkpt lat="43.99605" lon="7.15483">
        <ele>685.59997558594</ele>
        <time>2014-05-04T12:06:30.000Z</time>
      </trkpt>
      <trkpt lat="43.99608" lon="7.1549">
        <ele>686.40002441406</ele>
        <time>2014-05-04T12:06:33.000Z</time>
      </trkpt>
      <trkpt lat="43.99609" lon="7.15492">
        <ele>687</ele>
        <time>2014-05-04T12:06:34.000Z</time>
      </trkpt>
      <trkpt lat="43.99611" lon="7.15495">
        <ele>687.20001220703</ele>
        <time>2014-05-04T12:06:37.000Z</time>
      </trkpt>
      <trkpt lat="43.99611" lon="7.15497">
        <ele>687.20001220703</ele>
        <time>2014-05-04T12:06:38.000Z</time>
      </trkpt>
      <trkpt lat="43.99614" lon="7.15504">
        <ele>688.20001220703</ele>
        <time>2014-05-04T12:06:43.000Z</time>
      </trkpt>
      <trkpt lat="43.99611" lon="7.15496">
        <ele>687.79998779297</ele>
        <time>2014-05-04T12:06:48.000Z</time>
      </trkpt>
      <trkpt lat="43.99611" lon="7.15494">
        <ele>687.59997558594</ele>
        <time>2014-05-04T12:06:50.000Z</time>
      </trkpt>
      <trkpt lat="43.9961" lon="7.15497">
        <ele>686.40002441406</ele>
        <time>2014-05-04T12:06:54.000Z</time>
      </trkpt>
      <trkpt lat="43.99605" lon="7.15483">
        <ele>685.20001220703</ele>
        <time>2014-05-04T12:07:15.000Z</time>
      </trkpt>
      <trkpt lat="43.9959" lon="7.15467">
        <ele>677.59997558594</ele>
        <time>2014-05-04T12:07:19.000Z</time>
      </trkpt>
      <trkpt lat="43.99583" lon="7.15439">
        <ele>676</ele>
        <time>2014-05-04T12:07:23.000Z</time>
      </trkpt>
      <trkpt lat="43.99583" lon="7.15431">
        <ele>677.40002441406</ele>
        <time>2014-05-04T12:07:24.000Z</time>
      </trkpt>
      <trkpt lat="43.9958" lon="7.15418">
        <ele>677.40002441406</ele>
        <time>2014-05-04T12:07:26.000Z</time>
      </trkpt>
      <trkpt lat="43.99579" lon="7.15403">
        <ele>677.59997558594</ele>
        <time>2014-05-04T12:07:28.000Z</time>
      </trkpt>
      <trkpt lat="43.99581" lon="7.15378">
        <ele>679.59997558594</ele>
        <time>2014-05-04T12:07:32.000Z</time>
      </trkpt>
      <trkpt lat="43.99583" lon="7.15369">
        <ele>680</ele>
        <time>2014-05-04T12:07:33.000Z</time>
      </trkpt>
      <trkpt lat="43.99598" lon="7.15329">
        <ele>683.79998779297</ele>
        <time>2014-05-04T12:07:38.000Z</time>
      </trkpt>
      <trkpt lat="43.99623" lon="7.15276">
        <ele>686.79998779297</ele>
        <time>2014-05-04T12:07:44.000Z</time>
      </trkpt>
      <trkpt lat="43.99637" lon="7.15234">
        <ele>685.59997558594</ele>
        <time>2014-05-04T12:07:49.000Z</time>
      </trkpt>
      <trkpt lat="43.99643" lon="7.15207">
        <ele>685.20001220703</ele>
        <time>2014-05-04T12:07:52.000Z</time>
      </trkpt>
      <trkpt lat="43.99649" lon="7.15183">
        <ele>684</ele>
        <time>2014-05-04T12:07:55.000Z</time>
      </trkpt>
      <trkpt lat="43.99653" lon="7.15167">
        <ele>682.59997558594</ele>
        <time>2014-05-04T12:07:57.000Z</time>
      </trkpt>
      <trkpt lat="43.99657" lon="7.1514">
        <ele>684.40002441406</ele>
        <time>2014-05-04T12:08:00.000Z</time>
      </trkpt>
      <trkpt lat="43.99674" lon="7.15096">
        <ele>687</ele>
        <time>2014-05-04T12:08:05.000Z</time>
      </trkpt>
      <trkpt lat="43.99675" lon="7.15088">
        <ele>686.59997558594</ele>
        <time>2014-05-04T12:08:06.000Z</time>
      </trkpt>
      <trkpt lat="43.99675" lon="7.15073">
        <ele>686.20001220703</ele>
        <time>2014-05-04T12:08:08.000Z</time>
      </trkpt>
      <trkpt lat="43.99675" lon="7.15067">
        <ele>687</ele>
        <time>2014-05-04T12:08:09.000Z</time>
      </trkpt>
      <trkpt lat="43.99674" lon="7.15058">
        <ele>687.59997558594</ele>
        <time>2014-05-04T12:08:11.000Z</time>
      </trkpt>
      <trkpt lat="43.9967" lon="7.15056">
        <ele>687.20001220703</ele>
        <time>2014-05-04T12:08:12.000Z</time>
      </trkpt>
      <trkpt lat="43.99658" lon="7.15041">
        <ele>685.40002441406</ele>
        <time>2014-05-04T12:08:18.000Z</time>
      </trkpt>
      <trkpt lat="43.99657" lon="7.15034">
        <ele>685</ele>
        <time>2014-05-04T12:08:22.000Z</time>
      </trkpt>
      <trkpt lat="43.99657" lon="7.15025">
        <ele>684.59997558594</ele>
        <time>2014-05-04T12:08:27.000Z</time>
      </trkpt>
      <trkpt lat="43.99657" lon="7.15022">
        <ele>684.40002441406</ele>
        <time>2014-05-04T12:08:29.000Z</time>
      </trkpt>
      <trkpt lat="43.99658" lon="7.15018">
        <ele>684.40002441406</ele>
        <time>2014-05-04T12:08:33.000Z</time>
      </trkpt>
      <trkpt lat="43.99659" lon="7.15013">
        <ele>684.20001220703</ele>
        <time>2014-05-04T12:08:45.000Z</time>
      </trkpt>
    </trkseg>
  </trk>
</gpx>